<?xml version="1.0" encoding="utf-8"?>
<gpx xmlns:xsi="http://www.w3.org/2001/XMLSchema-instance" xmlns:xsd="http://www.w3.org/2001/XMLSchema" version="1.1" creator="Shapelink.com" xmlns="http://www.topografix.com/GPX/1/1" xmlns:gpxtpx="http://www.garmin.com/xmlschemas/TrackPointExtension/v1">
  <metadata>
    <name>Löpning 10.65 km, 2018-02-08</name>
    <desc></desc>
    <author><name>Bengt-Åke Forslund</name></author> 
    <time>2018-02-08T12:06:58Z</time>
  </metadata>
  <trk>
    <name>Löpning 10.65 km, 2018-02-08</name>
    <trkseg>
      <trkpt lat="62.641635872271" lon="17.899156266727">
        <ele>47</ele>
        <time>2018-02-08T12:06:58Z</time>
      </trkpt>
      <trkpt lat="62.64171223138" lon="17.89879810814">
        <ele>47.4</ele>
        <time>2018-02-08T12:08:37Z</time>
      </trkpt>
      <trkpt lat="62.641717595796" lon="17.898754773717">
        <ele>47.4</ele>
        <time>2018-02-08T12:08:38Z</time>
      </trkpt>
      <trkpt lat="62.641721702927" lon="17.898709930552">
        <ele>47.4</ele>
        <time>2018-02-08T12:08:39Z</time>
      </trkpt>
      <trkpt lat="62.641725558601" lon="17.898666260853">
        <ele>47.4</ele>
        <time>2018-02-08T12:08:40Z</time>
      </trkpt>
      <trkpt lat="62.641727821714" lon="17.898618232566">
        <ele>47.2</ele>
        <time>2018-02-08T12:08:41Z</time>
      </trkpt>
      <trkpt lat="62.641733689044" lon="17.898563498759">
        <ele>47.2</ele>
        <time>2018-02-08T12:08:42Z</time>
      </trkpt>
      <trkpt lat="62.641738634365" lon="17.898503232898">
        <ele>47.2</ele>
        <time>2018-02-08T12:08:43Z</time>
      </trkpt>
      <trkpt lat="62.641744753152" lon="17.898417402242">
        <ele>47.2</ele>
        <time>2018-02-08T12:08:45Z</time>
      </trkpt>
      <trkpt lat="62.641749363197" lon="17.89837733676">
        <ele>47.2</ele>
        <time>2018-02-08T12:08:46Z</time>
      </trkpt>
      <trkpt lat="62.641756823088" lon="17.898314723967">
        <ele>47</ele>
        <time>2018-02-08T12:08:47Z</time>
      </trkpt>
      <trkpt lat="62.641763528608" lon="17.89821053695">
        <ele>47</ele>
        <time>2018-02-08T12:08:48Z</time>
      </trkpt>
      <trkpt lat="62.64177006649" lon="17.898135183669">
        <ele>46.8</ele>
        <time>2018-02-08T12:08:49Z</time>
      </trkpt>
      <trkpt lat="62.641777023467" lon="17.898049520651">
        <ele>46.8</ele>
        <time>2018-02-08T12:08:50Z</time>
      </trkpt>
      <trkpt lat="62.641781382055" lon="17.897964863461">
        <ele>46.6</ele>
        <time>2018-02-08T12:08:51Z</time>
      </trkpt>
      <trkpt lat="62.641786578833" lon="17.897871824371">
        <ele>46.4</ele>
        <time>2018-02-08T12:08:52Z</time>
      </trkpt>
      <trkpt lat="62.64178934486" lon="17.897788508285">
        <ele>46</ele>
        <time>2018-02-08T12:08:53Z</time>
      </trkpt>
      <trkpt lat="62.641784148082" lon="17.897698905774">
        <ele>45.6</ele>
        <time>2018-02-08T12:08:54Z</time>
      </trkpt>
      <trkpt lat="62.641765288807" lon="17.897627575805">
        <ele>45</ele>
        <time>2018-02-08T12:08:55Z</time>
      </trkpt>
      <trkpt lat="62.641745675161" lon="17.897598155336">
        <ele>44.6</ele>
        <time>2018-02-08T12:08:56Z</time>
      </trkpt>
      <trkpt lat="62.641720445642" lon="17.897572506722">
        <ele>44.4</ele>
        <time>2018-02-08T12:08:57Z</time>
      </trkpt>
      <trkpt lat="62.641695216123" lon="17.897583906106">
        <ele>44.4</ele>
        <time>2018-02-08T12:08:58Z</time>
      </trkpt>
      <trkpt lat="62.641679877246" lon="17.897601340458">
        <ele>44.6</ele>
        <time>2018-02-08T12:08:59Z</time>
      </trkpt>
      <trkpt lat="62.641667052939" lon="17.897634616601">
        <ele>44.6</ele>
        <time>2018-02-08T12:09:00Z</time>
      </trkpt>
      <trkpt lat="62.641652468433" lon="17.897667306011">
        <ele>44.6</ele>
        <time>2018-02-08T12:09:01Z</time>
      </trkpt>
      <trkpt lat="62.641624724344" lon="17.897712149176">
        <ele>44.8</ele>
        <time>2018-02-08T12:09:02Z</time>
      </trkpt>
      <trkpt lat="62.641599746282" lon="17.8977453415">
        <ele>44.8</ele>
        <time>2018-02-08T12:09:03Z</time>
      </trkpt>
      <trkpt lat="62.641576109324" lon="17.897770738657">
        <ele>44.4</ele>
        <time>2018-02-08T12:09:04Z</time>
      </trkpt>
      <trkpt lat="62.641552640004" lon="17.897791525769">
        <ele>44.4</ele>
        <time>2018-02-08T12:09:05Z</time>
      </trkpt>
      <trkpt lat="62.641526237019" lon="17.897818347849">
        <ele>44.4</ele>
        <time>2018-02-08T12:09:06Z</time>
      </trkpt>
      <trkpt lat="62.64150436026" lon="17.897855228209">
        <ele>44.4</ele>
        <time>2018-02-08T12:09:07Z</time>
      </trkpt>
      <trkpt lat="62.641487847917" lon="17.897879032805">
        <ele>44.4</ele>
        <time>2018-02-08T12:09:08Z</time>
      </trkpt>
      <trkpt lat="62.641471587031" lon="17.897897724442">
        <ele>44.4</ele>
        <time>2018-02-08T12:09:09Z</time>
      </trkpt>
      <trkpt lat="62.641450380824" lon="17.897919182106">
        <ele>44.4</ele>
        <time>2018-02-08T12:09:10Z</time>
      </trkpt>
      <trkpt lat="62.641437807974" lon="17.897936365001">
        <ele>44.4</ele>
        <time>2018-02-08T12:09:11Z</time>
      </trkpt>
      <trkpt lat="62.641412578455" lon="17.897964360547">
        <ele>44.6</ele>
        <time>2018-02-08T12:09:12Z</time>
      </trkpt>
      <trkpt lat="62.64139791013" lon="17.897974837922">
        <ele>44.6</ele>
        <time>2018-02-08T12:09:13Z</time>
      </trkpt>
      <trkpt lat="62.641378128846" lon="17.897993613378">
        <ele>45</ele>
        <time>2018-02-08T12:09:14Z</time>
      </trkpt>
      <trkpt lat="62.64136019158" lon="17.898011215368">
        <ele>45.2</ele>
        <time>2018-02-08T12:09:15Z</time>
      </trkpt>
      <trkpt lat="62.641342505771" lon="17.898028314444">
        <ele>45.4</ele>
        <time>2018-02-08T12:09:16Z</time>
      </trkpt>
      <trkpt lat="62.641329346188" lon="17.898036863982">
        <ele>45.6</ele>
        <time>2018-02-08T12:09:17Z</time>
      </trkpt>
      <trkpt lat="62.641305038678" lon="17.898057818732">
        <ele>45.8</ele>
        <time>2018-02-08T12:09:18Z</time>
      </trkpt>
      <trkpt lat="62.641289699801" lon="17.898070810677">
        <ele>46</ele>
        <time>2018-02-08T12:09:19Z</time>
      </trkpt>
      <trkpt lat="62.641271846354" lon="17.898086568649">
        <ele>46.2</ele>
        <time>2018-02-08T12:09:20Z</time>
      </trkpt>
      <trkpt lat="62.641253909088" lon="17.898097800395">
        <ele>46.2</ele>
        <time>2018-02-08T12:09:21Z</time>
      </trkpt>
      <trkpt lat="62.641230775044" lon="17.898113474548">
        <ele>46.4</ele>
        <time>2018-02-08T12:09:22Z</time>
      </trkpt>
      <trkpt lat="62.641213592149" lon="17.898129819253">
        <ele>46.8</ele>
        <time>2018-02-08T12:09:23Z</time>
      </trkpt>
      <trkpt lat="62.641186350974" lon="17.898142811198">
        <ele>46.8</ele>
        <time>2018-02-08T12:09:24Z</time>
      </trkpt>
      <trkpt lat="62.641160953817" lon="17.898149181442">
        <ele>47</ele>
        <time>2018-02-08T12:09:25Z</time>
      </trkpt>
      <trkpt lat="62.641144860569" lon="17.898153288573">
        <ele>47</ele>
        <time>2018-02-08T12:09:26Z</time>
      </trkpt>
      <trkpt lat="62.641111919702" lon="17.898145912501">
        <ele>47</ele>
        <time>2018-02-08T12:09:27Z</time>
      </trkpt>
      <trkpt lat="62.641085684355" lon="17.89813174709">
        <ele>47.2</ele>
        <time>2018-02-08T12:09:28Z</time>
      </trkpt>
      <trkpt lat="62.641066489804" lon="17.898113055453">
        <ele>47.2</ele>
        <time>2018-02-08T12:09:29Z</time>
      </trkpt>
      <trkpt lat="62.641048887814" lon="17.898089083219">
        <ele>47.2</ele>
        <time>2018-02-08T12:09:30Z</time>
      </trkpt>
      <trkpt lat="62.641035141498" lon="17.898061842044">
        <ele>47</ele>
        <time>2018-02-08T12:09:31Z</time>
      </trkpt>
      <trkpt lat="62.641019467345" lon="17.89802781153">
        <ele>47.2</ele>
        <time>2018-02-08T12:09:32Z</time>
      </trkpt>
      <trkpt lat="62.641006978314" lon="17.897991014989">
        <ele>47.4</ele>
        <time>2018-02-08T12:09:33Z</time>
      </trkpt>
      <trkpt lat="62.640998847871" lon="17.897942902883">
        <ele>47.6</ele>
        <time>2018-02-08T12:09:34Z</time>
      </trkpt>
      <trkpt lat="62.640990801247" lon="17.897903675591">
        <ele>48</ele>
        <time>2018-02-08T12:09:35Z</time>
      </trkpt>
      <trkpt lat="62.640981581157" lon="17.897852713639">
        <ele>48.2</ele>
        <time>2018-02-08T12:09:36Z</time>
      </trkpt>
      <trkpt lat="62.640973702171" lon="17.897803847162">
        <ele>48.4</ele>
        <time>2018-02-08T12:09:37Z</time>
      </trkpt>
      <trkpt lat="62.640964817357" lon="17.897762189119">
        <ele>48.8</ele>
        <time>2018-02-08T12:09:38Z</time>
      </trkpt>
      <trkpt lat="62.640958363294" lon="17.89772438675">
        <ele>49</ele>
        <time>2018-02-08T12:09:39Z</time>
      </trkpt>
      <trkpt lat="62.640954759077" lon="17.897696055928">
        <ele>49</ele>
        <time>2018-02-08T12:09:40Z</time>
      </trkpt>
      <trkpt lat="62.640948975566" lon="17.897669569124">
        <ele>49.2</ele>
        <time>2018-02-08T12:09:41Z</time>
      </trkpt>
      <trkpt lat="62.640943443512" lon="17.897615170593">
        <ele>49.4</ele>
        <time>2018-02-08T12:09:42Z</time>
      </trkpt>
      <trkpt lat="62.64094109658" lon="17.897575943301">
        <ele>49.6</ele>
        <time>2018-02-08T12:09:43Z</time>
      </trkpt>
      <trkpt lat="62.640933971965" lon="17.897530261946">
        <ele>49.8</ele>
        <time>2018-02-08T12:09:44Z</time>
      </trkpt>
      <trkpt lat="62.640919806554" lon="17.897458345244">
        <ele>50</ele>
        <time>2018-02-08T12:09:46Z</time>
      </trkpt>
      <trkpt lat="62.64092181821" lon="17.897473097388">
        <ele>50.2</ele>
        <time>2018-02-08T12:09:47Z</time>
      </trkpt>
      <trkpt lat="62.640906646971" lon="17.897418028305">
        <ele>50.2</ele>
        <time>2018-02-08T12:09:48Z</time>
      </trkpt>
      <trkpt lat="62.640899103261" lon="17.897376286443">
        <ele>50.4</ele>
        <time>2018-02-08T12:09:49Z</time>
      </trkpt>
      <trkpt lat="62.640890637542" lon="17.897331862373">
        <ele>50.6</ele>
        <time>2018-02-08T12:09:50Z</time>
      </trkpt>
      <trkpt lat="62.640883429108" lon="17.897299089144">
        <ele>50.6</ele>
        <time>2018-02-08T12:09:51Z</time>
      </trkpt>
      <trkpt lat="62.640875633941" lon="17.89726002949">
        <ele>50.8</ele>
        <time>2018-02-08T12:09:52Z</time>
      </trkpt>
      <trkpt lat="62.640869431335" lon="17.897225579881">
        <ele>51</ele>
        <time>2018-02-08T12:09:53Z</time>
      </trkpt>
      <trkpt lat="62.640863815462" lon="17.897183502743">
        <ele>51.2</ele>
        <time>2018-02-08T12:09:54Z</time>
      </trkpt>
      <trkpt lat="62.640856942304" lon="17.89713681556">
        <ele>51.4</ele>
        <time>2018-02-08T12:09:55Z</time>
      </trkpt>
      <trkpt lat="62.640849398594" lon="17.897090798929">
        <ele>51.6</ele>
        <time>2018-02-08T12:09:56Z</time>
      </trkpt>
      <trkpt lat="62.640839591771" lon="17.897044447022">
        <ele>51.8</ele>
        <time>2018-02-08T12:09:57Z</time>
      </trkpt>
      <trkpt lat="62.640831209871" lon="17.897007063748">
        <ele>52</ele>
        <time>2018-02-08T12:09:58Z</time>
      </trkpt>
      <trkpt lat="62.640823079428" lon="17.896972697958">
        <ele>52.2</ele>
        <time>2018-02-08T12:09:59Z</time>
      </trkpt>
      <trkpt lat="62.640814865166" lon="17.896937829254">
        <ele>52.4</ele>
        <time>2018-02-08T12:10:00Z</time>
      </trkpt>
      <trkpt lat="62.640806567085" lon="17.896907570595">
        <ele>52.6</ele>
        <time>2018-02-08T12:10:01Z</time>
      </trkpt>
      <trkpt lat="62.640796424986" lon="17.896874629728">
        <ele>52.8</ele>
        <time>2018-02-08T12:10:02Z</time>
      </trkpt>
      <trkpt lat="62.640788462181" lon="17.896844873983">
        <ele>53</ele>
        <time>2018-02-08T12:10:03Z</time>
      </trkpt>
      <trkpt lat="62.64077932591" lon="17.896814447686">
        <ele>53.2</ele>
        <time>2018-02-08T12:10:04Z</time>
      </trkpt>
      <trkpt lat="62.640771195467" lon="17.896784859579">
        <ele>53.4</ele>
        <time>2018-02-08T12:10:05Z</time>
      </trkpt>
      <trkpt lat="62.640761975377" lon="17.896753343635">
        <ele>53.4</ele>
        <time>2018-02-08T12:10:06Z</time>
      </trkpt>
      <trkpt lat="62.640751078907" lon="17.896720821863">
        <ele>53.4</ele>
        <time>2018-02-08T12:10:07Z</time>
      </trkpt>
      <trkpt lat="62.640740182437" lon="17.896689054462">
        <ele>53.6</ele>
        <time>2018-02-08T12:10:08Z</time>
      </trkpt>
      <trkpt lat="62.640730207976" lon="17.896656113595">
        <ele>54</ele>
        <time>2018-02-08T12:10:09Z</time>
      </trkpt>
      <trkpt lat="62.640720149696" lon="17.896622585995">
        <ele>54.2</ele>
        <time>2018-02-08T12:10:10Z</time>
      </trkpt>
      <trkpt lat="62.640712019253" lon="17.896598027028">
        <ele>54.4</ele>
        <time>2018-02-08T12:10:11Z</time>
      </trkpt>
      <trkpt lat="62.640700703688" lon="17.896563912695">
        <ele>54.8</ele>
        <time>2018-02-08T12:10:12Z</time>
      </trkpt>
      <trkpt lat="62.640692489426" lon="17.896504065929">
        <ele>54.8</ele>
        <time>2018-02-08T12:10:13Z</time>
      </trkpt>
      <trkpt lat="62.640687041191" lon="17.896479339324">
        <ele>55.2</ele>
        <time>2018-02-08T12:10:14Z</time>
      </trkpt>
      <trkpt lat="62.640674300703" lon="17.896420498386">
        <ele>55.4</ele>
        <time>2018-02-08T12:10:15Z</time>
      </trkpt>
      <trkpt lat="62.640663152776" lon="17.896390658822">
        <ele>55.6</ele>
        <time>2018-02-08T12:10:16Z</time>
      </trkpt>
      <trkpt lat="62.640649322641" lon="17.896356712127">
        <ele>55.8</ele>
        <time>2018-02-08T12:10:17Z</time>
      </trkpt>
      <trkpt lat="62.640641443655" lon="17.896310863134">
        <ele>56</ele>
        <time>2018-02-08T12:10:18Z</time>
      </trkpt>
      <trkpt lat="62.640633899945" lon="17.896271216747">
        <ele>56.2</ele>
        <time>2018-02-08T12:10:19Z</time>
      </trkpt>
      <trkpt lat="62.64062509895" lon="17.896241209545">
        <ele>56.4</ele>
        <time>2018-02-08T12:10:20Z</time>
      </trkpt>
      <trkpt lat="62.640616214136" lon="17.896207681945">
        <ele>56.4</ele>
        <time>2018-02-08T12:10:21Z</time>
      </trkpt>
      <trkpt lat="62.640608838064" lon="17.896162335866">
        <ele>56.6</ele>
        <time>2018-02-08T12:10:22Z</time>
      </trkpt>
      <trkpt lat="62.640601881087" lon="17.896117492701">
        <ele>56.6</ele>
        <time>2018-02-08T12:10:23Z</time>
      </trkpt>
      <trkpt lat="62.640597606318" lon="17.896073487726">
        <ele>56.6</ele>
        <time>2018-02-08T12:10:24Z</time>
      </trkpt>
      <trkpt lat="62.640590146427" lon="17.896033086968">
        <ele>56.8</ele>
        <time>2018-02-08T12:10:25Z</time>
      </trkpt>
      <trkpt lat="62.640583021812" lon="17.895992267115">
        <ele>56.8</ele>
        <time>2018-02-08T12:10:26Z</time>
      </trkpt>
      <trkpt lat="62.640576148654" lon="17.89595748223">
        <ele>57</ele>
        <time>2018-02-08T12:10:27Z</time>
      </trkpt>
      <trkpt lat="62.640575981016" lon="17.895914399264">
        <ele>57.2</ele>
        <time>2018-02-08T12:10:28Z</time>
      </trkpt>
      <trkpt lat="62.640573382627" lon="17.895863353493">
        <ele>57.4</ele>
        <time>2018-02-08T12:10:29Z</time>
      </trkpt>
      <trkpt lat="62.640567599116" lon="17.895823958563">
        <ele>57.8</ele>
        <time>2018-02-08T12:10:30Z</time>
      </trkpt>
      <trkpt lat="62.640564497813" lon="17.895782635796">
        <ele>58</ele>
        <time>2018-02-08T12:10:31Z</time>
      </trkpt>
      <trkpt lat="62.640561899424" lon="17.895739385192">
        <ele>58.2</ele>
        <time>2018-02-08T12:10:32Z</time>
      </trkpt>
      <trkpt lat="62.640556535008" lon="17.89570183428">
        <ele>58.4</ele>
        <time>2018-02-08T12:10:33Z</time>
      </trkpt>
      <trkpt lat="62.640550583859" lon="17.895668558137">
        <ele>58.4</ele>
        <time>2018-02-08T12:10:34Z</time>
      </trkpt>
      <trkpt lat="62.640546728185" lon="17.895632599786">
        <ele>58.8</ele>
        <time>2018-02-08T12:10:35Z</time>
      </trkpt>
      <trkpt lat="62.64054211814" lon="17.895582978938">
        <ele>59</ele>
        <time>2018-02-08T12:10:36Z</time>
      </trkpt>
      <trkpt lat="62.640536418448" lon="17.895537632859">
        <ele>59</ele>
        <time>2018-02-08T12:10:37Z</time>
      </trkpt>
      <trkpt lat="62.640533233326" lon="17.895514331177">
        <ele>59.2</ele>
        <time>2018-02-08T12:10:38Z</time>
      </trkpt>
      <trkpt lat="62.640531473127" lon="17.895465297062">
        <ele>59.2</ele>
        <time>2018-02-08T12:10:39Z</time>
      </trkpt>
      <trkpt lat="62.640525270521" lon="17.895412407273">
        <ele>59.2</ele>
        <time>2018-02-08T12:10:40Z</time>
      </trkpt>
      <trkpt lat="62.640520492838" lon="17.895376113646">
        <ele>59.2</ele>
        <time>2018-02-08T12:10:41Z</time>
      </trkpt>
      <trkpt lat="62.64051864882" lon="17.895320290192">
        <ele>59.2</ele>
        <time>2018-02-08T12:10:42Z</time>
      </trkpt>
      <trkpt lat="62.640515379879" lon="17.895288522791">
        <ele>59.4</ele>
        <time>2018-02-08T12:10:43Z</time>
      </trkpt>
      <trkpt lat="62.640511608024" lon="17.895216857546">
        <ele>59.4</ele>
        <time>2018-02-08T12:10:44Z</time>
      </trkpt>
      <trkpt lat="62.640515631336" lon="17.895169918906">
        <ele>59.6</ele>
        <time>2018-02-08T12:10:45Z</time>
      </trkpt>
      <trkpt lat="62.640510099282" lon="17.895096158186">
        <ele>59.6</ele>
        <time>2018-02-08T12:10:46Z</time>
      </trkpt>
      <trkpt lat="62.640504064314" lon="17.895052907582">
        <ele>59.4</ele>
        <time>2018-02-08T12:10:47Z</time>
      </trkpt>
      <trkpt lat="62.640499957183" lon="17.894985600925">
        <ele>59.6</ele>
        <time>2018-02-08T12:10:48Z</time>
      </trkpt>
      <trkpt lat="62.640500627735" lon="17.894935896258">
        <ele>59.4</ele>
        <time>2018-02-08T12:10:49Z</time>
      </trkpt>
      <trkpt lat="62.640497023518" lon="17.894901614287">
        <ele>59.4</ele>
        <time>2018-02-08T12:10:50Z</time>
      </trkpt>
      <trkpt lat="62.640493754577" lon="17.894838163304">
        <ele>59.2</ele>
        <time>2018-02-08T12:10:51Z</time>
      </trkpt>
      <trkpt lat="62.640491323826" lon="17.894796421442">
        <ele>59.2</ele>
        <time>2018-02-08T12:10:52Z</time>
      </trkpt>
      <trkpt lat="62.640488725437" lon="17.894754009028">
        <ele>59.2</ele>
        <time>2018-02-08T12:10:53Z</time>
      </trkpt>
      <trkpt lat="62.640486294686" lon="17.894696425375">
        <ele>59</ele>
        <time>2018-02-08T12:10:54Z</time>
      </trkpt>
      <trkpt lat="62.640482774288" lon="17.89465493497">
        <ele>59</ele>
        <time>2018-02-08T12:10:55Z</time>
      </trkpt>
      <trkpt lat="62.640479840623" lon="17.894613696022">
        <ele>59.2</ele>
        <time>2018-02-08T12:10:56Z</time>
      </trkpt>
      <trkpt lat="62.640475146759" lon="17.894549658306">
        <ele>59.2</ele>
        <time>2018-02-08T12:10:57Z</time>
      </trkpt>
      <trkpt lat="62.640473302741" lon="17.894515292516">
        <ele>59.4</ele>
        <time>2018-02-08T12:10:58Z</time>
      </trkpt>
      <trkpt lat="62.640469363248" lon="17.894468186238">
        <ele>59.4</ele>
        <time>2018-02-08T12:10:59Z</time>
      </trkpt>
      <trkpt lat="62.640463831194" lon="17.894409093843">
        <ele>59.4</ele>
        <time>2018-02-08T12:11:00Z</time>
      </trkpt>
      <trkpt lat="62.640457293312" lon="17.894362825755">
        <ele>59.2</ele>
        <time>2018-02-08T12:11:01Z</time>
      </trkpt>
      <trkpt lat="62.64045243181" lon="17.89432049716">
        <ele>59.2</ele>
        <time>2018-02-08T12:11:02Z</time>
      </trkpt>
      <trkpt lat="62.64044404991" lon="17.894278000927">
        <ele>59.4</ele>
        <time>2018-02-08T12:11:03Z</time>
      </trkpt>
      <trkpt lat="62.640437092933" lon="17.894228463898">
        <ele>59.4</ele>
        <time>2018-02-08T12:11:04Z</time>
      </trkpt>
      <trkpt lat="62.640428878671" lon="17.89417968124">
        <ele>59.6</ele>
        <time>2018-02-08T12:11:05Z</time>
      </trkpt>
      <trkpt lat="62.640420161495" lon="17.89413441898">
        <ele>59.6</ele>
        <time>2018-02-08T12:11:06Z</time>
      </trkpt>
      <trkpt lat="62.640410857586" lon="17.894091084557">
        <ele>59.8</ele>
        <time>2018-02-08T12:11:07Z</time>
      </trkpt>
      <trkpt lat="62.640400883125" lon="17.894037356578">
        <ele>60</ele>
        <time>2018-02-08T12:11:08Z</time>
      </trkpt>
      <trkpt lat="62.640388561732" lon="17.893997877829">
        <ele>60</ele>
        <time>2018-02-08T12:11:09Z</time>
      </trkpt>
      <trkpt lat="62.640379341642" lon="17.893967954446">
        <ele>60.2</ele>
        <time>2018-02-08T12:11:10Z</time>
      </trkpt>
      <trkpt lat="62.640368277534" lon="17.893916657218">
        <ele>60.2</ele>
        <time>2018-02-08T12:11:11Z</time>
      </trkpt>
      <trkpt lat="62.640351429915" lon="17.893868126017">
        <ele>60.4</ele>
        <time>2018-02-08T12:11:12Z</time>
      </trkpt>
      <trkpt lat="62.640341706911" lon="17.893835101331">
        <ele>60.6</ele>
        <time>2018-02-08T12:11:13Z</time>
      </trkpt>
      <trkpt lat="62.64032837969" lon="17.893792605098">
        <ele>60.6</ele>
        <time>2018-02-08T12:11:14Z</time>
      </trkpt>
      <trkpt lat="62.640316393573" lon="17.893753210168">
        <ele>60.8</ele>
        <time>2018-02-08T12:11:15Z</time>
      </trkpt>
      <trkpt lat="62.640310023329" lon="17.89371532398">
        <ele>61</ele>
        <time>2018-02-08T12:11:16Z</time>
      </trkpt>
      <trkpt lat="62.640303401628" lon="17.893684981502">
        <ele>61</ele>
        <time>2018-02-08T12:11:17Z</time>
      </trkpt>
      <trkpt lat="62.640295774099" lon="17.893634606283">
        <ele>61.2</ele>
        <time>2018-02-08T12:11:18Z</time>
      </trkpt>
      <trkpt lat="62.640289655312" lon="17.893597725923">
        <ele>61.4</ele>
        <time>2018-02-08T12:11:19Z</time>
      </trkpt>
      <trkpt lat="62.64028647019" lon="17.893559588278">
        <ele>61.6</ele>
        <time>2018-02-08T12:11:20Z</time>
      </trkpt>
      <trkpt lat="62.640281357231" lon="17.89351918752">
        <ele>61.8</ele>
        <time>2018-02-08T12:11:21Z</time>
      </trkpt>
      <trkpt lat="62.640279177937" lon="17.893484402635">
        <ele>62</ele>
        <time>2018-02-08T12:11:22Z</time>
      </trkpt>
      <trkpt lat="62.640276579548" lon="17.893453724881">
        <ele>62.4</ele>
        <time>2018-02-08T12:11:23Z</time>
      </trkpt>
      <trkpt lat="62.640277753014" lon="17.893418772358">
        <ele>62.4</ele>
        <time>2018-02-08T12:11:24Z</time>
      </trkpt>
      <trkpt lat="62.640275825177" lon="17.89338842988">
        <ele>62.6</ele>
        <time>2018-02-08T12:11:25Z</time>
      </trkpt>
      <trkpt lat="62.640275825177" lon="17.89335909323">
        <ele>62.8</ele>
        <time>2018-02-08T12:11:26Z</time>
      </trkpt>
      <trkpt lat="62.640279932308" lon="17.893313579513">
        <ele>63</ele>
        <time>2018-02-08T12:11:27Z</time>
      </trkpt>
      <trkpt lat="62.640286721647" lon="17.893269323081">
        <ele>63</ele>
        <time>2018-02-08T12:11:28Z</time>
      </trkpt>
      <trkpt lat="62.640290828778" lon="17.893226323934">
        <ele>63.2</ele>
        <time>2018-02-08T12:11:29Z</time>
      </trkpt>
      <trkpt lat="62.640295606461" lon="17.893181816045">
        <ele>63.4</ele>
        <time>2018-02-08T12:11:30Z</time>
      </trkpt>
      <trkpt lat="62.640299545954" lon="17.893143175486">
        <ele>63.6</ele>
        <time>2018-02-08T12:11:31Z</time>
      </trkpt>
      <trkpt lat="62.640302311981" lon="17.893101517443">
        <ele>63.6</ele>
        <time>2018-02-08T12:11:32Z</time>
      </trkpt>
      <trkpt lat="62.640304323637" lon="17.893068073662">
        <ele>63.8</ele>
        <time>2018-02-08T12:11:33Z</time>
      </trkpt>
      <trkpt lat="62.640302898714" lon="17.893038234098">
        <ele>64</ele>
        <time>2018-02-08T12:11:34Z</time>
      </trkpt>
      <trkpt lat="62.640301725248" lon="17.893014345683">
        <ele>64.4</ele>
        <time>2018-02-08T12:11:35Z</time>
      </trkpt>
      <trkpt lat="62.640300048868" lon="17.89298274592">
        <ele>64.8</ele>
        <time>2018-02-08T12:11:36Z</time>
      </trkpt>
      <trkpt lat="62.640297785755" lon="17.892946284655">
        <ele>65.2</ele>
        <time>2018-02-08T12:11:37Z</time>
      </trkpt>
      <trkpt lat="62.6402940139" lon="17.892909320476">
        <ele>65.4</ele>
        <time>2018-02-08T12:11:38Z</time>
      </trkpt>
      <trkpt lat="62.640291583149" lon="17.892871518107">
        <ele>65.8</ele>
        <time>2018-02-08T12:11:39Z</time>
      </trkpt>
      <trkpt lat="62.640288230389" lon="17.892832206996">
        <ele>66</ele>
        <time>2018-02-08T12:11:40Z</time>
      </trkpt>
      <trkpt lat="62.640282949792" lon="17.892791722419">
        <ele>66</ele>
        <time>2018-02-08T12:11:41Z</time>
      </trkpt>
      <trkpt lat="62.640281105774" lon="17.892743275037">
        <ele>66.2</ele>
        <time>2018-02-08T12:11:42Z</time>
      </trkpt>
      <trkpt lat="62.640278507385" lon="17.892720476269">
        <ele>66.4</ele>
        <time>2018-02-08T12:11:43Z</time>
      </trkpt>
      <trkpt lat="62.640275992815" lon="17.892674459638">
        <ele>66.6</ele>
        <time>2018-02-08T12:11:44Z</time>
      </trkpt>
      <trkpt lat="62.640271801865" lon="17.892634561794">
        <ele>66.8</ele>
        <time>2018-02-08T12:11:45Z</time>
      </trkpt>
      <trkpt lat="62.640266688906" lon="17.892604973687">
        <ele>66.8</ele>
        <time>2018-02-08T12:11:46Z</time>
      </trkpt>
      <trkpt lat="62.640261743585" lon="17.892564572929">
        <ele>67</ele>
        <time>2018-02-08T12:11:47Z</time>
      </trkpt>
      <trkpt lat="62.64025461897" lon="17.892507324552">
        <ele>67</ele>
        <time>2018-02-08T12:11:48Z</time>
      </trkpt>
      <trkpt lat="62.640249673649" lon="17.892463151939">
        <ele>67</ele>
        <time>2018-02-08T12:11:49Z</time>
      </trkpt>
      <trkpt lat="62.640244393052" lon="17.892418224955">
        <ele>67.2</ele>
        <time>2018-02-08T12:11:50Z</time>
      </trkpt>
      <trkpt lat="62.640241375568" lon="17.892380254948">
        <ele>67.2</ele>
        <time>2018-02-08T12:11:51Z</time>
      </trkpt>
      <trkpt lat="62.640239699188" lon="17.892333903041">
        <ele>67.4</ele>
        <time>2018-02-08T12:11:52Z</time>
      </trkpt>
      <trkpt lat="62.640240034464" lon="17.892283276365">
        <ele>67.8</ele>
        <time>2018-02-08T12:11:53Z</time>
      </trkpt>
      <trkpt lat="62.640236765523" lon="17.892247150376">
        <ele>68</ele>
        <time>2018-02-08T12:11:54Z</time>
      </trkpt>
      <trkpt lat="62.640233999496" lon="17.892185291954">
        <ele>68</ele>
        <time>2018-02-08T12:11:55Z</time>
      </trkpt>
      <trkpt lat="62.640233831858" lon="17.892146483757">
        <ele>68.2</ele>
        <time>2018-02-08T12:11:56Z</time>
      </trkpt>
      <trkpt lat="62.640233999496" lon="17.892108010836">
        <ele>68.2</ele>
        <time>2018-02-08T12:11:57Z</time>
      </trkpt>
      <trkpt lat="62.640242129939" lon="17.892051433011">
        <ele>68.2</ele>
        <time>2018-02-08T12:11:58Z</time>
      </trkpt>
      <trkpt lat="62.640252272038" lon="17.892003823819">
        <ele>68.2</ele>
        <time>2018-02-08T12:11:59Z</time>
      </trkpt>
      <trkpt lat="62.640262414137" lon="17.891959735025">
        <ele>68.2</ele>
        <time>2018-02-08T12:12:00Z</time>
      </trkpt>
      <trkpt lat="62.640276914824" lon="17.891909359806">
        <ele>68.2</ele>
        <time>2018-02-08T12:12:01Z</time>
      </trkpt>
      <trkpt lat="62.640299378316" lon="17.891861331519">
        <ele>68.2</ele>
        <time>2018-02-08T12:12:02Z</time>
      </trkpt>
      <trkpt lat="62.640327960595" lon="17.891821098399">
        <ele>68.2</ele>
        <time>2018-02-08T12:12:03Z</time>
      </trkpt>
      <trkpt lat="62.640359811815" lon="17.891797964355">
        <ele>68</ele>
        <time>2018-02-08T12:12:04Z</time>
      </trkpt>
      <trkpt lat="62.640385544248" lon="17.891778769804">
        <ele>68</ele>
        <time>2018-02-08T12:12:05Z</time>
      </trkpt>
      <trkpt lat="62.640412617785" lon="17.891765526402">
        <ele>68</ele>
        <time>2018-02-08T12:12:06Z</time>
      </trkpt>
      <trkpt lat="62.640437595847" lon="17.891757731235">
        <ele>67.8</ele>
        <time>2018-02-08T12:12:07Z</time>
      </trkpt>
      <trkpt lat="62.640463998832" lon="17.891756054855">
        <ele>67.8</ele>
        <time>2018-02-08T12:12:08Z</time>
      </trkpt>
      <trkpt lat="62.640504734866" lon="17.891753372647">
        <ele>67.6</ele>
        <time>2018-02-08T12:12:09Z</time>
      </trkpt>
      <trkpt lat="62.640561312691" lon="17.891756976864">
        <ele>67.4</ele>
        <time>2018-02-08T12:12:10Z</time>
      </trkpt>
      <trkpt lat="62.640620740362" lon="17.891767286601">
        <ele>67</ele>
        <time>2018-02-08T12:12:11Z</time>
      </trkpt>
      <trkpt lat="62.640691902693" lon="17.891779859451">
        <ele>67.2</ele>
        <time>2018-02-08T12:12:12Z</time>
      </trkpt>
      <trkpt lat="62.64075166564" lon="17.891805843341">
        <ele>67.2</ele>
        <time>2018-02-08T12:12:13Z</time>
      </trkpt>
      <trkpt lat="62.640813188786" lon="17.891864684279">
        <ele>67</ele>
        <time>2018-02-08T12:12:14Z</time>
      </trkpt>
      <trkpt lat="62.640862390539" lon="17.891949592926">
        <ele>66.8</ele>
        <time>2018-02-08T12:12:15Z</time>
      </trkpt>
      <trkpt lat="62.640900528184" lon="17.89204062036">
        <ele>66.6</ele>
        <time>2018-02-08T12:12:16Z</time>
      </trkpt>
      <trkpt lat="62.640947885919" lon="17.892121840971">
        <ele>66.4</ele>
        <time>2018-02-08T12:12:17Z</time>
      </trkpt>
      <trkpt lat="62.640997422948" lon="17.892201049926">
        <ele>66</ele>
        <time>2018-02-08T12:12:18Z</time>
      </trkpt>
      <trkpt lat="62.641043774855" lon="17.892250000222">
        <ele>65.8</ele>
        <time>2018-02-08T12:12:19Z</time>
      </trkpt>
      <trkpt lat="62.6410819125" lon="17.892277576673">
        <ele>66</ele>
        <time>2018-02-08T12:12:20Z</time>
      </trkpt>
      <trkpt lat="62.641119714869" lon="17.892287634953">
        <ele>66</ele>
        <time>2018-02-08T12:12:21Z</time>
      </trkpt>
      <trkpt lat="62.641163133111" lon="17.892279672148">
        <ele>65.8</ele>
        <time>2018-02-08T12:12:22Z</time>
      </trkpt>
      <trkpt lat="62.641193727046" lon="17.892273553361">
        <ele>65.8</ele>
        <time>2018-02-08T12:12:23Z</time>
      </trkpt>
      <trkpt lat="62.641223901886" lon="17.892253185344">
        <ele>65.8</ele>
        <time>2018-02-08T12:12:24Z</time>
      </trkpt>
      <trkpt lat="62.641251813613" lon="17.892231392404">
        <ele>65.8</ele>
        <time>2018-02-08T12:12:25Z</time>
      </trkpt>
      <trkpt lat="62.641278384236" lon="17.892214712423">
        <ele>65.8</ele>
        <time>2018-02-08T12:12:26Z</time>
      </trkpt>
      <trkpt lat="62.641324233229" lon="17.892188393257">
        <ele>65.8</ele>
        <time>2018-02-08T12:12:27Z</time>
      </trkpt>
      <trkpt lat="62.641363209064" lon="17.892165929765">
        <ele>65.6</ele>
        <time>2018-02-08T12:12:28Z</time>
      </trkpt>
      <trkpt lat="62.641401514347" lon="17.892144639739">
        <ele>65.4</ele>
        <time>2018-02-08T12:12:29Z</time>
      </trkpt>
      <trkpt lat="62.641426240952" lon="17.892114213442">
        <ele>65.4</ele>
        <time>2018-02-08T12:12:30Z</time>
      </trkpt>
      <trkpt lat="62.641451302833" lon="17.892096108538">
        <ele>65.4</ele>
        <time>2018-02-08T12:12:31Z</time>
      </trkpt>
      <trkpt lat="62.641485249528" lon="17.892070124648">
        <ele>65.6</ele>
        <time>2018-02-08T12:12:32Z</time>
      </trkpt>
      <trkpt lat="62.641527326666" lon="17.892046906785">
        <ele>66</ele>
        <time>2018-02-08T12:12:33Z</time>
      </trkpt>
      <trkpt lat="62.641572169831" lon="17.892026454949">
        <ele>66</ele>
        <time>2018-02-08T12:12:34Z</time>
      </trkpt>
      <trkpt lat="62.641618270281" lon="17.892010613158">
        <ele>66</ele>
        <time>2018-02-08T12:12:35Z</time>
      </trkpt>
      <trkpt lat="62.641671914441" lon="17.891991250969">
        <ele>66</ele>
        <time>2018-02-08T12:12:36Z</time>
      </trkpt>
      <trkpt lat="62.641722960212" lon="17.891968284563">
        <ele>65.4</ele>
        <time>2018-02-08T12:12:37Z</time>
      </trkpt>
      <trkpt lat="62.641771910508" lon="17.891949928202">
        <ele>64.8</ele>
        <time>2018-02-08T12:12:38Z</time>
      </trkpt>
      <trkpt lat="62.641823040098" lon="17.891919837181">
        <ele>64.6</ele>
        <time>2018-02-08T12:12:39Z</time>
      </trkpt>
      <trkpt lat="62.641878947371" lon="17.891887902142">
        <ele>64.2</ele>
        <time>2018-02-08T12:12:40Z</time>
      </trkpt>
      <trkpt lat="62.641935022282" lon="17.891857727302">
        <ele>63.8</ele>
        <time>2018-02-08T12:12:41Z</time>
      </trkpt>
      <trkpt lat="62.642005430242" lon="17.891818416191">
        <ele>63.4</ele>
        <time>2018-02-08T12:12:42Z</time>
      </trkpt>
      <trkpt lat="62.642069048863" lon="17.89178497241">
        <ele>63</ele>
        <time>2018-02-08T12:12:43Z</time>
      </trkpt>
      <trkpt lat="62.642147168171" lon="17.891742308539">
        <ele>62.6</ele>
        <time>2018-02-08T12:12:44Z</time>
      </trkpt>
      <trkpt lat="62.642224952203" lon="17.891680869212">
        <ele>62.2</ele>
        <time>2018-02-08T12:12:45Z</time>
      </trkpt>
      <trkpt lat="62.642300556941" lon="17.891607192311">
        <ele>61.8</ele>
        <time>2018-02-08T12:12:46Z</time>
      </trkpt>
      <trkpt lat="62.642378340973" lon="17.891506525692">
        <ele>61.4</ele>
        <time>2018-02-08T12:12:47Z</time>
      </trkpt>
      <trkpt lat="62.64243726573" lon="17.891401668123">
        <ele>61.2</ele>
        <time>2018-02-08T12:12:48Z</time>
      </trkpt>
      <trkpt lat="62.642476995936" lon="17.891303264617">
        <ele>60.6</ele>
        <time>2018-02-08T12:12:49Z</time>
      </trkpt>
      <trkpt lat="62.642495017021" lon="17.891203520007">
        <ele>60.4</ele>
        <time>2018-02-08T12:12:50Z</time>
      </trkpt>
      <trkpt lat="62.642498369781" lon="17.891111989659">
        <ele>60.4</ele>
        <time>2018-02-08T12:12:51Z</time>
      </trkpt>
      <trkpt lat="62.642484707284" lon="17.891027835383">
        <ele>60.4</ele>
        <time>2018-02-08T12:12:52Z</time>
      </trkpt>
      <trkpt lat="62.642460232136" lon="17.890969832635">
        <ele>60.8</ele>
        <time>2018-02-08T12:12:53Z</time>
      </trkpt>
      <trkpt lat="62.642438858291" lon="17.89090319653">
        <ele>60.8</ele>
        <time>2018-02-08T12:12:54Z</time>
      </trkpt>
      <trkpt lat="62.64237523967" lon="17.890877799373">
        <ele>60.8</ele>
        <time>2018-02-08T12:12:55Z</time>
      </trkpt>
      <trkpt lat="62.642323858623" lon="17.890847205438">
        <ele>60.8</ele>
        <time>2018-02-08T12:12:56Z</time>
      </trkpt>
      <trkpt lat="62.642277003802" lon="17.89081686296">
        <ele>60.2</ele>
        <time>2018-02-08T12:12:57Z</time>
      </trkpt>
      <trkpt lat="62.642236519225" lon="17.890788196862">
        <ele>59.4</ele>
        <time>2018-02-08T12:12:58Z</time>
      </trkpt>
      <trkpt lat="62.642187233653" lon="17.890754417805">
        <ele>58.6</ele>
        <time>2018-02-08T12:12:59Z</time>
      </trkpt>
      <trkpt lat="62.642154208967" lon="17.890726086983">
        <ele>58.4</ele>
        <time>2018-02-08T12:13:00Z</time>
      </trkpt>
      <trkpt lat="62.642131577837" lon="17.890717369807">
        <ele>57.8</ele>
        <time>2018-02-08T12:13:01Z</time>
      </trkpt>
      <trkpt lat="62.642101822092" lon="17.89068694351">
        <ele>57.4</ele>
        <time>2018-02-08T12:13:02Z</time>
      </trkpt>
      <trkpt lat="62.642080867342" lon="17.890662216905">
        <ele>57</ele>
        <time>2018-02-08T12:13:03Z</time>
      </trkpt>
      <trkpt lat="62.642065528465" lon="17.890647297123">
        <ele>56.8</ele>
        <time>2018-02-08T12:13:04Z</time>
      </trkpt>
      <trkpt lat="62.642052368882" lon="17.890632544979">
        <ele>56.8</ele>
        <time>2018-02-08T12:13:05Z</time>
      </trkpt>
      <trkpt lat="62.642036527091" lon="17.890613266609">
        <ele>56.6</ele>
        <time>2018-02-08T12:13:06Z</time>
      </trkpt>
      <trkpt lat="62.64201984711" lon="17.890594491153">
        <ele>56.6</ele>
        <time>2018-02-08T12:13:07Z</time>
      </trkpt>
      <trkpt lat="62.642003586224" lon="17.890576637706">
        <ele>56.4</ele>
        <time>2018-02-08T12:13:08Z</time>
      </trkpt>
      <trkpt lat="62.641989169356" lon="17.890558281345">
        <ele>56.6</ele>
        <time>2018-02-08T12:13:09Z</time>
      </trkpt>
      <trkpt lat="62.64197374666" lon="17.890546881961">
        <ele>56.6</ele>
        <time>2018-02-08T12:13:10Z</time>
      </trkpt>
      <trkpt lat="62.641958826878" lon="17.890528860876">
        <ele>56.8</ele>
        <time>2018-02-08T12:13:11Z</time>
      </trkpt>
      <trkpt lat="62.641940554336" lon="17.89051343818">
        <ele>56.8</ele>
        <time>2018-02-08T12:13:12Z</time>
      </trkpt>
      <trkpt lat="62.641926556563" lon="17.890501368244">
        <ele>57</ele>
        <time>2018-02-08T12:13:13Z</time>
      </trkpt>
      <trkpt lat="62.641912307333" lon="17.89048913067">
        <ele>57</ele>
        <time>2018-02-08T12:13:14Z</time>
      </trkpt>
      <trkpt lat="62.641898058103" lon="17.890479826761">
        <ele>57.2</ele>
        <time>2018-02-08T12:13:15Z</time>
      </trkpt>
      <trkpt lat="62.64188573671" lon="17.890469265567">
        <ele>57.4</ele>
        <time>2018-02-08T12:13:16Z</time>
      </trkpt>
      <trkpt lat="62.641871403661" lon="17.890455519251">
        <ele>57.6</ele>
        <time>2018-02-08T12:13:17Z</time>
      </trkpt>
      <trkpt lat="62.641857322069" lon="17.890439593641">
        <ele>57.8</ele>
        <time>2018-02-08T12:13:18Z</time>
      </trkpt>
      <trkpt lat="62.641840725907" lon="17.890425595868">
        <ele>58.2</ele>
        <time>2018-02-08T12:13:19Z</time>
      </trkpt>
      <trkpt lat="62.641825973763" lon="17.89041369357">
        <ele>58.6</ele>
        <time>2018-02-08T12:13:20Z</time>
      </trkpt>
      <trkpt lat="62.641812730361" lon="17.890398773788">
        <ele>58.8</ele>
        <time>2018-02-08T12:13:21Z</time>
      </trkpt>
      <trkpt lat="62.641796301837" lon="17.890379998332">
        <ele>59</ele>
        <time>2018-02-08T12:13:22Z</time>
      </trkpt>
      <trkpt lat="62.641784231901" lon="17.890364994731">
        <ele>59.2</ele>
        <time>2018-02-08T12:13:23Z</time>
      </trkpt>
      <trkpt lat="62.641768557748" lon="17.890346554551">
        <ele>59.2</ele>
        <time>2018-02-08T12:13:24Z</time>
      </trkpt>
      <trkpt lat="62.641755733441" lon="17.890330964217">
        <ele>59.4</ele>
        <time>2018-02-08T12:13:25Z</time>
      </trkpt>
      <trkpt lat="62.641743076772" lon="17.89031478715">
        <ele>59.4</ele>
        <time>2018-02-08T12:13:26Z</time>
      </trkpt>
      <trkpt lat="62.641728659904" lon="17.890292575115">
        <ele>59.6</ele>
        <time>2018-02-08T12:13:27Z</time>
      </trkpt>
      <trkpt lat="62.64171306957" lon="17.890268267605">
        <ele>59.8</ele>
        <time>2018-02-08T12:13:28Z</time>
      </trkpt>
      <trkpt lat="62.641700245263" lon="17.890237422213">
        <ele>60</ele>
        <time>2018-02-08T12:13:29Z</time>
      </trkpt>
      <trkpt lat="62.641686750404" lon="17.890206493002">
        <ele>60.2</ele>
        <time>2018-02-08T12:13:30Z</time>
      </trkpt>
      <trkpt lat="62.641675434839" lon="17.890177240171">
        <ele>60.2</ele>
        <time>2018-02-08T12:13:31Z</time>
      </trkpt>
      <trkpt lat="62.641663700179" lon="17.890144131666">
        <ele>60.4</ele>
        <time>2018-02-08T12:13:32Z</time>
      </trkpt>
      <trkpt lat="62.641651378786" lon="17.890117728681">
        <ele>60.4</ele>
        <time>2018-02-08T12:13:33Z</time>
      </trkpt>
      <trkpt lat="62.641639560307" lon="17.89007674119">
        <ele>60.4</ele>
        <time>2018-02-08T12:13:34Z</time>
      </trkpt>
      <trkpt lat="62.641629166751" lon="17.89003986083">
        <ele>60.4</ele>
        <time>2018-02-08T12:13:35Z</time>
      </trkpt>
      <trkpt lat="62.641622461231" lon="17.890007339058">
        <ele>60.2</ele>
        <time>2018-02-08T12:13:36Z</time>
      </trkpt>
      <trkpt lat="62.641612822046" lon="17.889954616907">
        <ele>60.2</ele>
        <time>2018-02-08T12:13:37Z</time>
      </trkpt>
      <trkpt lat="62.641605362155" lon="17.889913713235">
        <ele>60.2</ele>
        <time>2018-02-08T12:13:38Z</time>
      </trkpt>
      <trkpt lat="62.641594968599" lon="17.889869037708">
        <ele>60.2</ele>
        <time>2018-02-08T12:13:39Z</time>
      </trkpt>
      <trkpt lat="62.641588095441" lon="17.889828134036">
        <ele>60.2</ele>
        <time>2018-02-08T12:13:40Z</time>
      </trkpt>
      <trkpt lat="62.641583653034" lon="17.889791672771">
        <ele>60</ele>
        <time>2018-02-08T12:13:41Z</time>
      </trkpt>
      <trkpt lat="62.641574600582" lon="17.889738699163">
        <ele>59.6</ele>
        <time>2018-02-08T12:13:42Z</time>
      </trkpt>
      <trkpt lat="62.641569822899" lon="17.88968614465">
        <ele>59.2</ele>
        <time>2018-02-08T12:13:43Z</time>
      </trkpt>
      <trkpt lat="62.64156638632" lon="17.889617329251">
        <ele>58.6</ele>
        <time>2018-02-08T12:13:44Z</time>
      </trkpt>
      <trkpt lat="62.641564374664" lon="17.889538455572">
        <ele>58</ele>
        <time>2018-02-08T12:13:45Z</time>
      </trkpt>
      <trkpt lat="62.641567056872" lon="17.889448853061">
        <ele>57.4</ele>
        <time>2018-02-08T12:13:46Z</time>
      </trkpt>
      <trkpt lat="62.641572505107" lon="17.889330919728">
        <ele>56.6</ele>
        <time>2018-02-08T12:13:47Z</time>
      </trkpt>
      <trkpt lat="62.641587760165" lon="17.889168729963">
        <ele>56</ele>
        <time>2018-02-08T12:13:48Z</time>
      </trkpt>
      <trkpt lat="62.641613492598" lon="17.888993632072">
        <ele>54.8</ele>
        <time>2018-02-08T12:13:49Z</time>
      </trkpt>
      <trkpt lat="62.641644254171" lon="17.888802021838">
        <ele>53.2</ele>
        <time>2018-02-08T12:13:50Z</time>
      </trkpt>
      <trkpt lat="62.641680128703" lon="17.888608316129">
        <ele>51.4</ele>
        <time>2018-02-08T12:13:51Z</time>
      </trkpt>
      <trkpt lat="62.641727402619" lon="17.888395164412">
        <ele>49.2</ele>
        <time>2018-02-08T12:13:52Z</time>
      </trkpt>
      <trkpt lat="62.64177341925" lon="17.888241859461">
        <ele>46.8</ele>
        <time>2018-02-08T12:13:53Z</time>
      </trkpt>
      <trkpt lat="62.641823459193" lon="17.888098109876">
        <ele>44.6</ele>
        <time>2018-02-08T12:13:54Z</time>
      </trkpt>
      <trkpt lat="62.641871236023" lon="17.88797791343">
        <ele>42.6</ele>
        <time>2018-02-08T12:13:55Z</time>
      </trkpt>
      <trkpt lat="62.641911636781" lon="17.887884622883">
        <ele>41.6</ele>
        <time>2018-02-08T12:13:56Z</time>
      </trkpt>
      <trkpt lat="62.641953797738" lon="17.887796612933">
        <ele>41</ele>
        <time>2018-02-08T12:13:57Z</time>
      </trkpt>
      <trkpt lat="62.641988917899" lon="17.88772729462">
        <ele>40.8</ele>
        <time>2018-02-08T12:13:58Z</time>
      </trkpt>
      <trkpt lat="62.64202655263" lon="17.8876702977">
        <ele>40.8</ele>
        <time>2018-02-08T12:13:59Z</time>
      </trkpt>
      <trkpt lat="62.642062846257" lon="17.88761413897">
        <ele>41</ele>
        <time>2018-02-08T12:14:00Z</time>
      </trkpt>
      <trkpt lat="62.642094697477" lon="17.887555214213">
        <ele>42</ele>
        <time>2018-02-08T12:14:01Z</time>
      </trkpt>
      <trkpt lat="62.642128308896" lon="17.887495870361">
        <ele>42.8</ele>
        <time>2018-02-08T12:14:02Z</time>
      </trkpt>
      <trkpt lat="62.642161920315" lon="17.887467120444">
        <ele>43.4</ele>
        <time>2018-02-08T12:14:03Z</time>
      </trkpt>
      <trkpt lat="62.642199890322" lon="17.887420600899">
        <ele>43.8</ele>
        <time>2018-02-08T12:14:04Z</time>
      </trkpt>
      <trkpt lat="62.642214474828" lon="17.887388833498">
        <ele>44</ele>
        <time>2018-02-08T12:14:05Z</time>
      </trkpt>
      <trkpt lat="62.642222772909" lon="17.887368633119">
        <ele>44</ele>
        <time>2018-02-08T12:14:06Z</time>
      </trkpt>
      <trkpt lat="62.642232998827" lon="17.887323873773">
        <ele>44</ele>
        <time>2018-02-08T12:14:07Z</time>
      </trkpt>
      <trkpt lat="62.642239536709" lon="17.887289424164">
        <ele>44</ele>
        <time>2018-02-08T12:14:08Z</time>
      </trkpt>
      <trkpt lat="62.64224867298" lon="17.887252459985">
        <ele>44</ele>
        <time>2018-02-08T12:14:09Z</time>
      </trkpt>
      <trkpt lat="62.642250852274" lon="17.887218261833">
        <ele>44</ele>
        <time>2018-02-08T12:14:10Z</time>
      </trkpt>
      <trkpt lat="62.642253115387" lon="17.887186075337">
        <ele>44</ele>
        <time>2018-02-08T12:14:11Z</time>
      </trkpt>
      <trkpt lat="62.642256384328" lon="17.887153805022">
        <ele>44.2</ele>
        <time>2018-02-08T12:14:12Z</time>
      </trkpt>
      <trkpt lat="62.642257306337" lon="17.887107788391">
        <ele>44.2</ele>
        <time>2018-02-08T12:14:13Z</time>
      </trkpt>
      <trkpt lat="62.642256971061" lon="17.887058083724">
        <ele>44.2</ele>
        <time>2018-02-08T12:14:14Z</time>
      </trkpt>
      <trkpt lat="62.642254624129" lon="17.887030926368">
        <ele>44.2</ele>
        <time>2018-02-08T12:14:15Z</time>
      </trkpt>
      <trkpt lat="62.642251690464" lon="17.886995890026">
        <ele>44.4</ele>
        <time>2018-02-08T12:14:16Z</time>
      </trkpt>
      <trkpt lat="62.64225034936" lon="17.886958171476">
        <ele>44.2</ele>
        <time>2018-02-08T12:14:17Z</time>
      </trkpt>
      <trkpt lat="62.642247918609" lon="17.886904862592">
        <ele>44.6</ele>
        <time>2018-02-08T12:14:18Z</time>
      </trkpt>
      <trkpt lat="62.642244062935" lon="17.886876950865">
        <ele>44.6</ele>
        <time>2018-02-08T12:14:19Z</time>
      </trkpt>
      <trkpt lat="62.642236770682" lon="17.886845602559">
        <ele>44.8</ele>
        <time>2018-02-08T12:14:20Z</time>
      </trkpt>
      <trkpt lat="62.642234339931" lon="17.886807967828">
        <ele>44.8</ele>
        <time>2018-02-08T12:14:21Z</time>
      </trkpt>
      <trkpt lat="62.642228472601" lon="17.886772177115">
        <ele>45</ele>
        <time>2018-02-08T12:14:22Z</time>
      </trkpt>
      <trkpt lat="62.642223443461" lon="17.886729680882">
        <ele>45.2</ele>
        <time>2018-02-08T12:14:23Z</time>
      </trkpt>
      <trkpt lat="62.642217492312" lon="17.886693471074">
        <ele>45.2</ele>
        <time>2018-02-08T12:14:24Z</time>
      </trkpt>
      <trkpt lat="62.642208272222" lon="17.88665524961">
        <ele>45.4</ele>
        <time>2018-02-08T12:14:25Z</time>
      </trkpt>
      <trkpt lat="62.642200644693" lon="17.886622476381">
        <ele>45.6</ele>
        <time>2018-02-08T12:14:26Z</time>
      </trkpt>
      <trkpt lat="62.642192011336" lon="17.886576543569">
        <ele>45.8</ele>
        <time>2018-02-08T12:14:27Z</time>
      </trkpt>
      <trkpt lat="62.642187652748" lon="17.886552236059">
        <ele>46</ele>
        <time>2018-02-08T12:14:28Z</time>
      </trkpt>
      <trkpt lat="62.642180863409" lon="17.886522731771">
        <ele>46</ele>
        <time>2018-02-08T12:14:29Z</time>
      </trkpt>
      <trkpt lat="62.642174828441" lon="17.886492389293">
        <ele>46.2</ele>
        <time>2018-02-08T12:14:30Z</time>
      </trkpt>
      <trkpt lat="62.642168793473" lon="17.886467075955">
        <ele>46.6</ele>
        <time>2018-02-08T12:14:31Z</time>
      </trkpt>
      <trkpt lat="62.642158735193" lon="17.886429692681">
        <ele>46.6</ele>
        <time>2018-02-08T12:14:32Z</time>
      </trkpt>
      <trkpt lat="62.642149347465" lon="17.886394823977">
        <ele>46.8</ele>
        <time>2018-02-08T12:14:33Z</time>
      </trkpt>
      <trkpt lat="62.642139289185" lon="17.886367163707">
        <ele>47</ele>
        <time>2018-02-08T12:14:34Z</time>
      </trkpt>
      <trkpt lat="62.642128141258" lon="17.886337994695">
        <ele>47.2</ele>
        <time>2018-02-08T12:14:35Z</time>
      </trkpt>
      <trkpt lat="62.642120094634" lon="17.886310250606">
        <ele>47.4</ele>
        <time>2018-02-08T12:14:36Z</time>
      </trkpt>
      <trkpt lat="62.64211120982" lon="17.886282506517">
        <ele>47.6</ele>
        <time>2018-02-08T12:14:37Z</time>
      </trkpt>
      <trkpt lat="62.642100732445" lon="17.886256019713">
        <ele>48</ele>
        <time>2018-02-08T12:14:38Z</time>
      </trkpt>
      <trkpt lat="62.642092099088" lon="17.886235735515">
        <ele>48.2</ele>
        <time>2018-02-08T12:14:39Z</time>
      </trkpt>
      <trkpt lat="62.642082040808" lon="17.886206650322">
        <ele>48.4</ele>
        <time>2018-02-08T12:14:40Z</time>
      </trkpt>
      <trkpt lat="62.642071144338" lon="17.886187958685">
        <ele>48.6</ele>
        <time>2018-02-08T12:14:41Z</time>
      </trkpt>
      <trkpt lat="62.642059912592" lon="17.886154263447">
        <ele>49</ele>
        <time>2018-02-08T12:14:42Z</time>
      </trkpt>
      <trkpt lat="62.642044741353" lon="17.886124256245">
        <ele>49.2</ele>
        <time>2018-02-08T12:14:43Z</time>
      </trkpt>
      <trkpt lat="62.642029151019" lon="17.886096763613">
        <ele>49.4</ele>
        <time>2018-02-08T12:14:44Z</time>
      </trkpt>
      <trkpt lat="62.642017500178" lon="17.886080838003">
        <ele>49.6</ele>
        <time>2018-02-08T12:14:45Z</time>
      </trkpt>
      <trkpt lat="62.642001658387" lon="17.886056279036">
        <ele>49.8</ele>
        <time>2018-02-08T12:14:46Z</time>
      </trkpt>
      <trkpt lat="62.641987660614" lon="17.886033144992">
        <ele>50</ele>
        <time>2018-02-08T12:14:47Z</time>
      </trkpt>
      <trkpt lat="62.641971064452" lon="17.885997941012">
        <ele>50.2</ele>
        <time>2018-02-08T12:14:48Z</time>
      </trkpt>
      <trkpt lat="62.641958910697" lon="17.885981261031">
        <ele>50.2</ele>
        <time>2018-02-08T12:14:49Z</time>
      </trkpt>
      <trkpt lat="62.641940973431" lon="17.885945135042">
        <ele>50.4</ele>
        <time>2018-02-08T12:14:50Z</time>
      </trkpt>
      <trkpt lat="62.6419284844" lon="17.885932897468">
        <ele>50.6</ele>
        <time>2018-02-08T12:14:51Z</time>
      </trkpt>
      <trkpt lat="62.641911469143" lon="17.885898112583">
        <ele>50.6</ele>
        <time>2018-02-08T12:14:52Z</time>
      </trkpt>
      <trkpt lat="62.641895040619" lon="17.885867267191">
        <ele>50.6</ele>
        <time>2018-02-08T12:14:53Z</time>
      </trkpt>
      <trkpt lat="62.641882635407" lon="17.885856370721">
        <ele>50.8</ele>
        <time>2018-02-08T12:14:54Z</time>
      </trkpt>
      <trkpt lat="62.641862099752" lon="17.885811276099">
        <ele>50.8</ele>
        <time>2018-02-08T12:14:55Z</time>
      </trkpt>
      <trkpt lat="62.641850784187" lon="17.885792081548">
        <ele>50.8</ele>
        <time>2018-02-08T12:14:56Z</time>
      </trkpt>
      <trkpt lat="62.641828655971" lon="17.885753021894">
        <ele>51</ele>
        <time>2018-02-08T12:14:57Z</time>
      </trkpt>
      <trkpt lat="62.641814658198" lon="17.885727960013">
        <ele>51</ele>
        <time>2018-02-08T12:14:58Z</time>
      </trkpt>
      <trkpt lat="62.641794122543" lon="17.885688481264">
        <ele>51</ele>
        <time>2018-02-08T12:14:59Z</time>
      </trkpt>
      <trkpt lat="62.641772413422" lon="17.885644308651">
        <ele>51</ele>
        <time>2018-02-08T12:15:00Z</time>
      </trkpt>
      <trkpt lat="62.641760511124" lon="17.885626371385">
        <ele>51.2</ele>
        <time>2018-02-08T12:15:01Z</time>
      </trkpt>
      <trkpt lat="62.641739221098" lon="17.885583958971">
        <ele>51.2</ele>
        <time>2018-02-08T12:15:02Z</time>
      </trkpt>
      <trkpt lat="62.641720110366" lon="17.885550431371">
        <ele>51.2</ele>
        <time>2018-02-08T12:15:03Z</time>
      </trkpt>
      <trkpt lat="62.641705358222" lon="17.885525537128">
        <ele>51</ele>
        <time>2018-02-08T12:15:04Z</time>
      </trkpt>
      <trkpt lat="62.641692533915" lon="17.885507180767">
        <ele>51.2</ele>
        <time>2018-02-08T12:15:05Z</time>
      </trkpt>
      <trkpt lat="62.641675183382" lon="17.885476419194">
        <ele>51.2</ele>
        <time>2018-02-08T12:15:06Z</time>
      </trkpt>
      <trkpt lat="62.641658000487" lon="17.885450686761">
        <ele>51.2</ele>
        <time>2018-02-08T12:15:07Z</time>
      </trkpt>
      <trkpt lat="62.641642410153" lon="17.885422775034">
        <ele>51.2</ele>
        <time>2018-02-08T12:15:08Z</time>
      </trkpt>
      <trkpt lat="62.641629921122" lon="17.885401485008">
        <ele>51.4</ele>
        <time>2018-02-08T12:15:09Z</time>
      </trkpt>
      <trkpt lat="62.641616258625" lon="17.885377764231">
        <ele>51.6</ele>
        <time>2018-02-08T12:15:10Z</time>
      </trkpt>
      <trkpt lat="62.641605026879" lon="17.885358150585">
        <ele>51.8</ele>
        <time>2018-02-08T12:15:11Z</time>
      </trkpt>
      <trkpt lat="62.641589352726" lon="17.885330825591">
        <ele>51.8</ele>
        <time>2018-02-08T12:15:12Z</time>
      </trkpt>
      <trkpt lat="62.641577869523" lon="17.885309451746">
        <ele>52.2</ele>
        <time>2018-02-08T12:15:13Z</time>
      </trkpt>
      <trkpt lat="62.641565045216" lon="17.885290173376">
        <ele>52.4</ele>
        <time>2018-02-08T12:15:14Z</time>
      </trkpt>
      <trkpt lat="62.641551131262" lon="17.885268715712">
        <ele>52.6</ele>
        <time>2018-02-08T12:15:15Z</time>
      </trkpt>
      <trkpt lat="62.641536714394" lon="17.885241809813">
        <ele>52.6</ele>
        <time>2018-02-08T12:15:16Z</time>
      </trkpt>
      <trkpt lat="62.641525231191" lon="17.885221777072">
        <ele>52.8</ele>
        <time>2018-02-08T12:15:17Z</time>
      </trkpt>
      <trkpt lat="62.641505952821" lon="17.885188500929">
        <ele>53</ele>
        <time>2018-02-08T12:15:18Z</time>
      </trkpt>
      <trkpt lat="62.641491535953" lon="17.885162768496">
        <ele>53.2</ele>
        <time>2018-02-08T12:15:19Z</time>
      </trkpt>
      <trkpt lat="62.641479968931" lon="17.885142987212">
        <ele>53.4</ele>
        <time>2018-02-08T12:15:20Z</time>
      </trkpt>
      <trkpt lat="62.641468988642" lon="17.885123289747">
        <ele>53.4</ele>
        <time>2018-02-08T12:15:21Z</time>
      </trkpt>
      <trkpt lat="62.641454152679" lon="17.885104179015">
        <ele>53.6</ele>
        <time>2018-02-08T12:15:22Z</time>
      </trkpt>
      <trkpt lat="62.641441747467" lon="17.885078111306">
        <ele>53.8</ele>
        <time>2018-02-08T12:15:23Z</time>
      </trkpt>
      <trkpt lat="62.641424396934" lon="17.885044332249">
        <ele>54</ele>
        <time>2018-02-08T12:15:24Z</time>
      </trkpt>
      <trkpt lat="62.641408890419" lon="17.885011391382">
        <ele>54.2</ele>
        <time>2018-02-08T12:15:25Z</time>
      </trkpt>
      <trkpt lat="62.641397323397" lon="17.88499730979">
        <ele>54.4</ele>
        <time>2018-02-08T12:15:26Z</time>
      </trkpt>
      <trkpt lat="62.641377206837" lon="17.88495959124">
        <ele>54.4</ele>
        <time>2018-02-08T12:15:27Z</time>
      </trkpt>
      <trkpt lat="62.64136102977" lon="17.88492690183">
        <ele>54.6</ele>
        <time>2018-02-08T12:15:28Z</time>
      </trkpt>
      <trkpt lat="62.641344014513" lon="17.884895218248">
        <ele>54.8</ele>
        <time>2018-02-08T12:15:29Z</time>
      </trkpt>
      <trkpt lat="62.641331357844" lon="17.884877700077">
        <ele>54.8</ele>
        <time>2018-02-08T12:15:30Z</time>
      </trkpt>
      <trkpt lat="62.641311157465" lon="17.88484056826">
        <ele>55</ele>
        <time>2018-02-08T12:15:31Z</time>
      </trkpt>
      <trkpt lat="62.641291292362" lon="17.884806873022">
        <ele>55</ele>
        <time>2018-02-08T12:15:32Z</time>
      </trkpt>
      <trkpt lat="62.641280647349" lon="17.884791617964">
        <ele>55.2</ele>
        <time>2018-02-08T12:15:33Z</time>
      </trkpt>
      <trkpt lat="62.641264302644" lon="17.884764963522">
        <ele>55.4</ele>
        <time>2018-02-08T12:15:34Z</time>
      </trkpt>
      <trkpt lat="62.641249215224" lon="17.884739063451">
        <ele>55.4</ele>
        <time>2018-02-08T12:15:35Z</time>
      </trkpt>
      <trkpt lat="62.641235468908" lon="17.884707882783">
        <ele>55.6</ele>
        <time>2018-02-08T12:15:36Z</time>
      </trkpt>
      <trkpt lat="62.64121937566" lon="17.884677037391">
        <ele>55.8</ele>
        <time>2018-02-08T12:15:37Z</time>
      </trkpt>
      <trkpt lat="62.641205713163" lon="17.884647114008">
        <ele>56</ele>
        <time>2018-02-08T12:15:38Z</time>
      </trkpt>
      <trkpt lat="62.641192469761" lon="17.884617944996">
        <ele>56.4</ele>
        <time>2018-02-08T12:15:39Z</time>
      </trkpt>
      <trkpt lat="62.641176544151" lon="17.884587686337">
        <ele>56.6</ele>
        <time>2018-02-08T12:15:40Z</time>
      </trkpt>
      <trkpt lat="62.641164558034" lon="17.884568491786">
        <ele>56.6</ele>
        <time>2018-02-08T12:15:41Z</time>
      </trkpt>
      <trkpt lat="62.641147458958" lon="17.884533203987">
        <ele>56.8</ele>
        <time>2018-02-08T12:15:42Z</time>
      </trkpt>
      <trkpt lat="62.641132455357" lon="17.884490959211">
        <ele>57</ele>
        <time>2018-02-08T12:15:43Z</time>
      </trkpt>
      <trkpt lat="62.641114769548" lon="17.884454833222">
        <ele>57.2</ele>
        <time>2018-02-08T12:15:44Z</time>
      </trkpt>
      <trkpt lat="62.641103873078" lon="17.884427256771">
        <ele>57.4</ele>
        <time>2018-02-08T12:15:45Z</time>
      </trkpt>
      <trkpt lat="62.641089540029" lon="17.884402446347">
        <ele>57.4</ele>
        <time>2018-02-08T12:15:46Z</time>
      </trkpt>
      <trkpt lat="62.641074536428" lon="17.884358692829">
        <ele>57.6</ele>
        <time>2018-02-08T12:15:47Z</time>
      </trkpt>
      <trkpt lat="62.641059029913" lon="17.884321141917">
        <ele>57.8</ele>
        <time>2018-02-08T12:15:48Z</time>
      </trkpt>
      <trkpt lat="62.641049474547" lon="17.884299516615">
        <ele>58.2</ele>
        <time>2018-02-08T12:15:49Z</time>
      </trkpt>
      <trkpt lat="62.641033632756" lon="17.884253248527">
        <ele>58.2</ele>
        <time>2018-02-08T12:15:50Z</time>
      </trkpt>
      <trkpt lat="62.641017790965" lon="17.884209495009">
        <ele>58.4</ele>
        <time>2018-02-08T12:15:51Z</time>
      </trkpt>
      <trkpt lat="62.641004882839" lon="17.884184181671">
        <ele>58.6</ele>
        <time>2018-02-08T12:15:52Z</time>
      </trkpt>
      <trkpt lat="62.640986777935" lon="17.88412726857">
        <ele>58.6</ele>
        <time>2018-02-08T12:15:53Z</time>
      </trkpt>
      <trkpt lat="62.640975294732" lon="17.884097345187">
        <ele>58.6</ele>
        <time>2018-02-08T12:15:54Z</time>
      </trkpt>
      <trkpt lat="62.640959117665" lon="17.884054262221">
        <ele>58.6</ele>
        <time>2018-02-08T12:15:55Z</time>
      </trkpt>
      <trkpt lat="62.640946712453" lon="17.884009419056">
        <ele>58.6</ele>
        <time>2018-02-08T12:15:56Z</time>
      </trkpt>
      <trkpt lat="62.640934893974" lon="17.883982094062">
        <ele>58.6</ele>
        <time>2018-02-08T12:15:57Z</time>
      </trkpt>
      <trkpt lat="62.640922237305" lon="17.883933479042">
        <ele>58.8</ele>
        <time>2018-02-08T12:15:58Z</time>
      </trkpt>
      <trkpt lat="62.640909999731" lon="17.883885702212">
        <ele>58.8</ele>
        <time>2018-02-08T12:15:59Z</time>
      </trkpt>
      <trkpt lat="62.640906563152" lon="17.883841697237">
        <ele>59</ele>
        <time>2018-02-08T12:16:00Z</time>
      </trkpt>
      <trkpt lat="62.640901198736" lon="17.883812779682">
        <ele>59</ele>
        <time>2018-02-08T12:16:01Z</time>
      </trkpt>
      <trkpt lat="62.640896756329" lon="17.883771792191">
        <ele>59.2</ele>
        <time>2018-02-08T12:16:02Z</time>
      </trkpt>
      <trkpt lat="62.640892230103" lon="17.883734911831">
        <ele>59.4</ele>
        <time>2018-02-08T12:16:03Z</time>
      </trkpt>
      <trkpt lat="62.640889296438" lon="17.883686883544">
        <ele>59.6</ele>
        <time>2018-02-08T12:16:04Z</time>
      </trkpt>
      <trkpt lat="62.640887871515" lon="17.883646231329">
        <ele>59.6</ele>
        <time>2018-02-08T12:16:05Z</time>
      </trkpt>
      <trkpt lat="62.640885524583" lon="17.883605579114">
        <ele>59.8</ele>
        <time>2018-02-08T12:16:06Z</time>
      </trkpt>
      <trkpt lat="62.64088158509" lon="17.883569788401">
        <ele>60.2</ele>
        <time>2018-02-08T12:16:07Z</time>
      </trkpt>
      <trkpt lat="62.64087739414" lon="17.883534416783">
        <ele>60.2</ele>
        <time>2018-02-08T12:16:08Z</time>
      </trkpt>
      <trkpt lat="62.640874544294" lon="17.883499631898">
        <ele>60.4</ele>
        <time>2018-02-08T12:16:09Z</time>
      </trkpt>
      <trkpt lat="62.640870604801" lon="17.883461075158">
        <ele>60.6</ele>
        <time>2018-02-08T12:16:10Z</time>
      </trkpt>
      <trkpt lat="62.640865156566" lon="17.883426206454">
        <ele>60.8</ele>
        <time>2018-02-08T12:16:11Z</time>
      </trkpt>
      <trkpt lat="62.640859456874" lon="17.883379938366">
        <ele>61</ele>
        <time>2018-02-08T12:16:12Z</time>
      </trkpt>
      <trkpt lat="62.640855182105" lon="17.883343896196">
        <ele>61.4</ele>
        <time>2018-02-08T12:16:13Z</time>
      </trkpt>
      <trkpt lat="62.640848979499" lon="17.883301148506">
        <ele>61.6</ele>
        <time>2018-02-08T12:16:14Z</time>
      </trkpt>
      <trkpt lat="62.640844956187" lon="17.88326225649">
        <ele>61.8</ele>
        <time>2018-02-08T12:16:15Z</time>
      </trkpt>
      <trkpt lat="62.640842776893" lon="17.883227723062">
        <ele>62</ele>
        <time>2018-02-08T12:16:16Z</time>
      </trkpt>
      <trkpt lat="62.640839424133" lon="17.883188579589">
        <ele>62.2</ele>
        <time>2018-02-08T12:16:17Z</time>
      </trkpt>
      <trkpt lat="62.640836658106" lon="17.883147927374">
        <ele>62.4</ele>
        <time>2018-02-08T12:16:18Z</time>
      </trkpt>
      <trkpt lat="62.640837915391" lon="17.883105766417">
        <ele>62.6</ele>
        <time>2018-02-08T12:16:19Z</time>
      </trkpt>
      <trkpt lat="62.640834227355" lon="17.883059330691">
        <ele>62.8</ele>
        <time>2018-02-08T12:16:20Z</time>
      </trkpt>
      <trkpt lat="62.640834394993" lon="17.883019851942">
        <ele>63</ele>
        <time>2018-02-08T12:16:21Z</time>
      </trkpt>
      <trkpt lat="62.640832802432" lon="17.882977523347">
        <ele>63.4</ele>
        <time>2018-02-08T12:16:22Z</time>
      </trkpt>
      <trkpt lat="62.640831628966" lon="17.882938631331">
        <ele>63.6</ele>
        <time>2018-02-08T12:16:23Z</time>
      </trkpt>
      <trkpt lat="62.640835233183" lon="17.882906193378">
        <ele>64</ele>
        <time>2018-02-08T12:16:24Z</time>
      </trkpt>
      <trkpt lat="62.640841687246" lon="17.882881802049">
        <ele>64</ele>
        <time>2018-02-08T12:16:25Z</time>
      </trkpt>
      <trkpt lat="62.640846716386" lon="17.882860092928">
        <ele>64.2</ele>
        <time>2018-02-08T12:16:26Z</time>
      </trkpt>
      <trkpt lat="62.640859540693" lon="17.882818602523">
        <ele>64.4</ele>
        <time>2018-02-08T12:16:27Z</time>
      </trkpt>
      <trkpt lat="62.640869934249" lon="17.882778872317">
        <ele>64.6</ele>
        <time>2018-02-08T12:16:28Z</time>
      </trkpt>
      <trkpt lat="62.640879238158" lon="17.882725311976">
        <ele>64.6</ele>
        <time>2018-02-08T12:16:29Z</time>
      </trkpt>
      <trkpt lat="62.640892816836" lon="17.882655323111">
        <ele>64.6</ele>
        <time>2018-02-08T12:16:30Z</time>
      </trkpt>
      <trkpt lat="62.640906814609" lon="17.882588854644">
        <ele>64.6</ele>
        <time>2018-02-08T12:16:31Z</time>
      </trkpt>
      <trkpt lat="62.64091678907" lon="17.882519536331">
        <ele>64.8</ele>
        <time>2018-02-08T12:16:32Z</time>
      </trkpt>
      <trkpt lat="62.640920477106" lon="17.88247603427">
        <ele>64.6</ele>
        <time>2018-02-08T12:16:33Z</time>
      </trkpt>
      <trkpt lat="62.640926512074" lon="17.882423144481">
        <ele>64.6</ele>
        <time>2018-02-08T12:16:34Z</time>
      </trkpt>
      <trkpt lat="62.640922237305" lon="17.882391293261">
        <ele>64.6</ele>
        <time>2018-02-08T12:16:35Z</time>
      </trkpt>
      <trkpt lat="62.640919555097" lon="17.882326752631">
        <ele>64.6</ele>
        <time>2018-02-08T12:16:36Z</time>
      </trkpt>
      <trkpt lat="62.640914525957" lon="17.882265816218">
        <ele>64.4</ele>
        <time>2018-02-08T12:16:37Z</time>
      </trkpt>
      <trkpt lat="62.640909412998" lon="17.882211669144">
        <ele>64.6</ele>
        <time>2018-02-08T12:16:38Z</time>
      </trkpt>
      <trkpt lat="62.640904551496" lon="17.882167664169">
        <ele>64.6</ele>
        <time>2018-02-08T12:16:39Z</time>
      </trkpt>
      <trkpt lat="62.640893487388" lon="17.882122569547">
        <ele>64.8</ele>
        <time>2018-02-08T12:16:40Z</time>
      </trkpt>
      <trkpt lat="62.640887200963" lon="17.882086778834">
        <ele>65</ele>
        <time>2018-02-08T12:16:41Z</time>
      </trkpt>
      <trkpt lat="62.640878316149" lon="17.882053418872">
        <ele>65.4</ele>
        <time>2018-02-08T12:16:42Z</time>
      </trkpt>
      <trkpt lat="62.640869682792" lon="17.882012347562">
        <ele>65.6</ele>
        <time>2018-02-08T12:16:43Z</time>
      </trkpt>
      <trkpt lat="62.640856187933" lon="17.881965408922">
        <ele>66</ele>
        <time>2018-02-08T12:16:44Z</time>
      </trkpt>
      <trkpt lat="62.640848392766" lon="17.881929366752">
        <ele>66.2</ele>
        <time>2018-02-08T12:16:45Z</time>
      </trkpt>
      <trkpt lat="62.64084135197" lon="17.881899443369">
        <ele>66</ele>
        <time>2018-02-08T12:16:46Z</time>
      </trkpt>
      <trkpt lat="62.640830371681" lon="17.881865329036">
        <ele>66.2</ele>
        <time>2018-02-08T12:16:47Z</time>
      </trkpt>
      <trkpt lat="62.640821570686" lon="17.881834986558">
        <ele>66.4</ele>
        <time>2018-02-08T12:16:48Z</time>
      </trkpt>
      <trkpt lat="62.640811344768" lon="17.881798692931">
        <ele>66.4</ele>
        <time>2018-02-08T12:16:49Z</time>
      </trkpt>
      <trkpt lat="62.640802292316" lon="17.881758124535">
        <ele>66.4</ele>
        <time>2018-02-08T12:16:50Z</time>
      </trkpt>
      <trkpt lat="62.64079441333" lon="17.881721747089">
        <ele>66.6</ele>
        <time>2018-02-08T12:16:51Z</time>
      </trkpt>
      <trkpt lat="62.64078435505" lon="17.881698613045">
        <ele>67</ele>
        <time>2018-02-08T12:16:52Z</time>
      </trkpt>
      <trkpt lat="62.64077513496" lon="17.881653518423">
        <ele>67.2</ele>
        <time>2018-02-08T12:16:53Z</time>
      </trkpt>
      <trkpt lat="62.640765998689" lon="17.881610267819">
        <ele>67.2</ele>
        <time>2018-02-08T12:16:54Z</time>
      </trkpt>
      <trkpt lat="62.640754515486" lon="17.881570286156">
        <ele>67.4</ele>
        <time>2018-02-08T12:16:55Z</time>
      </trkpt>
      <trkpt lat="62.640745295396" lon="17.881541368601">
        <ele>67.6</ele>
        <time>2018-02-08T12:16:56Z</time>
      </trkpt>
      <trkpt lat="62.64073322546" lon="17.881503901508">
        <ele>67.8</ele>
        <time>2018-02-08T12:16:57Z</time>
      </trkpt>
      <trkpt lat="62.640723083361" lon="17.881463333112">
        <ele>67.8</ele>
        <time>2018-02-08T12:16:58Z</time>
      </trkpt>
      <trkpt lat="62.640713779452" lon="17.881434834652">
        <ele>68</ele>
        <time>2018-02-08T12:16:59Z</time>
      </trkpt>
      <trkpt lat="62.640707660665" lon="17.881405330364">
        <ele>68.2</ele>
        <time>2018-02-08T12:17:00Z</time>
      </trkpt>
      <trkpt lat="62.640696931833" lon="17.881360319561">
        <ele>68.4</ele>
        <time>2018-02-08T12:17:01Z</time>
      </trkpt>
      <trkpt lat="62.640687208829" lon="17.881321930459">
        <ele>68.4</ele>
        <time>2018-02-08T12:17:02Z</time>
      </trkpt>
      <trkpt lat="62.640680754766" lon="17.881296952397">
        <ele>68.6</ele>
        <time>2018-02-08T12:17:03Z</time>
      </trkpt>
      <trkpt lat="62.640672205228" lon="17.881249678481">
        <ele>68.8</ele>
        <time>2018-02-08T12:17:04Z</time>
      </trkpt>
      <trkpt lat="62.640661224939" lon="17.881204416221">
        <ele>69</ele>
        <time>2018-02-08T12:17:05Z</time>
      </trkpt>
      <trkpt lat="62.640656363437" lon="17.881168960784">
        <ele>69.2</ele>
        <time>2018-02-08T12:17:06Z</time>
      </trkpt>
      <trkpt lat="62.640650328469" lon="17.881114059339">
        <ele>69.2</ele>
        <time>2018-02-08T12:17:07Z</time>
      </trkpt>
      <trkpt lat="62.640643790587" lon="17.881063851758">
        <ele>69.2</ele>
        <time>2018-02-08T12:17:08Z</time>
      </trkpt>
      <trkpt lat="62.640640354008" lon="17.881029821244">
        <ele>69.4</ele>
        <time>2018-02-08T12:17:09Z</time>
      </trkpt>
      <trkpt lat="62.640638593809" lon="17.880998472938">
        <ele>69.2</ele>
        <time>2018-02-08T12:17:10Z</time>
      </trkpt>
      <trkpt lat="62.64063850999" lon="17.880948349176">
        <ele>69.4</ele>
        <time>2018-02-08T12:17:11Z</time>
      </trkpt>
      <trkpt lat="62.640641695112" lon="17.880886909849">
        <ele>69.6</ele>
        <time>2018-02-08T12:17:12Z</time>
      </trkpt>
      <trkpt lat="62.640646808071" lon="17.880852711697">
        <ele>69.8</ele>
        <time>2018-02-08T12:17:13Z</time>
      </trkpt>
      <trkpt lat="62.640649825555" lon="17.880808287627">
        <ele>70</ele>
        <time>2018-02-08T12:17:14Z</time>
      </trkpt>
      <trkpt lat="62.640659297102" lon="17.880753386182">
        <ele>70</ele>
        <time>2018-02-08T12:17:15Z</time>
      </trkpt>
      <trkpt lat="62.640667427545" lon="17.880714829442">
        <ele>70.2</ele>
        <time>2018-02-08T12:17:16Z</time>
      </trkpt>
      <trkpt lat="62.640672456685" lon="17.880670153915">
        <ele>70.4</ele>
        <time>2018-02-08T12:17:17Z</time>
      </trkpt>
      <trkpt lat="62.640687041191" lon="17.880618353773">
        <ele>70.4</ele>
        <time>2018-02-08T12:17:18Z</time>
      </trkpt>
      <trkpt lat="62.640698105299" lon="17.880563703785">
        <ele>70.6</ele>
        <time>2018-02-08T12:17:19Z</time>
      </trkpt>
      <trkpt lat="62.640709839959" lon="17.880516765145">
        <ele>70.6</ele>
        <time>2018-02-08T12:17:20Z</time>
      </trkpt>
      <trkpt lat="62.640724340646" lon="17.880476699663">
        <ele>70.8</ele>
        <time>2018-02-08T12:17:21Z</time>
      </trkpt>
      <trkpt lat="62.640736745858" lon="17.88043923257">
        <ele>71</ele>
        <time>2018-02-08T12:17:22Z</time>
      </trkpt>
      <trkpt lat="62.640747642328" lon="17.880407213712">
        <ele>71.2</ele>
        <time>2018-02-08T12:17:23Z</time>
      </trkpt>
      <trkpt lat="62.640769099992" lon="17.880354826837">
        <ele>71.2</ele>
        <time>2018-02-08T12:17:24Z</time>
      </trkpt>
      <trkpt lat="62.640780750833" lon="17.880324651997">
        <ele>71.4</ele>
        <time>2018-02-08T12:17:25Z</time>
      </trkpt>
      <trkpt lat="62.640789719466" lon="17.880298919564">
        <ele>71.6</ele>
        <time>2018-02-08T12:17:26Z</time>
      </trkpt>
      <trkpt lat="62.640805561257" lon="17.880247873793">
        <ele>71.6</ele>
        <time>2018-02-08T12:17:27Z</time>
      </trkpt>
      <trkpt lat="62.640811428587" lon="17.880224739749">
        <ele>71.8</ele>
        <time>2018-02-08T12:17:28Z</time>
      </trkpt>
      <trkpt lat="62.640828192387" lon="17.880180483317">
        <ele>71.8</ele>
        <time>2018-02-08T12:17:29Z</time>
      </trkpt>
      <trkpt lat="62.640840681418" lon="17.88013329322">
        <ele>72</ele>
        <time>2018-02-08T12:17:30Z</time>
      </trkpt>
      <trkpt lat="62.640848728042" lon="17.880106890235">
        <ele>72</ele>
        <time>2018-02-08T12:17:31Z</time>
      </trkpt>
      <trkpt lat="62.640866665308" lon="17.880049306582">
        <ele>72</ele>
        <time>2018-02-08T12:17:32Z</time>
      </trkpt>
      <trkpt lat="62.640875550122" lon="17.880020640484">
        <ele>72</ele>
        <time>2018-02-08T12:17:33Z</time>
      </trkpt>
      <trkpt lat="62.640889464076" lon="17.879983341029">
        <ele>72</ele>
        <time>2018-02-08T12:17:34Z</time>
      </trkpt>
      <trkpt lat="62.64090086346" lon="17.879940593339">
        <ele>72.2</ele>
        <time>2018-02-08T12:17:35Z</time>
      </trkpt>
      <trkpt lat="62.640909915912" lon="17.879908406843">
        <ele>72.2</ele>
        <time>2018-02-08T12:17:36Z</time>
      </trkpt>
      <trkpt lat="62.64092600916" lon="17.879853505398">
        <ele>72.2</ele>
        <time>2018-02-08T12:17:37Z</time>
      </trkpt>
      <trkpt lat="62.64093355287" lon="17.879820061617">
        <ele>72.2</ele>
        <time>2018-02-08T12:17:38Z</time>
      </trkpt>
      <trkpt lat="62.640944868435" lon="17.87978209161">
        <ele>72.4</ele>
        <time>2018-02-08T12:17:39Z</time>
      </trkpt>
      <trkpt lat="62.640955681086" lon="17.879732386943">
        <ele>72.4</ele>
        <time>2018-02-08T12:17:40Z</time>
      </trkpt>
      <trkpt lat="62.640963308615" lon="17.879698859343">
        <ele>72.4</ele>
        <time>2018-02-08T12:17:41Z</time>
      </trkpt>
      <trkpt lat="62.640970517049" lon="17.879664661191">
        <ele>72.6</ele>
        <time>2018-02-08T12:17:42Z</time>
      </trkpt>
      <trkpt lat="62.640982503166" lon="17.879620237121">
        <ele>72.8</ele>
        <time>2018-02-08T12:17:43Z</time>
      </trkpt>
      <trkpt lat="62.640994321645" lon="17.879568939893">
        <ele>73</ele>
        <time>2018-02-08T12:17:44Z</time>
      </trkpt>
      <trkpt lat="62.640999434604" lon="17.879536418121">
        <ele>73.2</ele>
        <time>2018-02-08T12:17:45Z</time>
      </trkpt>
      <trkpt lat="62.64101234273" lon="17.879483612151">
        <ele>73.2</ele>
        <time>2018-02-08T12:17:46Z</time>
      </trkpt>
      <trkpt lat="62.641023909752" lon="17.879435248588">
        <ele>73.4</ele>
        <time>2018-02-08T12:17:47Z</time>
      </trkpt>
      <trkpt lat="62.641031956376" lon="17.879400882798">
        <ele>73.4</ele>
        <time>2018-02-08T12:17:48Z</time>
      </trkpt>
      <trkpt lat="62.641046205606" lon="17.879353525063">
        <ele>73.4</ele>
        <time>2018-02-08T12:17:49Z</time>
      </trkpt>
      <trkpt lat="62.641057018257" lon="17.87931102883">
        <ele>73.4</ele>
        <time>2018-02-08T12:17:50Z</time>
      </trkpt>
      <trkpt lat="62.641063975234" lon="17.879284877302">
        <ele>73.4</ele>
        <time>2018-02-08T12:17:51Z</time>
      </trkpt>
      <trkpt lat="62.641078224464" lon="17.879234502083">
        <ele>73.6</ele>
        <time>2018-02-08T12:17:52Z</time>
      </trkpt>
      <trkpt lat="62.641088534201" lon="17.879190664746">
        <ele>73.6</ele>
        <time>2018-02-08T12:17:53Z</time>
      </trkpt>
      <trkpt lat="62.641100939413" lon="17.879147749418">
        <ele>73.6</ele>
        <time>2018-02-08T12:17:54Z</time>
      </trkpt>
      <trkpt lat="62.641111752064" lon="17.87911321599">
        <ele>73.8</ele>
        <time>2018-02-08T12:17:55Z</time>
      </trkpt>
      <trkpt lat="62.641117284118" lon="17.879091339231">
        <ele>73.8</ele>
        <time>2018-02-08T12:17:56Z</time>
      </trkpt>
      <trkpt lat="62.641133125909" lon="17.87903526432">
        <ele>74</ele>
        <time>2018-02-08T12:17:57Z</time>
      </trkpt>
      <trkpt lat="62.641144944388" lon="17.879002826367">
        <ele>74.4</ele>
        <time>2018-02-08T12:17:58Z</time>
      </trkpt>
      <trkpt lat="62.641155924677" lon="17.878968544396">
        <ele>74.6</ele>
        <time>2018-02-08T12:17:59Z</time>
      </trkpt>
      <trkpt lat="62.641176460332" lon="17.878906518336">
        <ele>74.8</ele>
        <time>2018-02-08T12:18:00Z</time>
      </trkpt>
      <trkpt lat="62.641182662938" lon="17.878883635749">
        <ele>75</ele>
        <time>2018-02-08T12:18:01Z</time>
      </trkpt>
      <trkpt lat="62.641198588548" lon="17.878825800639">
        <ele>75.2</ele>
        <time>2018-02-08T12:18:02Z</time>
      </trkpt>
      <trkpt lat="62.641213843606" lon="17.878790764297">
        <ele>75.2</ele>
        <time>2018-02-08T12:18:03Z</time>
      </trkpt>
      <trkpt lat="62.641223482791" lon="17.878763858398">
        <ele>75.2</ele>
        <time>2018-02-08T12:18:04Z</time>
      </trkpt>
      <trkpt lat="62.641236810012" lon="17.878722284174">
        <ele>75.4</ele>
        <time>2018-02-08T12:18:05Z</time>
      </trkpt>
      <trkpt lat="62.641245527188" lon="17.878679787941">
        <ele>75.4</ele>
        <time>2018-02-08T12:18:06Z</time>
      </trkpt>
      <trkpt lat="62.641253238536" lon="17.878646847074">
        <ele>75.6</ele>
        <time>2018-02-08T12:18:07Z</time>
      </trkpt>
      <trkpt lat="62.641261201341" lon="17.878618432433">
        <ele>75.8</ele>
        <time>2018-02-08T12:18:08Z</time>
      </trkpt>
      <trkpt lat="62.641275199114" lon="17.878577696399">
        <ele>76</ele>
        <time>2018-02-08T12:18:09Z</time>
      </trkpt>
      <trkpt lat="62.641287604326" lon="17.878535032528">
        <ele>76.2</ele>
        <time>2018-02-08T12:18:10Z</time>
      </trkpt>
      <trkpt lat="62.641292465828" lon="17.878520531841">
        <ele>76.2</ele>
        <time>2018-02-08T12:18:11Z</time>
      </trkpt>
      <trkpt lat="62.641314761682" lon="17.878480298721">
        <ele>76.4</ele>
        <time>2018-02-08T12:18:12Z</time>
      </trkpt>
      <trkpt lat="62.641325071419" lon="17.878447441673">
        <ele>76.6</ele>
        <time>2018-02-08T12:18:13Z</time>
      </trkpt>
      <trkpt lat="62.64133504588" lon="17.878416512462">
        <ele>76.6</ele>
        <time>2018-02-08T12:18:14Z</time>
      </trkpt>
      <trkpt lat="62.641351222947" lon="17.878369992917">
        <ele>76.6</ele>
        <time>2018-02-08T12:18:15Z</time>
      </trkpt>
      <trkpt lat="62.641359269571" lon="17.878343338475">
        <ele>76.6</ele>
        <time>2018-02-08T12:18:16Z</time>
      </trkpt>
      <trkpt lat="62.641375949552" lon="17.878298411491">
        <ele>76.8</ele>
        <time>2018-02-08T12:18:17Z</time>
      </trkpt>
      <trkpt lat="62.64138533728" lon="17.878265554443">
        <ele>76.8</ele>
        <time>2018-02-08T12:18:18Z</time>
      </trkpt>
      <trkpt lat="62.641398496863" lon="17.878226913884">
        <ele>76.8</ele>
        <time>2018-02-08T12:18:19Z</time>
      </trkpt>
      <trkpt lat="62.641416517948" lon="17.878178215045">
        <ele>77</ele>
        <time>2018-02-08T12:18:20Z</time>
      </trkpt>
      <trkpt lat="62.641425402762" lon="17.87814594473">
        <ele>77</ele>
        <time>2018-02-08T12:18:21Z</time>
      </trkpt>
      <trkpt lat="62.64144149601" lon="17.878114344967">
        <ele>77</ele>
        <time>2018-02-08T12:18:22Z</time>
      </trkpt>
      <trkpt lat="62.641457840715" lon="17.878066065223">
        <ele>77</ele>
        <time>2018-02-08T12:18:23Z</time>
      </trkpt>
      <trkpt lat="62.641469659194" lon="17.878037063849">
        <ele>77.2</ele>
        <time>2018-02-08T12:18:24Z</time>
      </trkpt>
      <trkpt lat="62.641478292551" lon="17.877998674747">
        <ele>77.2</ele>
        <time>2018-02-08T12:18:25Z</time>
      </trkpt>
      <trkpt lat="62.641496732731" lon="17.877957435799">
        <ele>77.2</ele>
        <time>2018-02-08T12:18:26Z</time>
      </trkpt>
      <trkpt lat="62.641510143771" lon="17.877923656742">
        <ele>77.4</ele>
        <time>2018-02-08T12:18:27Z</time>
      </trkpt>
      <trkpt lat="62.641523303354" lon="17.877900103603">
        <ele>77.6</ele>
        <time>2018-02-08T12:18:28Z</time>
      </trkpt>
      <trkpt lat="62.641531852892" lon="17.877865318718">
        <ele>77.8</ele>
        <time>2018-02-08T12:18:29Z</time>
      </trkpt>
      <trkpt lat="62.641551131262" lon="17.87782407977">
        <ele>77.8</ele>
        <time>2018-02-08T12:18:30Z</time>
      </trkpt>
      <trkpt lat="62.641563536474" lon="17.877794407844">
        <ele>78.2</ele>
        <time>2018-02-08T12:18:31Z</time>
      </trkpt>
      <trkpt lat="62.641574935858" lon="17.877768172497">
        <ele>78.2</ele>
        <time>2018-02-08T12:18:32Z</time>
      </trkpt>
      <trkpt lat="62.64158315012" lon="17.877739506399">
        <ele>78.4</ele>
        <time>2018-02-08T12:18:33Z</time>
      </trkpt>
      <trkpt lat="62.641593543676" lon="17.877712181405">
        <ele>78.6</ele>
        <time>2018-02-08T12:18:34Z</time>
      </trkpt>
      <trkpt lat="62.641608128182" lon="17.877672115923">
        <ele>78.6</ele>
        <time>2018-02-08T12:18:35Z</time>
      </trkpt>
      <trkpt lat="62.641621203946" lon="17.877636911943">
        <ele>79</ele>
        <time>2018-02-08T12:18:36Z</time>
      </trkpt>
      <trkpt lat="62.641631346045" lon="17.877603971076">
        <ele>79</ele>
        <time>2018-02-08T12:18:37Z</time>
      </trkpt>
      <trkpt lat="62.641641655782" lon="17.87757597553">
        <ele>79.2</ele>
        <time>2018-02-08T12:18:38Z</time>
      </trkpt>
      <trkpt lat="62.641663448722" lon="17.877547309432">
        <ele>79.4</ele>
        <time>2018-02-08T12:18:39Z</time>
      </trkpt>
      <trkpt lat="62.641679625789" lon="17.877514871479">
        <ele>79.4</ele>
        <time>2018-02-08T12:18:40Z</time>
      </trkpt>
      <trkpt lat="62.641689264974" lon="17.87748880377">
        <ele>79.6</ele>
        <time>2018-02-08T12:18:41Z</time>
      </trkpt>
      <trkpt lat="62.641696221951" lon="17.877462233147">
        <ele>79.6</ele>
        <time>2018-02-08T12:18:42Z</time>
      </trkpt>
      <trkpt lat="62.641706112593" lon="17.877434740515">
        <ele>80</ele>
        <time>2018-02-08T12:18:43Z</time>
      </trkpt>
      <trkpt lat="62.64171977509" lon="17.877401045277">
        <ele>80.2</ele>
        <time>2018-02-08T12:18:44Z</time>
      </trkpt>
      <trkpt lat="62.641731258293" lon="17.877366595668">
        <ele>80.4</ele>
        <time>2018-02-08T12:18:45Z</time>
      </trkpt>
      <trkpt lat="62.641738802003" lon="17.877343964538">
        <ele>80.4</ele>
        <time>2018-02-08T12:18:46Z</time>
      </trkpt>
      <trkpt lat="62.641757074545" lon="17.877297780269">
        <ele>80.6</ele>
        <time>2018-02-08T12:18:47Z</time>
      </trkpt>
      <trkpt lat="62.641770737042" lon="17.87725746333">
        <ele>80.8</ele>
        <time>2018-02-08T12:18:48Z</time>
      </trkpt>
      <trkpt lat="62.641780292408" lon="17.877227037033">
        <ele>80.8</ele>
        <time>2018-02-08T12:18:49Z</time>
      </trkpt>
      <trkpt lat="62.641791607973" lon="17.877188480293">
        <ele>81</ele>
        <time>2018-02-08T12:18:50Z</time>
      </trkpt>
      <trkpt lat="62.641808204135" lon="17.877141122558">
        <ele>81</ele>
        <time>2018-02-08T12:18:51Z</time>
      </trkpt>
      <trkpt lat="62.641815831664" lon="17.877111115356">
        <ele>81.2</ele>
        <time>2018-02-08T12:18:52Z</time>
      </trkpt>
      <trkpt lat="62.641834439482" lon="17.87707222334">
        <ele>81.2</ele>
        <time>2018-02-08T12:18:53Z</time>
      </trkpt>
      <trkpt lat="62.641850365092" lon="17.877020926112">
        <ele>81.4</ele>
        <time>2018-02-08T12:18:54Z</time>
      </trkpt>
      <trkpt lat="62.641856567698" lon="17.87699427167">
        <ele>81.6</ele>
        <time>2018-02-08T12:18:55Z</time>
      </trkpt>
      <trkpt lat="62.641868302358" lon="17.876954960559">
        <ele>81.6</ele>
        <time>2018-02-08T12:18:56Z</time>
      </trkpt>
      <trkpt lat="62.641882886864" lon="17.876924785719">
        <ele>81.8</ele>
        <time>2018-02-08T12:18:57Z</time>
      </trkpt>
      <trkpt lat="62.641896800818" lon="17.876901986951">
        <ele>81.8</ele>
        <time>2018-02-08T12:18:58Z</time>
      </trkpt>
      <trkpt lat="62.641905434175" lon="17.87686854317">
        <ele>82</ele>
        <time>2018-02-08T12:18:59Z</time>
      </trkpt>
      <trkpt lat="62.641919515767" lon="17.876831159896">
        <ele>82.2</ele>
        <time>2018-02-08T12:19:00Z</time>
      </trkpt>
      <trkpt lat="62.641936531024" lon="17.876779946487">
        <ele>82.2</ele>
        <time>2018-02-08T12:19:01Z</time>
      </trkpt>
      <trkpt lat="62.641948936236" lon="17.876764859067">
        <ele>82.6</ele>
        <time>2018-02-08T12:19:02Z</time>
      </trkpt>
      <trkpt lat="62.641971315909" lon="17.876709957622">
        <ele>82.8</ele>
        <time>2018-02-08T12:19:03Z</time>
      </trkpt>
      <trkpt lat="62.641985146044" lon="17.876685314836">
        <ele>82.8</ele>
        <time>2018-02-08T12:19:04Z</time>
      </trkpt>
      <trkpt lat="62.641991013374" lon="17.876661007326">
        <ele>82.8</ele>
        <time>2018-02-08T12:19:05Z</time>
      </trkpt>
      <trkpt lat="62.642009034459" lon="17.876610883564">
        <ele>83</ele>
        <time>2018-02-08T12:19:06Z</time>
      </trkpt>
      <trkpt lat="62.642015907617" lon="17.876575763403">
        <ele>83</ele>
        <time>2018-02-08T12:19:07Z</time>
      </trkpt>
      <trkpt lat="62.642036778548" lon="17.876538044853">
        <ele>83</ele>
        <time>2018-02-08T12:19:08Z</time>
      </trkpt>
      <trkpt lat="62.642050524864" lon="17.876486747625">
        <ele>83.2</ele>
        <time>2018-02-08T12:19:09Z</time>
      </trkpt>
      <trkpt lat="62.64205756566" lon="17.876460847554">
        <ele>83.4</ele>
        <time>2018-02-08T12:19:10Z</time>
      </trkpt>
      <trkpt lat="62.642073407451" lon="17.876415836751">
        <ele>83.4</ele>
        <time>2018-02-08T12:19:11Z</time>
      </trkpt>
      <trkpt lat="62.64209109326" lon="17.876375100717">
        <ele>83.6</ele>
        <time>2018-02-08T12:19:12Z</time>
      </trkpt>
      <trkpt lat="62.642095954762" lon="17.876333610312">
        <ele>83.6</ele>
        <time>2018-02-08T12:19:13Z</time>
      </trkpt>
      <trkpt lat="62.642098553151" lon="17.876294718296">
        <ele>83.6</ele>
        <time>2018-02-08T12:19:14Z</time>
      </trkpt>
      <trkpt lat="62.642120513729" lon="17.876255155728">
        <ele>83.6</ele>
        <time>2018-02-08T12:19:15Z</time>
      </trkpt>
      <trkpt lat="62.642127554525" lon="17.87622565144">
        <ele>83.6</ele>
        <time>2018-02-08T12:19:16Z</time>
      </trkpt>
      <trkpt lat="62.642139624461" lon="17.876199332274">
        <ele>83.6</ele>
        <time>2018-02-08T12:19:17Z</time>
      </trkpt>
      <trkpt lat="62.642162507048" lon="17.876155494937">
        <ele>83.8</ele>
        <time>2018-02-08T12:19:18Z</time>
      </trkpt>
      <trkpt lat="62.642177007735" lon="17.876123559898">
        <ele>84</ele>
        <time>2018-02-08T12:19:19Z</time>
      </trkpt>
      <trkpt lat="62.642191843698" lon="17.876102521329">
        <ele>84.2</ele>
        <time>2018-02-08T12:19:20Z</time>
      </trkpt>
      <trkpt lat="62.642215480656" lon="17.876057678164">
        <ele>84.2</ele>
        <time>2018-02-08T12:19:21Z</time>
      </trkpt>
      <trkpt lat="62.642229478429" lon="17.876033286835">
        <ele>84.4</ele>
        <time>2018-02-08T12:19:22Z</time>
      </trkpt>
      <trkpt lat="62.642258312165" lon="17.875987689299">
        <ele>84.4</ele>
        <time>2018-02-08T12:19:23Z</time>
      </trkpt>
      <trkpt lat="62.64227465687" lon="17.875958185011">
        <ele>84.6</ele>
        <time>2018-02-08T12:19:24Z</time>
      </trkpt>
      <trkpt lat="62.6422889061" lon="17.875926082334">
        <ele>84.6</ele>
        <time>2018-02-08T12:19:25Z</time>
      </trkpt>
      <trkpt lat="62.642312962153" lon="17.875895739856">
        <ele>84.6</ele>
        <time>2018-02-08T12:19:26Z</time>
      </trkpt>
      <trkpt lat="62.642328049573" lon="17.875874952744">
        <ele>84.6</ele>
        <time>2018-02-08T12:19:27Z</time>
      </trkpt>
      <trkpt lat="62.642349674875" lon="17.875848214483">
        <ele>84.8</ele>
        <time>2018-02-08T12:19:28Z</time>
      </trkpt>
      <trkpt lat="62.64236853415" lon="17.875820302756">
        <ele>84.8</ele>
        <time>2018-02-08T12:19:29Z</time>
      </trkpt>
      <trkpt lat="62.64238529795" lon="17.875800018558">
        <ele>85</ele>
        <time>2018-02-08T12:19:30Z</time>
      </trkpt>
      <trkpt lat="62.642409102546" lon="17.875770095175">
        <ele>85</ele>
        <time>2018-02-08T12:19:31Z</time>
      </trkpt>
      <trkpt lat="62.642435673169" lon="17.875736651394">
        <ele>85</ele>
        <time>2018-02-08T12:19:32Z</time>
      </trkpt>
      <trkpt lat="62.642453358978" lon="17.875707985296">
        <ele>85.2</ele>
        <time>2018-02-08T12:19:33Z</time>
      </trkpt>
      <trkpt lat="62.642482695628" lon="17.875667165443">
        <ele>85.4</ele>
        <time>2018-02-08T12:19:34Z</time>
      </trkpt>
      <trkpt lat="62.642509266251" lon="17.875629027798">
        <ele>85.2</ele>
        <time>2018-02-08T12:19:35Z</time>
      </trkpt>
      <trkpt lat="62.642537094159" lon="17.875564235711">
        <ele>85.2</ele>
        <time>2018-02-08T12:19:36Z</time>
      </trkpt>
      <trkpt lat="62.64257221432" lon="17.875515536872">
        <ele>85.2</ele>
        <time>2018-02-08T12:19:37Z</time>
      </trkpt>
      <trkpt lat="62.642610016689" lon="17.875470609888">
        <ele>85</ele>
        <time>2018-02-08T12:19:38Z</time>
      </trkpt>
      <trkpt lat="62.642636587312" lon="17.875422162506">
        <ele>84.6</ele>
        <time>2018-02-08T12:19:39Z</time>
      </trkpt>
      <trkpt lat="62.642677490984" lon="17.875374637133">
        <ele>84.2</ele>
        <time>2018-02-08T12:19:40Z</time>
      </trkpt>
      <trkpt lat="62.642705402711" lon="17.875346976863">
        <ele>83.8</ele>
        <time>2018-02-08T12:19:41Z</time>
      </trkpt>
      <trkpt lat="62.642745803469" lon="17.875293165065">
        <ele>83.6</ele>
        <time>2018-02-08T12:19:42Z</time>
      </trkpt>
      <trkpt lat="62.64277086535" lon="17.875254859782">
        <ele>83.4</ele>
        <time>2018-02-08T12:19:43Z</time>
      </trkpt>
      <trkpt lat="62.642801710742" lon="17.875209848979">
        <ele>83.4</ele>
        <time>2018-02-08T12:19:44Z</time>
      </trkpt>
      <trkpt lat="62.642813948316" lon="17.875172381886">
        <ele>83.6</ele>
        <time>2018-02-08T12:19:45Z</time>
      </trkpt>
      <trkpt lat="62.642845380441" lon="17.875125778522">
        <ele>83.8</ele>
        <time>2018-02-08T12:19:46Z</time>
      </trkpt>
      <trkpt lat="62.642873878901" lon="17.875088898162">
        <ele>83.8</ele>
        <time>2018-02-08T12:19:47Z</time>
      </trkpt>
      <trkpt lat="62.642912854736" lon="17.875034415812">
        <ele>83.8</ele>
        <time>2018-02-08T12:19:48Z</time>
      </trkpt>
      <trkpt lat="62.642950824743" lon="17.874979179091">
        <ele>83.4</ele>
        <time>2018-02-08T12:19:49Z</time>
      </trkpt>
      <trkpt lat="62.64298963294" lon="17.874927043673">
        <ele>82.8</ele>
        <time>2018-02-08T12:19:50Z</time>
      </trkpt>
      <trkpt lat="62.643029111689" lon="17.87487029821">
        <ele>82.2</ele>
        <time>2018-02-08T12:19:51Z</time>
      </trkpt>
      <trkpt lat="62.643077559071" lon="17.874803494467">
        <ele>81.6</ele>
        <time>2018-02-08T12:19:52Z</time>
      </trkpt>
      <trkpt lat="62.643122988969" lon="17.874743396244">
        <ele>80.8</ele>
        <time>2018-02-08T12:19:53Z</time>
      </trkpt>
      <trkpt lat="62.643176465491" lon="17.874666701859">
        <ele>80.2</ele>
        <time>2018-02-08T12:19:54Z</time>
      </trkpt>
      <trkpt lat="62.643221895389" lon="17.874597802641">
        <ele>79.8</ele>
        <time>2018-02-08T12:19:55Z</time>
      </trkpt>
      <trkpt lat="62.643261793233" lon="17.874531920907">
        <ele>79.4</ele>
        <time>2018-02-08T12:19:56Z</time>
      </trkpt>
      <trkpt lat="62.643305127656" lon="17.874472912331">
        <ele>79</ele>
        <time>2018-02-08T12:19:57Z</time>
      </trkpt>
      <trkpt lat="62.643352150115" lon="17.874414239031">
        <ele>78.6</ele>
        <time>2018-02-08T12:19:58Z</time>
      </trkpt>
      <trkpt lat="62.6433785531" lon="17.874371826617">
        <ele>78.4</ele>
        <time>2018-02-08T12:19:59Z</time>
      </trkpt>
      <trkpt lat="62.643424066817" lon="17.874297227707">
        <ele>78.6</ele>
        <time>2018-02-08T12:20:00Z</time>
      </trkpt>
      <trkpt lat="62.64345063744" lon="17.87424752304">
        <ele>78.6</ele>
        <time>2018-02-08T12:20:01Z</time>
      </trkpt>
      <trkpt lat="62.643480393185" lon="17.874197986011">
        <ele>78.8</ele>
        <time>2018-02-08T12:20:02Z</time>
      </trkpt>
      <trkpt lat="62.643512160586" lon="17.8741419111">
        <ele>79.2</ele>
        <time>2018-02-08T12:20:03Z</time>
      </trkpt>
      <trkpt lat="62.643538982666" lon="17.874094218089">
        <ele>79.4</ele>
        <time>2018-02-08T12:20:04Z</time>
      </trkpt>
      <trkpt lat="62.643562200529" lon="17.87405641572">
        <ele>79.4</ele>
        <time>2018-02-08T12:20:05Z</time>
      </trkpt>
      <trkpt lat="62.643591872455" lon="17.874002603922">
        <ele>79.4</ele>
        <time>2018-02-08T12:20:06Z</time>
      </trkpt>
      <trkpt lat="62.64361827544" lon="17.873962119345">
        <ele>79.6</ele>
        <time>2018-02-08T12:20:07Z</time>
      </trkpt>
      <trkpt lat="62.64363587743" lon="17.873934123799">
        <ele>79.6</ele>
        <time>2018-02-08T12:20:08Z</time>
      </trkpt>
      <trkpt lat="62.643656999818" lon="17.87389548324">
        <ele>79.6</ele>
        <time>2018-02-08T12:20:09Z</time>
      </trkpt>
      <trkpt lat="62.643670159401" lon="17.873873941757">
        <ele>79.6</ele>
        <time>2018-02-08T12:20:10Z</time>
      </trkpt>
      <trkpt lat="62.643692287617" lon="17.873841419985">
        <ele>79.6</ele>
        <time>2018-02-08T12:20:11Z</time>
      </trkpt>
      <trkpt lat="62.64371215272" lon="17.873796660639">
        <ele>79.8</ele>
        <time>2018-02-08T12:20:12Z</time>
      </trkpt>
      <trkpt lat="62.643723971199" lon="17.873773023681">
        <ele>79.8</ele>
        <time>2018-02-08T12:20:13Z</time>
      </trkpt>
      <trkpt lat="62.643749703632" lon="17.873733125837">
        <ele>80</ele>
        <time>2018-02-08T12:20:14Z</time>
      </trkpt>
      <trkpt lat="62.643770742201" lon="17.873691216337">
        <ele>80</ele>
        <time>2018-02-08T12:20:15Z</time>
      </trkpt>
      <trkpt lat="62.643778621187" lon="17.873667160284">
        <ele>80</ele>
        <time>2018-02-08T12:20:16Z</time>
      </trkpt>
      <trkpt lat="62.643801922869" lon="17.873626843345">
        <ele>80</ele>
        <time>2018-02-08T12:20:17Z</time>
      </trkpt>
      <trkpt lat="62.643820949782" lon="17.873579988524">
        <ele>80</ele>
        <time>2018-02-08T12:20:18Z</time>
      </trkpt>
      <trkpt lat="62.643835115193" lon="17.873542186155">
        <ele>80.2</ele>
        <time>2018-02-08T12:20:19Z</time>
      </trkpt>
      <trkpt lat="62.643850286432" lon="17.873507652727">
        <ele>80.2</ele>
        <time>2018-02-08T12:20:20Z</time>
      </trkpt>
      <trkpt lat="62.643863362196" lon="17.873458283336">
        <ele>80.4</ele>
        <time>2018-02-08T12:20:21Z</time>
      </trkpt>
      <trkpt lat="62.643875096856" lon="17.873425510107">
        <ele>80.4</ele>
        <time>2018-02-08T12:20:22Z</time>
      </trkpt>
      <trkpt lat="62.643886915335" lon="17.873377398001">
        <ele>80.6</ele>
        <time>2018-02-08T12:20:23Z</time>
      </trkpt>
      <trkpt lat="62.643906445162" lon="17.873327274239">
        <ele>80.6</ele>
        <time>2018-02-08T12:20:24Z</time>
      </trkpt>
      <trkpt lat="62.643915581433" lon="17.873292740811">
        <ele>80.8</ele>
        <time>2018-02-08T12:20:25Z</time>
      </trkpt>
      <trkpt lat="62.643930165939" lon="17.873237839366">
        <ele>80.8</ele>
        <time>2018-02-08T12:20:26Z</time>
      </trkpt>
      <trkpt lat="62.643942235875" lon="17.873192577106">
        <ele>81</ele>
        <time>2018-02-08T12:20:27Z</time>
      </trkpt>
      <trkpt lat="62.643949025214" lon="17.873163994827">
        <ele>81</ele>
        <time>2018-02-08T12:20:28Z</time>
      </trkpt>
      <trkpt lat="62.64396360972" lon="17.873115463626">
        <ele>81</ele>
        <time>2018-02-08T12:20:29Z</time>
      </trkpt>
      <trkpt lat="62.643968890317" lon="17.873069530814">
        <ele>81</ele>
        <time>2018-02-08T12:20:30Z</time>
      </trkpt>
      <trkpt lat="62.64397702076" lon="17.873038433965">
        <ele>81.2</ele>
        <time>2018-02-08T12:20:31Z</time>
      </trkpt>
      <trkpt lat="62.643983558642" lon="17.872994093714">
        <ele>81.4</ele>
        <time>2018-02-08T12:20:32Z</time>
      </trkpt>
      <trkpt lat="62.643993114008" lon="17.872946735979">
        <ele>81.4</ele>
        <time>2018-02-08T12:20:33Z</time>
      </trkpt>
      <trkpt lat="62.644000406261" lon="17.872893678552">
        <ele>81.8</ele>
        <time>2018-02-08T12:20:34Z</time>
      </trkpt>
      <trkpt lat="62.644008117609" lon="17.872854702717">
        <ele>81.8</ele>
        <time>2018-02-08T12:20:35Z</time>
      </trkpt>
      <trkpt lat="62.644014655491" lon="17.872807596439">
        <ele>82</ele>
        <time>2018-02-08T12:20:36Z</time>
      </trkpt>
      <trkpt lat="62.644021193373" lon="17.872773817382">
        <ele>82</ele>
        <time>2018-02-08T12:20:37Z</time>
      </trkpt>
      <trkpt lat="62.644028820902" lon="17.872726543466">
        <ele>82.2</ele>
        <time>2018-02-08T12:20:38Z</time>
      </trkpt>
      <trkpt lat="62.644036113155" lon="17.872678598998">
        <ele>82.4</ele>
        <time>2018-02-08T12:20:39Z</time>
      </trkpt>
      <trkpt lat="62.644040304105" lon="17.872631744177">
        <ele>82.6</ele>
        <time>2018-02-08T12:20:40Z</time>
      </trkpt>
      <trkpt lat="62.64404407596" lon="17.872597462206">
        <ele>82.6</ele>
        <time>2018-02-08T12:20:41Z</time>
      </trkpt>
      <trkpt lat="62.644049021281" lon="17.872558151095">
        <ele>82.8</ele>
        <time>2018-02-08T12:20:42Z</time>
      </trkpt>
      <trkpt lat="62.644046925806" lon="17.872504506935">
        <ele>83.2</ele>
        <time>2018-02-08T12:20:43Z</time>
      </trkpt>
      <trkpt lat="62.644055307706" lon="17.872450108404">
        <ele>83.2</ele>
        <time>2018-02-08T12:20:44Z</time>
      </trkpt>
      <trkpt lat="62.644050362385" lon="17.872416664623">
        <ele>83.4</ele>
        <time>2018-02-08T12:20:45Z</time>
      </trkpt>
      <trkpt lat="62.644050027109" lon="17.872348268319">
        <ele>83.6</ele>
        <time>2018-02-08T12:20:46Z</time>
      </trkpt>
      <trkpt lat="62.644052541679" lon="17.872296635815">
        <ele>83.8</ele>
        <time>2018-02-08T12:20:47Z</time>
      </trkpt>
      <trkpt lat="62.64405161967" lon="17.872257995256">
        <ele>83.8</ele>
        <time>2018-02-08T12:20:48Z</time>
      </trkpt>
      <trkpt lat="62.644048853643" lon="17.872185994735">
        <ele>83.8</ele>
        <time>2018-02-08T12:20:49Z</time>
      </trkpt>
      <trkpt lat="62.644043153951" lon="17.872156658085">
        <ele>83.8</ele>
        <time>2018-02-08T12:20:50Z</time>
      </trkpt>
      <trkpt lat="62.644041393752" lon="17.872084489926">
        <ele>83.8</ele>
        <time>2018-02-08T12:20:51Z</time>
      </trkpt>
      <trkpt lat="62.644040807019" lon="17.872027576825">
        <ele>83.8</ele>
        <time>2018-02-08T12:20:52Z</time>
      </trkpt>
      <trkpt lat="62.64403653225" lon="17.871964377299">
        <ele>83.8</ele>
        <time>2018-02-08T12:20:53Z</time>
      </trkpt>
      <trkpt lat="62.644034101499" lon="17.871907799474">
        <ele>83.8</ele>
        <time>2018-02-08T12:20:54Z</time>
      </trkpt>
      <trkpt lat="62.644026222513" lon="17.871830266899">
        <ele>83.8</ele>
        <time>2018-02-08T12:20:55Z</time>
      </trkpt>
      <trkpt lat="62.644013146749" lon="17.871779388766">
        <ele>84</ele>
        <time>2018-02-08T12:20:56Z</time>
      </trkpt>
      <trkpt lat="62.644005351582" lon="17.871728426814">
        <ele>84</ele>
        <time>2018-02-08T12:20:57Z</time>
      </trkpt>
      <trkpt lat="62.643991689085" lon="17.87165667775">
        <ele>84</ele>
        <time>2018-02-08T12:20:58Z</time>
      </trkpt>
      <trkpt lat="62.64398121171" lon="17.871612002223">
        <ele>84</ele>
        <time>2018-02-08T12:20:59Z</time>
      </trkpt>
      <trkpt lat="62.643970818154" lon="17.871559196253">
        <ele>83.8</ele>
        <time>2018-02-08T12:21:00Z</time>
      </trkpt>
      <trkpt lat="62.643961849521" lon="17.871508066663">
        <ele>83.8</ele>
        <time>2018-02-08T12:21:01Z</time>
      </trkpt>
      <trkpt lat="62.643950701594" lon="17.871473533235">
        <ele>83.8</ele>
        <time>2018-02-08T12:21:02Z</time>
      </trkpt>
      <trkpt lat="62.643938547839" lon="17.871409244062">
        <ele>83.6</ele>
        <time>2018-02-08T12:21:03Z</time>
      </trkpt>
      <trkpt lat="62.64392505298" lon="17.871376303195">
        <ele>83.6</ele>
        <time>2018-02-08T12:21:04Z</time>
      </trkpt>
      <trkpt lat="62.643913988872" lon="17.871330370383">
        <ele>83.6</ele>
        <time>2018-02-08T12:21:05Z</time>
      </trkpt>
      <trkpt lat="62.643900661651" lon="17.871284018476">
        <ele>83.6</ele>
        <time>2018-02-08T12:21:06Z</time>
      </trkpt>
      <trkpt lat="62.643890938647" lon="17.871238253302">
        <ele>83.6</ele>
        <time>2018-02-08T12:21:07Z</time>
      </trkpt>
      <trkpt lat="62.643873420476" lon="17.871170779007">
        <ele>83.6</ele>
        <time>2018-02-08T12:21:08Z</time>
      </trkpt>
      <trkpt lat="62.643867050232" lon="17.871125684385">
        <ele>83.8</ele>
        <time>2018-02-08T12:21:09Z</time>
      </trkpt>
      <trkpt lat="62.643858081599" lon="17.871088887844">
        <ele>83.8</ele>
        <time>2018-02-08T12:21:10Z</time>
      </trkpt>
      <trkpt lat="62.643848526233" lon="17.871044463774">
        <ele>83.6</ele>
        <time>2018-02-08T12:21:11Z</time>
      </trkpt>
      <trkpt lat="62.643834947555" lon="17.870985203741">
        <ele>83.6</ele>
        <time>2018-02-08T12:21:12Z</time>
      </trkpt>
      <trkpt lat="62.643824218723" lon="17.87093834892">
        <ele>83.6</ele>
        <time>2018-02-08T12:21:13Z</time>
      </trkpt>
      <trkpt lat="62.643816255918" lon="17.870878166878">
        <ele>83.6</ele>
        <time>2018-02-08T12:21:14Z</time>
      </trkpt>
      <trkpt lat="62.643806784371" lon="17.870840364509">
        <ele>83.6</ele>
        <time>2018-02-08T12:21:15Z</time>
      </trkpt>
      <trkpt lat="62.643797480462" lon="17.870779511915">
        <ele>83.6</ele>
        <time>2018-02-08T12:21:16Z</time>
      </trkpt>
      <trkpt lat="62.643793121874" lon="17.870749169437">
        <ele>83.6</ele>
        <time>2018-02-08T12:21:17Z</time>
      </trkpt>
      <trkpt lat="62.64377669335" lon="17.870659483107">
        <ele>83.6</ele>
        <time>2018-02-08T12:21:18Z</time>
      </trkpt>
      <trkpt lat="62.643772334762" lon="17.870609359345">
        <ele>83.6</ele>
        <time>2018-02-08T12:21:19Z</time>
      </trkpt>
      <trkpt lat="62.643762611758" lon="17.870545656905">
        <ele>83.6</ele>
        <time>2018-02-08T12:21:20Z</time>
      </trkpt>
      <trkpt lat="62.643754565134" lon="17.870486480691">
        <ele>83.8</ele>
        <time>2018-02-08T12:21:21Z</time>
      </trkpt>
      <trkpt lat="62.64374903308" lon="17.870428477943">
        <ele>83.8</ele>
        <time>2018-02-08T12:21:22Z</time>
      </trkpt>
      <trkpt lat="62.643742495198" lon="17.87036083601">
        <ele>83.8</ele>
        <time>2018-02-08T12:21:23Z</time>
      </trkpt>
      <trkpt lat="62.643739645352" lon="17.870322949822">
        <ele>83.6</ele>
        <time>2018-02-08T12:21:24Z</time>
      </trkpt>
      <trkpt lat="62.643738555705" lon="17.870253799147">
        <ele>83.4</ele>
        <time>2018-02-08T12:21:25Z</time>
      </trkpt>
      <trkpt lat="62.643737885153" lon="17.870197053684">
        <ele>83.4</ele>
        <time>2018-02-08T12:21:26Z</time>
      </trkpt>
      <trkpt lat="62.643732939832" lon="17.870122622412">
        <ele>83.4</ele>
        <time>2018-02-08T12:21:27Z</time>
      </trkpt>
      <trkpt lat="62.643734113298" lon="17.87006411675">
        <ele>83.2</ele>
        <time>2018-02-08T12:21:28Z</time>
      </trkpt>
      <trkpt lat="62.643733442746" lon="17.870021536698">
        <ele>83.4</ele>
        <time>2018-02-08T12:21:29Z</time>
      </trkpt>
      <trkpt lat="62.643732520737" lon="17.869940735182">
        <ele>83.4</ele>
        <time>2018-02-08T12:21:30Z</time>
      </trkpt>
      <trkpt lat="62.643734867669" lon="17.869890946696">
        <ele>83.6</ele>
        <time>2018-02-08T12:21:31Z</time>
      </trkpt>
      <trkpt lat="62.643733023651" lon="17.869810815732">
        <ele>83.6</ele>
        <time>2018-02-08T12:21:32Z</time>
      </trkpt>
      <trkpt lat="62.6437389748" lon="17.869745772188">
        <ele>83.6</ele>
        <time>2018-02-08T12:21:33Z</time>
      </trkpt>
      <trkpt lat="62.643741992284" lon="17.86969028401">
        <ele>83.6</ele>
        <time>2018-02-08T12:21:34Z</time>
      </trkpt>
      <trkpt lat="62.643747021424" lon="17.869632700357">
        <ele>83.4</ele>
        <time>2018-02-08T12:21:35Z</time>
      </trkpt>
      <trkpt lat="62.643752050564" lon="17.869551228289">
        <ele>83.4</ele>
        <time>2018-02-08T12:21:36Z</time>
      </trkpt>
      <trkpt lat="62.643754984229" lon="17.869487944944">
        <ele>83.6</ele>
        <time>2018-02-08T12:21:37Z</time>
      </trkpt>
      <trkpt lat="62.643762276482" lon="17.869422147029">
        <ele>83.4</ele>
        <time>2018-02-08T12:21:38Z</time>
      </trkpt>
      <trkpt lat="62.643768059993" lon="17.869351236155">
        <ele>83.4</ele>
        <time>2018-02-08T12:21:39Z</time>
      </trkpt>
      <trkpt lat="62.643771748029" lon="17.869298178728">
        <ele>83.6</ele>
        <time>2018-02-08T12:21:40Z</time>
      </trkpt>
      <trkpt lat="62.643779627015" lon="17.869232967546">
        <ele>83.4</ele>
        <time>2018-02-08T12:21:41Z</time>
      </trkpt>
      <trkpt lat="62.643783147413" lon="17.869152752763">
        <ele>83.6</ele>
        <time>2018-02-08T12:21:42Z</time>
      </trkpt>
      <trkpt lat="62.643789769114" lon="17.869103299553">
        <ele>83.6</ele>
        <time>2018-02-08T12:21:43Z</time>
      </trkpt>
      <trkpt lat="62.643789852933" lon="17.869049152479">
        <ele>83.6</ele>
        <time>2018-02-08T12:21:44Z</time>
      </trkpt>
      <trkpt lat="62.643789685295" lon="17.868992658473">
        <ele>83.6</ele>
        <time>2018-02-08T12:21:45Z</time>
      </trkpt>
      <trkpt lat="62.643787170725" lon="17.868933733716">
        <ele>83.8</ele>
        <time>2018-02-08T12:21:46Z</time>
      </trkpt>
      <trkpt lat="62.643779375558" lon="17.868890902207">
        <ele>83.8</ele>
        <time>2018-02-08T12:21:47Z</time>
      </trkpt>
      <trkpt lat="62.643773843504" lon="17.868819320781">
        <ele>83.8</ele>
        <time>2018-02-08T12:21:48Z</time>
      </trkpt>
      <trkpt lat="62.643765126328" lon="17.868751762667">
        <ele>84</ele>
        <time>2018-02-08T12:21:49Z</time>
      </trkpt>
      <trkpt lat="62.643760516283" lon="17.868691077711">
        <ele>84</ele>
        <time>2018-02-08T12:21:50Z</time>
      </trkpt>
      <trkpt lat="62.643753810763" lon="17.86865009022">
        <ele>84</ele>
        <time>2018-02-08T12:21:51Z</time>
      </trkpt>
      <trkpt lat="62.643750541822" lon="17.86856878579">
        <ele>84.2</ele>
        <time>2018-02-08T12:21:52Z</time>
      </trkpt>
      <trkpt lat="62.643744423035" lon="17.868508771386">
        <ele>84.2</ele>
        <time>2018-02-08T12:21:53Z</time>
      </trkpt>
      <trkpt lat="62.643730173805" lon="17.868432496096">
        <ele>84.2</ele>
        <time>2018-02-08T12:21:54Z</time>
      </trkpt>
      <trkpt lat="62.643718942059" lon="17.868355382616">
        <ele>84.2</ele>
        <time>2018-02-08T12:21:55Z</time>
      </trkpt>
      <trkpt lat="62.643708297046" lon="17.86830140318">
        <ele>84.2</ele>
        <time>2018-02-08T12:21:56Z</time>
      </trkpt>
      <trkpt lat="62.643701926802" lon="17.868216075438">
        <ele>84</ele>
        <time>2018-02-08T12:21:57Z</time>
      </trkpt>
      <trkpt lat="62.643698322585" lon="17.868136028293">
        <ele>83.8</ele>
        <time>2018-02-08T12:21:58Z</time>
      </trkpt>
      <trkpt lat="62.643693628721" lon="17.86808347378">
        <ele>83.4</ele>
        <time>2018-02-08T12:21:59Z</time>
      </trkpt>
      <trkpt lat="62.643691030332" lon="17.867996134382">
        <ele>83.4</ele>
        <time>2018-02-08T12:22:00Z</time>
      </trkpt>
      <trkpt lat="62.643685917373" lon="17.867922457481">
        <ele>83</ele>
        <time>2018-02-08T12:22:01Z</time>
      </trkpt>
      <trkpt lat="62.643675775274" lon="17.867855067005">
        <ele>83</ele>
        <time>2018-02-08T12:22:02Z</time>
      </trkpt>
      <trkpt lat="62.643669321211" lon="17.867784575226">
        <ele>82.8</ele>
        <time>2018-02-08T12:22:03Z</time>
      </trkpt>
      <trkpt lat="62.643653898515" lon="17.867746605219">
        <ele>83</ele>
        <time>2018-02-08T12:22:04Z</time>
      </trkpt>
      <trkpt lat="62.643636547982" lon="17.867672425404">
        <ele>83</ele>
        <time>2018-02-08T12:22:05Z</time>
      </trkpt>
      <trkpt lat="62.643619616544" lon="17.867608890602">
        <ele>83</ele>
        <time>2018-02-08T12:22:06Z</time>
      </trkpt>
      <trkpt lat="62.643600505812" lon="17.867546780723">
        <ele>83</ele>
        <time>2018-02-08T12:22:07Z</time>
      </trkpt>
      <trkpt lat="62.643577371768" lon="17.86748332974">
        <ele>83</ele>
        <time>2018-02-08T12:22:08Z</time>
      </trkpt>
      <trkpt lat="62.643567648764" lon="17.867422728603">
        <ele>83</ele>
        <time>2018-02-08T12:22:09Z</time>
      </trkpt>
      <trkpt lat="62.64356379309" lon="17.867346285675">
        <ele>82.8</ele>
        <time>2018-02-08T12:22:10Z</time>
      </trkpt>
      <trkpt lat="62.643570163334" lon="17.867280403941">
        <ele>82.8</ele>
        <time>2018-02-08T12:22:11Z</time>
      </trkpt>
      <trkpt lat="62.643581478899" lon="17.867184515005">
        <ele>82.8</ele>
        <time>2018-02-08T12:22:12Z</time>
      </trkpt>
      <trkpt lat="62.64360234983" lon="17.867089715716">
        <ele>82.4</ele>
        <time>2018-02-08T12:22:13Z</time>
      </trkpt>
      <trkpt lat="62.643632273213" lon="17.867000029386">
        <ele>82</ele>
        <time>2018-02-08T12:22:14Z</time>
      </trkpt>
      <trkpt lat="62.643668985935" lon="17.866926268666">
        <ele>81.4</ele>
        <time>2018-02-08T12:22:15Z</time>
      </trkpt>
      <trkpt lat="62.643703519363" lon="17.866860806027">
        <ele>80.8</ele>
        <time>2018-02-08T12:22:16Z</time>
      </trkpt>
      <trkpt lat="62.643728665063" lon="17.866774388638">
        <ele>80.2</ele>
        <time>2018-02-08T12:22:17Z</time>
      </trkpt>
      <trkpt lat="62.643763533767" lon="17.866695179683">
        <ele>79.8</ele>
        <time>2018-02-08T12:22:18Z</time>
      </trkpt>
      <trkpt lat="62.643795384987" lon="17.866627370112">
        <ele>79.6</ele>
        <time>2018-02-08T12:22:19Z</time>
      </trkpt>
      <trkpt lat="62.643816255918" lon="17.866597195272">
        <ele>79.4</ele>
        <time>2018-02-08T12:22:20Z</time>
      </trkpt>
      <trkpt lat="62.643832684442" lon="17.8665479097">
        <ele>79.4</ele>
        <time>2018-02-08T12:22:21Z</time>
      </trkpt>
      <trkpt lat="62.64385045407" lon="17.866515974661">
        <ele>79.8</ele>
        <time>2018-02-08T12:22:22Z</time>
      </trkpt>
      <trkpt lat="62.643862859282" lon="17.866489990771">
        <ele>80</ele>
        <time>2018-02-08T12:22:23Z</time>
      </trkpt>
      <trkpt lat="62.643877611426" lon="17.866462079044">
        <ele>80.2</ele>
        <time>2018-02-08T12:22:24Z</time>
      </trkpt>
      <trkpt lat="62.643887669706" lon="17.866450763479">
        <ele>80.8</ele>
        <time>2018-02-08T12:22:25Z</time>
      </trkpt>
      <trkpt lat="62.643896135425" lon="17.866424444313">
        <ele>81</ele>
        <time>2018-02-08T12:22:26Z</time>
      </trkpt>
      <trkpt lat="62.643904433506" lon="17.86639200636">
        <ele>81.4</ele>
        <time>2018-02-08T12:22:27Z</time>
      </trkpt>
      <trkpt lat="62.643915329976" lon="17.8663635079">
        <ele>81.8</ele>
        <time>2018-02-08T12:22:28Z</time>
      </trkpt>
      <trkpt lat="62.643926645541" lon="17.866338865114">
        <ele>82</ele>
        <time>2018-02-08T12:22:29Z</time>
      </trkpt>
      <trkpt lat="62.64393762583" lon="17.866320844029">
        <ele>82.2</ele>
        <time>2018-02-08T12:22:30Z</time>
      </trkpt>
      <trkpt lat="62.643946762101" lon="17.86629226175">
        <ele>82.2</ele>
        <time>2018-02-08T12:22:31Z</time>
      </trkpt>
      <trkpt lat="62.643954138173" lon="17.866257141589">
        <ele>82.6</ele>
        <time>2018-02-08T12:22:32Z</time>
      </trkpt>
      <trkpt lat="62.643960508417" lon="17.866231744432">
        <ele>83</ele>
        <time>2018-02-08T12:22:33Z</time>
      </trkpt>
      <trkpt lat="62.643976601665" lon="17.866208778026">
        <ele>83.2</ele>
        <time>2018-02-08T12:22:34Z</time>
      </trkpt>
      <trkpt lat="62.643985989393" lon="17.866190170208">
        <ele>83.6</ele>
        <time>2018-02-08T12:22:35Z</time>
      </trkpt>
      <trkpt lat="62.643988168687" lon="17.866156977884">
        <ele>84</ele>
        <time>2018-02-08T12:22:36Z</time>
      </trkpt>
      <trkpt lat="62.64399546094" lon="17.8661288147">
        <ele>84.2</ele>
        <time>2018-02-08T12:22:37Z</time>
      </trkpt>
      <trkpt lat="62.644001244451" lon="17.86610283081">
        <ele>84.6</ele>
        <time>2018-02-08T12:22:38Z</time>
      </trkpt>
      <trkpt lat="62.644011051274" lon="17.866071398685">
        <ele>84.8</ele>
        <time>2018-02-08T12:22:39Z</time>
      </trkpt>
      <trkpt lat="62.644014487853" lon="17.866034015411">
        <ele>85</ele>
        <time>2018-02-08T12:22:40Z</time>
      </trkpt>
      <trkpt lat="62.644023372667" lon="17.865999649621">
        <ele>85.2</ele>
        <time>2018-02-08T12:22:41Z</time>
      </trkpt>
      <trkpt lat="62.644031251653" lon="17.865958494492">
        <ele>85.4</ele>
        <time>2018-02-08T12:22:42Z</time>
      </trkpt>
      <trkpt lat="62.644039633553" lon="17.86592345815">
        <ele>85.6</ele>
        <time>2018-02-08T12:22:43Z</time>
      </trkpt>
      <trkpt lat="62.64403988501" lon="17.865893953862">
        <ele>85.8</ele>
        <time>2018-02-08T12:22:44Z</time>
      </trkpt>
      <trkpt lat="62.644048769824" lon="17.865849026878">
        <ele>85.8</ele>
        <time>2018-02-08T12:22:45Z</time>
      </trkpt>
      <trkpt lat="62.644065785081" lon="17.865808961396">
        <ele>86</ele>
        <time>2018-02-08T12:22:46Z</time>
      </trkpt>
      <trkpt lat="62.644078860845" lon="17.865775014701">
        <ele>86</ele>
        <time>2018-02-08T12:22:47Z</time>
      </trkpt>
      <trkpt lat="62.644082381243" lon="17.865740900368">
        <ele>86.2</ele>
        <time>2018-02-08T12:22:48Z</time>
      </trkpt>
      <trkpt lat="62.64409269098" lon="17.865693123538">
        <ele>86.4</ele>
        <time>2018-02-08T12:22:49Z</time>
      </trkpt>
      <trkpt lat="62.644104677097" lon="17.865658338653">
        <ele>86.4</ele>
        <time>2018-02-08T12:22:50Z</time>
      </trkpt>
      <trkpt lat="62.644123452553" lon="17.865638222093">
        <ele>86.6</ele>
        <time>2018-02-08T12:22:51Z</time>
      </trkpt>
      <trkpt lat="62.644166200243" lon="17.865574603472">
        <ele>86.8</ele>
        <time>2018-02-08T12:22:52Z</time>
      </trkpt>
      <trkpt lat="62.644180952387" lon="17.865534789447">
        <ele>87</ele>
        <time>2018-02-08T12:22:53Z</time>
      </trkpt>
      <trkpt lat="62.644191513581" lon="17.865511152489">
        <ele>87.2</ele>
        <time>2018-02-08T12:22:54Z</time>
      </trkpt>
      <trkpt lat="62.644217916566" lon="17.865459184709">
        <ele>87.2</ele>
        <time>2018-02-08T12:22:55Z</time>
      </trkpt>
      <trkpt lat="62.644228058665" lon="17.865427333489">
        <ele>87.2</ele>
        <time>2018-02-08T12:22:56Z</time>
      </trkpt>
      <trkpt lat="62.6442418888" lon="17.865395901364">
        <ele>87.2</ele>
        <time>2018-02-08T12:22:57Z</time>
      </trkpt>
      <trkpt lat="62.64426451993" lon="17.865363714868">
        <ele>87.2</ele>
        <time>2018-02-08T12:22:58Z</time>
      </trkpt>
      <trkpt lat="62.644271896002" lon="17.865335970779">
        <ele>87.2</ele>
        <time>2018-02-08T12:22:59Z</time>
      </trkpt>
      <trkpt lat="62.644298969539" lon="17.865293055451">
        <ele>87.4</ele>
        <time>2018-02-08T12:23:00Z</time>
      </trkpt>
      <trkpt lat="62.644314140778" lon="17.865259695489">
        <ele>87.4</ele>
        <time>2018-02-08T12:23:01Z</time>
      </trkpt>
      <trkpt lat="62.644327887094" lon="17.865232035219">
        <ele>87.4</ele>
        <time>2018-02-08T12:23:02Z</time>
      </trkpt>
      <trkpt lat="62.644347584559" lon="17.865186772959">
        <ele>87.4</ele>
        <time>2018-02-08T12:23:03Z</time>
      </trkpt>
      <trkpt lat="62.644354960631" lon="17.865154083549">
        <ele>87.6</ele>
        <time>2018-02-08T12:23:04Z</time>
      </trkpt>
      <trkpt lat="62.644366192377" lon="17.865119885397">
        <ele>87.6</ele>
        <time>2018-02-08T12:23:05Z</time>
      </trkpt>
      <trkpt lat="62.644377843218" lon="17.865066660332">
        <ele>87.8</ele>
        <time>2018-02-08T12:23:06Z</time>
      </trkpt>
      <trkpt lat="62.644379519598" lon="17.865000862417">
        <ele>88</ele>
        <time>2018-02-08T12:23:07Z</time>
      </trkpt>
      <trkpt lat="62.644375580105" lon="17.864956857442">
        <ele>88</ele>
        <time>2018-02-08T12:23:08Z</time>
      </trkpt>
      <trkpt lat="62.644378262313" lon="17.864903716196">
        <ele>88.2</ele>
        <time>2018-02-08T12:23:09Z</time>
      </trkpt>
      <trkpt lat="62.644369712775" lon="17.864877899944">
        <ele>88.2</ele>
        <time>2018-02-08T12:23:10Z</time>
      </trkpt>
      <trkpt lat="62.644367533481" lon="17.864826770354">
        <ele>88.2</ele>
        <time>2018-02-08T12:23:11Z</time>
      </trkpt>
      <trkpt lat="62.644354457717" lon="17.864792907478">
        <ele>88.4</ele>
        <time>2018-02-08T12:23:12Z</time>
      </trkpt>
      <trkpt lat="62.644353451889" lon="17.864737754576">
        <ele>88.2</ele>
        <time>2018-02-08T12:23:13Z</time>
      </trkpt>
      <trkpt lat="62.644342220143" lon="17.864697269999">
        <ele>88.2</ele>
        <time>2018-02-08T12:23:14Z</time>
      </trkpt>
      <trkpt lat="62.644337107184" lon="17.864644296391">
        <ele>88.2</ele>
        <time>2018-02-08T12:23:15Z</time>
      </trkpt>
      <trkpt lat="62.644335514623" lon="17.864597609208">
        <ele>88.2</ele>
        <time>2018-02-08T12:23:16Z</time>
      </trkpt>
      <trkpt lat="62.644329479655" lon="17.864556621717">
        <ele>88.4</ele>
        <time>2018-02-08T12:23:17Z</time>
      </trkpt>
      <trkpt lat="62.644332580958" lon="17.864495936761">
        <ele>88.4</ele>
        <time>2018-02-08T12:23:18Z</time>
      </trkpt>
      <trkpt lat="62.644335682261" lon="17.864452769976">
        <ele>88.2</ele>
        <time>2018-02-08T12:23:19Z</time>
      </trkpt>
      <trkpt lat="62.64434079522" lon="17.864427205181">
        <ele>88.2</ele>
        <time>2018-02-08T12:23:20Z</time>
      </trkpt>
      <trkpt lat="62.644347668378" lon="17.864405244603">
        <ele>88.4</ele>
        <time>2018-02-08T12:23:21Z</time>
      </trkpt>
      <trkpt lat="62.644358900124" lon="17.864366017311">
        <ele>88.2</ele>
        <time>2018-02-08T12:23:22Z</time>
      </trkpt>
      <trkpt lat="62.644362504341" lon="17.864346990398">
        <ele>88.4</ele>
        <time>2018-02-08T12:23:23Z</time>
      </trkpt>
      <trkpt lat="62.6443843811" lon="17.864306505821">
        <ele>88.6</ele>
        <time>2018-02-08T12:23:24Z</time>
      </trkpt>
      <trkpt lat="62.644399719977" lon="17.86427725299">
        <ele>88.8</ele>
        <time>2018-02-08T12:23:25Z</time>
      </trkpt>
      <trkpt lat="62.64441539413" lon="17.864251772014">
        <ele>88.8</ele>
        <time>2018-02-08T12:23:26Z</time>
      </trkpt>
      <trkpt lat="62.644432325568" lon="17.864228135056">
        <ele>89</ele>
        <time>2018-02-08T12:23:27Z</time>
      </trkpt>
      <trkpt lat="62.644448586454" lon="17.864209778695">
        <ele>89.2</ele>
        <time>2018-02-08T12:23:28Z</time>
      </trkpt>
      <trkpt lat="62.644461913675" lon="17.864191841429">
        <ele>89.4</ele>
        <time>2018-02-08T12:23:29Z</time>
      </trkpt>
      <trkpt lat="62.644473899792" lon="17.864177843656">
        <ele>89.4</ele>
        <time>2018-02-08T12:23:30Z</time>
      </trkpt>
      <trkpt lat="62.644481862597" lon="17.864167198643">
        <ele>89.6</ele>
        <time>2018-02-08T12:23:31Z</time>
      </trkpt>
      <trkpt lat="62.644492256153" lon="17.864147249721">
        <ele>89.6</ele>
        <time>2018-02-08T12:23:32Z</time>
      </trkpt>
      <trkpt lat="62.644495944189" lon="17.86414146621">
        <ele>89.6</ele>
        <time>2018-02-08T12:23:33Z</time>
      </trkpt>
      <trkpt lat="62.644498877854" lon="17.86412218784">
        <ele>90</ele>
        <time>2018-02-08T12:23:34Z</time>
      </trkpt>
      <trkpt lat="62.644515390197" lon="17.864105675497">
        <ele>90.2</ele>
        <time>2018-02-08T12:23:35Z</time>
      </trkpt>
      <trkpt lat="62.644521928079" lon="17.86409788033">
        <ele>90.6</ele>
        <time>2018-02-08T12:23:36Z</time>
      </trkpt>
      <trkpt lat="62.64453357892" lon="17.864091090991">
        <ele>90.8</ele>
        <time>2018-02-08T12:23:37Z</time>
      </trkpt>
      <trkpt lat="62.644543050467" lon="17.86407776377">
        <ele>91.2</ele>
        <time>2018-02-08T12:23:38Z</time>
      </trkpt>
      <trkpt lat="62.64455369548" lon="17.864066699662">
        <ele>91.4</ele>
        <time>2018-02-08T12:23:39Z</time>
      </trkpt>
      <trkpt lat="62.64456459195" lon="17.86406267635">
        <ele>91.6</ele>
        <time>2018-02-08T12:23:40Z</time>
      </trkpt>
      <trkpt lat="62.644571716565" lon="17.86405932359">
        <ele>91.8</ele>
        <time>2018-02-08T12:23:41Z</time>
      </trkpt>
      <trkpt lat="62.644579847008" lon="17.864046080188">
        <ele>92.2</ele>
        <time>2018-02-08T12:23:42Z</time>
      </trkpt>
      <trkpt lat="62.644585965795" lon="17.864041805419">
        <ele>92.4</ele>
        <time>2018-02-08T12:23:43Z</time>
      </trkpt>
      <trkpt lat="62.644596024075" lon="17.864035518994">
        <ele>92.6</ele>
        <time>2018-02-08T12:23:44Z</time>
      </trkpt>
      <trkpt lat="62.644612536418" lon="17.864034429347">
        <ele>93</ele>
        <time>2018-02-08T12:23:45Z</time>
      </trkpt>
      <trkpt lat="62.644616056816" lon="17.86402160504">
        <ele>93.4</ele>
        <time>2018-02-08T12:23:46Z</time>
      </trkpt>
      <trkpt lat="62.644629216399" lon="17.864016156805">
        <ele>93.4</ele>
        <time>2018-02-08T12:23:47Z</time>
      </trkpt>
      <trkpt lat="62.644637849756" lon="17.864006936715">
        <ele>93.6</ele>
        <time>2018-02-08T12:23:48Z</time>
      </trkpt>
      <trkpt lat="62.644649500597" lon="17.86399059201">
        <ele>93.8</ele>
        <time>2018-02-08T12:23:49Z</time>
      </trkpt>
      <trkpt lat="62.644660480886" lon="17.86399310658">
        <ele>94</ele>
        <time>2018-02-08T12:23:50Z</time>
      </trkpt>
      <trkpt lat="62.644672215546" lon="17.863990256734">
        <ele>94.2</ele>
        <time>2018-02-08T12:23:51Z</time>
      </trkpt>
      <trkpt lat="62.644682944378" lon="17.863985898146">
        <ele>94.4</ele>
        <time>2018-02-08T12:23:52Z</time>
      </trkpt>
      <trkpt lat="62.644695433409" lon="17.863975672228">
        <ele>94.8</ele>
        <time>2018-02-08T12:23:53Z</time>
      </trkpt>
      <trkpt lat="62.644707335707" lon="17.86397215183">
        <ele>94.8</ele>
        <time>2018-02-08T12:23:54Z</time>
      </trkpt>
      <trkpt lat="62.644719405643" lon="17.863964105206">
        <ele>95.2</ele>
        <time>2018-02-08T12:23:55Z</time>
      </trkpt>
      <trkpt lat="62.644736169443" lon="17.863957399686">
        <ele>95.6</ele>
        <time>2018-02-08T12:23:56Z</time>
      </trkpt>
      <trkpt lat="62.644749999578" lon="17.863947760501">
        <ele>95.8</ele>
        <time>2018-02-08T12:23:57Z</time>
      </trkpt>
      <trkpt lat="62.644761818057" lon="17.863935187651">
        <ele>96</ele>
        <time>2018-02-08T12:23:58Z</time>
      </trkpt>
      <trkpt lat="62.644775564373" lon="17.863928146855">
        <ele>96.2</ele>
        <time>2018-02-08T12:23:59Z</time>
      </trkpt>
      <trkpt lat="62.644787634309" lon="17.863918004756">
        <ele>96.4</ele>
        <time>2018-02-08T12:24:00Z</time>
      </trkpt>
      <trkpt lat="62.64479593239" lon="17.863907359743">
        <ele>96.6</ele>
        <time>2018-02-08T12:24:01Z</time>
      </trkpt>
      <trkpt lat="62.64480850524" lon="17.863900486585">
        <ele>96.8</ele>
        <time>2018-02-08T12:24:02Z</time>
      </trkpt>
      <trkpt lat="62.64482107809" lon="17.863892272323">
        <ele>97</ele>
        <time>2018-02-08T12:24:03Z</time>
      </trkpt>
      <trkpt lat="62.644837422795" lon="17.863884393337">
        <ele>97.2</ele>
        <time>2018-02-08T12:24:04Z</time>
      </trkpt>
      <trkpt lat="62.644848403084" lon="17.863879028921">
        <ele>97.4</ele>
        <time>2018-02-08T12:24:05Z</time>
      </trkpt>
      <trkpt lat="62.644863574323" lon="17.863873161591">
        <ele>97.6</ele>
        <time>2018-02-08T12:24:06Z</time>
      </trkpt>
      <trkpt lat="62.644878661743" lon="17.863872993953">
        <ele>98</ele>
        <time>2018-02-08T12:24:07Z</time>
      </trkpt>
      <trkpt lat="62.644888468566" lon="17.86387156903">
        <ele>98.2</ele>
        <time>2018-02-08T12:24:08Z</time>
      </trkpt>
      <trkpt lat="62.644902550158" lon="17.863867629537">
        <ele>98.4</ele>
        <time>2018-02-08T12:24:09Z</time>
      </trkpt>
      <trkpt lat="62.644917302302" lon="17.863859415275">
        <ele>98.6</ele>
        <time>2018-02-08T12:24:10Z</time>
      </trkpt>
      <trkpt lat="62.644929791333" lon="17.863845333683">
        <ele>98.8</ele>
        <time>2018-02-08T12:24:11Z</time>
      </trkpt>
      <trkpt lat="62.644946974228" lon="17.863831922643">
        <ele>99</ele>
        <time>2018-02-08T12:24:12Z</time>
      </trkpt>
      <trkpt lat="62.644959463259" lon="17.863822199639">
        <ele>99.2</ele>
        <time>2018-02-08T12:24:13Z</time>
      </trkpt>
      <trkpt lat="62.644974969774" lon="17.86381289573">
        <ele>99.4</ele>
        <time>2018-02-08T12:24:14Z</time>
      </trkpt>
      <trkpt lat="62.644985614787" lon="17.863794958464">
        <ele>99.4</ele>
        <time>2018-02-08T12:24:15Z</time>
      </trkpt>
      <trkpt lat="62.644996678895" lon="17.863773752257">
        <ele>99.6</ele>
        <time>2018-02-08T12:24:16Z</time>
      </trkpt>
      <trkpt lat="62.645010257573" lon="17.863756317905">
        <ele>99.8</ele>
        <time>2018-02-08T12:24:17Z</time>
      </trkpt>
      <trkpt lat="62.645029871219" lon="17.863750450575">
        <ele>100</ele>
        <time>2018-02-08T12:24:18Z</time>
      </trkpt>
      <trkpt lat="62.645045210096" lon="17.863743577417">
        <ele>100.4</ele>
        <time>2018-02-08T12:24:19Z</time>
      </trkpt>
      <trkpt lat="62.645056693299" lon="17.863737961544">
        <ele>100.8</ele>
        <time>2018-02-08T12:24:20Z</time>
      </trkpt>
      <trkpt lat="62.645067841226" lon="17.863730082558">
        <ele>101</ele>
        <time>2018-02-08T12:24:21Z</time>
      </trkpt>
      <trkpt lat="62.645080162619" lon="17.863719605183">
        <ele>101.4</ele>
        <time>2018-02-08T12:24:22Z</time>
      </trkpt>
      <trkpt lat="62.645091478184" lon="17.863711977654">
        <ele>101.8</ele>
        <time>2018-02-08T12:24:23Z</time>
      </trkpt>
      <trkpt lat="62.64510941545" lon="17.863707367609">
        <ele>102</ele>
        <time>2018-02-08T12:24:24Z</time>
      </trkpt>
      <trkpt lat="62.645126682164" lon="17.863692950741">
        <ele>102.2</ele>
        <time>2018-02-08T12:24:25Z</time>
      </trkpt>
      <trkpt lat="62.645142021041" lon="17.86368297628">
        <ele>102.4</ele>
        <time>2018-02-08T12:24:26Z</time>
      </trkpt>
      <trkpt lat="62.645162472877" lon="17.863670068154">
        <ele>102.6</ele>
        <time>2018-02-08T12:24:27Z</time>
      </trkpt>
      <trkpt lat="62.645176219193" lon="17.863680545529">
        <ele>102.8</ele>
        <time>2018-02-08T12:24:28Z</time>
      </trkpt>
      <trkpt lat="62.645193821183" lon="17.863664871376">
        <ele>103</ele>
        <time>2018-02-08T12:24:29Z</time>
      </trkpt>
      <trkpt lat="62.645213183372" lon="17.863657243847">
        <ele>103.2</ele>
        <time>2018-02-08T12:24:30Z</time>
      </trkpt>
      <trkpt lat="62.645227851697" lon="17.863645425368">
        <ele>103.2</ele>
        <time>2018-02-08T12:24:31Z</time>
      </trkpt>
      <trkpt lat="62.64524855499" lon="17.863637630201">
        <ele>103.4</ele>
        <time>2018-02-08T12:24:32Z</time>
      </trkpt>
      <trkpt lat="62.645261295478" lon="17.863620447306">
        <ele>103.6</ele>
        <time>2018-02-08T12:24:33Z</time>
      </trkpt>
      <trkpt lat="62.64527872983" lon="17.863610724302">
        <ele>103.8</ele>
        <time>2018-02-08T12:24:34Z</time>
      </trkpt>
      <trkpt lat="62.645294990716" lon="17.863601085117">
        <ele>103.8</ele>
        <time>2018-02-08T12:24:35Z</time>
      </trkpt>
      <trkpt lat="62.645312341249" lon="17.863588344629">
        <ele>104</ele>
        <time>2018-02-08T12:24:36Z</time>
      </trkpt>
      <trkpt lat="62.645334134189" lon="17.863568311888">
        <ele>104.2</ele>
        <time>2018-02-08T12:24:37Z</time>
      </trkpt>
      <trkpt lat="62.645348467238" lon="17.863546099853">
        <ele>104.6</ele>
        <time>2018-02-08T12:24:38Z</time>
      </trkpt>
      <trkpt lat="62.645356765319" lon="17.863516847022">
        <ele>104.8</ele>
        <time>2018-02-08T12:24:39Z</time>
      </trkpt>
      <trkpt lat="62.645368583798" lon="17.863488348562">
        <ele>105</ele>
        <time>2018-02-08T12:24:40Z</time>
      </trkpt>
      <trkpt lat="62.645378390621" lon="17.863466220346">
        <ele>105.2</ele>
        <time>2018-02-08T12:24:41Z</time>
      </trkpt>
      <trkpt lat="62.64539440005" lon="17.863425484312">
        <ele>105.4</ele>
        <time>2018-02-08T12:24:42Z</time>
      </trkpt>
      <trkpt lat="62.645399932104" lon="17.863384329183">
        <ele>105.6</ele>
        <time>2018-02-08T12:24:43Z</time>
      </trkpt>
      <trkpt lat="62.645410660936" lon="17.863333702507">
        <ele>105.8</ele>
        <time>2018-02-08T12:24:44Z</time>
      </trkpt>
      <trkpt lat="62.645420216302" lon="17.863273185189">
        <ele>105.8</ele>
        <time>2018-02-08T12:24:45Z</time>
      </trkpt>
      <trkpt lat="62.645421305949" lon="17.863244435272">
        <ele>106</ele>
        <time>2018-02-08T12:24:46Z</time>
      </trkpt>
      <trkpt lat="62.645432705333" lon="17.863169501086">
        <ele>106.2</ele>
        <time>2018-02-08T12:24:47Z</time>
      </trkpt>
      <trkpt lat="62.645437734473" lon="17.863111833614">
        <ele>106.2</ele>
        <time>2018-02-08T12:24:48Z</time>
      </trkpt>
      <trkpt lat="62.645443266527" lon="17.863070510847">
        <ele>106</ele>
        <time>2018-02-08T12:24:49Z</time>
      </trkpt>
      <trkpt lat="62.645457348119" lon="17.863005299665">
        <ele>106</ele>
        <time>2018-02-08T12:24:50Z</time>
      </trkpt>
      <trkpt lat="62.645469920969" lon="17.862949643849">
        <ele>106</ele>
        <time>2018-02-08T12:24:51Z</time>
      </trkpt>
      <trkpt lat="62.645482829095" lon="17.862906141788">
        <ele>106</ele>
        <time>2018-02-08T12:24:52Z</time>
      </trkpt>
      <trkpt lat="62.645495318126" lon="17.862870183437">
        <ele>106</ele>
        <time>2018-02-08T12:24:53Z</time>
      </trkpt>
      <trkpt lat="62.645509148261" lon="17.862821065503">
        <ele>106</ele>
        <time>2018-02-08T12:24:54Z</time>
      </trkpt>
      <trkpt lat="62.645529935373" lon="17.862788208455">
        <ele>106</ele>
        <time>2018-02-08T12:24:55Z</time>
      </trkpt>
      <trkpt lat="62.645544184603" lon="17.862756860149">
        <ele>106.2</ele>
        <time>2018-02-08T12:24:56Z</time>
      </trkpt>
      <trkpt lat="62.645560948403" lon="17.862725428024">
        <ele>106.4</ele>
        <time>2018-02-08T12:24:57Z</time>
      </trkpt>
      <trkpt lat="62.645571928692" lon="17.86269558846">
        <ele>106.6</ele>
        <time>2018-02-08T12:24:58Z</time>
      </trkpt>
      <trkpt lat="62.645579220945" lon="17.862646386707">
        <ele>106.8</ele>
        <time>2018-02-08T12:24:59Z</time>
      </trkpt>
      <trkpt lat="62.645604031369" lon="17.862615038401">
        <ele>107</ele>
        <time>2018-02-08T12:25:00Z</time>
      </trkpt>
      <trkpt lat="62.645610736889" lon="17.862582768086">
        <ele>107.2</ele>
        <time>2018-02-08T12:25:01Z</time>
      </trkpt>
      <trkpt lat="62.645630182897" lon="17.862554521083">
        <ele>107.2</ele>
        <time>2018-02-08T12:25:02Z</time>
      </trkpt>
      <trkpt lat="62.64563915153" lon="17.86251286304">
        <ele>107.4</ele>
        <time>2018-02-08T12:25:03Z</time>
      </trkpt>
      <trkpt lat="62.645641330824" lon="17.862466846409">
        <ele>107.6</ele>
        <time>2018-02-08T12:25:04Z</time>
      </trkpt>
      <trkpt lat="62.645653736036" lon="17.862410939136">
        <ele>107.6</ele>
        <time>2018-02-08T12:25:05Z</time>
      </trkpt>
      <trkpt lat="62.645663794316" lon="17.862358384623">
        <ele>107.8</ele>
        <time>2018-02-08T12:25:06Z</time>
      </trkpt>
      <trkpt lat="62.645668320542" lon="17.862318151503">
        <ele>108</ele>
        <time>2018-02-08T12:25:07Z</time>
      </trkpt>
      <trkpt lat="62.64567016456" lon="17.862282612247">
        <ele>108</ele>
        <time>2018-02-08T12:25:08Z</time>
      </trkpt>
      <trkpt lat="62.645677456813" lon="17.862225950603">
        <ele>108.2</ele>
        <time>2018-02-08T12:25:09Z</time>
      </trkpt>
      <trkpt lat="62.645678714098" lon="17.862180688343">
        <ele>108.4</ele>
        <time>2018-02-08T12:25:10Z</time>
      </trkpt>
      <trkpt lat="62.645689023835" lon="17.862142718336">
        <ele>108.4</ele>
        <time>2018-02-08T12:25:11Z</time>
      </trkpt>
      <trkpt lat="62.645692125138" lon="17.862096450248">
        <ele>108.4</ele>
        <time>2018-02-08T12:25:12Z</time>
      </trkpt>
      <trkpt lat="62.645713163707" lon="17.862055714214">
        <ele>108.6</ele>
        <time>2018-02-08T12:25:13Z</time>
      </trkpt>
      <trkpt lat="62.645736800665" lon="17.862040291518">
        <ele>109</ele>
        <time>2018-02-08T12:25:14Z</time>
      </trkpt>
      <trkpt lat="62.645755911397" lon="17.862032831627">
        <ele>109</ele>
        <time>2018-02-08T12:25:15Z</time>
      </trkpt>
      <trkpt lat="62.645777788156" lon="17.862032915446">
        <ele>109.2</ele>
        <time>2018-02-08T12:25:16Z</time>
      </trkpt>
      <trkpt lat="62.645797234164" lon="17.86204347664">
        <ele>109.2</ele>
        <time>2018-02-08T12:25:17Z</time>
      </trkpt>
      <trkpt lat="62.645820032932" lon="17.862030652333">
        <ele>109.2</ele>
        <time>2018-02-08T12:25:18Z</time>
      </trkpt>
      <trkpt lat="62.645835874723" lon="17.862036519663">
        <ele>109.2</ele>
        <time>2018-02-08T12:25:19Z</time>
      </trkpt>
      <trkpt lat="62.645855823645" lon="17.86204180026">
        <ele>109.4</ele>
        <time>2018-02-08T12:25:20Z</time>
      </trkpt>
      <trkpt lat="62.645881472259" lon="17.862026209926">
        <ele>109.6</ele>
        <time>2018-02-08T12:25:21Z</time>
      </trkpt>
      <trkpt lat="62.645905779769" lon="17.862007853565">
        <ele>109.6</ele>
        <time>2018-02-08T12:25:22Z</time>
      </trkpt>
      <trkpt lat="62.64592581251" lon="17.861983210779">
        <ele>109.8</ele>
        <time>2018-02-08T12:25:23Z</time>
      </trkpt>
      <trkpt lat="62.645946264346" lon="17.861928812248">
        <ele>110.2</ele>
        <time>2018-02-08T12:25:24Z</time>
      </trkpt>
      <trkpt lat="62.645960010662" lon="17.861903582729">
        <ele>110.2</ele>
        <time>2018-02-08T12:25:25Z</time>
      </trkpt>
      <trkpt lat="62.645967302915" lon="17.86188170597">
        <ele>110.2</ele>
        <time>2018-02-08T12:25:26Z</time>
      </trkpt>
      <trkpt lat="62.645977696471" lon="17.86184734018">
        <ele>110.4</ele>
        <time>2018-02-08T12:25:27Z</time>
      </trkpt>
      <trkpt lat="62.645990520778" lon="17.861823619403">
        <ele>110.4</ele>
        <time>2018-02-08T12:25:28Z</time>
      </trkpt>
      <trkpt lat="62.646007284578" lon="17.861792187278">
        <ele>110.4</ele>
        <time>2018-02-08T12:25:29Z</time>
      </trkpt>
      <trkpt lat="62.646026730586" lon="17.861756731841">
        <ele>110.6</ele>
        <time>2018-02-08T12:25:30Z</time>
      </trkpt>
      <trkpt lat="62.646039135798" lon="17.861723204241">
        <ele>110.6</ele>
        <time>2018-02-08T12:25:31Z</time>
      </trkpt>
      <trkpt lat="62.646061515471" lon="17.861663944208">
        <ele>110.6</ele>
        <time>2018-02-08T12:25:32Z</time>
      </trkpt>
      <trkpt lat="62.646076183796" lon="17.861621280337">
        <ele>110.6</ele>
        <time>2018-02-08T12:25:33Z</time>
      </trkpt>
      <trkpt lat="62.646085403886" lon="17.861594374438">
        <ele>110.4</ele>
        <time>2018-02-08T12:25:34Z</time>
      </trkpt>
      <trkpt lat="62.646104766075" lon="17.861547854893">
        <ele>110.4</ele>
        <time>2018-02-08T12:25:35Z</time>
      </trkpt>
      <trkpt lat="62.64611859621" lon="17.861511728904">
        <ele>110.4</ele>
        <time>2018-02-08T12:25:36Z</time>
      </trkpt>
      <trkpt lat="62.646136365838" lon="17.861482643711">
        <ele>110.4</ele>
        <time>2018-02-08T12:25:37Z</time>
      </trkpt>
      <trkpt lat="62.646145502109" lon="17.861451965957">
        <ele>110.4</ele>
        <time>2018-02-08T12:25:38Z</time>
      </trkpt>
      <trkpt lat="62.64616637304" lon="17.861409469724">
        <ele>110.4</ele>
        <time>2018-02-08T12:25:39Z</time>
      </trkpt>
      <trkpt lat="62.64617643132" lon="17.861374098106">
        <ele>110.6</ele>
        <time>2018-02-08T12:25:40Z</time>
      </trkpt>
      <trkpt lat="62.646189423265" lon="17.861354568279">
        <ele>110.8</ele>
        <time>2018-02-08T12:25:41Z</time>
      </trkpt>
      <trkpt lat="62.646202331391" lon="17.861315843901">
        <ele>111.2</ele>
        <time>2018-02-08T12:25:42Z</time>
      </trkpt>
      <trkpt lat="62.646222699408" lon="17.861278879722">
        <ele>111.4</ele>
        <time>2018-02-08T12:25:43Z</time>
      </trkpt>
      <trkpt lat="62.646241893959" lon="17.861243508104">
        <ele>111.4</ele>
        <time>2018-02-08T12:25:44Z</time>
      </trkpt>
      <trkpt lat="62.646275421559" lon="17.8612002575">
        <ele>111.4</ele>
        <time>2018-02-08T12:25:45Z</time>
      </trkpt>
      <trkpt lat="62.646309787349" lon="17.861150469014">
        <ele>111.6</ele>
        <time>2018-02-08T12:25:46Z</time>
      </trkpt>
      <trkpt lat="62.646350607202" lon="17.861094980836">
        <ele>111.2</ele>
        <time>2018-02-08T12:25:47Z</time>
      </trkpt>
      <trkpt lat="62.646394193082" lon="17.861040582305">
        <ele>111</ele>
        <time>2018-02-08T12:25:48Z</time>
      </trkpt>
      <trkpt lat="62.646427972139" lon="17.861002109384">
        <ele>110.4</ele>
        <time>2018-02-08T12:25:49Z</time>
      </trkpt>
      <trkpt lat="62.646464098128" lon="17.860959194056">
        <ele>109.8</ele>
        <time>2018-02-08T12:25:50Z</time>
      </trkpt>
      <trkpt lat="62.646504415067" lon="17.860927342836">
        <ele>109.2</ele>
        <time>2018-02-08T12:25:51Z</time>
      </trkpt>
      <trkpt lat="62.646538948495" lon="17.860893731417">
        <ele>109</ele>
        <time>2018-02-08T12:25:52Z</time>
      </trkpt>
      <trkpt lat="62.646568117507" lon="17.86084989408">
        <ele>109</ele>
        <time>2018-02-08T12:25:53Z</time>
      </trkpt>
      <trkpt lat="62.646599884908" lon="17.860820222154">
        <ele>109.2</ele>
        <time>2018-02-08T12:25:54Z</time>
      </trkpt>
      <trkpt lat="62.646638693105" lon="17.860770852763">
        <ele>109.4</ele>
        <time>2018-02-08T12:25:55Z</time>
      </trkpt>
      <trkpt lat="62.646678926225" lon="17.8607308711">
        <ele>109.6</ele>
        <time>2018-02-08T12:25:56Z</time>
      </trkpt>
      <trkpt lat="62.646711112721" lon="17.860698014052">
        <ele>109.4</ele>
        <time>2018-02-08T12:25:57Z</time>
      </trkpt>
      <trkpt lat="62.646746819615" lon="17.860646381548">
        <ele>109.6</ele>
        <time>2018-02-08T12:25:58Z</time>
      </trkpt>
      <trkpt lat="62.646773390238" lon="17.860622157857">
        <ele>109.4</ele>
        <time>2018-02-08T12:25:59Z</time>
      </trkpt>
      <trkpt lat="62.646805995829" lon="17.860585445135">
        <ele>109.6</ele>
        <time>2018-02-08T12:26:00Z</time>
      </trkpt>
      <trkpt lat="62.64682602857" lon="17.860558874512">
        <ele>109.4</ele>
        <time>2018-02-08T12:26:01Z</time>
      </trkpt>
      <trkpt lat="62.646845977492" lon="17.860532052432">
        <ele>109.4</ele>
        <time>2018-02-08T12:26:02Z</time>
      </trkpt>
      <trkpt lat="62.646873134848" lon="17.860511013863">
        <ele>109.4</ele>
        <time>2018-02-08T12:26:03Z</time>
      </trkpt>
      <trkpt lat="62.646891742666" lon="17.860483521231">
        <ele>109.4</ele>
        <time>2018-02-08T12:26:04Z</time>
      </trkpt>
      <trkpt lat="62.64690984757" lon="17.860470948381">
        <ele>109.4</ele>
        <time>2018-02-08T12:26:05Z</time>
      </trkpt>
      <trkpt lat="62.646927617198" lon="17.860446557052">
        <ele>109.4</ele>
        <time>2018-02-08T12:26:06Z</time>
      </trkpt>
      <trkpt lat="62.646958965504" lon="17.860418393868">
        <ele>109.4</ele>
        <time>2018-02-08T12:26:07Z</time>
      </trkpt>
      <trkpt lat="62.646984530299" lon="17.860399031679">
        <ele>109.6</ele>
        <time>2018-02-08T12:26:08Z</time>
      </trkpt>
      <trkpt lat="62.647008083438" lon="17.860369778848">
        <ele>109.6</ele>
        <time>2018-02-08T12:26:09Z</time>
      </trkpt>
      <trkpt lat="62.647035827527" lon="17.860327282615">
        <ele>109.8</ele>
        <time>2018-02-08T12:26:10Z</time>
      </trkpt>
      <trkpt lat="62.647063739254" lon="17.86029585049">
        <ele>109.8</ele>
        <time>2018-02-08T12:26:11Z</time>
      </trkpt>
      <trkpt lat="62.647099027053" lon="17.860233656792">
        <ele>110</ele>
        <time>2018-02-08T12:26:12Z</time>
      </trkpt>
      <trkpt lat="62.647128782798" lon="17.860208762549">
        <ele>109.8</ele>
        <time>2018-02-08T12:26:13Z</time>
      </trkpt>
      <trkpt lat="62.647147139159" lon="17.860142713177">
        <ele>109.8</ele>
        <time>2018-02-08T12:26:14Z</time>
      </trkpt>
      <trkpt lat="62.647167842452" lon="17.860108850301">
        <ele>109.6</ele>
        <time>2018-02-08T12:26:15Z</time>
      </trkpt>
      <trkpt lat="62.647181337311" lon="17.860087895551">
        <ele>109.6</ele>
        <time>2018-02-08T12:26:16Z</time>
      </trkpt>
      <trkpt lat="62.647196424731" lon="17.860038442341">
        <ele>109.4</ele>
        <time>2018-02-08T12:26:17Z</time>
      </trkpt>
      <trkpt lat="62.647217211843" lon="17.859985384914">
        <ele>109.4</ele>
        <time>2018-02-08T12:26:18Z</time>
      </trkpt>
      <trkpt lat="62.647230287607" lon="17.859921011922">
        <ele>109.4</ele>
        <time>2018-02-08T12:26:19Z</time>
      </trkpt>
      <trkpt lat="62.647252415823" lon="17.859879605336">
        <ele>109.4</ele>
        <time>2018-02-08T12:26:20Z</time>
      </trkpt>
      <trkpt lat="62.647272280926" lon="17.859832415239">
        <ele>109.4</ele>
        <time>2018-02-08T12:26:21Z</time>
      </trkpt>
      <trkpt lat="62.647292313667" lon="17.85978958373">
        <ele>109.4</ele>
        <time>2018-02-08T12:26:22Z</time>
      </trkpt>
      <trkpt lat="62.647313687512" lon="17.859729736964">
        <ele>109.6</ele>
        <time>2018-02-08T12:26:23Z</time>
      </trkpt>
      <trkpt lat="62.647329026389" lon="17.859699310667">
        <ele>109.6</ele>
        <time>2018-02-08T12:26:24Z</time>
      </trkpt>
      <trkpt lat="62.647354339727" lon="17.859609624337">
        <ele>109.6</ele>
        <time>2018-02-08T12:26:25Z</time>
      </trkpt>
      <trkpt lat="62.64735492646" lon="17.859548352648">
        <ele>109.6</ele>
        <time>2018-02-08T12:26:26Z</time>
      </trkpt>
      <trkpt lat="62.647373534278" lon="17.859478950516">
        <ele>109.6</ele>
        <time>2018-02-08T12:26:27Z</time>
      </trkpt>
      <trkpt lat="62.647380575074" lon="17.859405022158">
        <ele>109.4</ele>
        <time>2018-02-08T12:26:28Z</time>
      </trkpt>
      <trkpt lat="62.647391303906" lon="17.859339727157">
        <ele>109.4</ele>
        <time>2018-02-08T12:26:29Z</time>
      </trkpt>
      <trkpt lat="62.647405636955" lon="17.859243419126">
        <ele>109.4</ele>
        <time>2018-02-08T12:26:30Z</time>
      </trkpt>
      <trkpt lat="62.64740857062" lon="17.859180303419">
        <ele>109.4</ele>
        <time>2018-02-08T12:26:31Z</time>
      </trkpt>
      <trkpt lat="62.647420640556" lon="17.859082067551">
        <ele>109.2</ele>
        <time>2018-02-08T12:26:32Z</time>
      </trkpt>
      <trkpt lat="62.647427429895" lon="17.859003110053">
        <ele>109</ele>
        <time>2018-02-08T12:26:33Z</time>
      </trkpt>
      <trkpt lat="62.647439918926" lon="17.858935384301">
        <ele>109</ele>
        <time>2018-02-08T12:26:34Z</time>
      </trkpt>
      <trkpt lat="62.647449809568" lon="17.858852571129">
        <ele>108.8</ele>
        <time>2018-02-08T12:26:35Z</time>
      </trkpt>
      <trkpt lat="62.647460706038" lon="17.8587862703">
        <ele>108.8</ele>
        <time>2018-02-08T12:26:36Z</time>
      </trkpt>
      <trkpt lat="62.647464226436" lon="17.858708821544">
        <ele>108.8</ele>
        <time>2018-02-08T12:26:37Z</time>
      </trkpt>
      <trkpt lat="62.647463555884" lon="17.858633552082">
        <ele>108.6</ele>
        <time>2018-02-08T12:26:38Z</time>
      </trkpt>
      <trkpt lat="62.647465399902" lon="17.858568676176">
        <ele>108.6</ele>
        <time>2018-02-08T12:26:39Z</time>
      </trkpt>
      <trkpt lat="62.647466489549" lon="17.858492568524">
        <ele>108.6</ele>
        <time>2018-02-08T12:26:40Z</time>
      </trkpt>
      <trkpt lat="62.647463304427" lon="17.85843758326">
        <ele>108.6</ele>
        <time>2018-02-08T12:26:41Z</time>
      </trkpt>
      <trkpt lat="62.647468333567" lon="17.85836382254">
        <ele>108.4</ele>
        <time>2018-02-08T12:26:42Z</time>
      </trkpt>
      <trkpt lat="62.647469255576" lon="17.858303640498">
        <ele>108.4</ele>
        <time>2018-02-08T12:26:43Z</time>
      </trkpt>
      <trkpt lat="62.64747143487" lon="17.858257540048">
        <ele>108.4</ele>
        <time>2018-02-08T12:26:44Z</time>
      </trkpt>
      <trkpt lat="62.647482750435" lon="17.858199788757">
        <ele>108.4</ele>
        <time>2018-02-08T12:26:45Z</time>
      </trkpt>
      <trkpt lat="62.647483253349" lon="17.85816265694">
        <ele>108.4</ele>
        <time>2018-02-08T12:26:46Z</time>
      </trkpt>
      <trkpt lat="62.64749658057" lon="17.858077077741">
        <ele>108.4</ele>
        <time>2018-02-08T12:26:47Z</time>
      </trkpt>
      <trkpt lat="62.647500100968" lon="17.858010776912">
        <ele>108.4</ele>
        <time>2018-02-08T12:26:48Z</time>
      </trkpt>
      <trkpt lat="62.647501861167" lon="17.857940620409">
        <ele>108.4</ele>
        <time>2018-02-08T12:26:49Z</time>
      </trkpt>
      <trkpt lat="62.647507141764" lon="17.857860237988">
        <ele>108.4</ele>
        <time>2018-02-08T12:26:50Z</time>
      </trkpt>
      <trkpt lat="62.64750496247" lon="17.857798463385">
        <ele>108.6</ele>
        <time>2018-02-08T12:26:51Z</time>
      </trkpt>
      <trkpt lat="62.647512757637" lon="17.857712465091">
        <ele>108.4</ele>
        <time>2018-02-08T12:26:52Z</time>
      </trkpt>
      <trkpt lat="62.647522983555" lon="17.857657898922">
        <ele>108.4</ele>
        <time>2018-02-08T12:26:53Z</time>
      </trkpt>
      <trkpt lat="62.647531868369" lon="17.857589167342">
        <ele>108.4</ele>
        <time>2018-02-08T12:26:54Z</time>
      </trkpt>
      <trkpt lat="62.647544860314" lon="17.8575289853">
        <ele>108.4</ele>
        <time>2018-02-08T12:26:55Z</time>
      </trkpt>
      <trkpt lat="62.647548715988" lon="17.857486656705">
        <ele>108.2</ele>
        <time>2018-02-08T12:26:56Z</time>
      </trkpt>
      <trkpt lat="62.647566820892" lon="17.85741666784">
        <ele>108.2</ele>
        <time>2018-02-08T12:26:57Z</time>
      </trkpt>
      <trkpt lat="62.647569670738" lon="17.857355647608">
        <ele>108.2</ele>
        <time>2018-02-08T12:26:58Z</time>
      </trkpt>
      <trkpt lat="62.64757369405" lon="17.857299069783">
        <ele>108.2</ele>
        <time>2018-02-08T12:26:59Z</time>
      </trkpt>
      <trkpt lat="62.647586015443" lon="17.857240564121">
        <ele>108.2</ele>
        <time>2018-02-08T12:27:00Z</time>
      </trkpt>
      <trkpt lat="62.64759632518" lon="17.857196894422">
        <ele>108</ele>
        <time>2018-02-08T12:27:01Z</time>
      </trkpt>
      <trkpt lat="62.647602611605" lon="17.857151883619">
        <ele>108</ele>
        <time>2018-02-08T12:27:02Z</time>
      </trkpt>
      <trkpt lat="62.647613256618" lon="17.857103939151">
        <ele>108</ele>
        <time>2018-02-08T12:27:03Z</time>
      </trkpt>
      <trkpt lat="62.647623398717" lon="17.85703110044">
        <ele>108.2</ele>
        <time>2018-02-08T12:27:04Z</time>
      </trkpt>
      <trkpt lat="62.647629182228" lon="17.856988604207">
        <ele>108.2</ele>
        <time>2018-02-08T12:27:05Z</time>
      </trkpt>
      <trkpt lat="62.647628846952" lon="17.856943425766">
        <ele>108.4</ele>
        <time>2018-02-08T12:27:06Z</time>
      </trkpt>
      <trkpt lat="62.647635552472" lon="17.856872766349">
        <ele>108.6</ele>
        <time>2018-02-08T12:27:07Z</time>
      </trkpt>
      <trkpt lat="62.647637815585" lon="17.856815769429">
        <ele>108.8</ele>
        <time>2018-02-08T12:27:08Z</time>
      </trkpt>
      <trkpt lat="62.647637983223" lon="17.856781236001">
        <ele>108.8</ele>
        <time>2018-02-08T12:27:09Z</time>
      </trkpt>
      <trkpt lat="62.647640078698" lon="17.856713258792">
        <ele>109</ele>
        <time>2018-02-08T12:27:10Z</time>
      </trkpt>
      <trkpt lat="62.647641922716" lon="17.856655088406">
        <ele>109</ele>
        <time>2018-02-08T12:27:11Z</time>
      </trkpt>
      <trkpt lat="62.647638989051" lon="17.8565902125">
        <ele>109</ele>
        <time>2018-02-08T12:27:12Z</time>
      </trkpt>
      <trkpt lat="62.647639994879" lon="17.856526090965">
        <ele>109.2</ele>
        <time>2018-02-08T12:27:13Z</time>
      </trkpt>
      <trkpt lat="62.647641000707" lon="17.856477308307">
        <ele>109.2</ele>
        <time>2018-02-08T12:27:14Z</time>
      </trkpt>
      <trkpt lat="62.64765080753" lon="17.856414024962">
        <ele>109.2</ele>
        <time>2018-02-08T12:27:15Z</time>
      </trkpt>
      <trkpt lat="62.647664637665" lon="17.856345628658">
        <ele>109.2</ele>
        <time>2018-02-08T12:27:16Z</time>
      </trkpt>
      <trkpt lat="62.647678719257" lon="17.8562465546">
        <ele>109</ele>
        <time>2018-02-08T12:27:17Z</time>
      </trkpt>
      <trkpt lat="62.64769774617" lon="17.856159634297">
        <ele>108.6</ele>
        <time>2018-02-08T12:27:18Z</time>
      </trkpt>
      <trkpt lat="62.647715180522" lon="17.856067098121">
        <ele>108.2</ele>
        <time>2018-02-08T12:27:19Z</time>
      </trkpt>
      <trkpt lat="62.647741499688" lon="17.855982943845">
        <ele>108</ele>
        <time>2018-02-08T12:27:20Z</time>
      </trkpt>
      <trkpt lat="62.647767483578" lon="17.85590457308">
        <ele>107.8</ele>
        <time>2018-02-08T12:27:21Z</time>
      </trkpt>
      <trkpt lat="62.647807129965" lon="17.855826789048">
        <ele>107.4</ele>
        <time>2018-02-08T12:27:22Z</time>
      </trkpt>
      <trkpt lat="62.647845351429" lon="17.855741796582">
        <ele>107.2</ele>
        <time>2018-02-08T12:27:23Z</time>
      </trkpt>
      <trkpt lat="62.647885919825" lon="17.855675244296">
        <ele>106.8</ele>
        <time>2018-02-08T12:27:24Z</time>
      </trkpt>
      <trkpt lat="62.647938977252" lon="17.855593688409">
        <ele>106.2</ele>
        <time>2018-02-08T12:27:25Z</time>
      </trkpt>
      <trkpt lat="62.647988681919" lon="17.855525795019">
        <ele>105.4</ele>
        <time>2018-02-08T12:27:26Z</time>
      </trkpt>
      <trkpt lat="62.648053893101" lon="17.855485897175">
        <ele>104.8</ele>
        <time>2018-02-08T12:27:27Z</time>
      </trkpt>
      <trkpt lat="62.648112901677" lon="17.855489836668">
        <ele>104.4</ele>
        <time>2018-02-08T12:27:28Z</time>
      </trkpt>
      <trkpt lat="62.648162606344" lon="17.855499811129">
        <ele>104</ele>
        <time>2018-02-08T12:27:29Z</time>
      </trkpt>
      <trkpt lat="62.648217591608" lon="17.85550810921">
        <ele>103.6</ele>
        <time>2018-02-08T12:27:30Z</time>
      </trkpt>
      <trkpt lat="62.64827274451" lon="17.855504002079">
        <ele>103.4</ele>
        <time>2018-02-08T12:27:31Z</time>
      </trkpt>
      <trkpt lat="62.648326975403" lon="17.855461673484">
        <ele>103.4</ele>
        <time>2018-02-08T12:27:32Z</time>
      </trkpt>
      <trkpt lat="62.648371734749" lon="17.855427894427">
        <ele>103.2</ele>
        <time>2018-02-08T12:27:33Z</time>
      </trkpt>
      <trkpt lat="62.648421523235" lon="17.855398222501">
        <ele>103.2</ele>
        <time>2018-02-08T12:27:34Z</time>
      </trkpt>
      <trkpt lat="62.648455972844" lon="17.855376178104">
        <ele>103.2</ele>
        <time>2018-02-08T12:27:35Z</time>
      </trkpt>
      <trkpt lat="62.648485393313" lon="17.855350110395">
        <ele>103.2</ele>
        <time>2018-02-08T12:27:36Z</time>
      </trkpt>
      <trkpt lat="62.648525374976" lon="17.855308703809">
        <ele>103.2</ele>
        <time>2018-02-08T12:27:37Z</time>
      </trkpt>
      <trkpt lat="62.648556723282" lon="17.855290431267">
        <ele>103</ele>
        <time>2018-02-08T12:27:38Z</time>
      </trkpt>
      <trkpt lat="62.648583042448" lon="17.855267045766">
        <ele>103</ele>
        <time>2018-02-08T12:27:39Z</time>
      </trkpt>
      <trkpt lat="62.648610367442" lon="17.855241397152">
        <ele>103.2</ele>
        <time>2018-02-08T12:27:40Z</time>
      </trkpt>
      <trkpt lat="62.648620928636" lon="17.855213233968">
        <ele>103.2</ele>
        <time>2018-02-08T12:27:41Z</time>
      </trkpt>
      <trkpt lat="62.648650684381" lon="17.855182304757">
        <ele>103.2</ele>
        <time>2018-02-08T12:27:42Z</time>
      </trkpt>
      <trkpt lat="62.648671303855" lon="17.855163780758">
        <ele>103.2</ele>
        <time>2018-02-08T12:27:43Z</time>
      </trkpt>
      <trkpt lat="62.6486926777" lon="17.855128912054">
        <ele>103.4</ele>
        <time>2018-02-08T12:27:44Z</time>
      </trkpt>
      <trkpt lat="62.648713967726" lon="17.855090020038">
        <ele>103.4</ele>
        <time>2018-02-08T12:27:45Z</time>
      </trkpt>
      <trkpt lat="62.648734168105" lon="17.855045931244">
        <ele>103.4</ele>
        <time>2018-02-08T12:27:46Z</time>
      </trkpt>
      <trkpt lat="62.648747746783" lon="17.854996729491">
        <ele>103.6</ele>
        <time>2018-02-08T12:27:47Z</time>
      </trkpt>
      <trkpt lat="62.648761744556" lon="17.854935373983">
        <ele>103.8</ele>
        <time>2018-02-08T12:27:48Z</time>
      </trkpt>
      <trkpt lat="62.648772138112" lon="17.854860775073">
        <ele>103.8</ele>
        <time>2018-02-08T12:27:49Z</time>
      </trkpt>
      <trkpt lat="62.648778424537" lon="17.854773519494">
        <ele>103.8</ele>
        <time>2018-02-08T12:27:50Z</time>
      </trkpt>
      <trkpt lat="62.648780939107" lon="17.854658603645">
        <ele>103.8</ele>
        <time>2018-02-08T12:27:51Z</time>
      </trkpt>
      <trkpt lat="62.648781274383" lon="17.854531534041">
        <ele>103.6</ele>
        <time>2018-02-08T12:27:52Z</time>
      </trkpt>
      <trkpt lat="62.64877901127" lon="17.854420054771">
        <ele>103.4</ele>
        <time>2018-02-08T12:27:53Z</time>
      </trkpt>
      <trkpt lat="62.648790997387" lon="17.85431704122">
        <ele>102.8</ele>
        <time>2018-02-08T12:27:54Z</time>
      </trkpt>
      <trkpt lat="62.648819328209" lon="17.854252332952">
        <ele>102.2</ele>
        <time>2018-02-08T12:27:55Z</time>
      </trkpt>
      <trkpt lat="62.648851514705" lon="17.854221152284">
        <ele>101.6</ele>
        <time>2018-02-08T12:27:56Z</time>
      </trkpt>
      <trkpt lat="62.648888646522" lon="17.854205142855">
        <ele>101</ele>
        <time>2018-02-08T12:27:57Z</time>
      </trkpt>
      <trkpt lat="62.648923012312" lon="17.854235485333">
        <ele>100.4</ele>
        <time>2018-02-08T12:27:58Z</time>
      </trkpt>
      <trkpt lat="62.648943045053" lon="17.854274377349">
        <ele>100.4</ele>
        <time>2018-02-08T12:27:59Z</time>
      </trkpt>
      <trkpt lat="62.648962407242" lon="17.854341684006">
        <ele>100.2</ele>
        <time>2018-02-08T12:28:00Z</time>
      </trkpt>
      <trkpt lat="62.648989899874" lon="17.854367500258">
        <ele>100.2</ele>
        <time>2018-02-08T12:28:01Z</time>
      </trkpt>
      <trkpt lat="62.649017476325" lon="17.854443440272">
        <ele>100.2</ele>
        <time>2018-02-08T12:28:02Z</time>
      </trkpt>
      <trkpt lat="62.649043627853" lon="17.854518374458">
        <ele>100.2</ele>
        <time>2018-02-08T12:28:03Z</time>
      </trkpt>
      <trkpt lat="62.649071036666" lon="17.854563971994">
        <ele>100</ele>
        <time>2018-02-08T12:28:04Z</time>
      </trkpt>
      <trkpt lat="62.649095260357" lon="17.854633290307">
        <ele>99.8</ele>
        <time>2018-02-08T12:28:05Z</time>
      </trkpt>
      <trkpt lat="62.649119232591" lon="17.854685174268">
        <ele>99.6</ele>
        <time>2018-02-08T12:28:06Z</time>
      </trkpt>
      <trkpt lat="62.649144545929" lon="17.854758515893">
        <ele>99.2</ele>
        <time>2018-02-08T12:28:07Z</time>
      </trkpt>
      <trkpt lat="62.649169272534" lon="17.85480067685">
        <ele>99</ele>
        <time>2018-02-08T12:28:08Z</time>
      </trkpt>
      <trkpt lat="62.64918972437" lon="17.854853147544">
        <ele>99</ele>
        <time>2018-02-08T12:28:09Z</time>
      </trkpt>
      <trkpt lat="62.649213948061" lon="17.854903522763">
        <ele>98.8</ele>
        <time>2018-02-08T12:28:10Z</time>
      </trkpt>
      <trkpt lat="62.649243703806" lon="17.85493394906">
        <ele>99</ele>
        <time>2018-02-08T12:28:11Z</time>
      </trkpt>
      <trkpt lat="62.649279243062" lon="17.854986671211">
        <ele>98.8</ele>
        <time>2018-02-08T12:28:12Z</time>
      </trkpt>
      <trkpt lat="62.649308076798" lon="17.854998824966">
        <ele>98.6</ele>
        <time>2018-02-08T12:28:13Z</time>
      </trkpt>
      <trkpt lat="62.649346549719" lon="17.855023383933">
        <ele>98.4</ele>
        <time>2018-02-08T12:28:14Z</time>
      </trkpt>
      <trkpt lat="62.649382340432" lon="17.855028245435">
        <ele>98.2</ele>
        <time>2018-02-08T12:28:15Z</time>
      </trkpt>
      <trkpt lat="62.649417879688" lon="17.855012571282">
        <ele>97.8</ele>
        <time>2018-02-08T12:28:16Z</time>
      </trkpt>
      <trkpt lat="62.649453335125" lon="17.854994717835">
        <ele>97.6</ele>
        <time>2018-02-08T12:28:17Z</time>
      </trkpt>
      <trkpt lat="62.649494574073" lon="17.854967141384">
        <ele>97.4</ele>
        <time>2018-02-08T12:28:18Z</time>
      </trkpt>
      <trkpt lat="62.649534136641" lon="17.854938056191">
        <ele>97</ele>
        <time>2018-02-08T12:28:19Z</time>
      </trkpt>
      <trkpt lat="62.649572693381" lon="17.854908551903">
        <ele>96.8</ele>
        <time>2018-02-08T12:28:20Z</time>
      </trkpt>
      <trkpt lat="62.649615357252" lon="17.8548803049">
        <ele>96.6</ele>
        <time>2018-02-08T12:28:21Z</time>
      </trkpt>
      <trkpt lat="62.649660619512" lon="17.854859182512">
        <ele>96.2</ele>
        <time>2018-02-08T12:28:22Z</time>
      </trkpt>
      <trkpt lat="62.649707390514" lon="17.854837976305">
        <ele>95.8</ele>
        <time>2018-02-08T12:28:23Z</time>
      </trkpt>
      <trkpt lat="62.649764555072" lon="17.854816518641">
        <ele>95.4</ele>
        <time>2018-02-08T12:28:24Z</time>
      </trkpt>
      <trkpt lat="62.649820378526" lon="17.854807298551">
        <ele>94.6</ele>
        <time>2018-02-08T12:28:25Z</time>
      </trkpt>
      <trkpt lat="62.64987117284" lon="17.85480151504">
        <ele>94.2</ele>
        <time>2018-02-08T12:28:26Z</time>
      </trkpt>
      <trkpt lat="62.649932947443" lon="17.854798497556">
        <ele>93.6</ele>
        <time>2018-02-08T12:28:27Z</time>
      </trkpt>
      <trkpt lat="62.649992039838" lon="17.854791205303">
        <ele>92.8</ele>
        <time>2018-02-08T12:28:28Z</time>
      </trkpt>
      <trkpt lat="62.650051299871" lon="17.854768490354">
        <ele>92.2</ele>
        <time>2018-02-08T12:28:29Z</time>
      </trkpt>
      <trkpt lat="62.650108632067" lon="17.85470093224">
        <ele>91.4</ele>
        <time>2018-02-08T12:28:30Z</time>
      </trkpt>
      <trkpt lat="62.650146518255" lon="17.854620214543">
        <ele>90.8</ele>
        <time>2018-02-08T12:28:31Z</time>
      </trkpt>
      <trkpt lat="62.650174010887" lon="17.854510495472">
        <ele>90.2</ele>
        <time>2018-02-08T12:28:32Z</time>
      </trkpt>
      <trkpt lat="62.650193456895" lon="17.854411505233">
        <ele>89.6</ele>
        <time>2018-02-08T12:28:33Z</time>
      </trkpt>
      <trkpt lat="62.650214327826" lon="17.854311425347">
        <ele>89.2</ele>
        <time>2018-02-08T12:28:34Z</time>
      </trkpt>
      <trkpt lat="62.650219189328" lon="17.854236239704">
        <ele>88.8</ele>
        <time>2018-02-08T12:28:35Z</time>
      </trkpt>
      <trkpt lat="62.650221871536" lon="17.854163484812">
        <ele>88.6</ele>
        <time>2018-02-08T12:28:36Z</time>
      </trkpt>
      <trkpt lat="62.650235953128" lon="17.854110595023">
        <ele>88.4</ele>
        <time>2018-02-08T12:28:37Z</time>
      </trkpt>
      <trkpt lat="62.6502433292" lon="17.854089472635">
        <ele>88.4</ele>
        <time>2018-02-08T12:28:38Z</time>
      </trkpt>
      <trkpt lat="62.650259757724" lon="17.85403121843">
        <ele>88.6</ele>
        <time>2018-02-08T12:28:39Z</time>
      </trkpt>
      <trkpt lat="62.650260512095" lon="17.854001546504">
        <ele>89</ele>
        <time>2018-02-08T12:28:40Z</time>
      </trkpt>
      <trkpt lat="62.650266463244" lon="17.853976484623">
        <ele>89.2</ele>
        <time>2018-02-08T12:28:41Z</time>
      </trkpt>
      <trkpt lat="62.650280880112" lon="17.853941867376">
        <ele>89.6</ele>
        <time>2018-02-08T12:28:42Z</time>
      </trkpt>
      <trkpt lat="62.650297643912" lon="17.853897610944">
        <ele>90</ele>
        <time>2018-02-08T12:28:43Z</time>
      </trkpt>
      <trkpt lat="62.650315078264" lon="17.853849917933">
        <ele>90.4</ele>
        <time>2018-02-08T12:28:44Z</time>
      </trkpt>
      <trkpt lat="62.650325304182" lon="17.853793340108">
        <ele>90.8</ele>
        <time>2018-02-08T12:28:45Z</time>
      </trkpt>
      <trkpt lat="62.650345839837" lon="17.85374707202">
        <ele>90.8</ele>
        <time>2018-02-08T12:28:46Z</time>
      </trkpt>
      <trkpt lat="62.650354640832" lon="17.853717903008">
        <ele>90.8</ele>
        <time>2018-02-08T12:28:47Z</time>
      </trkpt>
      <trkpt lat="62.650382887835" lon="17.853667192513">
        <ele>90.8</ele>
        <time>2018-02-08T12:28:48Z</time>
      </trkpt>
      <trkpt lat="62.650402082386" lon="17.8536397837">
        <ele>90.8</ele>
        <time>2018-02-08T12:28:49Z</time>
      </trkpt>
      <trkpt lat="62.650417002168" lon="17.853612291068">
        <ele>90.6</ele>
        <time>2018-02-08T12:28:50Z</time>
      </trkpt>
      <trkpt lat="62.650439717117" lon="17.853578092916">
        <ele>90.6</ele>
        <time>2018-02-08T12:28:51Z</time>
      </trkpt>
      <trkpt lat="62.650463521713" lon="17.853545487325">
        <ele>90.8</ele>
        <time>2018-02-08T12:28:52Z</time>
      </trkpt>
      <trkpt lat="62.650475675468" lon="17.853518832883">
        <ele>90.8</ele>
        <time>2018-02-08T12:28:53Z</time>
      </trkpt>
      <trkpt lat="62.650495792028" lon="17.853485892016">
        <ele>91</ele>
        <time>2018-02-08T12:28:54Z</time>
      </trkpt>
      <trkpt lat="62.650522111194" lon="17.853453370244">
        <ele>91</ele>
        <time>2018-02-08T12:28:55Z</time>
      </trkpt>
      <trkpt lat="62.650537114795" lon="17.85343610353">
        <ele>91.2</ele>
        <time>2018-02-08T12:28:56Z</time>
      </trkpt>
      <trkpt lat="62.650550609654" lon="17.853401905378">
        <ele>91.4</ele>
        <time>2018-02-08T12:28:57Z</time>
      </trkpt>
      <trkpt lat="62.650569468929" lon="17.85336821014">
        <ele>91.4</ele>
        <time>2018-02-08T12:28:58Z</time>
      </trkpt>
      <trkpt lat="62.650580952132" lon="17.853332419427">
        <ele>91.6</ele>
        <time>2018-02-08T12:28:59Z</time>
      </trkpt>
      <trkpt lat="62.650596291009" lon="17.853307441365">
        <ele>91.8</ele>
        <time>2018-02-08T12:29:00Z</time>
      </trkpt>
      <trkpt lat="62.650612719533" lon="17.853280284009">
        <ele>91.8</ele>
        <time>2018-02-08T12:29:01Z</time>
      </trkpt>
      <trkpt lat="62.650630489161" lon="17.853253713386">
        <ele>91.8</ele>
        <time>2018-02-08T12:29:02Z</time>
      </trkpt>
      <trkpt lat="62.6506456604" lon="17.85322404146">
        <ele>92</ele>
        <time>2018-02-08T12:29:03Z</time>
      </trkpt>
      <trkpt lat="62.650659825811" lon="17.85320308671">
        <ele>92.2</ele>
        <time>2018-02-08T12:29:04Z</time>
      </trkpt>
      <trkpt lat="62.65066326239" lon="17.853196548828">
        <ele>92.4</ele>
        <time>2018-02-08T12:29:05Z</time>
      </trkpt>
      <trkpt lat="62.650686061158" lon="17.853149777826">
        <ele>92.6</ele>
        <time>2018-02-08T12:29:06Z</time>
      </trkpt>
      <trkpt lat="62.6507043337" lon="17.853102084815">
        <ele>92.8</ele>
        <time>2018-02-08T12:29:07Z</time>
      </trkpt>
      <trkpt lat="62.650714475799" lon="17.853074424545">
        <ele>92.8</ele>
        <time>2018-02-08T12:29:08Z</time>
      </trkpt>
      <trkpt lat="62.650732413065" lon="17.85303293414">
        <ele>93</ele>
        <time>2018-02-08T12:29:09Z</time>
      </trkpt>
      <trkpt lat="62.650747332847" lon="17.852995969961">
        <ele>93.2</ele>
        <time>2018-02-08T12:29:10Z</time>
      </trkpt>
      <trkpt lat="62.650758313136" lon="17.852975182849">
        <ele>93.4</ele>
        <time>2018-02-08T12:29:11Z</time>
      </trkpt>
      <trkpt lat="62.650782955922" lon="17.852924556173">
        <ele>93.6</ele>
        <time>2018-02-08T12:29:12Z</time>
      </trkpt>
      <trkpt lat="62.650798043342" lon="17.852894213695">
        <ele>93.6</ele>
        <time>2018-02-08T12:29:13Z</time>
      </trkpt>
      <trkpt lat="62.650808604536" lon="17.852877282257">
        <ele>93.8</ele>
        <time>2018-02-08T12:29:14Z</time>
      </trkpt>
      <trkpt lat="62.650832409132" lon="17.852844844304">
        <ele>93.8</ele>
        <time>2018-02-08T12:29:15Z</time>
      </trkpt>
      <trkpt lat="62.650852525692" lon="17.852814837102">
        <ele>94</ele>
        <time>2018-02-08T12:29:16Z</time>
      </trkpt>
      <trkpt lat="62.650881024152" lon="17.852785081357">
        <ele>94</ele>
        <time>2018-02-08T12:29:17Z</time>
      </trkpt>
      <trkpt lat="62.650911953363" lon="17.852748117178">
        <ele>94.2</ele>
        <time>2018-02-08T12:29:18Z</time>
      </trkpt>
      <trkpt lat="62.650944391316" lon="17.852722887659">
        <ele>94.4</ele>
        <time>2018-02-08T12:29:19Z</time>
      </trkpt>
      <trkpt lat="62.650978924744" lon="17.852706626773">
        <ele>94.2</ele>
        <time>2018-02-08T12:29:20Z</time>
      </trkpt>
      <trkpt lat="62.651002980797" lon="17.852681397254">
        <ele>94</ele>
        <time>2018-02-08T12:29:21Z</time>
      </trkpt>
      <trkpt lat="62.65104547703" lon="17.852682151625">
        <ele>94</ele>
        <time>2018-02-08T12:29:22Z</time>
      </trkpt>
      <trkpt lat="62.651061989373" lon="17.852683157453">
        <ele>93.8</ele>
        <time>2018-02-08T12:29:23Z</time>
      </trkpt>
      <trkpt lat="62.65108822472" lon="17.852696484674">
        <ele>93.6</ele>
        <time>2018-02-08T12:29:24Z</time>
      </trkpt>
      <trkpt lat="62.651106748719" lon="17.852694473018">
        <ele>93.6</ele>
        <time>2018-02-08T12:29:25Z</time>
      </trkpt>
      <trkpt lat="62.651128541659" lon="17.852704866574">
        <ele>93.4</ele>
        <time>2018-02-08T12:29:26Z</time>
      </trkpt>
      <trkpt lat="62.65116198544" lon="17.852707632601">
        <ele>93.8</ele>
        <time>2018-02-08T12:29:27Z</time>
      </trkpt>
      <trkpt lat="62.651182604914" lon="17.852697406683">
        <ele>93.8</ele>
        <time>2018-02-08T12:29:28Z</time>
      </trkpt>
      <trkpt lat="62.651207666795" lon="17.852704447479">
        <ele>93.8</ele>
        <time>2018-02-08T12:29:29Z</time>
      </trkpt>
      <trkpt lat="62.651237338721" lon="17.85269933452">
        <ele>93.8</ele>
        <time>2018-02-08T12:29:30Z</time>
      </trkpt>
      <trkpt lat="62.651251252675" lon="17.852687013127">
        <ele>93.8</ele>
        <time>2018-02-08T12:29:31Z</time>
      </trkpt>
      <trkpt lat="62.651277404203" lon="17.852678798865">
        <ele>94</ele>
        <time>2018-02-08T12:29:32Z</time>
      </trkpt>
      <trkpt lat="62.651301711713" lon="17.852670081689">
        <ele>94</ele>
        <time>2018-02-08T12:29:33Z</time>
      </trkpt>
      <trkpt lat="62.651321828273" lon="17.852664381997">
        <ele>94</ele>
        <time>2018-02-08T12:29:34Z</time>
      </trkpt>
      <trkpt lat="62.651344040308" lon="17.8526507195">
        <ele>94</ele>
        <time>2018-02-08T12:29:35Z</time>
      </trkpt>
      <trkpt lat="62.651369186008" lon="17.852621466669">
        <ele>94.2</ele>
        <time>2018-02-08T12:29:36Z</time>
      </trkpt>
      <trkpt lat="62.65138829674" lon="17.852603613222">
        <ele>94.2</ele>
        <time>2018-02-08T12:29:37Z</time>
      </trkpt>
      <trkpt lat="62.65141428063" lon="17.852582323196">
        <ele>94.4</ele>
        <time>2018-02-08T12:29:38Z</time>
      </trkpt>
      <trkpt lat="62.651434816285" lon="17.852559692066">
        <ele>94.4</ele>
        <time>2018-02-08T12:29:39Z</time>
      </trkpt>
      <trkpt lat="62.651451663904" lon="17.852548711777">
        <ele>94.4</ele>
        <time>2018-02-08T12:29:40Z</time>
      </trkpt>
      <trkpt lat="62.651474462672" lon="17.852530690692">
        <ele>94.6</ele>
        <time>2018-02-08T12:29:41Z</time>
      </trkpt>
      <trkpt lat="62.651501703847" lon="17.852514010711">
        <ele>94.6</ele>
        <time>2018-02-08T12:29:42Z</time>
      </trkpt>
      <trkpt lat="62.651515450163" lon="17.852496241083">
        <ele>94.6</ele>
        <time>2018-02-08T12:29:43Z</time>
      </trkpt>
      <trkpt lat="62.651545205908" lon="17.852479896378">
        <ele>94.6</ele>
        <time>2018-02-08T12:29:44Z</time>
      </trkpt>
      <trkpt lat="62.651569010504" lon="17.852464306044">
        <ele>94.6</ele>
        <time>2018-02-08T12:29:45Z</time>
      </trkpt>
      <trkpt lat="62.651582840639" lon="17.852443016018">
        <ele>94.6</ele>
        <time>2018-02-08T12:29:46Z</time>
      </trkpt>
      <trkpt lat="62.651607567244" lon="17.852421390716">
        <ele>94.8</ele>
        <time>2018-02-08T12:29:47Z</time>
      </trkpt>
      <trkpt lat="62.651634556962" lon="17.852412086807">
        <ele>94.8</ele>
        <time>2018-02-08T12:29:48Z</time>
      </trkpt>
      <trkpt lat="62.651653835332" lon="17.852403369631">
        <ele>94.8</ele>
        <time>2018-02-08T12:29:49Z</time>
      </trkpt>
      <trkpt lat="62.651664815621" lon="17.852387779297">
        <ele>95</ele>
        <time>2018-02-08T12:29:50Z</time>
      </trkpt>
      <trkpt lat="62.651690464235" lon="17.852375876999">
        <ele>95</ele>
        <time>2018-02-08T12:29:51Z</time>
      </trkpt>
      <trkpt lat="62.651717118677" lon="17.852363890882">
        <ele>95.2</ele>
        <time>2018-02-08T12:29:52Z</time>
      </trkpt>
      <trkpt lat="62.651728685699" lon="17.852352156222">
        <ele>95.4</ele>
        <time>2018-02-08T12:29:53Z</time>
      </trkpt>
      <trkpt lat="62.651757267978" lon="17.852339164277">
        <ele>95.6</ele>
        <time>2018-02-08T12:29:54Z</time>
      </trkpt>
      <trkpt lat="62.651780737298" lon="17.852314521491">
        <ele>95.8</ele>
        <time>2018-02-08T12:29:55Z</time>
      </trkpt>
      <trkpt lat="62.651797752555" lon="17.852302954469">
        <ele>96</ele>
        <time>2018-02-08T12:29:56Z</time>
      </trkpt>
      <trkpt lat="62.651825915739" lon="17.852301948641">
        <ele>96</ele>
        <time>2018-02-08T12:29:57Z</time>
      </trkpt>
      <trkpt lat="62.651846702851" lon="17.852286777402">
        <ele>96</ele>
        <time>2018-02-08T12:29:58Z</time>
      </trkpt>
      <trkpt lat="62.651862796099" lon="17.852280323339">
        <ele>96.2</ele>
        <time>2018-02-08T12:29:59Z</time>
      </trkpt>
      <trkpt lat="62.651879392261" lon="17.852273701638">
        <ele>96.2</ele>
        <time>2018-02-08T12:30:00Z</time>
      </trkpt>
      <trkpt lat="62.651901604296" lon="17.852274623647">
        <ele>96.4</ele>
        <time>2018-02-08T12:30:01Z</time>
      </trkpt>
      <trkpt lat="62.651927504367" lon="17.852268085765">
        <ele>96.4</ele>
        <time>2018-02-08T12:30:02Z</time>
      </trkpt>
      <trkpt lat="62.651951979515" lon="17.85225593201">
        <ele>96.8</ele>
        <time>2018-02-08T12:30:03Z</time>
      </trkpt>
      <trkpt lat="62.651962875985" lon="17.85224755011">
        <ele>96.8</ele>
        <time>2018-02-08T12:30:04Z</time>
      </trkpt>
      <trkpt lat="62.651986177667" lon="17.852234893441">
        <ele>97</ele>
        <time>2018-02-08T12:30:05Z</time>
      </trkpt>
      <trkpt lat="62.652002354734" lon="17.852226176265">
        <ele>97</ele>
        <time>2018-02-08T12:30:06Z</time>
      </trkpt>
      <trkpt lat="62.652019872905" lon="17.852213268139">
        <ele>97</ele>
        <time>2018-02-08T12:30:07Z</time>
      </trkpt>
      <trkpt lat="62.652041917302" lon="17.852204886239">
        <ele>97.2</ele>
        <time>2018-02-08T12:30:08Z</time>
      </trkpt>
      <trkpt lat="62.652047784632" lon="17.852184099127">
        <ele>97.2</ele>
        <time>2018-02-08T12:30:09Z</time>
      </trkpt>
      <trkpt lat="62.652074941988" lon="17.852163312015">
        <ele>97.4</ele>
        <time>2018-02-08T12:30:10Z</time>
      </trkpt>
      <trkpt lat="62.652089107399" lon="17.852145626206">
        <ele>97.4</ele>
        <time>2018-02-08T12:30:11Z</time>
      </trkpt>
      <trkpt lat="62.652105284466" lon="17.852121737791">
        <ele>97.6</ele>
        <time>2018-02-08T12:30:12Z</time>
      </trkpt>
      <trkpt lat="62.652128334691" lon="17.852096089177">
        <ele>97.8</ele>
        <time>2018-02-08T12:30:13Z</time>
      </trkpt>
      <trkpt lat="62.652148786527" lon="17.85207655935">
        <ele>98</ele>
        <time>2018-02-08T12:30:14Z</time>
      </trkpt>
      <trkpt lat="62.652165634146" lon="17.852060466102">
        <ele>98.2</ele>
        <time>2018-02-08T12:30:15Z</time>
      </trkpt>
      <trkpt lat="62.652181643575" lon="17.852034733669">
        <ele>98.2</ele>
        <time>2018-02-08T12:30:16Z</time>
      </trkpt>
      <trkpt lat="62.652201257221" lon="17.852017634593">
        <ele>98.4</ele>
        <time>2018-02-08T12:30:17Z</time>
      </trkpt>
      <trkpt lat="62.652215674089" lon="17.851983436441">
        <ele>98.6</ele>
        <time>2018-02-08T12:30:18Z</time>
      </trkpt>
      <trkpt lat="62.652237215572" lon="17.851956362904">
        <ele>98.6</ele>
        <time>2018-02-08T12:30:19Z</time>
      </trkpt>
      <trkpt lat="62.652250291336" lon="17.851923422037">
        <ele>98.8</ele>
        <time>2018-02-08T12:30:20Z</time>
      </trkpt>
      <trkpt lat="62.65226671986" lon="17.851904981857">
        <ele>99</ele>
        <time>2018-02-08T12:30:21Z</time>
      </trkpt>
      <trkpt lat="62.652279125072" lon="17.85188545203">
        <ele>99</ele>
        <time>2018-02-08T12:30:22Z</time>
      </trkpt>
      <trkpt lat="62.652292200836" lon="17.851864329642">
        <ele>99.2</ele>
        <time>2018-02-08T12:30:23Z</time>
      </trkpt>
      <trkpt lat="62.652304857505" lon="17.851845721824">
        <ele>99.4</ele>
        <time>2018-02-08T12:30:24Z</time>
      </trkpt>
      <trkpt lat="62.652316759803" lon="17.851818815925">
        <ele>99.6</ele>
        <time>2018-02-08T12:30:25Z</time>
      </trkpt>
      <trkpt lat="62.652332601594" lon="17.851793837863">
        <ele>99.8</ele>
        <time>2018-02-08T12:30:26Z</time>
      </trkpt>
      <trkpt lat="62.652346012634" lon="17.851768608344">
        <ele>100</ele>
        <time>2018-02-08T12:30:27Z</time>
      </trkpt>
      <trkpt lat="62.652363530805" lon="17.851743881739">
        <ele>100.2</ele>
        <time>2018-02-08T12:30:28Z</time>
      </trkpt>
      <trkpt lat="62.652376858026" lon="17.851721585885">
        <ele>100.6</ele>
        <time>2018-02-08T12:30:29Z</time>
      </trkpt>
      <trkpt lat="62.652386329573" lon="17.851698619479">
        <ele>100.8</ele>
        <time>2018-02-08T12:30:30Z</time>
      </trkpt>
      <trkpt lat="62.652397896595" lon="17.851673725236">
        <ele>101</ele>
        <time>2018-02-08T12:30:31Z</time>
      </trkpt>
      <trkpt lat="62.65240753578" lon="17.851646986975">
        <ele>101.2</ele>
        <time>2018-02-08T12:30:32Z</time>
      </trkpt>
      <trkpt lat="62.652423964304" lon="17.851634749401">
        <ele>101.4</ele>
        <time>2018-02-08T12:30:33Z</time>
      </trkpt>
      <trkpt lat="62.652438213534" lon="17.85160465838">
        <ele>101.6</ele>
        <time>2018-02-08T12:30:34Z</time>
      </trkpt>
      <trkpt lat="62.652452211307" lon="17.851579093585">
        <ele>102</ele>
        <time>2018-02-08T12:30:35Z</time>
      </trkpt>
      <trkpt lat="62.652467466365" lon="17.851558474111">
        <ele>102</ele>
        <time>2018-02-08T12:30:36Z</time>
      </trkpt>
      <trkpt lat="62.652481715595" lon="17.851530646203">
        <ele>102.2</ele>
        <time>2018-02-08T12:30:37Z</time>
      </trkpt>
      <trkpt lat="62.652495210454" lon="17.851504327037">
        <ele>102.6</ele>
        <time>2018-02-08T12:30:38Z</time>
      </trkpt>
      <trkpt lat="62.652506358381" lon="17.851483707563">
        <ele>102.8</ele>
        <time>2018-02-08T12:30:39Z</time>
      </trkpt>
      <trkpt lat="62.652520607611" lon="17.851459986786">
        <ele>103.2</ele>
        <time>2018-02-08T12:30:40Z</time>
      </trkpt>
      <trkpt lat="62.652537203773" lon="17.851441462787">
        <ele>103.4</ele>
        <time>2018-02-08T12:30:41Z</time>
      </trkpt>
      <trkpt lat="62.652549357528" lon="17.851413299603">
        <ele>103.6</ele>
        <time>2018-02-08T12:30:42Z</time>
      </trkpt>
      <trkpt lat="62.65256595369" lon="17.851392428672">
        <ele>103.6</ele>
        <time>2018-02-08T12:30:43Z</time>
      </trkpt>
      <trkpt lat="62.652580370558" lon="17.851368624076">
        <ele>103.8</ele>
        <time>2018-02-08T12:30:44Z</time>
      </trkpt>
      <trkpt lat="62.652593027227" lon="17.85134481948">
        <ele>103.8</ele>
        <time>2018-02-08T12:30:45Z</time>
      </trkpt>
      <trkpt lat="62.652614484891" lon="17.851315734287">
        <ele>104</ele>
        <time>2018-02-08T12:30:46Z</time>
      </trkpt>
      <trkpt lat="62.652631919243" lon="17.85127944066">
        <ele>104</ele>
        <time>2018-02-08T12:30:47Z</time>
      </trkpt>
      <trkpt lat="62.65264725812" lon="17.851256222797">
        <ele>104</ele>
        <time>2018-02-08T12:30:48Z</time>
      </trkpt>
      <trkpt lat="62.652671230354" lon="17.851228478708">
        <ele>104.2</ele>
        <time>2018-02-08T12:30:49Z</time>
      </trkpt>
      <trkpt lat="62.652689083801" lon="17.851201740447">
        <ele>104.4</ele>
        <time>2018-02-08T12:30:50Z</time>
      </trkpt>
      <trkpt lat="62.652702075746" lon="17.85115790311">
        <ele>104.4</ele>
        <time>2018-02-08T12:30:51Z</time>
      </trkpt>
      <trkpt lat="62.652717414623" lon="17.851132422134">
        <ele>104.4</ele>
        <time>2018-02-08T12:30:52Z</time>
      </trkpt>
      <trkpt lat="62.652738453192" lon="17.851115574515">
        <ele>104.4</ele>
        <time>2018-02-08T12:30:53Z</time>
      </trkpt>
      <trkpt lat="62.652752450965" lon="17.851100151819">
        <ele>104.4</ele>
        <time>2018-02-08T12:30:54Z</time>
      </trkpt>
      <trkpt lat="62.652763934168" lon="17.851079867621">
        <ele>104.6</ele>
        <time>2018-02-08T12:30:55Z</time>
      </trkpt>
      <trkpt lat="62.652779105407" lon="17.851058074681">
        <ele>104.6</ele>
        <time>2018-02-08T12:30:56Z</time>
      </trkpt>
      <trkpt lat="62.652810286075" lon="17.851030330592">
        <ele>104.8</ele>
        <time>2018-02-08T12:30:57Z</time>
      </trkpt>
      <trkpt lat="62.652821517821" lon="17.851006609815">
        <ele>105</ele>
        <time>2018-02-08T12:30:58Z</time>
      </trkpt>
      <trkpt lat="62.652838533078" lon="17.850985906522">
        <ele>105.4</ele>
        <time>2018-02-08T12:30:59Z</time>
      </trkpt>
      <trkpt lat="62.652854710145" lon="17.850945757221">
        <ele>105.6</ele>
        <time>2018-02-08T12:31:00Z</time>
      </trkpt>
      <trkpt lat="62.652863092045" lon="17.850912564897">
        <ele>105.6</ele>
        <time>2018-02-08T12:31:01Z</time>
      </trkpt>
      <trkpt lat="62.652872144497" lon="17.85087710946">
        <ele>105.8</ele>
        <time>2018-02-08T12:31:02Z</time>
      </trkpt>
      <trkpt lat="62.652885387899" lon="17.85083939091">
        <ele>105.8</ele>
        <time>2018-02-08T12:31:03Z</time>
      </trkpt>
      <trkpt lat="62.652883124786" lon="17.850781891076">
        <ele>105.8</ele>
        <time>2018-02-08T12:31:04Z</time>
      </trkpt>
      <trkpt lat="62.652894775627" lon="17.850732856961">
        <ele>105.8</ele>
        <time>2018-02-08T12:31:05Z</time>
      </trkpt>
      <trkpt lat="62.652897206378" lon="17.850688684348">
        <ele>105.6</ele>
        <time>2018-02-08T12:31:06Z</time>
      </trkpt>
      <trkpt lat="62.652904079536" lon="17.850618444026">
        <ele>105.8</ele>
        <time>2018-02-08T12:31:07Z</time>
      </trkpt>
      <trkpt lat="62.652902989889" lon="17.850581479847">
        <ele>105.6</ele>
        <time>2018-02-08T12:31:08Z</time>
      </trkpt>
      <trkpt lat="62.652914053997" lon="17.850513754095">
        <ele>105.6</ele>
        <time>2018-02-08T12:31:09Z</time>
      </trkpt>
      <trkpt lat="62.652914808368" lon="17.850443178497">
        <ele>105.6</ele>
        <time>2018-02-08T12:31:10Z</time>
      </trkpt>
      <trkpt lat="62.652917406757" lon="17.850387522681">
        <ele>105.6</ele>
        <time>2018-02-08T12:31:11Z</time>
      </trkpt>
      <trkpt lat="62.652919921327" lon="17.850328011191">
        <ele>105.6</ele>
        <time>2018-02-08T12:31:12Z</time>
      </trkpt>
      <trkpt lat="62.652910114504" lon="17.850232289893">
        <ele>105.4</ele>
        <time>2018-02-08T12:31:13Z</time>
      </trkpt>
      <trkpt lat="62.652925621019" lon="17.850175125335">
        <ele>105.6</ele>
        <time>2018-02-08T12:31:14Z</time>
      </trkpt>
      <trkpt lat="62.652935846937" lon="17.850116368216">
        <ele>105.6</ele>
        <time>2018-02-08T12:31:15Z</time>
      </trkpt>
      <trkpt lat="62.652943306828" lon="17.85005400688">
        <ele>105.4</ele>
        <time>2018-02-08T12:31:16Z</time>
      </trkpt>
      <trkpt lat="62.652944396475" lon="17.849999105435">
        <ele>105.6</ele>
        <time>2018-02-08T12:31:17Z</time>
      </trkpt>
      <trkpt lat="62.652949174158" lon="17.849927104914">
        <ele>105.4</ele>
        <time>2018-02-08T12:31:18Z</time>
      </trkpt>
      <trkpt lat="62.652956634049" lon="17.849865833225">
        <ele>105.4</ele>
        <time>2018-02-08T12:31:19Z</time>
      </trkpt>
      <trkpt lat="62.65295990299" lon="17.849833646729">
        <ele>105.2</ele>
        <time>2018-02-08T12:31:20Z</time>
      </trkpt>
      <trkpt lat="62.652970715641" lon="17.849774219058">
        <ele>105.2</ele>
        <time>2018-02-08T12:31:21Z</time>
      </trkpt>
      <trkpt lat="62.652978846084" lon="17.849711941541">
        <ele>105</ele>
        <time>2018-02-08T12:31:22Z</time>
      </trkpt>
      <trkpt lat="62.652988820545" lon="17.849663577978">
        <ele>105</ele>
        <time>2018-02-08T12:31:23Z</time>
      </trkpt>
      <trkpt lat="62.652994604056" lon="17.849592834742">
        <ele>105.2</ele>
        <time>2018-02-08T12:31:24Z</time>
      </trkpt>
      <trkpt lat="62.653006590173" lon="17.849528629388">
        <ele>105.2</ele>
        <time>2018-02-08T12:31:25Z</time>
      </trkpt>
      <trkpt lat="62.653010781123" lon="17.849493006313">
        <ele>105.2</ele>
        <time>2018-02-08T12:31:26Z</time>
      </trkpt>
      <trkpt lat="62.65302528181" lon="17.849428633321">
        <ele>105.2</ele>
        <time>2018-02-08T12:31:27Z</time>
      </trkpt>
      <trkpt lat="62.653035759185" lon="17.849362583949">
        <ele>105.2</ele>
        <time>2018-02-08T12:31:28Z</time>
      </trkpt>
      <trkpt lat="62.653038860488" lon="17.849329894539">
        <ele>105</ele>
        <time>2018-02-08T12:31:29Z</time>
      </trkpt>
      <trkpt lat="62.653038525212" lon="17.849241716951">
        <ele>105.2</ele>
        <time>2018-02-08T12:31:30Z</time>
      </trkpt>
      <trkpt lat="62.653047661483" lon="17.849195616501">
        <ele>105.2</ele>
        <time>2018-02-08T12:31:31Z</time>
      </trkpt>
      <trkpt lat="62.653050343691" lon="17.849159490512">
        <ele>105.2</ele>
        <time>2018-02-08T12:31:32Z</time>
      </trkpt>
      <trkpt lat="62.653060653428" lon="17.849093944054">
        <ele>105.2</ele>
        <time>2018-02-08T12:31:33Z</time>
      </trkpt>
      <trkpt lat="62.653056965392" lon="17.84903392965">
        <ele>105.4</ele>
        <time>2018-02-08T12:31:34Z</time>
      </trkpt>
      <trkpt lat="62.65305797122" lon="17.849002832801">
        <ele>105.4</ele>
        <time>2018-02-08T12:31:35Z</time>
      </trkpt>
      <trkpt lat="62.65306048579" lon="17.848916499231">
        <ele>105.4</ele>
        <time>2018-02-08T12:31:36Z</time>
      </trkpt>
      <trkpt lat="62.653063084179" lon="17.848847348556">
        <ele>105.4</ele>
        <time>2018-02-08T12:31:37Z</time>
      </trkpt>
      <trkpt lat="62.653064844378" lon="17.848812144576">
        <ele>105.4</ele>
        <time>2018-02-08T12:31:38Z</time>
      </trkpt>
      <trkpt lat="62.653064341464" lon="17.848730085775">
        <ele>105.4</ele>
        <time>2018-02-08T12:31:39Z</time>
      </trkpt>
      <trkpt lat="62.653065095835" lon="17.848666383335">
        <ele>105.4</ele>
        <time>2018-02-08T12:31:40Z</time>
      </trkpt>
      <trkpt lat="62.653064173826" lon="17.848616594849">
        <ele>105.4</ele>
        <time>2018-02-08T12:31:41Z</time>
      </trkpt>
      <trkpt lat="62.65305629484" lon="17.848529674546">
        <ele>105.2</ele>
        <time>2018-02-08T12:31:42Z</time>
      </trkpt>
      <trkpt lat="62.65305378027" lon="17.848455243274">
        <ele>105.2</ele>
        <time>2018-02-08T12:31:43Z</time>
      </trkpt>
      <trkpt lat="62.653059563781" lon="17.848381901649">
        <ele>105.2</ele>
        <time>2018-02-08T12:31:44Z</time>
      </trkpt>
      <trkpt lat="62.653060988704" lon="17.848314594992">
        <ele>105.2</ele>
        <time>2018-02-08T12:31:45Z</time>
      </trkpt>
      <trkpt lat="62.653053025899" lon="17.848259190633">
        <ele>105</ele>
        <time>2018-02-08T12:31:46Z</time>
      </trkpt>
      <trkpt lat="62.653049086406" lon="17.848180819868">
        <ele>105</ele>
        <time>2018-02-08T12:31:47Z</time>
      </trkpt>
      <trkpt lat="62.653040453049" lon="17.848099515438">
        <ele>105</ele>
        <time>2018-02-08T12:31:48Z</time>
      </trkpt>
      <trkpt lat="62.653036345918" lon="17.848028856021">
        <ele>104.8</ele>
        <time>2018-02-08T12:31:49Z</time>
      </trkpt>
      <trkpt lat="62.653030562407" lon="17.847938750596">
        <ele>104.6</ele>
        <time>2018-02-08T12:31:50Z</time>
      </trkpt>
      <trkpt lat="62.653021593774" lon="17.847873120319">
        <ele>104.2</ele>
        <time>2018-02-08T12:31:51Z</time>
      </trkpt>
      <trkpt lat="62.653006171078" lon="17.847768514207">
        <ele>104</ele>
        <time>2018-02-08T12:31:52Z</time>
      </trkpt>
      <trkpt lat="62.653001225757" lon="17.847679582248">
        <ele>103.6</ele>
        <time>2018-02-08T12:31:53Z</time>
      </trkpt>
      <trkpt lat="62.652994101142" lon="17.847578161258">
        <ele>103.2</ele>
        <time>2018-02-08T12:31:54Z</time>
      </trkpt>
      <trkpt lat="62.65298756326" lon="17.847488726385">
        <ele>102.6</ele>
        <time>2018-02-08T12:31:55Z</time>
      </trkpt>
      <trkpt lat="62.652974487496" lon="17.847388311223">
        <ele>102</ele>
        <time>2018-02-08T12:31:56Z</time>
      </trkpt>
      <trkpt lat="62.652968368709" lon="17.847282028731">
        <ele>101.6</ele>
        <time>2018-02-08T12:31:57Z</time>
      </trkpt>
      <trkpt lat="62.652966273234" lon="17.84721505735">
        <ele>101.4</ele>
        <time>2018-02-08T12:31:58Z</time>
      </trkpt>
      <trkpt lat="62.652958561886" lon="17.847125790115">
        <ele>101.2</ele>
        <time>2018-02-08T12:31:59Z</time>
      </trkpt>
      <trkpt lat="62.652955209126" lon="17.847042809305">
        <ele>101</ele>
        <time>2018-02-08T12:32:00Z</time>
      </trkpt>
      <trkpt lat="62.652957639877" lon="17.846993942828">
        <ele>101.2</ele>
        <time>2018-02-08T12:32:01Z</time>
      </trkpt>
      <trkpt lat="62.652963758664" lon="17.846917248443">
        <ele>101.2</ele>
        <time>2018-02-08T12:32:02Z</time>
      </trkpt>
      <trkpt lat="62.652972643478" lon="17.846874416934">
        <ele>101.4</ele>
        <time>2018-02-08T12:32:03Z</time>
      </trkpt>
      <trkpt lat="62.652982701758" lon="17.846830998692">
        <ele>101.4</ele>
        <time>2018-02-08T12:32:04Z</time>
      </trkpt>
      <trkpt lat="62.652991167477" lon="17.846775426695">
        <ele>101.2</ele>
        <time>2018-02-08T12:32:05Z</time>
      </trkpt>
      <trkpt lat="62.653004913793" lon="17.846723542734">
        <ele>101.2</ele>
        <time>2018-02-08T12:32:06Z</time>
      </trkpt>
      <trkpt lat="62.653021174679" lon="17.846664701796">
        <ele>101.2</ele>
        <time>2018-02-08T12:32:07Z</time>
      </trkpt>
      <trkpt lat="62.653039028126" lon="17.846616002957">
        <ele>101.2</ele>
        <time>2018-02-08T12:32:08Z</time>
      </trkpt>
      <trkpt lat="62.653048248216" lon="17.846578619683">
        <ele>101.2</ele>
        <time>2018-02-08T12:32:09Z</time>
      </trkpt>
      <trkpt lat="62.653064257645" lon="17.846518270003">
        <ele>101.2</ele>
        <time>2018-02-08T12:32:10Z</time>
      </trkpt>
      <trkpt lat="62.653082697825" lon="17.846459093789">
        <ele>101.4</ele>
        <time>2018-02-08T12:32:11Z</time>
      </trkpt>
      <trkpt lat="62.653094097209" lon="17.846403605611">
        <ele>101.6</ele>
        <time>2018-02-08T12:32:12Z</time>
      </trkpt>
      <trkpt lat="62.653120081099" lon="17.846336801868">
        <ele>101.4</ele>
        <time>2018-02-08T12:32:13Z</time>
      </trkpt>
      <trkpt lat="62.653138688917" lon="17.846276787464">
        <ele>101.4</ele>
        <time>2018-02-08T12:32:14Z</time>
      </trkpt>
      <trkpt lat="62.653163331703" lon="17.846231525204">
        <ele>101.4</ele>
        <time>2018-02-08T12:32:15Z</time>
      </trkpt>
      <trkpt lat="62.6531853761" lon="17.84618324546">
        <ele>101.4</ele>
        <time>2018-02-08T12:32:16Z</time>
      </trkpt>
      <trkpt lat="62.65320381628" lon="17.846146784195">
        <ele>101.4</ele>
        <time>2018-02-08T12:32:17Z</time>
      </trkpt>
      <trkpt lat="62.653226698867" lon="17.846097582442">
        <ele>101.4</ele>
        <time>2018-02-08T12:32:18Z</time>
      </trkpt>
      <trkpt lat="62.653256119336" lon="17.846038154771">
        <ele>101.4</ele>
        <time>2018-02-08T12:32:19Z</time>
      </trkpt>
      <trkpt lat="62.65327841519" lon="17.846000017126">
        <ele>101.2</ele>
        <time>2018-02-08T12:32:20Z</time>
      </trkpt>
      <trkpt lat="62.65330104632" lon="17.845947462613">
        <ele>101.4</ele>
        <time>2018-02-08T12:32:21Z</time>
      </trkpt>
      <trkpt lat="62.653333987187" lon="17.845879736861">
        <ele>101.2</ele>
        <time>2018-02-08T12:32:22Z</time>
      </trkpt>
      <trkpt lat="62.65335971962" lon="17.845834139325">
        <ele>101.4</ele>
        <time>2018-02-08T12:32:23Z</time>
      </trkpt>
      <trkpt lat="62.65338737989" lon="17.845781249536">
        <ele>101.4</ele>
        <time>2018-02-08T12:32:24Z</time>
      </trkpt>
      <trkpt lat="62.653412106495" lon="17.845732131602">
        <ele>101.2</ele>
        <time>2018-02-08T12:32:25Z</time>
      </trkpt>
      <trkpt lat="62.653442029878" lon="17.845692401396">
        <ele>101.2</ele>
        <time>2018-02-08T12:32:26Z</time>
      </trkpt>
      <trkpt lat="62.653481173351" lon="17.845639176331">
        <ele>101.2</ele>
        <time>2018-02-08T12:32:27Z</time>
      </trkpt>
      <trkpt lat="62.653521909385" lon="17.845590728949">
        <ele>100.8</ele>
        <time>2018-02-08T12:32:28Z</time>
      </trkpt>
      <trkpt lat="62.653563818885" lon="17.845545969603">
        <ele>100.4</ele>
        <time>2018-02-08T12:32:29Z</time>
      </trkpt>
      <trkpt lat="62.653611763353" lon="17.845491487253">
        <ele>100</ele>
        <time>2018-02-08T12:32:30Z</time>
      </trkpt>
      <trkpt lat="62.653649565722" lon="17.845429125917">
        <ele>99.6</ele>
        <time>2018-02-08T12:32:31Z</time>
      </trkpt>
      <trkpt lat="62.653691894317" lon="17.845329046031">
        <ele>99</ele>
        <time>2018-02-08T12:32:32Z</time>
      </trkpt>
      <trkpt lat="62.653724583727" lon="17.84522184153">
        <ele>98.6</ele>
        <time>2018-02-08T12:32:33Z</time>
      </trkpt>
      <trkpt lat="62.6537469634" lon="17.845108182966">
        <ele>98.2</ele>
        <time>2018-02-08T12:32:34Z</time>
      </trkpt>
      <trkpt lat="62.653768253426" lon="17.845013467496">
        <ele>97.8</ele>
        <time>2018-02-08T12:32:35Z</time>
      </trkpt>
      <trkpt lat="62.653797338619" lon="17.844910118669">
        <ele>97.4</ele>
        <time>2018-02-08T12:32:36Z</time>
      </trkpt>
      <trkpt lat="62.653825585622" lon="17.844823366004">
        <ele>96.8</ele>
        <time>2018-02-08T12:32:37Z</time>
      </trkpt>
      <trkpt lat="62.653854084082" lon="17.844748515637">
        <ele>96.2</ele>
        <time>2018-02-08T12:32:38Z</time>
      </trkpt>
      <trkpt lat="62.653874116823" lon="17.84467617984">
        <ele>95.6</ele>
        <time>2018-02-08T12:32:39Z</time>
      </trkpt>
      <trkpt lat="62.653889874795" lon="17.844615327246">
        <ele>95.6</ele>
        <time>2018-02-08T12:32:40Z</time>
      </trkpt>
      <trkpt lat="62.653909236984" lon="17.844561850724">
        <ele>95.6</ele>
        <time>2018-02-08T12:32:41Z</time>
      </trkpt>
      <trkpt lat="62.653932454847" lon="17.844502590691">
        <ele>95.4</ele>
        <time>2018-02-08T12:32:42Z</time>
      </trkpt>
      <trkpt lat="62.653957013814" lon="17.844451964015">
        <ele>95.4</ele>
        <time>2018-02-08T12:32:43Z</time>
      </trkpt>
      <trkpt lat="62.653984757903" lon="17.844407539945">
        <ele>95.4</ele>
        <time>2018-02-08T12:32:44Z</time>
      </trkpt>
      <trkpt lat="62.654009233051" lon="17.844354147242">
        <ele>95.2</ele>
        <time>2018-02-08T12:32:45Z</time>
      </trkpt>
      <trkpt lat="62.65403278619" lon="17.844306957145">
        <ele>95</ele>
        <time>2018-02-08T12:32:46Z</time>
      </trkpt>
      <trkpt lat="62.654059859727" lon="17.844269154776">
        <ele>94.8</ele>
        <time>2018-02-08T12:32:47Z</time>
      </trkpt>
      <trkpt lat="62.65408894492" lon="17.844243925257">
        <ele>94.2</ele>
        <time>2018-02-08T12:32:48Z</time>
      </trkpt>
      <trkpt lat="62.654118784484" lon="17.844213247503">
        <ele>93.4</ele>
        <time>2018-02-08T12:32:49Z</time>
      </trkpt>
      <trkpt lat="62.654148204953" lon="17.844187766527">
        <ele>93</ele>
        <time>2018-02-08T12:32:50Z</time>
      </trkpt>
      <trkpt lat="62.654180139992" lon="17.844167733786">
        <ele>92.4</ele>
        <time>2018-02-08T12:32:51Z</time>
      </trkpt>
      <trkpt lat="62.654215260153" lon="17.844139402964">
        <ele>91.8</ele>
        <time>2018-02-08T12:32:52Z</time>
      </trkpt>
      <trkpt lat="62.654246859916" lon="17.844119789318">
        <ele>91.2</ele>
        <time>2018-02-08T12:32:53Z</time>
      </trkpt>
      <trkpt lat="62.654283237362" lon="17.844098164016">
        <ele>90.6</ele>
        <time>2018-02-08T12:32:54Z</time>
      </trkpt>
      <trkpt lat="62.654324392491" lon="17.844083076596">
        <ele>90</ele>
        <time>2018-02-08T12:32:55Z</time>
      </trkpt>
      <trkpt lat="62.65436135667" lon="17.844068995004">
        <ele>89.2</ele>
        <time>2018-02-08T12:32:56Z</time>
      </trkpt>
      <trkpt lat="62.654398572306" lon="17.844056841249">
        <ele>88.6</ele>
        <time>2018-02-08T12:32:57Z</time>
      </trkpt>
      <trkpt lat="62.654434446838" lon="17.84404669915">
        <ele>87.8</ele>
        <time>2018-02-08T12:32:58Z</time>
      </trkpt>
      <trkpt lat="62.65446696861" lon="17.844034713033">
        <ele>87.4</ele>
        <time>2018-02-08T12:32:59Z</time>
      </trkpt>
      <trkpt lat="62.654533604715" lon="17.844013842102">
        <ele>86.8</ele>
        <time>2018-02-08T12:33:00Z</time>
      </trkpt>
      <trkpt lat="62.654581633002" lon="17.84400814241">
        <ele>86.2</ele>
        <time>2018-02-08T12:33:01Z</time>
      </trkpt>
      <trkpt lat="62.654634522791" lon="17.844005376383">
        <ele>85.2</ele>
        <time>2018-02-08T12:33:02Z</time>
      </trkpt>
      <trkpt lat="62.654680623241" lon="17.844000179605">
        <ele>84.6</ele>
        <time>2018-02-08T12:33:03Z</time>
      </trkpt>
      <trkpt lat="62.654732842478" lon="17.843998335587">
        <ele>83.8</ele>
        <time>2018-02-08T12:33:04Z</time>
      </trkpt>
      <trkpt lat="62.654769890476" lon="17.843978219027">
        <ele>83</ele>
        <time>2018-02-08T12:33:05Z</time>
      </trkpt>
      <trkpt lat="62.654815152736" lon="17.843970675317">
        <ele>82.4</ele>
        <time>2018-02-08T12:33:06Z</time>
      </trkpt>
      <trkpt lat="62.654854966761" lon="17.843955755535">
        <ele>81.6</ele>
        <time>2018-02-08T12:33:07Z</time>
      </trkpt>
      <trkpt lat="62.654891176569" lon="17.843946703083">
        <ele>81</ele>
        <time>2018-02-08T12:33:08Z</time>
      </trkpt>
      <trkpt lat="62.654927386377" lon="17.8439251616">
        <ele>80.4</ele>
        <time>2018-02-08T12:33:09Z</time>
      </trkpt>
      <trkpt lat="62.654966362212" lon="17.843911163827">
        <ele>79.8</ele>
        <time>2018-02-08T12:33:10Z</time>
      </trkpt>
      <trkpt lat="62.655003745486" lon="17.843902027556">
        <ele>79.2</ele>
        <time>2018-02-08T12:33:11Z</time>
      </trkpt>
      <trkpt lat="62.655049259203" lon="17.84388911943">
        <ele>78.4</ele>
        <time>2018-02-08T12:33:12Z</time>
      </trkpt>
      <trkpt lat="62.655089073228" lon="17.843866320662">
        <ele>77.8</ele>
        <time>2018-02-08T12:33:13Z</time>
      </trkpt>
      <trkpt lat="62.655131401823" lon="17.843838157478">
        <ele>77</ele>
        <time>2018-02-08T12:33:14Z</time>
      </trkpt>
      <trkpt lat="62.655173478961" lon="17.843820136393">
        <ele>76.4</ele>
        <time>2018-02-08T12:33:15Z</time>
      </trkpt>
      <trkpt lat="62.655216059013" lon="17.843814604339">
        <ele>75.8</ele>
        <time>2018-02-08T12:33:16Z</time>
      </trkpt>
      <trkpt lat="62.655263165291" lon="17.843805803344">
        <ele>75.4</ele>
        <time>2018-02-08T12:33:17Z</time>
      </trkpt>
      <trkpt lat="62.655312367044" lon="17.843805551887">
        <ele>75.2</ele>
        <time>2018-02-08T12:33:18Z</time>
      </trkpt>
      <trkpt lat="62.655353354535" lon="17.843823321515">
        <ele>75.2</ele>
        <time>2018-02-08T12:33:19Z</time>
      </trkpt>
      <trkpt lat="62.65539735951" lon="17.843845449731">
        <ele>75</ele>
        <time>2018-02-08T12:33:20Z</time>
      </trkpt>
      <trkpt lat="62.655450500756" lon="17.843873026182">
        <ele>74.8</ele>
        <time>2018-02-08T12:33:21Z</time>
      </trkpt>
      <trkpt lat="62.655502300898" lon="17.84388744305">
        <ele>74.8</ele>
        <time>2018-02-08T12:33:22Z</time>
      </trkpt>
      <trkpt lat="62.655554603954" lon="17.843930609835">
        <ele>74.6</ele>
        <time>2018-02-08T12:33:23Z</time>
      </trkpt>
      <trkpt lat="62.655613444892" lon="17.843986600927">
        <ele>74</ele>
        <time>2018-02-08T12:33:24Z</time>
      </trkpt>
      <trkpt lat="62.655671280002" lon="17.844048459349">
        <ele>73.6</ele>
        <time>2018-02-08T12:33:25Z</time>
      </trkpt>
      <trkpt lat="62.655728779836" lon="17.844113838169">
        <ele>72.8</ele>
        <time>2018-02-08T12:33:26Z</time>
      </trkpt>
      <trkpt lat="62.655789464792" lon="17.844195561694">
        <ele>72.2</ele>
        <time>2018-02-08T12:33:27Z</time>
      </trkpt>
      <trkpt lat="62.655847216083" lon="17.844280805617">
        <ele>71.4</ele>
        <time>2018-02-08T12:33:28Z</time>
      </trkpt>
      <trkpt lat="62.655897423664" lon="17.844357751459">
        <ele>70.6</ele>
        <time>2018-02-08T12:33:29Z</time>
      </trkpt>
      <trkpt lat="62.655950061996" lon="17.844442492468">
        <ele>69.6</ele>
        <time>2018-02-08T12:33:30Z</time>
      </trkpt>
      <trkpt lat="62.65599666536" lon="17.844511643143">
        <ele>69</ele>
        <time>2018-02-08T12:33:31Z</time>
      </trkpt>
      <trkpt lat="62.656037233756" lon="17.844598814903">
        <ele>67.8</ele>
        <time>2018-02-08T12:33:32Z</time>
      </trkpt>
      <trkpt lat="62.656080819636" lon="17.844670983062">
        <ele>67.2</ele>
        <time>2018-02-08T12:33:33Z</time>
      </trkpt>
      <trkpt lat="62.65612407024" lon="17.844729321086">
        <ele>67</ele>
        <time>2018-02-08T12:33:34Z</time>
      </trkpt>
      <trkpt lat="62.656162543161" lon="17.84478346816">
        <ele>67</ele>
        <time>2018-02-08T12:33:35Z</time>
      </trkpt>
      <trkpt lat="62.656209397982" lon="17.844842644374">
        <ele>67.2</ele>
        <time>2018-02-08T12:33:36Z</time>
      </trkpt>
      <trkpt lat="62.656249044369" lon="17.844895534163">
        <ele>67.6</ele>
        <time>2018-02-08T12:33:37Z</time>
      </trkpt>
      <trkpt lat="62.656290283317" lon="17.844958817508">
        <ele>67.6</ele>
        <time>2018-02-08T12:33:38Z</time>
      </trkpt>
      <trkpt lat="62.656333282464" lon="17.845014305686">
        <ele>67.4</ele>
        <time>2018-02-08T12:33:39Z</time>
      </trkpt>
      <trkpt lat="62.656371839204" lon="17.845046240725">
        <ele>67.4</ele>
        <time>2018-02-08T12:33:40Z</time>
      </trkpt>
      <trkpt lat="62.656407043184" lon="17.845090329519">
        <ele>67</ele>
        <time>2018-02-08T12:33:41Z</time>
      </trkpt>
      <trkpt lat="62.656450293788" lon="17.845148835181">
        <ele>67</ele>
        <time>2018-02-08T12:33:42Z</time>
      </trkpt>
      <trkpt lat="62.656484827216" lon="17.845196612011">
        <ele>66.8</ele>
        <time>2018-02-08T12:33:43Z</time>
      </trkpt>
      <trkpt lat="62.6565213723" lon="17.845246232859">
        <ele>66.8</ele>
        <time>2018-02-08T12:33:44Z</time>
      </trkpt>
      <trkpt lat="62.656554480805" lon="17.845270708007">
        <ele>66.8</ele>
        <time>2018-02-08T12:33:45Z</time>
      </trkpt>
      <trkpt lat="62.656587924586" lon="17.845322675787">
        <ele>66.6</ele>
        <time>2018-02-08T12:33:46Z</time>
      </trkpt>
      <trkpt lat="62.656620865453" lon="17.845376403766">
        <ele>66.6</ele>
        <time>2018-02-08T12:33:47Z</time>
      </trkpt>
      <trkpt lat="62.656650705017" lon="17.845400376">
        <ele>66.4</ele>
        <time>2018-02-08T12:33:48Z</time>
      </trkpt>
      <trkpt lat="62.656684903169" lon="17.845455780359">
        <ele>66.2</ele>
        <time>2018-02-08T12:33:49Z</time>
      </trkpt>
      <trkpt lat="62.656718430769" lon="17.845507580501">
        <ele>66</ele>
        <time>2018-02-08T12:33:50Z</time>
      </trkpt>
      <trkpt lat="62.6567476836" lon="17.84556047029">
        <ele>66</ele>
        <time>2018-02-08T12:33:51Z</time>
      </trkpt>
      <trkpt lat="62.656780205372" lon="17.84561998178">
        <ele>65.8</ele>
        <time>2018-02-08T12:33:52Z</time>
      </trkpt>
      <trkpt lat="62.656807362728" lon="17.845658957615">
        <ele>65.8</ele>
        <time>2018-02-08T12:33:53Z</time>
      </trkpt>
      <trkpt lat="62.656844662183" lon="17.845710087205">
        <ele>65.4</ele>
        <time>2018-02-08T12:33:54Z</time>
      </trkpt>
      <trkpt lat="62.656878944154" lon="17.845751158515">
        <ele>65.4</ele>
        <time>2018-02-08T12:33:55Z</time>
      </trkpt>
      <trkpt lat="62.656901742922" lon="17.84578175245">
        <ele>65.2</ele>
        <time>2018-02-08T12:33:56Z</time>
      </trkpt>
      <trkpt lat="62.65693543816" lon="17.845812178747">
        <ele>65.2</ele>
        <time>2018-02-08T12:33:57Z</time>
      </trkpt>
      <trkpt lat="62.656968043751" lon="17.84583204385">
        <ele>65</ele>
        <time>2018-02-08T12:33:58Z</time>
      </trkpt>
      <trkpt lat="62.657000146428" lon="17.84583539661">
        <ele>65.2</ele>
        <time>2018-02-08T12:33:59Z</time>
      </trkpt>
      <trkpt lat="62.657038786987" lon="17.845832546764">
        <ele>65</ele>
        <time>2018-02-08T12:34:00Z</time>
      </trkpt>
      <trkpt lat="62.65706787218" lon="17.84583288204">
        <ele>65</ele>
        <time>2018-02-08T12:34:01Z</time>
      </trkpt>
      <trkpt lat="62.657105003997" lon="17.845838581732">
        <ele>65</ele>
        <time>2018-02-08T12:34:02Z</time>
      </trkpt>
      <trkpt lat="62.657128724774" lon="17.845843694691">
        <ele>65</ele>
        <time>2018-02-08T12:34:03Z</time>
      </trkpt>
      <trkpt lat="62.657160575994" lon="17.845871271142">
        <ele>65</ele>
        <time>2018-02-08T12:34:04Z</time>
      </trkpt>
      <trkpt lat="62.657177339794" lon="17.845878311938">
        <ele>65</ele>
        <time>2018-02-08T12:34:05Z</time>
      </trkpt>
      <trkpt lat="62.657209023376" lon="17.845896752118">
        <ele>65</ele>
        <time>2018-02-08T12:34:06Z</time>
      </trkpt>
      <trkpt lat="62.657231486868" lon="17.845928770976">
        <ele>65.2</ele>
        <time>2018-02-08T12:34:07Z</time>
      </trkpt>
      <trkpt lat="62.657252776894" lon="17.845962298576">
        <ele>65.2</ele>
        <time>2018-02-08T12:34:08Z</time>
      </trkpt>
      <trkpt lat="62.657272725816" lon="17.84599632909">
        <ele>65.2</ele>
        <time>2018-02-08T12:34:09Z</time>
      </trkpt>
      <trkpt lat="62.657287645598" lon="17.846030778699">
        <ele>65</ele>
        <time>2018-02-08T12:34:10Z</time>
      </trkpt>
      <trkpt lat="62.65730424176" lon="17.846060115349">
        <ele>65.2</ele>
        <time>2018-02-08T12:34:11Z</time>
      </trkpt>
      <trkpt lat="62.657329052184" lon="17.846116776993">
        <ele>65</ele>
        <time>2018-02-08T12:34:12Z</time>
      </trkpt>
      <trkpt lat="62.657349420201" lon="17.846157177751">
        <ele>65.2</ele>
        <time>2018-02-08T12:34:13Z</time>
      </trkpt>
      <trkpt lat="62.65736626782" lon="17.84620252383">
        <ele>65.2</ele>
        <time>2018-02-08T12:34:14Z</time>
      </trkpt>
      <trkpt lat="62.657385294733" lon="17.846256922361">
        <ele>65</ele>
        <time>2018-02-08T12:34:15Z</time>
      </trkpt>
      <trkpt lat="62.657399124868" lon="17.846302184621">
        <ele>65.2</ele>
        <time>2018-02-08T12:34:16Z</time>
      </trkpt>
      <trkpt lat="62.657415553392" lon="17.846362450482">
        <ele>65.4</ele>
        <time>2018-02-08T12:34:17Z</time>
      </trkpt>
      <trkpt lat="62.657430892269" lon="17.846428499854">
        <ele>65.6</ele>
        <time>2018-02-08T12:34:18Z</time>
      </trkpt>
      <trkpt lat="62.657445812051" lon="17.846488430439">
        <ele>65.8</ele>
        <time>2018-02-08T12:34:19Z</time>
      </trkpt>
      <trkpt lat="62.657456289426" lon="17.84654701992">
        <ele>65.8</ele>
        <time>2018-02-08T12:34:20Z</time>
      </trkpt>
      <trkpt lat="62.657468694638" lon="17.846597562777">
        <ele>65.8</ele>
        <time>2018-02-08T12:34:21Z</time>
      </trkpt>
      <trkpt lat="62.657486715723" lon="17.846662941597">
        <ele>65.6</ele>
        <time>2018-02-08T12:34:22Z</time>
      </trkpt>
      <trkpt lat="62.657497109279" lon="17.846725973485">
        <ele>65.4</ele>
        <time>2018-02-08T12:34:23Z</time>
      </trkpt>
      <trkpt lat="62.657518650762" lon="17.846776600161">
        <ele>65.2</ele>
        <time>2018-02-08T12:34:24Z</time>
      </trkpt>
      <trkpt lat="62.657537090942" lon="17.846850109424">
        <ele>65.2</ele>
        <time>2018-02-08T12:34:25Z</time>
      </trkpt>
      <trkpt lat="62.657545137566" lon="17.846902747756">
        <ele>65.2</ele>
        <time>2018-02-08T12:34:26Z</time>
      </trkpt>
      <trkpt lat="62.65756491885" lon="17.84699042243">
        <ele>65</ele>
        <time>2018-02-08T12:34:27Z</time>
      </trkpt>
      <trkpt lat="62.657583945763" lon="17.847056555621">
        <ele>65</ele>
        <time>2018-02-08T12:34:28Z</time>
      </trkpt>
      <trkpt lat="62.657598027355" lon="17.847117324396">
        <ele>65</ele>
        <time>2018-02-08T12:34:29Z</time>
      </trkpt>
      <trkpt lat="62.657618311553" lon="17.847203993242">
        <ele>65</ele>
        <time>2018-02-08T12:34:30Z</time>
      </trkpt>
      <trkpt lat="62.657637422285" lon="17.847255206651">
        <ele>65</ele>
        <time>2018-02-08T12:34:31Z</time>
      </trkpt>
      <trkpt lat="62.657658544673" lon="17.847348581017">
        <ele>64.6</ele>
        <time>2018-02-08T12:34:32Z</time>
      </trkpt>
      <trkpt lat="62.657676481939" lon="17.847413792199">
        <ele>64.4</ele>
        <time>2018-02-08T12:34:33Z</time>
      </trkpt>
      <trkpt lat="62.657696095585" lon="17.84747405806">
        <ele>64.2</ele>
        <time>2018-02-08T12:34:34Z</time>
      </trkpt>
      <trkpt lat="62.6577116021" lon="17.847544046925">
        <ele>64</ele>
        <time>2018-02-08T12:34:35Z</time>
      </trkpt>
      <trkpt lat="62.657733143583" lon="17.847600289474">
        <ele>64</ele>
        <time>2018-02-08T12:34:36Z</time>
      </trkpt>
      <trkpt lat="62.657749236831" lon="17.847674134013">
        <ele>63.8</ele>
        <time>2018-02-08T12:34:37Z</time>
      </trkpt>
      <trkpt lat="62.657764156613" lon="17.847719899187">
        <ele>64</ele>
        <time>2018-02-08T12:34:38Z</time>
      </trkpt>
      <trkpt lat="62.657780166042" lon="17.847771447872">
        <ele>64</ele>
        <time>2018-02-08T12:34:39Z</time>
      </trkpt>
      <trkpt lat="62.657797181299" lon="17.84783364157">
        <ele>64</ele>
        <time>2018-02-08T12:34:40Z</time>
      </trkpt>
      <trkpt lat="62.657811011434" lon="17.847873958509">
        <ele>64</ele>
        <time>2018-02-08T12:34:41Z</time>
      </trkpt>
      <trkpt lat="62.657832888193" lon="17.847953418921">
        <ele>64</ele>
        <time>2018-02-08T12:34:42Z</time>
      </trkpt>
      <trkpt lat="62.657853172391" lon="17.847992813851">
        <ele>64</ele>
        <time>2018-02-08T12:34:43Z</time>
      </trkpt>
      <trkpt lat="62.657875132969" lon="17.848062802716">
        <ele>63.8</ele>
        <time>2018-02-08T12:34:44Z</time>
      </trkpt>
      <trkpt lat="62.657897093547" lon="17.8481244935">
        <ele>63.6</ele>
        <time>2018-02-08T12:34:45Z</time>
      </trkpt>
      <trkpt lat="62.657912683881" lon="17.848165983905">
        <ele>63.6</ele>
        <time>2018-02-08T12:34:46Z</time>
      </trkpt>
      <trkpt lat="62.657938164857" lon="17.84823681096">
        <ele>63.4</ele>
        <time>2018-02-08T12:34:47Z</time>
      </trkpt>
      <trkpt lat="62.657965070756" lon="17.848271595845">
        <ele>63.4</ele>
        <time>2018-02-08T12:34:48Z</time>
      </trkpt>
      <trkpt lat="62.65798988118" lon="17.848334208638">
        <ele>63.2</ele>
        <time>2018-02-08T12:34:49Z</time>
      </trkpt>
      <trkpt lat="62.65800413041" lon="17.848376453414">
        <ele>63.2</ele>
        <time>2018-02-08T12:34:50Z</time>
      </trkpt>
      <trkpt lat="62.658020475115" lon="17.848416015982">
        <ele>63</ele>
        <time>2018-02-08T12:34:51Z</time>
      </trkpt>
      <trkpt lat="62.658044112073" lon="17.848466223563">
        <ele>63</ele>
        <time>2018-02-08T12:34:52Z</time>
      </trkpt>
      <trkpt lat="62.65806950923" lon="17.848500254077">
        <ele>62.8</ele>
        <time>2018-02-08T12:34:53Z</time>
      </trkpt>
      <trkpt lat="62.65809968407" lon="17.848575355901">
        <ele>62.8</ele>
        <time>2018-02-08T12:34:54Z</time>
      </trkpt>
      <trkpt lat="62.658126003236" lon="17.848616008116">
        <ele>62.6</ele>
        <time>2018-02-08T12:34:55Z</time>
      </trkpt>
      <trkpt lat="62.658158944103" lon="17.848694043605">
        <ele>62.4</ele>
        <time>2018-02-08T12:34:56Z</time>
      </trkpt>
      <trkpt lat="62.658184844174" lon="17.848758248959">
        <ele>62.4</ele>
        <time>2018-02-08T12:34:57Z</time>
      </trkpt>
      <trkpt lat="62.658212085349" lon="17.848829662747">
        <ele>62.4</ele>
        <time>2018-02-08T12:34:58Z</time>
      </trkpt>
      <trkpt lat="62.658237566325" lon="17.848885989115">
        <ele>62.2</ele>
        <time>2018-02-08T12:34:59Z</time>
      </trkpt>
      <trkpt lat="62.658269166088" lon="17.848946841709">
        <ele>62.2</ele>
        <time>2018-02-08T12:35:00Z</time>
      </trkpt>
      <trkpt lat="62.658291294304" lon="17.849002162249">
        <ele>61.8</ele>
        <time>2018-02-08T12:35:01Z</time>
      </trkpt>
      <trkpt lat="62.658313841615" lon="17.849063014843">
        <ele>61.6</ele>
        <time>2018-02-08T12:35:02Z</time>
      </trkpt>
      <trkpt lat="62.658332449433" lon="17.84911271951">
        <ele>61.6</ele>
        <time>2018-02-08T12:35:03Z</time>
      </trkpt>
      <trkpt lat="62.65835281745" lon="17.849151108612">
        <ele>61.4</ele>
        <time>2018-02-08T12:35:04Z</time>
      </trkpt>
      <trkpt lat="62.658365222662" lon="17.849195532682">
        <ele>61.4</ele>
        <time>2018-02-08T12:35:05Z</time>
      </trkpt>
      <trkpt lat="62.658385758317" lon="17.849238699467">
        <ele>61.6</ele>
        <time>2018-02-08T12:35:06Z</time>
      </trkpt>
      <trkpt lat="62.658406545429" lon="17.849301228441">
        <ele>61.6</ele>
        <time>2018-02-08T12:35:07Z</time>
      </trkpt>
      <trkpt lat="62.658423644505" lon="17.849338611715">
        <ele>61.4</ele>
        <time>2018-02-08T12:35:08Z</time>
      </trkpt>
      <trkpt lat="62.658441414133" lon="17.849389825124">
        <ele>61.4</ele>
        <time>2018-02-08T12:35:09Z</time>
      </trkpt>
      <trkpt lat="62.658458848485" lon="17.849449755709">
        <ele>61.6</ele>
        <time>2018-02-08T12:35:10Z</time>
      </trkpt>
      <trkpt lat="62.658471924249" lon="17.849490491743">
        <ele>61.6</ele>
        <time>2018-02-08T12:35:11Z</time>
      </trkpt>
      <trkpt lat="62.658493298094" lon="17.849557295486">
        <ele>61.4</ele>
        <time>2018-02-08T12:35:12Z</time>
      </trkpt>
      <trkpt lat="62.658500757985" lon="17.849631726758">
        <ele>61.4</ele>
        <time>2018-02-08T12:35:13Z</time>
      </trkpt>
      <trkpt lat="62.658504194564" lon="17.849707080039">
        <ele>61.6</ele>
        <time>2018-02-08T12:35:14Z</time>
      </trkpt>
      <trkpt lat="62.658493465732" lon="17.849774386696">
        <ele>61.4</ele>
        <time>2018-02-08T12:35:15Z</time>
      </trkpt>
      <trkpt lat="62.658475779923" lon="17.849831383616">
        <ele>61.2</ele>
        <time>2018-02-08T12:35:16Z</time>
      </trkpt>
      <trkpt lat="62.658456417734" lon="17.849863653931">
        <ele>61</ele>
        <time>2018-02-08T12:35:17Z</time>
      </trkpt>
      <trkpt lat="62.658439067201" lon="17.849871197641">
        <ele>60.8</ele>
        <time>2018-02-08T12:35:18Z</time>
      </trkpt>
      <trkpt lat="62.658422554858" lon="17.849867341967">
        <ele>60.6</ele>
        <time>2018-02-08T12:35:19Z</time>
      </trkpt>
      <trkpt lat="62.658404030859" lon="17.84986373775">
        <ele>60.4</ele>
        <time>2018-02-08T12:35:20Z</time>
      </trkpt>
      <trkpt lat="62.658382321738" lon="17.849862564284">
        <ele>60.8</ele>
        <time>2018-02-08T12:35:21Z</time>
      </trkpt>
      <trkpt lat="62.658359690608" lon="17.849860049714">
        <ele>60.8</ele>
        <time>2018-02-08T12:35:22Z</time>
      </trkpt>
      <trkpt lat="62.658342423894" lon="17.849855942583">
        <ele>61</ele>
        <time>2018-02-08T12:35:23Z</time>
      </trkpt>
      <trkpt lat="62.658327085017" lon="17.849855188212">
        <ele>61.4</ele>
        <time>2018-02-08T12:35:24Z</time>
      </trkpt>
      <trkpt lat="62.658311829959" lon="17.849860636447">
        <ele>61.8</ele>
        <time>2018-02-08T12:35:25Z</time>
      </trkpt>
      <trkpt lat="62.658293808874" lon="17.849863318655">
        <ele>61.8</ele>
        <time>2018-02-08T12:35:26Z</time>
      </trkpt>
      <trkpt lat="62.658270842468" lon="17.849856948411">
        <ele>61.8</ele>
        <time>2018-02-08T12:35:27Z</time>
      </trkpt>
      <trkpt lat="62.658250725908" lon="17.849855858764">
        <ele>62</ele>
        <time>2018-02-08T12:35:28Z</time>
      </trkpt>
      <trkpt lat="62.658231196081" lon="17.849863151017">
        <ele>62</ele>
        <time>2018-02-08T12:35:29Z</time>
      </trkpt>
      <trkpt lat="62.658204290182" lon="17.849864659759">
        <ele>62</ele>
        <time>2018-02-08T12:35:30Z</time>
      </trkpt>
      <trkpt lat="62.658179228301" lon="17.849871030003">
        <ele>62</ele>
        <time>2018-02-08T12:35:31Z</time>
      </trkpt>
      <trkpt lat="62.658153495868" lon="17.849881004464">
        <ele>62.2</ele>
        <time>2018-02-08T12:35:32Z</time>
      </trkpt>
      <trkpt lat="62.658131116195" lon="17.849891314201">
        <ele>62.2</ele>
        <time>2018-02-08T12:35:33Z</time>
      </trkpt>
      <trkpt lat="62.658101444269" lon="17.849896678617">
        <ele>62.2</ele>
        <time>2018-02-08T12:35:34Z</time>
      </trkpt>
      <trkpt lat="62.65808627303" lon="17.849909419105">
        <ele>62.2</ele>
        <time>2018-02-08T12:35:35Z</time>
      </trkpt>
      <trkpt lat="62.658058780398" lon="17.849910760209">
        <ele>62.2</ele>
        <time>2018-02-08T12:35:36Z</time>
      </trkpt>
      <trkpt lat="62.658028605558" lon="17.849916962815">
        <ele>62.2</ele>
        <time>2018-02-08T12:35:37Z</time>
      </trkpt>
      <trkpt lat="62.658010249197" lon="17.849929032751">
        <ele>62.2</ele>
        <time>2018-02-08T12:35:38Z</time>
      </trkpt>
      <trkpt lat="62.657981331642" lon="17.849927943104">
        <ele>62.2</ele>
        <time>2018-02-08T12:35:39Z</time>
      </trkpt>
      <trkpt lat="62.657955766847" lon="17.849930038579">
        <ele>62.2</ele>
        <time>2018-02-08T12:35:40Z</time>
      </trkpt>
      <trkpt lat="62.657938919228" lon="17.849935905909">
        <ele>62.4</ele>
        <time>2018-02-08T12:35:41Z</time>
      </trkpt>
      <trkpt lat="62.65791192951" lon="17.849936241185">
        <ele>62.4</ele>
        <time>2018-02-08T12:35:42Z</time>
      </trkpt>
      <trkpt lat="62.657888544009" lon="17.849933642796">
        <ele>62.4</ele>
        <time>2018-02-08T12:35:43Z</time>
      </trkpt>
      <trkpt lat="62.657865409965" lon="17.849928362199">
        <ele>62.6</ele>
        <time>2018-02-08T12:35:44Z</time>
      </trkpt>
      <trkpt lat="62.657846215414" lon="17.849923333059">
        <ele>62.8</ele>
        <time>2018-02-08T12:35:45Z</time>
      </trkpt>
      <trkpt lat="62.657833307288" lon="17.849923416878">
        <ele>63</ele>
        <time>2018-02-08T12:35:46Z</time>
      </trkpt>
      <trkpt lat="62.657815872936" lon="17.84991654372">
        <ele>63.2</ele>
        <time>2018-02-08T12:35:47Z</time>
      </trkpt>
      <trkpt lat="62.657799276774" lon="17.849910005838">
        <ele>63.6</ele>
        <time>2018-02-08T12:35:48Z</time>
      </trkpt>
      <trkpt lat="62.657785614277" lon="17.849909083829">
        <ele>63.8</ele>
        <time>2018-02-08T12:35:49Z</time>
      </trkpt>
      <trkpt lat="62.657771700323" lon="17.849906820716">
        <ele>64</ele>
        <time>2018-02-08T12:35:50Z</time>
      </trkpt>
      <trkpt lat="62.657757954007" lon="17.849905563431">
        <ele>64.2</ele>
        <time>2018-02-08T12:35:51Z</time>
      </trkpt>
      <trkpt lat="62.657736580162" lon="17.849897516807">
        <ele>64.4</ele>
        <time>2018-02-08T12:35:52Z</time>
      </trkpt>
      <trkpt lat="62.657713949032" lon="17.84989055983">
        <ele>64.6</ele>
        <time>2018-02-08T12:35:53Z</time>
      </trkpt>
      <trkpt lat="62.657695508852" lon="17.849886787975">
        <ele>64.6</ele>
        <time>2018-02-08T12:35:54Z</time>
      </trkpt>
      <trkpt lat="62.657664328184" lon="17.84988301612">
        <ele>64.6</ele>
        <time>2018-02-08T12:35:55Z</time>
      </trkpt>
      <trkpt lat="62.657645720366" lon="17.849882094111">
        <ele>64.8</ele>
        <time>2018-02-08T12:35:56Z</time>
      </trkpt>
      <trkpt lat="62.657622837779" lon="17.849881004464">
        <ele>64.8</ele>
        <time>2018-02-08T12:35:57Z</time>
      </trkpt>
      <trkpt lat="62.657599787554" lon="17.849880836826">
        <ele>65</ele>
        <time>2018-02-08T12:35:58Z</time>
      </trkpt>
      <trkpt lat="62.65757832989" lon="17.849891314201">
        <ele>65</ele>
        <time>2018-02-08T12:35:59Z</time>
      </trkpt>
      <trkpt lat="62.657564248298" lon="17.849893242038">
        <ele>65</ele>
        <time>2018-02-08T12:36:00Z</time>
      </trkpt>
      <trkpt lat="62.657548825602" lon="17.849899025549">
        <ele>65.2</ele>
        <time>2018-02-08T12:36:01Z</time>
      </trkpt>
      <trkpt lat="62.657533989639" lon="17.849905060517">
        <ele>65.4</ele>
        <time>2018-02-08T12:36:02Z</time>
      </trkpt>
      <trkpt lat="62.657515633278" lon="17.849916124625">
        <ele>65.6</ele>
        <time>2018-02-08T12:36:03Z</time>
      </trkpt>
      <trkpt lat="62.65749954003" lon="17.849924590344">
        <ele>65.8</ele>
        <time>2018-02-08T12:36:04Z</time>
      </trkpt>
      <trkpt lat="62.657484620248" lon="17.849930709131">
        <ele>66</ele>
        <time>2018-02-08T12:36:05Z</time>
      </trkpt>
      <trkpt lat="62.657467521172" lon="17.849938001384">
        <ele>66.2</ele>
        <time>2018-02-08T12:36:06Z</time>
      </trkpt>
      <trkpt lat="62.657452852847" lon="17.849944539266">
        <ele>66.2</ele>
        <time>2018-02-08T12:36:07Z</time>
      </trkpt>
      <trkpt lat="62.657437178694" lon="17.849947724388">
        <ele>66.6</ele>
        <time>2018-02-08T12:36:08Z</time>
      </trkpt>
      <trkpt lat="62.657425527853" lon="17.849949903682">
        <ele>66.8</ele>
        <time>2018-02-08T12:36:09Z</time>
      </trkpt>
      <trkpt lat="62.657418151781" lon="17.849961135428">
        <ele>67.2</ele>
        <time>2018-02-08T12:36:10Z</time>
      </trkpt>
      <trkpt lat="62.657404908379" lon="17.849964572007">
        <ele>67.4</ele>
        <time>2018-02-08T12:36:11Z</time>
      </trkpt>
      <trkpt lat="62.657388563674" lon="17.849964739645">
        <ele>67.8</ele>
        <time>2018-02-08T12:36:12Z</time>
      </trkpt>
      <trkpt lat="62.657374565901" lon="17.849970606975">
        <ele>68</ele>
        <time>2018-02-08T12:36:13Z</time>
      </trkpt>
      <trkpt lat="62.657360149033" lon="17.849979910884">
        <ele>68.2</ele>
        <time>2018-02-08T12:36:14Z</time>
      </trkpt>
      <trkpt lat="62.657344726337" lon="17.849986197309">
        <ele>68.6</ele>
        <time>2018-02-08T12:36:15Z</time>
      </trkpt>
      <trkpt lat="62.65733106384" lon="17.849995417399">
        <ele>68.6</ele>
        <time>2018-02-08T12:36:16Z</time>
      </trkpt>
      <trkpt lat="62.657318826266" lon="17.850004637489">
        <ele>68.8</ele>
        <time>2018-02-08T12:36:17Z</time>
      </trkpt>
      <trkpt lat="62.65730340357" lon="17.850013187027">
        <ele>69</ele>
        <time>2018-02-08T12:36:18Z</time>
      </trkpt>
      <trkpt lat="62.657287561779" lon="17.85002047928">
        <ele>69.2</ele>
        <time>2018-02-08T12:36:19Z</time>
      </trkpt>
      <trkpt lat="62.65727406692" lon="17.850027268619">
        <ele>69.4</ele>
        <time>2018-02-08T12:36:20Z</time>
      </trkpt>
      <trkpt lat="62.657260069147" lon="17.850034393234">
        <ele>69.6</ele>
        <time>2018-02-08T12:36:21Z</time>
      </trkpt>
      <trkpt lat="62.657248502125" lon="17.850040847297">
        <ele>69.8</ele>
        <time>2018-02-08T12:36:22Z</time>
      </trkpt>
      <trkpt lat="62.65723970113" lon="17.850052749595">
        <ele>70</ele>
        <time>2018-02-08T12:36:23Z</time>
      </trkpt>
      <trkpt lat="62.65722629009" lon="17.850065825359">
        <ele>70.4</ele>
        <time>2018-02-08T12:36:24Z</time>
      </trkpt>
      <trkpt lat="62.657213381964" lon="17.85007328525">
        <ele>70.8</ele>
        <time>2018-02-08T12:36:25Z</time>
      </trkpt>
      <trkpt lat="62.657200892933" lon="17.850081080417">
        <ele>71</ele>
        <time>2018-02-08T12:36:26Z</time>
      </trkpt>
      <trkpt lat="62.657184464409" lon="17.850096503113">
        <ele>71.6</ele>
        <time>2018-02-08T12:36:27Z</time>
      </trkpt>
      <trkpt lat="62.657170382817" lon="17.850107986316">
        <ele>71.8</ele>
        <time>2018-02-08T12:36:28Z</time>
      </trkpt>
      <trkpt lat="62.657158145243" lon="17.850119553338">
        <ele>72</ele>
        <time>2018-02-08T12:36:29Z</time>
      </trkpt>
      <trkpt lat="62.657145404755" lon="17.850129360161">
        <ele>72.2</ele>
        <time>2018-02-08T12:36:30Z</time>
      </trkpt>
      <trkpt lat="62.657132328991" lon="17.850147800341">
        <ele>72.4</ele>
        <time>2018-02-08T12:36:31Z</time>
      </trkpt>
      <trkpt lat="62.657117995942" lon="17.850157774802">
        <ele>72.6</ele>
        <time>2018-02-08T12:36:32Z</time>
      </trkpt>
      <trkpt lat="62.657105674549" lon="17.850164731779">
        <ele>72.8</ele>
        <time>2018-02-08T12:36:33Z</time>
      </trkpt>
      <trkpt lat="62.65709385607" lon="17.850172862222">
        <ele>73</ele>
        <time>2018-02-08T12:36:34Z</time>
      </trkpt>
      <trkpt lat="62.657082875781" lon="17.850181244122">
        <ele>73.2</ele>
        <time>2018-02-08T12:36:35Z</time>
      </trkpt>
      <trkpt lat="62.657071560216" lon="17.850191889135">
        <ele>73.4</ele>
        <time>2018-02-08T12:36:36Z</time>
      </trkpt>
      <trkpt lat="62.657062675402" lon="17.850196163904">
        <ele>73.6</ele>
        <time>2018-02-08T12:36:37Z</time>
      </trkpt>
      <trkpt lat="62.657049767276" lon="17.850210329315">
        <ele>73.8</ele>
        <time>2018-02-08T12:36:38Z</time>
      </trkpt>
      <trkpt lat="62.657033254933" lon="17.850215526093">
        <ele>74</ele>
        <time>2018-02-08T12:36:39Z</time>
      </trkpt>
      <trkpt lat="62.657018670427" lon="17.850223991812">
        <ele>74.2</ele>
        <time>2018-02-08T12:36:40Z</time>
      </trkpt>
      <trkpt lat="62.657004337378" lon="17.850228685676">
        <ele>74.4</ele>
        <time>2018-02-08T12:36:41Z</time>
      </trkpt>
      <trkpt lat="62.656986316293" lon="17.850234301549">
        <ele>74.6</ele>
        <time>2018-02-08T12:36:42Z</time>
      </trkpt>
      <trkpt lat="62.656973911081" lon="17.850237989585">
        <ele>75</ele>
        <time>2018-02-08T12:36:43Z</time>
      </trkpt>
      <trkpt lat="62.656957901652" lon="17.850243354001">
        <ele>75.2</ele>
        <time>2018-02-08T12:36:44Z</time>
      </trkpt>
      <trkpt lat="62.656939796748" lon="17.850246036209">
        <ele>75.4</ele>
        <time>2018-02-08T12:36:45Z</time>
      </trkpt>
      <trkpt lat="62.656919931645" lon="17.850242683449">
        <ele>75.8</ele>
        <time>2018-02-08T12:36:46Z</time>
      </trkpt>
      <trkpt lat="62.656901323827" lon="17.850237905766">
        <ele>76</ele>
        <time>2018-02-08T12:36:47Z</time>
      </trkpt>
      <trkpt lat="62.656885482036" lon="17.85023337954">
        <ele>76.2</ele>
        <time>2018-02-08T12:36:48Z</time>
      </trkpt>
      <trkpt lat="62.656871316625" lon="17.850232122255">
        <ele>76.4</ele>
        <time>2018-02-08T12:36:49Z</time>
      </trkpt>
      <trkpt lat="62.656853127902" lon="17.850220052319">
        <ele>76.6</ele>
        <time>2018-02-08T12:36:50Z</time>
      </trkpt>
      <trkpt lat="62.656830245315" lon="17.850213514437">
        <ele>76.6</ele>
        <time>2018-02-08T12:36:51Z</time>
      </trkpt>
      <trkpt lat="62.656810464031" lon="17.850205383994">
        <ele>76.6</ele>
        <time>2018-02-08T12:36:52Z</time>
      </trkpt>
      <trkpt lat="62.656794286964" lon="17.850200271035">
        <ele>76.8</ele>
        <time>2018-02-08T12:36:53Z</time>
      </trkpt>
      <trkpt lat="62.656777271707" lon="17.850198762293">
        <ele>76.8</ele>
        <time>2018-02-08T12:36:54Z</time>
      </trkpt>
      <trkpt lat="62.656760088812" lon="17.850197169732">
        <ele>77</ele>
        <time>2018-02-08T12:36:55Z</time>
      </trkpt>
      <trkpt lat="62.656745671944" lon="17.850196834456">
        <ele>77</ele>
        <time>2018-02-08T12:36:56Z</time>
      </trkpt>
      <trkpt lat="62.656720442425" lon="17.850189206927">
        <ele>77.2</ele>
        <time>2018-02-08T12:36:57Z</time>
      </trkpt>
      <trkpt lat="62.656700828779" lon="17.850184596882">
        <ele>77.2</ele>
        <time>2018-02-08T12:36:58Z</time>
      </trkpt>
      <trkpt lat="62.656689177938" lon="17.850186859995">
        <ele>77.6</ele>
        <time>2018-02-08T12:36:59Z</time>
      </trkpt>
      <trkpt lat="62.656661685306" lon="17.850183423416">
        <ele>77.6</ele>
        <time>2018-02-08T12:37:00Z</time>
      </trkpt>
      <trkpt lat="62.656644753868" lon="17.850187614366">
        <ele>77.6</ele>
        <time>2018-02-08T12:37:01Z</time>
      </trkpt>
      <trkpt lat="62.656626732783" lon="17.850186859995">
        <ele>77.8</ele>
        <time>2018-02-08T12:37:02Z</time>
      </trkpt>
      <trkpt lat="62.65661189682" lon="17.850188704013">
        <ele>78</ele>
        <time>2018-02-08T12:37:03Z</time>
      </trkpt>
      <trkpt lat="62.656593289002" lon="17.850183674873">
        <ele>78.2</ele>
        <time>2018-02-08T12:37:04Z</time>
      </trkpt>
      <trkpt lat="62.656582057256" lon="17.850179986837">
        <ele>78.2</ele>
        <time>2018-02-08T12:37:05Z</time>
      </trkpt>
      <trkpt lat="62.656558755574" lon="17.850178813371">
        <ele>78.4</ele>
        <time>2018-02-08T12:37:06Z</time>
      </trkpt>
      <trkpt lat="62.656540315394" lon="17.850177723724">
        <ele>78.4</ele>
        <time>2018-02-08T12:37:07Z</time>
      </trkpt>
      <trkpt lat="62.656524138327" lon="17.850185937986">
        <ele>78.6</ele>
        <time>2018-02-08T12:37:08Z</time>
      </trkpt>
      <trkpt lat="62.656498657351" lon="17.850186021805">
        <ele>78.8</ele>
        <time>2018-02-08T12:37:09Z</time>
      </trkpt>
      <trkpt lat="62.656473846927" lon="17.85019566099">
        <ele>78.8</ele>
        <time>2018-02-08T12:37:10Z</time>
      </trkpt>
      <trkpt lat="62.65645934624" lon="17.850204964899">
        <ele>78.8</ele>
        <time>2018-02-08T12:37:11Z</time>
      </trkpt>
      <trkpt lat="62.65643168597" lon="17.850221225785">
        <ele>78.8</ele>
        <time>2018-02-08T12:37:12Z</time>
      </trkpt>
      <trkpt lat="62.656413916342" lon="17.850237235214">
        <ele>78.8</ele>
        <time>2018-02-08T12:37:13Z</time>
      </trkpt>
      <trkpt lat="62.656399331836" lon="17.850252993186">
        <ele>78.8</ele>
        <time>2018-02-08T12:37:14Z</time>
      </trkpt>
      <trkpt lat="62.656380304923" lon="17.850270846633">
        <ele>78.8</ele>
        <time>2018-02-08T12:37:15Z</time>
      </trkpt>
      <trkpt lat="62.65636043982" lon="17.850289789727">
        <ele>79</ele>
        <time>2018-02-08T12:37:16Z</time>
      </trkpt>
      <trkpt lat="62.656345855314" lon="17.85030211112">
        <ele>79</ele>
        <time>2018-02-08T12:37:17Z</time>
      </trkpt>
      <trkpt lat="62.656324649107" lon="17.850319377834">
        <ele>79</ele>
        <time>2018-02-08T12:37:18Z</time>
      </trkpt>
      <trkpt lat="62.656307885307" lon="17.850334046159">
        <ele>79.2</ele>
        <time>2018-02-08T12:37:19Z</time>
      </trkpt>
      <trkpt lat="62.656295731552" lon="17.850350139407">
        <ele>79.2</ele>
        <time>2018-02-08T12:37:20Z</time>
      </trkpt>
      <trkpt lat="62.656281314684" lon="17.850364388637">
        <ele>79.4</ele>
        <time>2018-02-08T12:37:21Z</time>
      </trkpt>
      <trkpt lat="62.656266311083" lon="17.850379643695">
        <ele>79.6</ele>
        <time>2018-02-08T12:37:22Z</time>
      </trkpt>
      <trkpt lat="62.656259689382" lon="17.850398754427">
        <ele>79.8</ele>
        <time>2018-02-08T12:37:23Z</time>
      </trkpt>
      <trkpt lat="62.656247619446" lon="17.850414763856">
        <ele>80.4</ele>
        <time>2018-02-08T12:37:24Z</time>
      </trkpt>
      <trkpt lat="62.656230352732" lon="17.850429935095">
        <ele>80.6</ele>
        <time>2018-02-08T12:37:25Z</time>
      </trkpt>
      <trkpt lat="62.656215852045" lon="17.850444351963">
        <ele>81.2</ele>
        <time>2018-02-08T12:37:26Z</time>
      </trkpt>
      <trkpt lat="62.656200429349" lon="17.850463965609">
        <ele>81.6</ele>
        <time>2018-02-08T12:37:27Z</time>
      </trkpt>
      <trkpt lat="62.656187102128" lon="17.850479136848">
        <ele>81.8</ele>
        <time>2018-02-08T12:37:28Z</time>
      </trkpt>
      <trkpt lat="62.656173271993" lon="17.850494308087">
        <ele>82</ele>
        <time>2018-02-08T12:37:29Z</time>
      </trkpt>
      <trkpt lat="62.656160028591" lon="17.85051249681">
        <ele>82.2</ele>
        <time>2018-02-08T12:37:30Z</time>
      </trkpt>
      <trkpt lat="62.656151059958" lon="17.850524566746">
        <ele>82.4</ele>
        <time>2018-02-08T12:37:31Z</time>
      </trkpt>
      <trkpt lat="62.656137565099" lon="17.850540408537">
        <ele>82.6</ele>
        <time>2018-02-08T12:37:32Z</time>
      </trkpt>
      <trkpt lat="62.656123315869" lon="17.850552394654">
        <ele>82.8</ele>
        <time>2018-02-08T12:37:33Z</time>
      </trkpt>
      <trkpt lat="62.656108396087" lon="17.850567062979">
        <ele>83</ele>
        <time>2018-02-08T12:37:34Z</time>
      </trkpt>
      <trkpt lat="62.656097667255" lon="17.850571253929">
        <ele>83.2</ele>
        <time>2018-02-08T12:37:35Z</time>
      </trkpt>
      <trkpt lat="62.65608216074" lon="17.850591538127">
        <ele>83.4</ele>
        <time>2018-02-08T12:37:36Z</time>
      </trkpt>
      <trkpt lat="62.656066738044" lon="17.850612325239">
        <ele>83.6</ele>
        <time>2018-02-08T12:37:37Z</time>
      </trkpt>
      <trkpt lat="62.656055757755" lon="17.850627831754">
        <ele>83.8</ele>
        <time>2018-02-08T12:37:38Z</time>
      </trkpt>
      <trkpt lat="62.65604108943" lon="17.850641410432">
        <ele>83.8</ele>
        <time>2018-02-08T12:37:39Z</time>
      </trkpt>
      <trkpt lat="62.656023068345" lon="17.850654905291">
        <ele>84</ele>
        <time>2018-02-08T12:37:40Z</time>
      </trkpt>
      <trkpt lat="62.656011501323" lon="17.850662365182">
        <ele>84.2</ele>
        <time>2018-02-08T12:37:41Z</time>
      </trkpt>
      <trkpt lat="62.655995994808" lon="17.850682397923">
        <ele>84.6</ele>
        <time>2018-02-08T12:37:42Z</time>
      </trkpt>
      <trkpt lat="62.655982583768" lon="17.850694886954">
        <ele>84.6</ele>
        <time>2018-02-08T12:37:43Z</time>
      </trkpt>
      <trkpt lat="62.655966239063" lon="17.850714081505">
        <ele>84.8</ele>
        <time>2018-02-08T12:37:44Z</time>
      </trkpt>
      <trkpt lat="62.655951906014" lon="17.850728498373">
        <ele>85</ele>
        <time>2018-02-08T12:37:45Z</time>
      </trkpt>
      <trkpt lat="62.65593799206" lon="17.85074467544">
        <ele>85.2</ele>
        <time>2018-02-08T12:37:46Z</time>
      </trkpt>
      <trkpt lat="62.655923575192" lon="17.85076311562">
        <ele>85.4</ele>
        <time>2018-02-08T12:37:47Z</time>
      </trkpt>
      <trkpt lat="62.655910164152" lon="17.850782477809">
        <ele>85.6</ele>
        <time>2018-02-08T12:37:48Z</time>
      </trkpt>
      <trkpt lat="62.655896585474" lon="17.850800917989">
        <ele>85.6</ele>
        <time>2018-02-08T12:37:49Z</time>
      </trkpt>
      <trkpt lat="62.655882000968" lon="17.850816340685">
        <ele>85.8</ele>
        <time>2018-02-08T12:37:50Z</time>
      </trkpt>
      <trkpt lat="62.655868589928" lon="17.850839474729">
        <ele>86.2</ele>
        <time>2018-02-08T12:37:51Z</time>
      </trkpt>
      <trkpt lat="62.655856352354" lon="17.850855819434">
        <ele>86.2</ele>
        <time>2018-02-08T12:37:52Z</time>
      </trkpt>
      <trkpt lat="62.655845288246" lon="17.850874175795">
        <ele>86.6</ele>
        <time>2018-02-08T12:37:53Z</time>
      </trkpt>
      <trkpt lat="62.655834224138" lon="17.850892783613">
        <ele>86.8</ele>
        <time>2018-02-08T12:37:54Z</time>
      </trkpt>
      <trkpt lat="62.655823327668" lon="17.850912732535">
        <ele>86.8</ele>
        <time>2018-02-08T12:37:55Z</time>
      </trkpt>
      <trkpt lat="62.655806815325" lon="17.850939638434">
        <ele>87.2</ele>
        <time>2018-02-08T12:37:56Z</time>
      </trkpt>
      <trkpt lat="62.65578879424" lon="17.85096428122">
        <ele>87.6</ele>
        <time>2018-02-08T12:37:57Z</time>
      </trkpt>
      <trkpt lat="62.65577119225" lon="17.850986744712">
        <ele>87.8</ele>
        <time>2018-02-08T12:37:58Z</time>
      </trkpt>
      <trkpt lat="62.655759876685" lon="17.851007196548">
        <ele>88.2</ele>
        <time>2018-02-08T12:37:59Z</time>
      </trkpt>
      <trkpt lat="62.655746381826" lon="17.851024714719">
        <ele>88.6</ele>
        <time>2018-02-08T12:38:00Z</time>
      </trkpt>
      <trkpt lat="62.655736323546" lon="17.851041729976">
        <ele>89</ele>
        <time>2018-02-08T12:38:01Z</time>
      </trkpt>
      <trkpt lat="62.655725846171" lon="17.851059415785">
        <ele>89.2</ele>
        <time>2018-02-08T12:38:02Z</time>
      </trkpt>
      <trkpt lat="62.655715452615" lon="17.851078191241">
        <ele>89.6</ele>
        <time>2018-02-08T12:38:03Z</time>
      </trkpt>
      <trkpt lat="62.655704807602" lon="17.851097050516">
        <ele>89.8</ele>
        <time>2018-02-08T12:38:04Z</time>
      </trkpt>
      <trkpt lat="62.655688630535" lon="17.851114987782">
        <ele>90</ele>
        <time>2018-02-08T12:38:05Z</time>
      </trkpt>
      <trkpt lat="62.655676392961" lon="17.851136277808">
        <ele>90.2</ele>
        <time>2018-02-08T12:38:06Z</time>
      </trkpt>
      <trkpt lat="62.655659629161" lon="17.851159663309">
        <ele>90.4</ele>
        <time>2018-02-08T12:38:07Z</time>
      </trkpt>
      <trkpt lat="62.655644122646" lon="17.851185060466">
        <ele>90.6</ele>
        <time>2018-02-08T12:38:08Z</time>
      </trkpt>
      <trkpt lat="62.65562534719" lon="17.851212972193">
        <ele>90.6</ele>
        <time>2018-02-08T12:38:09Z</time>
      </trkpt>
      <trkpt lat="62.655599447119" lon="17.851239542816">
        <ele>90.6</ele>
        <time>2018-02-08T12:38:10Z</time>
      </trkpt>
      <trkpt lat="62.655584443518" lon="17.851260246109">
        <ele>90.8</ele>
        <time>2018-02-08T12:38:11Z</time>
      </trkpt>
      <trkpt lat="62.655567009166" lon="17.851283463972">
        <ele>90.8</ele>
        <time>2018-02-08T12:38:12Z</time>
      </trkpt>
      <trkpt lat="62.655545802959" lon="17.851309531681">
        <ele>90.8</ele>
        <time>2018-02-08T12:38:13Z</time>
      </trkpt>
      <trkpt lat="62.655527781874" lon="17.851332414268">
        <ele>90.6</ele>
        <time>2018-02-08T12:38:14Z</time>
      </trkpt>
      <trkpt lat="62.655511269531" lon="17.851353033742">
        <ele>90.6</ele>
        <time>2018-02-08T12:38:15Z</time>
      </trkpt>
      <trkpt lat="62.65549207498" lon="17.851369210809">
        <ele>90.8</ele>
        <time>2018-02-08T12:38:16Z</time>
      </trkpt>
      <trkpt lat="62.655474640628" lon="17.85139259631">
        <ele>90.8</ele>
        <time>2018-02-08T12:38:17Z</time>
      </trkpt>
      <trkpt lat="62.655459050294" lon="17.851413467241">
        <ele>91</ele>
        <time>2018-02-08T12:38:18Z</time>
      </trkpt>
      <trkpt lat="62.655444214331" lon="17.851431823602">
        <ele>91.2</ele>
        <time>2018-02-08T12:38:19Z</time>
      </trkpt>
      <trkpt lat="62.655432479671" lon="17.851456969302">
        <ele>91.4</ele>
        <time>2018-02-08T12:38:20Z</time>
      </trkpt>
      <trkpt lat="62.655414207129" lon="17.851484378115">
        <ele>91.8</ele>
        <time>2018-02-08T12:38:21Z</time>
      </trkpt>
      <trkpt lat="62.655398030062" lon="17.851507176883">
        <ele>92</ele>
        <time>2018-02-08T12:38:22Z</time>
      </trkpt>
      <trkpt lat="62.655376740036" lon="17.851523437769">
        <ele>92.2</ele>
        <time>2018-02-08T12:38:23Z</time>
      </trkpt>
      <trkpt lat="62.655361904073" lon="17.851543386691">
        <ele>92.4</ele>
        <time>2018-02-08T12:38:24Z</time>
      </trkpt>
      <trkpt lat="62.655348073938" lon="17.851560821043">
        <ele>92.6</ele>
        <time>2018-02-08T12:38:25Z</time>
      </trkpt>
      <trkpt lat="62.655335836364" lon="17.851588146037">
        <ele>92.8</ele>
        <time>2018-02-08T12:38:26Z</time>
      </trkpt>
      <trkpt lat="62.655319491659" lon="17.851618320877">
        <ele>93</ele>
        <time>2018-02-08T12:38:27Z</time>
      </trkpt>
      <trkpt lat="62.655297782538" lon="17.851649250088">
        <ele>93.2</ele>
        <time>2018-02-08T12:38:28Z</time>
      </trkpt>
      <trkpt lat="62.655287221344" lon="17.851677161815">
        <ele>93.4</ele>
        <time>2018-02-08T12:38:29Z</time>
      </trkpt>
      <trkpt lat="62.655272301562" lon="17.851710102682">
        <ele>93.4</ele>
        <time>2018-02-08T12:38:30Z</time>
      </trkpt>
      <trkpt lat="62.655248832242" lon="17.851752263639">
        <ele>93.6</ele>
        <time>2018-02-08T12:38:31Z</time>
      </trkpt>
      <trkpt lat="62.655228212768" lon="17.851792832035">
        <ele>93.6</ele>
        <time>2018-02-08T12:38:32Z</time>
      </trkpt>
      <trkpt lat="62.655207509475" lon="17.851830802042">
        <ele>93.6</ele>
        <time>2018-02-08T12:38:33Z</time>
      </trkpt>
      <trkpt lat="62.655188147286" lon="17.851865503108">
        <ele>93.8</ele>
        <time>2018-02-08T12:38:34Z</time>
      </trkpt>
      <trkpt lat="62.655168449821" lon="17.851892241369">
        <ele>93.8</ele>
        <time>2018-02-08T12:38:35Z</time>
      </trkpt>
      <trkpt lat="62.655154535867" lon="17.851936749258">
        <ele>93.8</ele>
        <time>2018-02-08T12:38:36Z</time>
      </trkpt>
      <trkpt lat="62.655136850058" lon="17.851978910215">
        <ele>93.8</ele>
        <time>2018-02-08T12:38:37Z</time>
      </trkpt>
      <trkpt lat="62.655119667163" lon="17.852018640421">
        <ele>93.8</ele>
        <time>2018-02-08T12:38:38Z</time>
      </trkpt>
      <trkpt lat="62.655105334114" lon="17.852054179677">
        <ele>94</ele>
        <time>2018-02-08T12:38:39Z</time>
      </trkpt>
      <trkpt lat="62.65509142016" lon="17.852089299838">
        <ele>93.8</ele>
        <time>2018-02-08T12:38:40Z</time>
      </trkpt>
      <trkpt lat="62.655078931129" lon="17.852134897374">
        <ele>94</ele>
        <time>2018-02-08T12:38:41Z</time>
      </trkpt>
      <trkpt lat="62.655070549229" lon="17.852176387779">
        <ele>94</ele>
        <time>2018-02-08T12:38:42Z</time>
      </trkpt>
      <trkpt lat="62.655059317483" lon="17.852221398582">
        <ele>94</ele>
        <time>2018-02-08T12:38:43Z</time>
      </trkpt>
      <trkpt lat="62.655050097393" lon="17.852272611991">
        <ele>93.8</ele>
        <time>2018-02-08T12:38:44Z</time>
      </trkpt>
      <trkpt lat="62.655046074081" lon="17.852319802088">
        <ele>94</ele>
        <time>2018-02-08T12:38:45Z</time>
      </trkpt>
      <trkpt lat="62.655041044941" lon="17.852358694104">
        <ele>94</ele>
        <time>2018-02-08T12:38:46Z</time>
      </trkpt>
      <trkpt lat="62.655033333593" lon="17.852440501448">
        <ele>94</ele>
        <time>2018-02-08T12:38:47Z</time>
      </trkpt>
      <trkpt lat="62.655029477919" lon="17.852510993227">
        <ele>94</ele>
        <time>2018-02-08T12:38:48Z</time>
      </trkpt>
      <trkpt lat="62.655024532598" lon="17.852589447811">
        <ele>94.2</ele>
        <time>2018-02-08T12:38:49Z</time>
      </trkpt>
      <trkpt lat="62.655038781828" lon="17.852638733383">
        <ele>94.2</ele>
        <time>2018-02-08T12:38:50Z</time>
      </trkpt>
      <trkpt lat="62.655027969177" lon="17.852746776074">
        <ele>94.2</ele>
        <time>2018-02-08T12:38:51Z</time>
      </trkpt>
      <trkpt lat="62.655023359132" lon="17.852821542622">
        <ele>94</ele>
        <time>2018-02-08T12:38:52Z</time>
      </trkpt>
      <trkpt lat="62.655010534825" lon="17.852884742148">
        <ele>93.8</ele>
        <time>2018-02-08T12:38:53Z</time>
      </trkpt>
      <trkpt lat="62.655000979459" lon="17.852938386308">
        <ele>93.6</ele>
        <time>2018-02-08T12:38:54Z</time>
      </trkpt>
      <trkpt lat="62.65499670469" lon="17.852982894197">
        <ele>93.4</ele>
        <time>2018-02-08T12:38:55Z</time>
      </trkpt>
      <trkpt lat="62.654983712745" lon="17.85305556527">
        <ele>93.2</ele>
        <time>2018-02-08T12:38:56Z</time>
      </trkpt>
      <trkpt lat="62.654972983913" lon="17.853104012652">
        <ele>93.4</ele>
        <time>2018-02-08T12:38:57Z</time>
      </trkpt>
      <trkpt lat="62.654958567045" lon="17.853155393699">
        <ele>93.4</ele>
        <time>2018-02-08T12:38:58Z</time>
      </trkpt>
      <trkpt lat="62.654943479625" lon="17.853200823597">
        <ele>93.4</ele>
        <time>2018-02-08T12:38:59Z</time>
      </trkpt>
      <trkpt lat="62.654930822956" lon="17.853240721441">
        <ele>93.4</ele>
        <time>2018-02-08T12:39:00Z</time>
      </trkpt>
      <trkpt lat="62.654917411916" lon="17.853266621512">
        <ele>93.4</ele>
        <time>2018-02-08T12:39:01Z</time>
      </trkpt>
      <trkpt lat="62.65490869474" lon="17.853297215447">
        <ele>93.6</ele>
        <time>2018-02-08T12:39:02Z</time>
      </trkpt>
      <trkpt lat="62.654901318668" lon="17.85332797702">
        <ele>93.6</ele>
        <time>2018-02-08T12:39:03Z</time>
      </trkpt>
      <trkpt lat="62.654893691139" lon="17.853356224023">
        <ele>93.6</ele>
        <time>2018-02-08T12:39:04Z</time>
      </trkpt>
      <trkpt lat="62.654887656171" lon="17.853389835442">
        <ele>94</ele>
        <time>2018-02-08T12:39:05Z</time>
      </trkpt>
      <trkpt lat="62.654874748045" lon="17.8534386181">
        <ele>94.4</ele>
        <time>2018-02-08T12:39:06Z</time>
      </trkpt>
      <trkpt lat="62.654866533783" lon="17.85347130751">
        <ele>94.6</ele>
        <time>2018-02-08T12:39:07Z</time>
      </trkpt>
      <trkpt lat="62.654853793295" lon="17.853506176214">
        <ele>94.8</ele>
        <time>2018-02-08T12:39:08Z</time>
      </trkpt>
      <trkpt lat="62.654838789694" lon="17.853546074058">
        <ele>95</ele>
        <time>2018-02-08T12:39:09Z</time>
      </trkpt>
      <trkpt lat="62.654826384482" lon="17.853583792608">
        <ele>95</ele>
        <time>2018-02-08T12:39:10Z</time>
      </trkpt>
      <trkpt lat="62.654816326202" lon="17.85362888723">
        <ele>95.2</ele>
        <time>2018-02-08T12:39:11Z</time>
      </trkpt>
      <trkpt lat="62.654803585714" lon="17.853668030703">
        <ele>95.2</ele>
        <time>2018-02-08T12:39:12Z</time>
      </trkpt>
      <trkpt lat="62.654790677588" lon="17.853706419805">
        <ele>95.2</ele>
        <time>2018-02-08T12:39:13Z</time>
      </trkpt>
      <trkpt lat="62.654777601824" lon="17.853754867187">
        <ele>95.2</ele>
        <time>2018-02-08T12:39:14Z</time>
      </trkpt>
      <trkpt lat="62.654764693698" lon="17.853803063112">
        <ele>95.2</ele>
        <time>2018-02-08T12:39:15Z</time>
      </trkpt>
      <trkpt lat="62.654758994006" lon="17.853836506893">
        <ele>95.2</ele>
        <time>2018-02-08T12:39:16Z</time>
      </trkpt>
      <trkpt lat="62.654743906586" lon="17.853900125514">
        <ele>95.2</ele>
        <time>2018-02-08T12:39:17Z</time>
      </trkpt>
      <trkpt lat="62.654737536342" lon="17.853942537928">
        <ele>95</ele>
        <time>2018-02-08T12:39:18Z</time>
      </trkpt>
      <trkpt lat="62.65472680751" lon="17.853990566215">
        <ele>95.2</ele>
        <time>2018-02-08T12:39:19Z</time>
      </trkpt>
      <trkpt lat="62.654710462805" lon="17.854049155696">
        <ele>95.2</ele>
        <time>2018-02-08T12:39:20Z</time>
      </trkpt>
      <trkpt lat="62.654708451149" lon="17.854084275857">
        <ele>95.2</ele>
        <time>2018-02-08T12:39:21Z</time>
      </trkpt>
      <trkpt lat="62.654701075077" lon="17.854124760434">
        <ele>95.4</ele>
        <time>2018-02-08T12:39:22Z</time>
      </trkpt>
      <trkpt lat="62.654679785051" lon="17.854164909735">
        <ele>95.4</ele>
        <time>2018-02-08T12:39:23Z</time>
      </trkpt>
      <trkpt lat="62.654659333215" lon="17.854198940249">
        <ele>95.4</ele>
        <time>2018-02-08T12:39:24Z</time>
      </trkpt>
      <trkpt lat="62.65463628299" lon="17.854236910256">
        <ele>95.4</ele>
        <time>2018-02-08T12:39:25Z</time>
      </trkpt>
      <trkpt lat="62.65461532824" lon="17.854269851123">
        <ele>95.6</ele>
        <time>2018-02-08T12:39:26Z</time>
      </trkpt>
      <trkpt lat="62.654598061526" lon="17.854304971284">
        <ele>95.6</ele>
        <time>2018-02-08T12:39:27Z</time>
      </trkpt>
      <trkpt lat="62.654583560839" lon="17.854333721201">
        <ele>95.6</ele>
        <time>2018-02-08T12:39:28Z</time>
      </trkpt>
      <trkpt lat="62.654561516442" lon="17.854366829706">
        <ele>95.8</ele>
        <time>2018-02-08T12:39:29Z</time>
      </trkpt>
      <trkpt lat="62.654547770126" lon="17.85439331651">
        <ele>96</ele>
        <time>2018-02-08T12:39:30Z</time>
      </trkpt>
      <trkpt lat="62.654519271666" lon="17.854437908218">
        <ele>96.2</ele>
        <time>2018-02-08T12:39:31Z</time>
      </trkpt>
      <trkpt lat="62.654494042147" lon="17.854478141338">
        <ele>96.2</ele>
        <time>2018-02-08T12:39:32Z</time>
      </trkpt>
      <trkpt lat="62.654466800972" lon="17.854513764413">
        <ele>96.2</ele>
        <time>2018-02-08T12:39:33Z</time>
      </trkpt>
      <trkpt lat="62.654445008032" lon="17.8545450289">
        <ele>96.2</ele>
        <time>2018-02-08T12:39:34Z</time>
      </trkpt>
      <trkpt lat="62.654417850676" lon="17.85458358564">
        <ele>96.2</ele>
        <time>2018-02-08T12:39:35Z</time>
      </trkpt>
      <trkpt lat="62.654395051908" lon="17.854619208715">
        <ele>96.2</ele>
        <time>2018-02-08T12:39:36Z</time>
      </trkpt>
      <trkpt lat="62.654373342787" lon="17.854656843446">
        <ele>96.2</ele>
        <time>2018-02-08T12:39:37Z</time>
      </trkpt>
      <trkpt lat="62.654352304218" lon="17.854693891444">
        <ele>96.2</ele>
        <time>2018-02-08T12:39:38Z</time>
      </trkpt>
      <trkpt lat="62.654330930373" lon="17.854730939442">
        <ele>96</ele>
        <time>2018-02-08T12:39:39Z</time>
      </trkpt>
      <trkpt lat="62.654308466881" lon="17.854768238897">
        <ele>96</ele>
        <time>2018-02-08T12:39:40Z</time>
      </trkpt>
      <trkpt lat="62.654286171027" lon="17.854812243872">
        <ele>96</ele>
        <time>2018-02-08T12:39:41Z</time>
      </trkpt>
      <trkpt lat="62.654264378087" lon="17.854855662114">
        <ele>96</ele>
        <time>2018-02-08T12:39:42Z</time>
      </trkpt>
      <trkpt lat="62.654244596803" lon="17.854897823071">
        <ele>96.2</ele>
        <time>2018-02-08T12:39:43Z</time>
      </trkpt>
      <trkpt lat="62.654225486071" lon="17.854933194689">
        <ele>96.2</ele>
        <time>2018-02-08T12:39:44Z</time>
      </trkpt>
      <trkpt lat="62.65420629152" lon="17.854966387013">
        <ele>96.2</ele>
        <time>2018-02-08T12:39:45Z</time>
      </trkpt>
      <trkpt lat="62.654184414761" lon="17.854999411699">
        <ele>96.2</ele>
        <time>2018-02-08T12:39:46Z</time>
      </trkpt>
      <trkpt lat="62.654158095595" lon="17.855047356167">
        <ele>96.2</ele>
        <time>2018-02-08T12:39:47Z</time>
      </trkpt>
      <trkpt lat="62.654129513316" lon="17.855091109685">
        <ele>96</ele>
        <time>2018-02-08T12:39:48Z</time>
      </trkpt>
      <trkpt lat="62.654109229118" lon="17.855121955077">
        <ele>96</ele>
        <time>2018-02-08T12:39:49Z</time>
      </trkpt>
      <trkpt lat="62.65409313587" lon="17.855147519872">
        <ele>96</ele>
        <time>2018-02-08T12:39:50Z</time>
      </trkpt>
      <trkpt lat="62.654061200831" lon="17.855182388576">
        <ele>95.8</ele>
        <time>2018-02-08T12:39:51Z</time>
      </trkpt>
      <trkpt lat="62.654039910805" lon="17.855209965027">
        <ele>95.8</ele>
        <time>2018-02-08T12:39:52Z</time>
      </trkpt>
      <trkpt lat="62.654017363494" lon="17.855236200374">
        <ele>95.8</ele>
        <time>2018-02-08T12:39:53Z</time>
      </trkpt>
      <trkpt lat="62.653993055984" lon="17.855261346074">
        <ele>96</ele>
        <time>2018-02-08T12:39:54Z</time>
      </trkpt>
      <trkpt lat="62.653968329379" lon="17.855285905041">
        <ele>96</ele>
        <time>2018-02-08T12:39:55Z</time>
      </trkpt>
      <trkpt lat="62.65395148176" lon="17.855303255574">
        <ele>96.2</ele>
        <time>2018-02-08T12:39:56Z</time>
      </trkpt>
      <trkpt lat="62.653930107915" lon="17.855324461781">
        <ele>96.2</ele>
        <time>2018-02-08T12:39:57Z</time>
      </trkpt>
      <trkpt lat="62.653907225328" lon="17.85534633854">
        <ele>96.2</ele>
        <time>2018-02-08T12:39:58Z</time>
      </trkpt>
      <trkpt lat="62.653880151791" lon="17.855374082629">
        <ele>96.4</ele>
        <time>2018-02-08T12:39:59Z</time>
      </trkpt>
      <trkpt lat="62.653857855937" lon="17.855398976872">
        <ele>96.2</ele>
        <time>2018-02-08T12:40:00Z</time>
      </trkpt>
      <trkpt lat="62.653840086309" lon="17.855416159767">
        <ele>96.4</ele>
        <time>2018-02-08T12:40:01Z</time>
      </trkpt>
      <trkpt lat="62.653823657785" lon="17.855439126173">
        <ele>96.4</ele>
        <time>2018-02-08T12:40:02Z</time>
      </trkpt>
      <trkpt lat="62.653807815994" lon="17.855462679312">
        <ele>96.8</ele>
        <time>2018-02-08T12:40:03Z</time>
      </trkpt>
      <trkpt lat="62.653792644755" lon="17.855484975166">
        <ele>96.8</ele>
        <time>2018-02-08T12:40:04Z</time>
      </trkpt>
      <trkpt lat="62.653786190692" lon="17.855503247708">
        <ele>97</ele>
        <time>2018-02-08T12:40:05Z</time>
      </trkpt>
      <trkpt lat="62.653761296449" lon="17.855535182747">
        <ele>97.4</ele>
        <time>2018-02-08T12:40:06Z</time>
      </trkpt>
      <trkpt lat="62.653746544305" lon="17.855563010655">
        <ele>97.6</ele>
        <time>2018-02-08T12:40:07Z</time>
      </trkpt>
      <trkpt lat="62.653732546532" lon="17.855590754744">
        <ele>98</ele>
        <time>2018-02-08T12:40:08Z</time>
      </trkpt>
      <trkpt lat="62.653715447456" lon="17.855617828281">
        <ele>98</ele>
        <time>2018-02-08T12:40:09Z</time>
      </trkpt>
      <trkpt lat="62.653698851294" lon="17.855643141619">
        <ele>98.2</ele>
        <time>2018-02-08T12:40:10Z</time>
      </trkpt>
      <trkpt lat="62.653681500761" lon="17.855659234867">
        <ele>98.4</ele>
        <time>2018-02-08T12:40:11Z</time>
      </trkpt>
      <trkpt lat="62.653665910427" lon="17.855678094142">
        <ele>98.8</ele>
        <time>2018-02-08T12:40:12Z</time>
      </trkpt>
      <trkpt lat="62.65364973336" lon="17.855699467987">
        <ele>99</ele>
        <time>2018-02-08T12:40:13Z</time>
      </trkpt>
      <trkpt lat="62.653633556293" lon="17.855721260927">
        <ele>99.2</ele>
        <time>2018-02-08T12:40:14Z</time>
      </trkpt>
      <trkpt lat="62.653618049778" lon="17.855741880401">
        <ele>99.2</ele>
        <time>2018-02-08T12:40:15Z</time>
      </trkpt>
      <trkpt lat="62.653597178847" lon="17.855764260074">
        <ele>99.4</ele>
        <time>2018-02-08T12:40:16Z</time>
      </trkpt>
      <trkpt lat="62.653578822486" lon="17.855775575639">
        <ele>99.6</ele>
        <time>2018-02-08T12:40:17Z</time>
      </trkpt>
      <trkpt lat="62.653562058686" lon="17.855789573412">
        <ele>99.6</ele>
        <time>2018-02-08T12:40:18Z</time>
      </trkpt>
      <trkpt lat="62.653545965438" lon="17.855804996108">
        <ele>100</ele>
        <time>2018-02-08T12:40:19Z</time>
      </trkpt>
      <trkpt lat="62.65352987219" lon="17.85581991589">
        <ele>100</ele>
        <time>2018-02-08T12:40:20Z</time>
      </trkpt>
      <trkpt lat="62.653511683467" lon="17.855834416577">
        <ele>100.2</ele>
        <time>2018-02-08T12:40:21Z</time>
      </trkpt>
      <trkpt lat="62.653493746201" lon="17.855844391038">
        <ele>100.2</ele>
        <time>2018-02-08T12:40:22Z</time>
      </trkpt>
      <trkpt lat="62.653474635469" lon="17.855849084902">
        <ele>100.4</ele>
        <time>2018-02-08T12:40:23Z</time>
      </trkpt>
      <trkpt lat="62.653454770366" lon="17.855852102386">
        <ele>100.6</ele>
        <time>2018-02-08T12:40:24Z</time>
      </trkpt>
      <trkpt lat="62.653436581643" lon="17.8558526053">
        <ele>100.6</ele>
        <time>2018-02-08T12:40:25Z</time>
      </trkpt>
      <trkpt lat="62.653416465083" lon="17.855855036051">
        <ele>100.8</ele>
        <time>2018-02-08T12:40:26Z</time>
      </trkpt>
      <trkpt lat="62.653406490622" lon="17.855864591417">
        <ele>101</ele>
        <time>2018-02-08T12:40:27Z</time>
      </trkpt>
      <trkpt lat="62.653392828125" lon="17.855867944177">
        <ele>101.2</ele>
        <time>2018-02-08T12:40:28Z</time>
      </trkpt>
      <trkpt lat="62.653375226135" lon="17.855858388811">
        <ele>101.4</ele>
        <time>2018-02-08T12:40:29Z</time>
      </trkpt>
      <trkpt lat="62.653360641629" lon="17.855852521481">
        <ele>101.6</ele>
        <time>2018-02-08T12:40:30Z</time>
      </trkpt>
      <trkpt lat="62.653344213105" lon="17.855835087129">
        <ele>102</ele>
        <time>2018-02-08T12:40:31Z</time>
      </trkpt>
      <trkpt lat="62.653328287495" lon="17.855819832071">
        <ele>102.2</ele>
        <time>2018-02-08T12:40:32Z</time>
      </trkpt>
      <trkpt lat="62.653304231442" lon="17.855807007764">
        <ele>102.4</ele>
        <time>2018-02-08T12:40:33Z</time>
      </trkpt>
      <trkpt lat="62.653275565344" lon="17.855794183457">
        <ele>102.6</ele>
        <time>2018-02-08T12:40:34Z</time>
      </trkpt>
      <trkpt lat="62.653265674702" lon="17.855782867892">
        <ele>102.8</ele>
        <time>2018-02-08T12:40:35Z</time>
      </trkpt>
      <trkpt lat="62.65324572578" lon="17.855750849034">
        <ele>102.8</ele>
        <time>2018-02-08T12:40:36Z</time>
      </trkpt>
      <trkpt lat="62.653229883989" lon="17.855724948963">
        <ele>103</ele>
        <time>2018-02-08T12:40:37Z</time>
      </trkpt>
      <trkpt lat="62.65321387456" lon="17.855700473815">
        <ele>103</ele>
        <time>2018-02-08T12:40:38Z</time>
      </trkpt>
      <trkpt lat="62.653199206235" lon="17.855680273436">
        <ele>103.2</ele>
        <time>2018-02-08T12:40:39Z</time>
      </trkpt>
      <trkpt lat="62.653186717204" lon="17.855660492152">
        <ele>103.2</ele>
        <time>2018-02-08T12:40:40Z</time>
      </trkpt>
      <trkpt lat="62.653173892897" lon="17.855646242922">
        <ele>103.4</ele>
        <time>2018-02-08T12:40:41Z</time>
      </trkpt>
      <trkpt lat="62.653156290907" lon="17.855626880733">
        <ele>103.4</ele>
        <time>2018-02-08T12:40:42Z</time>
      </trkpt>
      <trkpt lat="62.653141874039" lon="17.855610787485">
        <ele>103.6</ele>
        <time>2018-02-08T12:40:43Z</time>
      </trkpt>
      <trkpt lat="62.653126786619" lon="17.855595448608">
        <ele>103.8</ele>
        <time>2018-02-08T12:40:44Z</time>
      </trkpt>
      <trkpt lat="62.653111866837" lon="17.85558103174">
        <ele>103.8</ele>
        <time>2018-02-08T12:40:45Z</time>
      </trkpt>
      <trkpt lat="62.653099629263" lon="17.855561418094">
        <ele>104.2</ele>
        <time>2018-02-08T12:40:46Z</time>
      </trkpt>
      <trkpt lat="62.653086637318" lon="17.855548761425">
        <ele>104.4</ele>
        <time>2018-02-08T12:40:47Z</time>
      </trkpt>
      <trkpt lat="62.653072471907" lon="17.855535015109">
        <ele>104.6</ele>
        <time>2018-02-08T12:40:48Z</time>
      </trkpt>
      <trkpt lat="62.653056881573" lon="17.855522106983">
        <ele>105</ele>
        <time>2018-02-08T12:40:49Z</time>
      </trkpt>
      <trkpt lat="62.65304036923" lon="17.855508695943">
        <ele>105.2</ele>
        <time>2018-02-08T12:40:50Z</time>
      </trkpt>
      <trkpt lat="62.65302528181" lon="17.855497715654">
        <ele>105.6</ele>
        <time>2018-02-08T12:40:51Z</time>
      </trkpt>
      <trkpt lat="62.653010948761" lon="17.855484723709">
        <ele>105.8</ele>
        <time>2018-02-08T12:40:52Z</time>
      </trkpt>
      <trkpt lat="62.652995442246" lon="17.855479191655">
        <ele>106.2</ele>
        <time>2018-02-08T12:40:53Z</time>
      </trkpt>
      <trkpt lat="62.652982031206" lon="17.855474246334">
        <ele>106.6</ele>
        <time>2018-02-08T12:40:54Z</time>
      </trkpt>
      <trkpt lat="62.652970464184" lon="17.855469384832">
        <ele>106.8</ele>
        <time>2018-02-08T12:40:55Z</time>
      </trkpt>
      <trkpt lat="62.652957556058" lon="17.855456057611">
        <ele>107.4</ele>
        <time>2018-02-08T12:40:56Z</time>
      </trkpt>
      <trkpt lat="62.652941630448" lon="17.855440634915">
        <ele>107.6</ele>
        <time>2018-02-08T12:40:57Z</time>
      </trkpt>
      <trkpt lat="62.652924531372" lon="17.855421440364">
        <ele>107.8</ele>
        <time>2018-02-08T12:40:58Z</time>
      </trkpt>
      <trkpt lat="62.652910617418" lon="17.855417249414">
        <ele>108</ele>
        <time>2018-02-08T12:40:59Z</time>
      </trkpt>
      <trkpt lat="62.652896703464" lon="17.855406185306">
        <ele>108.2</ele>
        <time>2018-02-08T12:41:00Z</time>
      </trkpt>
      <trkpt lat="62.652877676551" lon="17.855403167822">
        <ele>108.4</ele>
        <time>2018-02-08T12:41:01Z</time>
      </trkpt>
      <trkpt lat="62.652863427321" lon="17.855397132854">
        <ele>108.4</ele>
        <time>2018-02-08T12:41:02Z</time>
      </trkpt>
      <trkpt lat="62.652847669349" lon="17.855392522809">
        <ele>108.6</ele>
        <time>2018-02-08T12:41:03Z</time>
      </trkpt>
      <trkpt lat="62.65283165992" lon="17.855386404022">
        <ele>108.8</ele>
        <time>2018-02-08T12:41:04Z</time>
      </trkpt>
      <trkpt lat="62.652814979939" lon="17.855375339914">
        <ele>109</ele>
        <time>2018-02-08T12:41:05Z</time>
      </trkpt>
      <trkpt lat="62.652797797044" lon="17.855369304946">
        <ele>109.2</ele>
        <time>2018-02-08T12:41:06Z</time>
      </trkpt>
      <trkpt lat="62.652783547814" lon="17.855365281634">
        <ele>109.2</ele>
        <time>2018-02-08T12:41:07Z</time>
      </trkpt>
      <trkpt lat="62.652765526729" lon="17.85536058777">
        <ele>109.4</ele>
        <time>2018-02-08T12:41:08Z</time>
      </trkpt>
      <trkpt lat="62.652745158712" lon="17.85535472044">
        <ele>109.6</ele>
        <time>2018-02-08T12:41:09Z</time>
      </trkpt>
      <trkpt lat="62.652727137627" lon="17.855348434015">
        <ele>109.8</ele>
        <time>2018-02-08T12:41:10Z</time>
      </trkpt>
      <trkpt lat="62.65271682789" lon="17.855370478412">
        <ele>110.2</ele>
        <time>2018-02-08T12:41:11Z</time>
      </trkpt>
      <trkpt lat="62.652688664706" lon="17.85536310234">
        <ele>110.4</ele>
        <time>2018-02-08T12:41:12Z</time>
      </trkpt>
      <trkpt lat="62.652667793775" lon="17.855368718213">
        <ele>110.6</ele>
        <time>2018-02-08T12:41:13Z</time>
      </trkpt>
      <trkpt lat="62.652644659731" lon="17.85536561691">
        <ele>110.8</ele>
        <time>2018-02-08T12:41:14Z</time>
      </trkpt>
      <trkpt lat="62.652621944782" lon="17.855356732096">
        <ele>110.8</ele>
        <time>2018-02-08T12:41:15Z</time>
      </trkpt>
      <trkpt lat="62.65260953957" lon="17.855359079028">
        <ele>110.8</ele>
        <time>2018-02-08T12:41:16Z</time>
      </trkpt>
      <trkpt lat="62.65258942301" lon="17.855367796204">
        <ele>110.8</ele>
        <time>2018-02-08T12:41:17Z</time>
      </trkpt>
      <trkpt lat="62.65256763007" lon="17.855366874195">
        <ele>110.8</ele>
        <time>2018-02-08T12:41:18Z</time>
      </trkpt>
      <trkpt lat="62.652546591501" lon="17.855359917218">
        <ele>111</ele>
        <time>2018-02-08T12:41:19Z</time>
      </trkpt>
      <trkpt lat="62.652537706687" lon="17.85536142596">
        <ele>111</ele>
        <time>2018-02-08T12:41:20Z</time>
      </trkpt>
      <trkpt lat="62.652509878779" lon="17.855368718213">
        <ele>111</ele>
        <time>2018-02-08T12:41:21Z</time>
      </trkpt>
      <trkpt lat="62.652484900717" lon="17.855374585543">
        <ele>111.2</ele>
        <time>2018-02-08T12:41:22Z</time>
      </trkpt>
      <trkpt lat="62.652469142745" lon="17.85540082089">
        <ele>111.2</ele>
        <time>2018-02-08T12:41:23Z</time>
      </trkpt>
      <trkpt lat="62.652447349805" lon="17.855427056237">
        <ele>111.4</ele>
        <time>2018-02-08T12:41:24Z</time>
      </trkpt>
      <trkpt lat="62.652429831634" lon="17.855454800326">
        <ele>111.4</ele>
        <time>2018-02-08T12:41:25Z</time>
      </trkpt>
      <trkpt lat="62.652416672051" lon="17.855483634062">
        <ele>111.6</ele>
        <time>2018-02-08T12:41:26Z</time>
      </trkpt>
      <trkpt lat="62.65239915388" lon="17.855536356213">
        <ele>111.6</ele>
        <time>2018-02-08T12:41:27Z</time>
      </trkpt>
      <trkpt lat="62.652389514695" lon="17.855568123614">
        <ele>111.6</ele>
        <time>2018-02-08T12:41:28Z</time>
      </trkpt>
      <trkpt lat="62.652372834714" lon="17.855617409186">
        <ele>111.6</ele>
        <time>2018-02-08T12:41:29Z</time>
      </trkpt>
      <trkpt lat="62.652356657647" lon="17.855656887935">
        <ele>111.6</ele>
        <time>2018-02-08T12:41:30Z</time>
      </trkpt>
      <trkpt lat="62.65234634791" lon="17.855691169906">
        <ele>111.6</ele>
        <time>2018-02-08T12:41:31Z</time>
      </trkpt>
      <trkpt lat="62.652327823911" lon="17.855738276184">
        <ele>111.6</ele>
        <time>2018-02-08T12:41:32Z</time>
      </trkpt>
      <trkpt lat="62.652313071767" lon="17.855781945883">
        <ele>111.8</ele>
        <time>2018-02-08T12:41:33Z</time>
      </trkpt>
      <trkpt lat="62.652302259116" lon="17.85582159227">
        <ele>111.8</ele>
        <time>2018-02-08T12:41:34Z</time>
      </trkpt>
      <trkpt lat="62.652281639642" lon="17.855889904755">
        <ele>111.8</ele>
        <time>2018-02-08T12:41:35Z</time>
      </trkpt>
      <trkpt lat="62.652273006285" lon="17.855933742092">
        <ele>111.8</ele>
        <time>2018-02-08T12:41:36Z</time>
      </trkpt>
      <trkpt lat="62.652258421779" lon="17.855973639936">
        <ele>112</ele>
        <time>2018-02-08T12:41:37Z</time>
      </trkpt>
      <trkpt lat="62.652241155065" lon="17.856015297979">
        <ele>111.8</ele>
        <time>2018-02-08T12:41:38Z</time>
      </trkpt>
      <trkpt lat="62.652227660206" lon="17.856051759244">
        <ele>111.8</ele>
        <time>2018-02-08T12:41:39Z</time>
      </trkpt>
      <trkpt lat="62.652216847555" lon="17.856084867749">
        <ele>111.8</ele>
        <time>2018-02-08T12:41:40Z</time>
      </trkpt>
      <trkpt lat="62.652206789275" lon="17.856114707313">
        <ele>111.8</ele>
        <time>2018-02-08T12:41:41Z</time>
      </trkpt>
      <trkpt lat="62.652181643575" lon="17.856157874098">
        <ele>112</ele>
        <time>2018-02-08T12:41:42Z</time>
      </trkpt>
      <trkpt lat="62.652163035757" lon="17.856189809137">
        <ele>112.2</ele>
        <time>2018-02-08T12:41:43Z</time>
      </trkpt>
      <trkpt lat="62.652146355776" lon="17.856216295941">
        <ele>112.4</ele>
        <time>2018-02-08T12:41:44Z</time>
      </trkpt>
      <trkpt lat="62.652130430166" lon="17.856240100537">
        <ele>112.4</ele>
        <time>2018-02-08T12:41:45Z</time>
      </trkpt>
      <trkpt lat="62.652100087688" lon="17.856273711956">
        <ele>112.6</ele>
        <time>2018-02-08T12:41:46Z</time>
      </trkpt>
      <trkpt lat="62.652076199273" lon="17.856302294235">
        <ele>112.6</ele>
        <time>2018-02-08T12:41:47Z</time>
      </trkpt>
      <trkpt lat="62.652047449356" lon="17.856330625057">
        <ele>112.8</ele>
        <time>2018-02-08T12:41:48Z</time>
      </trkpt>
      <trkpt lat="62.652015430498" lon="17.856361721906">
        <ele>113.2</ele>
        <time>2018-02-08T12:41:49Z</time>
      </trkpt>
      <trkpt lat="62.651978801595" lon="17.856372618376">
        <ele>113.2</ele>
        <time>2018-02-08T12:41:50Z</time>
      </trkpt>
      <trkpt lat="62.651929348385" lon="17.856405559243">
        <ele>112.8</ele>
        <time>2018-02-08T12:41:51Z</time>
      </trkpt>
      <trkpt lat="62.651889701998" lon="17.85643347097">
        <ele>112.6</ele>
        <time>2018-02-08T12:41:52Z</time>
      </trkpt>
      <trkpt lat="62.651862879918" lon="17.856500023256">
        <ele>112.2</ele>
        <time>2018-02-08T12:41:53Z</time>
      </trkpt>
      <trkpt lat="62.651827927395" lon="17.856576717641">
        <ele>111.4</ele>
        <time>2018-02-08T12:41:54Z</time>
      </trkpt>
      <trkpt lat="62.651792807234" lon="17.856663051211">
        <ele>111</ele>
        <time>2018-02-08T12:41:55Z</time>
      </trkpt>
      <trkpt lat="62.651757687073" lon="17.856757096129">
        <ele>110.2</ele>
        <time>2018-02-08T12:41:56Z</time>
      </trkpt>
      <trkpt lat="62.651734636848" lon="17.856851643961">
        <ele>109.6</ele>
        <time>2018-02-08T12:41:57Z</time>
      </trkpt>
      <trkpt lat="62.651713263003" lon="17.856950969476">
        <ele>108.8</ele>
        <time>2018-02-08T12:41:58Z</time>
      </trkpt>
      <trkpt lat="62.651695409556" lon="17.857033531191">
        <ele>108.2</ele>
        <time>2018-02-08T12:41:59Z</time>
      </trkpt>
      <trkpt lat="62.651679903041" lon="17.857102262771">
        <ele>108.2</ele>
        <time>2018-02-08T12:42:00Z</time>
      </trkpt>
      <trkpt lat="62.651660457033" lon="17.857154482008">
        <ele>108.4</ele>
        <time>2018-02-08T12:42:01Z</time>
      </trkpt>
      <trkpt lat="62.651640005197" lon="17.857216591887">
        <ele>108.6</ele>
        <time>2018-02-08T12:42:02Z</time>
      </trkpt>
      <trkpt lat="62.651618715171" lon="17.857283227992">
        <ele>109.2</ele>
        <time>2018-02-08T12:42:03Z</time>
      </trkpt>
      <trkpt lat="62.651603963027" lon="17.857344667319">
        <ele>109.2</ele>
        <time>2018-02-08T12:42:04Z</time>
      </trkpt>
      <trkpt lat="62.651572530902" lon="17.857399987859">
        <ele>109.2</ele>
        <time>2018-02-08T12:42:05Z</time>
      </trkpt>
      <trkpt lat="62.651552498161" lon="17.85747701752">
        <ele>109</ele>
        <time>2018-02-08T12:42:06Z</time>
      </trkpt>
      <trkpt lat="62.651522155683" lon="17.857547844575">
        <ele>109</ele>
        <time>2018-02-08T12:42:07Z</time>
      </trkpt>
      <trkpt lat="62.651490472101" lon="17.857616240879">
        <ele>109</ele>
        <time>2018-02-08T12:42:08Z</time>
      </trkpt>
      <trkpt lat="62.651456860682" lon="17.857663011881">
        <ele>108.8</ele>
        <time>2018-02-08T12:42:09Z</time>
      </trkpt>
      <trkpt lat="62.651428697498" lon="17.857725289398">
        <ele>108.6</ele>
        <time>2018-02-08T12:42:10Z</time>
      </trkpt>
      <trkpt lat="62.651403132703" lon="17.857774491151">
        <ele>108.6</ele>
        <time>2018-02-08T12:42:11Z</time>
      </trkpt>
      <trkpt lat="62.651378154641" lon="17.857839618514">
        <ele>108.4</ele>
        <time>2018-02-08T12:42:12Z</time>
      </trkpt>
      <trkpt lat="62.651358792452" lon="17.857892340665">
        <ele>108.4</ele>
        <time>2018-02-08T12:42:13Z</time>
      </trkpt>
      <trkpt lat="62.651346638697" lon="17.8579396984">
        <ele>108.2</ele>
        <time>2018-02-08T12:42:14Z</time>
      </trkpt>
      <trkpt lat="62.651301627894" lon="17.858007424152">
        <ele>107.8</ele>
        <time>2018-02-08T12:42:15Z</time>
      </trkpt>
      <trkpt lat="62.651273883805" lon="17.858067270918">
        <ele>107.8</ele>
        <time>2018-02-08T12:42:16Z</time>
      </trkpt>
      <trkpt lat="62.651245972078" lon="17.858123513467">
        <ele>107.6</ele>
        <time>2018-02-08T12:42:17Z</time>
      </trkpt>
      <trkpt lat="62.651210851917" lon="17.858192915599">
        <ele>107.4</ele>
        <time>2018-02-08T12:42:18Z</time>
      </trkpt>
      <trkpt lat="62.651192327918" lon="17.85824647594">
        <ele>107.2</ele>
        <time>2018-02-08T12:42:19Z</time>
      </trkpt>
      <trkpt lat="62.651155866653" lon="17.858306322706">
        <ele>107.2</ele>
        <time>2018-02-08T12:42:20Z</time>
      </trkpt>
      <trkpt lat="62.651125691813" lon="17.858370444241">
        <ele>107</ele>
        <time>2018-02-08T12:42:21Z</time>
      </trkpt>
      <trkpt lat="62.651104904701" lon="17.858420065089">
        <ele>107</ele>
        <time>2018-02-08T12:42:22Z</time>
      </trkpt>
      <trkpt lat="62.651075903327" lon="17.858467339005">
        <ele>106.8</ele>
        <time>2018-02-08T12:42:23Z</time>
      </trkpt>
      <trkpt lat="62.651050170894" lon="17.858503632632">
        <ele>106.6</ele>
        <time>2018-02-08T12:42:24Z</time>
      </trkpt>
      <trkpt lat="62.651021420977" lon="17.858536741137">
        <ele>106.6</ele>
        <time>2018-02-08T12:42:25Z</time>
      </trkpt>
      <trkpt lat="62.650988815386" lon="17.858568759995">
        <ele>106.6</ele>
        <time>2018-02-08T12:42:26Z</time>
      </trkpt>
      <trkpt lat="62.650943385488" lon="17.858597509912">
        <ele>106.4</ele>
        <time>2018-02-08T12:42:27Z</time>
      </trkpt>
      <trkpt lat="62.650906086033" lon="17.858617877929">
        <ele>106.4</ele>
        <time>2018-02-08T12:42:28Z</time>
      </trkpt>
      <trkpt lat="62.650874989184" lon="17.858632630073">
        <ele>106.2</ele>
        <time>2018-02-08T12:42:29Z</time>
      </trkpt>
      <trkpt lat="62.650841210127" lon="17.858637659213">
        <ele>106.2</ele>
        <time>2018-02-08T12:42:30Z</time>
      </trkpt>
      <trkpt lat="62.650815729151" lon="17.858623577621">
        <ele>106</ele>
        <time>2018-02-08T12:42:31Z</time>
      </trkpt>
      <trkpt lat="62.650780525171" lon="17.858603628699">
        <ele>105.8</ele>
        <time>2018-02-08T12:42:32Z</time>
      </trkpt>
      <trkpt lat="62.650755128014" lon="17.85858342832">
        <ele>105.6</ele>
        <time>2018-02-08T12:42:33Z</time>
      </trkpt>
      <trkpt lat="62.650736352558" lon="17.858566077787">
        <ele>105.2</ele>
        <time>2018-02-08T12:42:34Z</time>
      </trkpt>
      <trkpt lat="62.650722354785" lon="17.858545542132">
        <ele>105</ele>
        <time>2018-02-08T12:42:35Z</time>
      </trkpt>
      <trkpt lat="62.650705674804" lon="17.858528191599">
        <ele>105</ele>
        <time>2018-02-08T12:42:36Z</time>
      </trkpt>
      <trkpt lat="62.650678433629" lon="17.8584845219">
        <ele>105</ele>
        <time>2018-02-08T12:42:37Z</time>
      </trkpt>
      <trkpt lat="62.650652533558" lon="17.8584342305">
        <ele>105</ele>
        <time>2018-02-08T12:42:38Z</time>
      </trkpt>
      <trkpt lat="62.650623448365" lon="17.858365834196">
        <ele>104.8</ele>
        <time>2018-02-08T12:42:39Z</time>
      </trkpt>
      <trkpt lat="62.650594782267" lon="17.858269777622">
        <ele>104.6</ele>
        <time>2018-02-08T12:42:40Z</time>
      </trkpt>
      <trkpt lat="62.65057441425" lon="17.858169111003">
        <ele>104.4</ele>
        <time>2018-02-08T12:42:41Z</time>
      </trkpt>
      <trkpt lat="62.65055681226" lon="17.85805620681">
        <ele>104</ele>
        <time>2018-02-08T12:42:42Z</time>
      </trkpt>
      <trkpt lat="62.650541892478" lon="17.857927293188">
        <ele>103.6</ele>
        <time>2018-02-08T12:42:43Z</time>
      </trkpt>
      <trkpt lat="62.650527643248" lon="17.857803324887">
        <ele>103.2</ele>
        <time>2018-02-08T12:42:44Z</time>
      </trkpt>
      <trkpt lat="62.650511801457" lon="17.857678853672">
        <ele>102.4</ele>
        <time>2018-02-08T12:42:45Z</time>
      </trkpt>
      <trkpt lat="62.650485230834" lon="17.857536445191">
        <ele>101.6</ele>
        <time>2018-02-08T12:42:46Z</time>
      </trkpt>
      <trkpt lat="62.650448266655" lon="17.857392025054">
        <ele>100.6</ele>
        <time>2018-02-08T12:42:47Z</time>
      </trkpt>
      <trkpt lat="62.650411386295" lon="17.857265206907">
        <ele>99.6</ele>
        <time>2018-02-08T12:42:48Z</time>
      </trkpt>
      <trkpt lat="62.650375092668" lon="17.857144675185">
        <ele>98.8</ele>
        <time>2018-02-08T12:42:49Z</time>
      </trkpt>
      <trkpt lat="62.650337960851" lon="17.85703948234">
        <ele>98</ele>
        <time>2018-02-08T12:42:50Z</time>
      </trkpt>
      <trkpt lat="62.650296218989" lon="17.8569338704">
        <ele>97.4</ele>
        <time>2018-02-08T12:42:51Z</time>
      </trkpt>
      <trkpt lat="62.650249364168" lon="17.856828677555">
        <ele>97</ele>
        <time>2018-02-08T12:42:52Z</time>
      </trkpt>
      <trkpt lat="62.650202593166" lon="17.85674695403">
        <ele>96.6</ele>
        <time>2018-02-08T12:42:53Z</time>
      </trkpt>
      <trkpt lat="62.650143333133" lon="17.856672606577">
        <ele>96.4</ele>
        <time>2018-02-08T12:42:54Z</time>
      </trkpt>
      <trkpt lat="62.650092287362" lon="17.85662457829">
        <ele>96</ele>
        <time>2018-02-08T12:42:55Z</time>
      </trkpt>
      <trkpt lat="62.650045683998" lon="17.856593732898">
        <ele>95.4</ele>
        <time>2018-02-08T12:42:56Z</time>
      </trkpt>
      <trkpt lat="62.650003103946" lon="17.856564563886">
        <ele>95.2</ele>
        <time>2018-02-08T12:42:57Z</time>
      </trkpt>
      <trkpt lat="62.649965217758" lon="17.856564899162">
        <ele>94.6</ele>
        <time>2018-02-08T12:42:58Z</time>
      </trkpt>
      <trkpt lat="62.649938060402" lon="17.856549308828">
        <ele>94.4</ele>
        <time>2018-02-08T12:42:59Z</time>
      </trkpt>
      <trkpt lat="62.649914339625" lon="17.856545369335">
        <ele>94.4</ele>
        <time>2018-02-08T12:43:00Z</time>
      </trkpt>
      <trkpt lat="62.649899336024" lon="17.856535981607">
        <ele>94.6</ele>
        <time>2018-02-08T12:43:01Z</time>
      </trkpt>
      <trkpt lat="62.649879387102" lon="17.856530784829">
        <ele>95</ele>
        <time>2018-02-08T12:43:02Z</time>
      </trkpt>
      <trkpt lat="62.649857845619" lon="17.856524414585">
        <ele>95.2</ele>
        <time>2018-02-08T12:43:03Z</time>
      </trkpt>
      <trkpt lat="62.649838818706" lon="17.856516870875">
        <ele>95.4</ele>
        <time>2018-02-08T12:43:04Z</time>
      </trkpt>
      <trkpt lat="62.649827084046" lon="17.85651393721">
        <ele>95.4</ele>
        <time>2018-02-08T12:43:05Z</time>
      </trkpt>
      <trkpt lat="62.649800597242" lon="17.856512344649">
        <ele>95.6</ele>
        <time>2018-02-08T12:43:06Z</time>
      </trkpt>
      <trkpt lat="62.649776541189" lon="17.85650890807">
        <ele>95.8</ele>
        <time>2018-02-08T12:43:07Z</time>
      </trkpt>
      <trkpt lat="62.649754580611" lon="17.856505220034">
        <ele>95.8</ele>
        <time>2018-02-08T12:43:08Z</time>
      </trkpt>
      <trkpt lat="62.649735553698" lon="17.85650723169">
        <ele>96.2</ele>
        <time>2018-02-08T12:43:09Z</time>
      </trkpt>
      <trkpt lat="62.649719208993" lon="17.856510668269">
        <ele>96.2</ele>
        <time>2018-02-08T12:43:10Z</time>
      </trkpt>
      <trkpt lat="62.649699176252" lon="17.856506058224">
        <ele>96.4</ele>
        <time>2018-02-08T12:43:11Z</time>
      </trkpt>
      <trkpt lat="62.649678305321" lon="17.856507399328">
        <ele>96.4</ele>
        <time>2018-02-08T12:43:12Z</time>
      </trkpt>
      <trkpt lat="62.649661290064" lon="17.85650387893">
        <ele>96.6</ele>
        <time>2018-02-08T12:43:13Z</time>
      </trkpt>
      <trkpt lat="62.649640083857" lon="17.856502789283">
        <ele>96.6</ele>
        <time>2018-02-08T12:43:14Z</time>
      </trkpt>
      <trkpt lat="62.649620721668" lon="17.856498765971">
        <ele>96.8</ele>
        <time>2018-02-08T12:43:15Z</time>
      </trkpt>
      <trkpt lat="62.649601359479" lon="17.856498765971">
        <ele>97</ele>
        <time>2018-02-08T12:43:16Z</time>
      </trkpt>
      <trkpt lat="62.649582751661" lon="17.856499771799">
        <ele>97.4</ele>
        <time>2018-02-08T12:43:17Z</time>
      </trkpt>
      <trkpt lat="62.649565987861" lon="17.856501112903">
        <ele>97.8</ele>
        <time>2018-02-08T12:43:18Z</time>
      </trkpt>
      <trkpt lat="62.649550648984" lon="17.856501615817">
        <ele>98.2</ele>
        <time>2018-02-08T12:43:19Z</time>
      </trkpt>
      <trkpt lat="62.649537070306" lon="17.856503962749">
        <ele>98.6</ele>
        <time>2018-02-08T12:43:20Z</time>
      </trkpt>
      <trkpt lat="62.649521479972" lon="17.856511757916">
        <ele>98.8</ele>
        <time>2018-02-08T12:43:21Z</time>
      </trkpt>
      <trkpt lat="62.64949985467" lon="17.856511338821">
        <ele>98.8</ele>
        <time>2018-02-08T12:43:22Z</time>
      </trkpt>
      <trkpt lat="62.649477977911" lon="17.85651309902">
        <ele>99</ele>
        <time>2018-02-08T12:43:23Z</time>
      </trkpt>
      <trkpt lat="62.649459537731" lon="17.856514859219">
        <ele>99.4</ele>
        <time>2018-02-08T12:43:24Z</time>
      </trkpt>
      <trkpt lat="62.649442773931" lon="17.856517038513">
        <ele>99.4</ele>
        <time>2018-02-08T12:43:25Z</time>
      </trkpt>
      <trkpt lat="62.64942860852" lon="17.856514943038">
        <ele>99.6</ele>
        <time>2018-02-08T12:43:26Z</time>
      </trkpt>
      <trkpt lat="62.649406312666" lon="17.856511003545">
        <ele>99.8</ele>
        <time>2018-02-08T12:43:27Z</time>
      </trkpt>
      <trkpt lat="62.649383262441" lon="17.856497843962">
        <ele>100</ele>
        <time>2018-02-08T12:43:28Z</time>
      </trkpt>
      <trkpt lat="62.649367085374" lon="17.856501867274">
        <ele>99.8</ele>
        <time>2018-02-08T12:43:29Z</time>
      </trkpt>
      <trkpt lat="62.649335150335" lon="17.856471105701">
        <ele>100</ele>
        <time>2018-02-08T12:43:30Z</time>
      </trkpt>
      <trkpt lat="62.649315620508" lon="17.856449564218">
        <ele>100</ele>
        <time>2018-02-08T12:43:31Z</time>
      </trkpt>
      <trkpt lat="62.649300533088" lon="17.856434392979">
        <ele>100.2</ele>
        <time>2018-02-08T12:43:32Z</time>
      </trkpt>
      <trkpt lat="62.649278740148" lon="17.856386951425">
        <ele>100.2</ele>
        <time>2018-02-08T12:43:33Z</time>
      </trkpt>
      <trkpt lat="62.64926013233" lon="17.856344455192">
        <ele>100.2</ele>
        <time>2018-02-08T12:43:34Z</time>
      </trkpt>
      <trkpt lat="62.649253594448" lon="17.856337330577">
        <ele>100.4</ele>
        <time>2018-02-08T12:43:35Z</time>
      </trkpt>
      <trkpt lat="62.64923163387" lon="17.856288799376">
        <ele>100.4</ele>
        <time>2018-02-08T12:43:36Z</time>
      </trkpt>
      <trkpt lat="62.649215875898" lon="17.856259462726">
        <ele>100.4</ele>
        <time>2018-02-08T12:43:37Z</time>
      </trkpt>
      <trkpt lat="62.649203386867" lon="17.856235825768">
        <ele>100.4</ele>
        <time>2018-02-08T12:43:38Z</time>
      </trkpt>
      <trkpt lat="62.649178744081" lon="17.856171033681">
        <ele>100.4</ele>
        <time>2018-02-08T12:43:39Z</time>
      </trkpt>
      <trkpt lat="62.64916038772" lon="17.856132225484">
        <ele>100.6</ele>
        <time>2018-02-08T12:43:40Z</time>
      </trkpt>
      <trkpt lat="62.649146641404" lon="17.856107247422">
        <ele>100.6</ele>
        <time>2018-02-08T12:43:41Z</time>
      </trkpt>
      <trkpt lat="62.649122585351" lon="17.856062488076">
        <ele>100.6</ele>
        <time>2018-02-08T12:43:42Z</time>
      </trkpt>
      <trkpt lat="62.64910590537" lon="17.856035749815">
        <ele>100.6</ele>
        <time>2018-02-08T12:43:43Z</time>
      </trkpt>
      <trkpt lat="62.649088638656" lon="17.855996690161">
        <ele>100.6</ele>
        <time>2018-02-08T12:43:44Z</time>
      </trkpt>
      <trkpt lat="62.649063660594" lon="17.855953607195">
        <ele>100.6</ele>
        <time>2018-02-08T12:43:45Z</time>
      </trkpt>
      <trkpt lat="62.649048321717" lon="17.855946650218">
        <ele>100.6</ele>
        <time>2018-02-08T12:43:46Z</time>
      </trkpt>
      <trkpt lat="62.6490279537" lon="17.855911613876">
        <ele>100.6</ele>
        <time>2018-02-08T12:43:47Z</time>
      </trkpt>
      <trkpt lat="62.64900951352" lon="17.85588278014">
        <ele>100.8</ele>
        <time>2018-02-08T12:43:48Z</time>
      </trkpt>
      <trkpt lat="62.648995012833" lon="17.855857466802">
        <ele>100.8</ele>
        <time>2018-02-08T12:43:49Z</time>
      </trkpt>
      <trkpt lat="62.648982775259" lon="17.855836092957">
        <ele>100.8</ele>
        <time>2018-02-08T12:43:50Z</time>
      </trkpt>
      <trkpt lat="62.648953438609" lon="17.855794937828">
        <ele>101</ele>
        <time>2018-02-08T12:43:51Z</time>
      </trkpt>
      <trkpt lat="62.648930472203" lon="17.855764511531">
        <ele>101</ele>
        <time>2018-02-08T12:43:52Z</time>
      </trkpt>
      <trkpt lat="62.648913540765" lon="17.855738360003">
        <ele>101</ele>
        <time>2018-02-08T12:43:53Z</time>
      </trkpt>
      <trkpt lat="62.648896860784" lon="17.855713381941">
        <ele>101</ele>
        <time>2018-02-08T12:43:54Z</time>
      </trkpt>
      <trkpt lat="62.648878252966" lon="17.855695277037">
        <ele>101.2</ele>
        <time>2018-02-08T12:43:55Z</time>
      </trkpt>
      <trkpt lat="62.648860399519" lon="17.855669376966">
        <ele>101.4</ele>
        <time>2018-02-08T12:43:56Z</time>
      </trkpt>
      <trkpt lat="62.648834583267" lon="17.855634508262">
        <ele>101.6</ele>
        <time>2018-02-08T12:43:57Z</time>
      </trkpt>
      <trkpt lat="62.648817987105" lon="17.855607267087">
        <ele>101.8</ele>
        <time>2018-02-08T12:43:58Z</time>
      </trkpt>
      <trkpt lat="62.648802061495" lon="17.855582289025">
        <ele>102</ele>
        <time>2018-02-08T12:43:59Z</time>
      </trkpt>
      <trkpt lat="62.648785632971" lon="17.855555969859">
        <ele>102.2</ele>
        <time>2018-02-08T12:44:00Z</time>
      </trkpt>
      <trkpt lat="62.648771299922" lon="17.855512886893">
        <ele>102.4</ele>
        <time>2018-02-08T12:44:01Z</time>
      </trkpt>
      <trkpt lat="62.648755206674" lon="17.855471061212">
        <ele>102.6</ele>
        <time>2018-02-08T12:44:02Z</time>
      </trkpt>
      <trkpt lat="62.648743555833" lon="17.855454548869">
        <ele>102.6</ele>
        <time>2018-02-08T12:44:03Z</time>
      </trkpt>
      <trkpt lat="62.648722601083" lon="17.855406185306">
        <ele>102.8</ele>
        <time>2018-02-08T12:44:04Z</time>
      </trkpt>
      <trkpt lat="62.648703238894" lon="17.85538824804">
        <ele>103</ele>
        <time>2018-02-08T12:44:05Z</time>
      </trkpt>
      <trkpt lat="62.64867759028" lon="17.855373328258">
        <ele>103.2</ele>
        <time>2018-02-08T12:44:06Z</time>
      </trkpt>
      <trkpt lat="62.648650181467" lon="17.855352624965">
        <ele>103.4</ele>
        <time>2018-02-08T12:44:07Z</time>
      </trkpt>
      <trkpt lat="62.648627047423" lon="17.855337621364">
        <ele>103.4</ele>
        <time>2018-02-08T12:44:08Z</time>
      </trkpt>
      <trkpt lat="62.648601734085" lon="17.855340303572">
        <ele>103.6</ele>
        <time>2018-02-08T12:44:09Z</time>
      </trkpt>
      <trkpt lat="62.648574995824" lon="17.855335693527">
        <ele>103.6</ele>
        <time>2018-02-08T12:44:10Z</time>
      </trkpt>
      <trkpt lat="62.648552783789" lon="17.855354133707">
        <ele>103.8</ele>
        <time>2018-02-08T12:44:11Z</time>
      </trkpt>
      <trkpt lat="62.648525542614" lon="17.855375339914">
        <ele>103.6</ele>
        <time>2018-02-08T12:44:12Z</time>
      </trkpt>
      <trkpt lat="62.648501821837" lon="17.855396546121">
        <ele>103.8</ele>
        <time>2018-02-08T12:44:13Z</time>
      </trkpt>
      <trkpt lat="62.648479190707" lon="17.855417668509">
        <ele>103.6</ele>
        <time>2018-02-08T12:44:14Z</time>
      </trkpt>
      <trkpt lat="62.648455134654" lon="17.855439545268">
        <ele>103.6</ele>
        <time>2018-02-08T12:44:15Z</time>
      </trkpt>
      <trkpt lat="62.648440717786" lon="17.855463601321">
        <ele>103.6</ele>
        <time>2018-02-08T12:44:16Z</time>
      </trkpt>
      <trkpt lat="62.648413392792" lon="17.855480532759">
        <ele>103.4</ele>
        <time>2018-02-08T12:44:17Z</time>
      </trkpt>
      <trkpt lat="62.648393862965" lon="17.855496709826">
        <ele>103.2</ele>
        <time>2018-02-08T12:44:18Z</time>
      </trkpt>
      <trkpt lat="62.648374081681" lon="17.855513808902">
        <ele>103.2</ele>
        <time>2018-02-08T12:44:19Z</time>
      </trkpt>
      <trkpt lat="62.648346924325" lon="17.855524537734">
        <ele>103</ele>
        <time>2018-02-08T12:44:20Z</time>
      </trkpt>
      <trkpt lat="62.648329657611" lon="17.855537194403">
        <ele>103</ele>
        <time>2018-02-08T12:44:21Z</time>
      </trkpt>
      <trkpt lat="62.648302164979" lon="17.855545492484">
        <ele>103</ele>
        <time>2018-02-08T12:44:22Z</time>
      </trkpt>
      <trkpt lat="62.648284311532" lon="17.855556388954">
        <ele>102.8</ele>
        <time>2018-02-08T12:44:23Z</time>
      </trkpt>
      <trkpt lat="62.648260590755" lon="17.855564351759">
        <ele>102.8</ele>
        <time>2018-02-08T12:44:24Z</time>
      </trkpt>
      <trkpt lat="62.648236199426" lon="17.855569213261">
        <ele>102.8</ele>
        <time>2018-02-08T12:44:25Z</time>
      </trkpt>
      <trkpt lat="62.648221195825" lon="17.855564351759">
        <ele>102.8</ele>
        <time>2018-02-08T12:44:26Z</time>
      </trkpt>
      <trkpt lat="62.648190518071" lon="17.855558065334">
        <ele>102.8</ele>
        <time>2018-02-08T12:44:27Z</time>
      </trkpt>
      <trkpt lat="62.648163276896" lon="17.855545576303">
        <ele>102.8</ele>
        <time>2018-02-08T12:44:28Z</time>
      </trkpt>
      <trkpt lat="62.648144752897" lon="17.855544821932">
        <ele>103</ele>
        <time>2018-02-08T12:44:29Z</time>
      </trkpt>
      <trkpt lat="62.648115332428" lon="17.855543229371">
        <ele>103</ele>
        <time>2018-02-08T12:44:30Z</time>
      </trkpt>
      <trkpt lat="62.648094461497" lon="17.85554666595">
        <ele>103</ele>
        <time>2018-02-08T12:44:31Z</time>
      </trkpt>
      <trkpt lat="62.648074680213" lon="17.855547671778">
        <ele>103</ele>
        <time>2018-02-08T12:44:32Z</time>
      </trkpt>
      <trkpt lat="62.648054396015" lon="17.855551862728">
        <ele>103</ele>
        <time>2018-02-08T12:44:33Z</time>
      </trkpt>
      <trkpt lat="62.64803386036" lon="17.855554880212">
        <ele>103</ele>
        <time>2018-02-08T12:44:34Z</time>
      </trkpt>
      <trkpt lat="62.648018018569" lon="17.855564603216">
        <ele>103.2</ele>
        <time>2018-02-08T12:44:35Z</time>
      </trkpt>
      <trkpt lat="62.648002595873" lon="17.855582456663">
        <ele>103.2</ele>
        <time>2018-02-08T12:44:36Z</time>
      </trkpt>
      <trkpt lat="62.647986586444" lon="17.855605423069">
        <ele>103.2</ele>
        <time>2018-02-08T12:44:37Z</time>
      </trkpt>
      <trkpt lat="62.647976109069" lon="17.855629479122">
        <ele>103.2</ele>
        <time>2018-02-08T12:44:38Z</time>
      </trkpt>
      <trkpt lat="62.64796512878" lon="17.855657558487">
        <ele>103.4</ele>
        <time>2018-02-08T12:44:39Z</time>
      </trkpt>
      <trkpt lat="62.647949286989" lon="17.855683458558">
        <ele>103.6</ele>
        <time>2018-02-08T12:44:40Z</time>
      </trkpt>
      <trkpt lat="62.647935373035" lon="17.855702904566">
        <ele>103.8</ele>
        <time>2018-02-08T12:44:41Z</time>
      </trkpt>
      <trkpt lat="62.647918273959" lon="17.85573022956">
        <ele>104</ele>
        <time>2018-02-08T12:44:42Z</time>
      </trkpt>
      <trkpt lat="62.647907209851" lon="17.855749005016">
        <ele>104</ele>
        <time>2018-02-08T12:44:43Z</time>
      </trkpt>
      <trkpt lat="62.64789807358" lon="17.855765349721">
        <ele>104.2</ele>
        <time>2018-02-08T12:44:44Z</time>
      </trkpt>
      <trkpt lat="62.647888937309" lon="17.855781023874">
        <ele>104.4</ele>
        <time>2018-02-08T12:44:45Z</time>
      </trkpt>
      <trkpt lat="62.647876029183" lon="17.855804241737">
        <ele>104.8</ele>
        <time>2018-02-08T12:44:46Z</time>
      </trkpt>
      <trkpt lat="62.647859935935" lon="17.85583667969">
        <ele>105.2</ele>
        <time>2018-02-08T12:44:47Z</time>
      </trkpt>
      <trkpt lat="62.647843758868" lon="17.855867608901">
        <ele>105.2</ele>
        <time>2018-02-08T12:44:48Z</time>
      </trkpt>
      <trkpt lat="62.647828419991" lon="17.855899041026">
        <ele>105.4</ele>
        <time>2018-02-08T12:44:49Z</time>
      </trkpt>
      <trkpt lat="62.647820624824" lon="17.855922929441">
        <ele>105.6</ele>
        <time>2018-02-08T12:44:50Z</time>
      </trkpt>
      <trkpt lat="62.647809979811" lon="17.855955786489">
        <ele>105.8</ele>
        <time>2018-02-08T12:44:51Z</time>
      </trkpt>
      <trkpt lat="62.647800592083" lon="17.855980513094">
        <ele>105.8</ele>
        <time>2018-02-08T12:44:52Z</time>
      </trkpt>
      <trkpt lat="62.647789276518" lon="17.85601689054">
        <ele>105.8</ele>
        <time>2018-02-08T12:44:53Z</time>
      </trkpt>
      <trkpt lat="62.647777038944" lon="17.856049077036">
        <ele>106.2</ele>
        <time>2018-02-08T12:44:54Z</time>
      </trkpt>
      <trkpt lat="62.64776396318" lon="17.856081012075">
        <ele>106.2</ele>
        <time>2018-02-08T12:44:55Z</time>
      </trkpt>
      <trkpt lat="62.647760358963" lon="17.856111019277">
        <ele>106.4</ele>
        <time>2018-02-08T12:44:56Z</time>
      </trkpt>
      <trkpt lat="62.647747450837" lon="17.85615351551">
        <ele>106.6</ele>
        <time>2018-02-08T12:44:57Z</time>
      </trkpt>
      <trkpt lat="62.647735297082" lon="17.856194000087">
        <ele>106.8</ele>
        <time>2018-02-08T12:44:58Z</time>
      </trkpt>
      <trkpt lat="62.647726663725" lon="17.856224091108">
        <ele>106.8</ele>
        <time>2018-02-08T12:44:59Z</time>
      </trkpt>
      <trkpt lat="62.647718281825" lon="17.85625409831">
        <ele>106.8</ele>
        <time>2018-02-08T12:45:00Z</time>
      </trkpt>
      <trkpt lat="62.647712749771" lon="17.856295840172">
        <ele>107</ele>
        <time>2018-02-08T12:45:01Z</time>
      </trkpt>
      <trkpt lat="62.647704786966" lon="17.856336324749">
        <ele>107.2</ele>
        <time>2018-02-08T12:45:02Z</time>
      </trkpt>
      <trkpt lat="62.64769858436" lon="17.856375803498">
        <ele>107.2</ele>
        <time>2018-02-08T12:45:03Z</time>
      </trkpt>
      <trkpt lat="62.647692633211" lon="17.856416455713">
        <ele>107.4</ele>
        <time>2018-02-08T12:45:04Z</time>
      </trkpt>
      <trkpt lat="62.647688945175" lon="17.856446798191">
        <ele>107.4</ele>
        <time>2018-02-08T12:45:05Z</time>
      </trkpt>
      <trkpt lat="62.647683832216" lon="17.856481750714">
        <ele>107.8</ele>
        <time>2018-02-08T12:45:06Z</time>
      </trkpt>
      <trkpt lat="62.647679892723" lon="17.856515194495">
        <ele>107.8</ele>
        <time>2018-02-08T12:45:07Z</time>
      </trkpt>
      <trkpt lat="62.647675869411" lon="17.856554254149">
        <ele>108</ele>
        <time>2018-02-08T12:45:08Z</time>
      </trkpt>
      <trkpt lat="62.647671846099" lon="17.856598342943">
        <ele>108.2</ele>
        <time>2018-02-08T12:45:09Z</time>
      </trkpt>
      <trkpt lat="62.647667236054" lon="17.856643186108">
        <ele>108.4</ele>
        <time>2018-02-08T12:45:10Z</time>
      </trkpt>
      <trkpt lat="62.647671259366" lon="17.856663302668">
        <ele>108.6</ele>
        <time>2018-02-08T12:45:11Z</time>
      </trkpt>
      <trkpt lat="62.647664972941" lon="17.856732285705">
        <ele>108.8</ele>
        <time>2018-02-08T12:45:12Z</time>
      </trkpt>
      <trkpt lat="62.647665811131" lon="17.85677293792">
        <ele>108.8</ele>
        <time>2018-02-08T12:45:13Z</time>
      </trkpt>
      <trkpt lat="62.64766673314" lon="17.856823816053">
        <ele>109</ele>
        <time>2018-02-08T12:45:14Z</time>
      </trkpt>
      <trkpt lat="62.647665811131" lon="17.856883579">
        <ele>108.8</ele>
        <time>2018-02-08T12:45:15Z</time>
      </trkpt>
      <trkpt lat="62.647673103384" lon="17.856910736356">
        <ele>109</ele>
        <time>2018-02-08T12:45:16Z</time>
      </trkpt>
      <trkpt lat="62.647661871638" lon="17.856984245619">
        <ele>109</ele>
        <time>2018-02-08T12:45:17Z</time>
      </trkpt>
      <trkpt lat="62.647655417575" lon="17.857046690774">
        <ele>109</ele>
        <time>2018-02-08T12:45:18Z</time>
      </trkpt>
      <trkpt lat="62.647646113666" lon="17.857120702951">
        <ele>109</ele>
        <time>2018-02-08T12:45:19Z</time>
      </trkpt>
      <trkpt lat="62.647632115893" lon="17.857174598568">
        <ele>109</ele>
        <time>2018-02-08T12:45:20Z</time>
      </trkpt>
      <trkpt lat="62.647619459224" lon="17.857250287125">
        <ele>109.2</ele>
        <time>2018-02-08T12:45:21Z</time>
      </trkpt>
      <trkpt lat="62.647610155315" lon="17.857316504135">
        <ele>109.2</ele>
        <time>2018-02-08T12:45:22Z</time>
      </trkpt>
      <trkpt lat="62.647606215822" lon="17.857380458032">
        <ele>109</ele>
        <time>2018-02-08T12:45:23Z</time>
      </trkpt>
      <trkpt lat="62.647601019044" lon="17.857451536544">
        <ele>109</ele>
        <time>2018-02-08T12:45:24Z</time>
      </trkpt>
      <trkpt lat="62.647596995732" lon="17.857519262296">
        <ele>108.8</ele>
        <time>2018-02-08T12:45:25Z</time>
      </trkpt>
      <trkpt lat="62.647590960764" lon="17.857597549242">
        <ele>108.4</ele>
        <time>2018-02-08T12:45:26Z</time>
      </trkpt>
      <trkpt lat="62.647585093434" lon="17.857666951374">
        <ele>108.2</ele>
        <time>2018-02-08T12:45:27Z</time>
      </trkpt>
      <trkpt lat="62.64757956138" lon="17.857731072909">
        <ele>108</ele>
        <time>2018-02-08T12:45:28Z</time>
      </trkpt>
      <trkpt lat="62.647576040982" lon="17.857797038462">
        <ele>107.8</ele>
        <time>2018-02-08T12:45:29Z</time>
      </trkpt>
      <trkpt lat="62.647573358774" lon="17.857850934079">
        <ele>107.8</ele>
        <time>2018-02-08T12:45:30Z</time>
      </trkpt>
      <trkpt lat="62.647570089833" lon="17.857915474709">
        <ele>107.8</ele>
        <time>2018-02-08T12:45:31Z</time>
      </trkpt>
      <trkpt lat="62.647566317978" lon="17.857970543792">
        <ele>107.8</ele>
        <time>2018-02-08T12:45:32Z</time>
      </trkpt>
      <trkpt lat="62.64756195939" lon="17.858020332278">
        <ele>107.8</ele>
        <time>2018-02-08T12:45:33Z</time>
      </trkpt>
      <trkpt lat="62.647559528639" lon="17.858063163787">
        <ele>108</ele>
        <time>2018-02-08T12:45:34Z</time>
      </trkpt>
      <trkpt lat="62.647554499499" lon="17.858114796291">
        <ele>107.8</ele>
        <time>2018-02-08T12:45:35Z</time>
      </trkpt>
      <trkpt lat="62.647547374884" lon="17.858171374116">
        <ele>107.8</ele>
        <time>2018-02-08T12:45:36Z</time>
      </trkpt>
      <trkpt lat="62.6475443574" lon="17.858213115978">
        <ele>108</ele>
        <time>2018-02-08T12:45:37Z</time>
      </trkpt>
      <trkpt lat="62.647541926649" lon="17.858266341043">
        <ele>108</ele>
        <time>2018-02-08T12:45:38Z</time>
      </trkpt>
      <trkpt lat="62.647538741527" lon="17.858326858361">
        <ele>108</ele>
        <time>2018-02-08T12:45:39Z</time>
      </trkpt>
      <trkpt lat="62.647535640224" lon="17.858383184729">
        <ele>108</ele>
        <time>2018-02-08T12:45:40Z</time>
      </trkpt>
      <trkpt lat="62.647535304948" lon="17.85841076118">
        <ele>108</ele>
        <time>2018-02-08T12:45:41Z</time>
      </trkpt>
      <trkpt lat="62.647526671591" lon="17.858491478877">
        <ele>108.2</ele>
        <time>2018-02-08T12:45:42Z</time>
      </trkpt>
      <trkpt lat="62.647529521437" lon="17.858542021734">
        <ele>108</ele>
        <time>2018-02-08T12:45:43Z</time>
      </trkpt>
      <trkpt lat="62.647529102342" lon="17.858606730002">
        <ele>108.2</ele>
        <time>2018-02-08T12:45:44Z</time>
      </trkpt>
      <trkpt lat="62.647526923048" lon="17.858676970324">
        <ele>108.2</ele>
        <time>2018-02-08T12:45:45Z</time>
      </trkpt>
      <trkpt lat="62.647530778722" lon="17.858709827372">
        <ele>108.2</ele>
        <time>2018-02-08T12:45:46Z</time>
      </trkpt>
      <trkpt lat="62.647534131482" lon="17.858790209793">
        <ele>108.2</ele>
        <time>2018-02-08T12:45:47Z</time>
      </trkpt>
      <trkpt lat="62.647533377111" lon="17.858848128722">
        <ele>108.2</ele>
        <time>2018-02-08T12:45:48Z</time>
      </trkpt>
      <trkpt lat="62.647534634396" lon="17.85889607319">
        <ele>108.2</ele>
        <time>2018-02-08T12:45:49Z</time>
      </trkpt>
      <trkpt lat="62.647526336315" lon="17.858955836137">
        <ele>108.2</ele>
        <time>2018-02-08T12:45:50Z</time>
      </trkpt>
      <trkpt lat="62.647521893908" lon="17.859017191645">
        <ele>108</ele>
        <time>2018-02-08T12:45:51Z</time>
      </trkpt>
      <trkpt lat="62.647522396822" lon="17.859060693706">
        <ele>108.2</ele>
        <time>2018-02-08T12:45:52Z</time>
      </trkpt>
      <trkpt lat="62.647503453728" lon="17.859129425286">
        <ele>108.2</ele>
        <time>2018-02-08T12:45:53Z</time>
      </trkpt>
      <trkpt lat="62.647495155647" lon="17.859174687546">
        <ele>108.2</ele>
        <time>2018-02-08T12:45:54Z</time>
      </trkpt>
      <trkpt lat="62.647490294145" lon="17.859224056937">
        <ele>108.2</ele>
        <time>2018-02-08T12:45:55Z</time>
      </trkpt>
      <trkpt lat="62.647484594453" lon="17.859273510147">
        <ele>108.2</ele>
        <time>2018-02-08T12:45:56Z</time>
      </trkpt>
      <trkpt lat="62.647476212553" lon="17.859313910905">
        <ele>108.2</ele>
        <time>2018-02-08T12:45:57Z</time>
      </trkpt>
      <trkpt lat="62.647477721295" lon="17.859350455989">
        <ele>108.2</ele>
        <time>2018-02-08T12:45:58Z</time>
      </trkpt>
      <trkpt lat="62.647462466237" lon="17.859416421542">
        <ele>108.4</ele>
        <time>2018-02-08T12:45:59Z</time>
      </trkpt>
      <trkpt lat="62.647455676898" lon="17.859469898064">
        <ele>108.4</ele>
        <time>2018-02-08T12:46:00Z</time>
      </trkpt>
      <trkpt lat="62.647448971378" lon="17.859512813392">
        <ele>108.4</ele>
        <time>2018-02-08T12:46:01Z</time>
      </trkpt>
      <trkpt lat="62.647438829279" lon="17.859558997661">
        <ele>108.4</ele>
        <time>2018-02-08T12:46:02Z</time>
      </trkpt>
      <trkpt lat="62.647425418239" lon="17.859609456699">
        <ele>108.4</ele>
        <time>2018-02-08T12:46:03Z</time>
      </trkpt>
      <trkpt lat="62.647413683579" lon="17.859660334832">
        <ele>108.6</ele>
        <time>2018-02-08T12:46:04Z</time>
      </trkpt>
      <trkpt lat="62.647407480973" lon="17.859699310667">
        <ele>108.8</ele>
        <time>2018-02-08T12:46:05Z</time>
      </trkpt>
      <trkpt lat="62.647388621698" lon="17.859757648691">
        <ele>108.8</ele>
        <time>2018-02-08T12:46:06Z</time>
      </trkpt>
      <trkpt lat="62.647373450459" lon="17.859801653666">
        <ele>108.8</ele>
        <time>2018-02-08T12:46:07Z</time>
      </trkpt>
      <trkpt lat="62.647361045247" lon="17.859838282569">
        <ele>108.8</ele>
        <time>2018-02-08T12:46:08Z</time>
      </trkpt>
      <trkpt lat="62.647344449085" lon="17.859885807942">
        <ele>109</ele>
        <time>2018-02-08T12:46:09Z</time>
      </trkpt>
      <trkpt lat="62.64732894257" lon="17.85992872327">
        <ele>109</ele>
        <time>2018-02-08T12:46:10Z</time>
      </trkpt>
      <trkpt lat="62.647317040272" lon="17.859956299721">
        <ele>109.2</ele>
        <time>2018-02-08T12:46:11Z</time>
      </trkpt>
      <trkpt lat="62.647297761902" lon="17.860002148714">
        <ele>109.2</ele>
        <time>2018-02-08T12:46:12Z</time>
      </trkpt>
      <trkpt lat="62.647279405541" lon="17.860046740422">
        <ele>109.4</ele>
        <time>2018-02-08T12:46:13Z</time>
      </trkpt>
      <trkpt lat="62.6472593728" lon="17.860095774537">
        <ele>109.4</ele>
        <time>2018-02-08T12:46:14Z</time>
      </trkpt>
      <trkpt lat="62.647239842973" lon="17.860145143928">
        <ele>109.4</ele>
        <time>2018-02-08T12:46:15Z</time>
      </trkpt>
      <trkpt lat="62.647224504096" lon="17.86019526769">
        <ele>109.4</ele>
        <time>2018-02-08T12:46:16Z</time>
      </trkpt>
      <trkpt lat="62.647199526034" lon="17.860253689533">
        <ele>109.6</ele>
        <time>2018-02-08T12:46:17Z</time>
      </trkpt>
      <trkpt lat="62.647180750578" lon="17.86030590877">
        <ele>109.6</ele>
        <time>2018-02-08T12:46:18Z</time>
      </trkpt>
      <trkpt lat="62.647166585167" lon="17.860355864894">
        <ele>109.6</ele>
        <time>2018-02-08T12:46:19Z</time>
      </trkpt>
      <trkpt lat="62.647135572137" lon="17.860404060819">
        <ele>109.6</ele>
        <time>2018-02-08T12:46:20Z</time>
      </trkpt>
      <trkpt lat="62.647106067849" lon="17.860445635043">
        <ele>109.4</ele>
        <time>2018-02-08T12:46:21Z</time>
      </trkpt>
      <trkpt lat="62.647083101443" lon="17.860484191783">
        <ele>109.4</ele>
        <time>2018-02-08T12:46:22Z</time>
      </trkpt>
      <trkpt lat="62.647054351526" lon="17.860509169845">
        <ele>109.2</ele>
        <time>2018-02-08T12:46:23Z</time>
      </trkpt>
      <trkpt lat="62.647027529446" lon="17.860536997753">
        <ele>109.2</ele>
        <time>2018-02-08T12:46:24Z</time>
      </trkpt>
      <trkpt lat="62.647006742334" lon="17.860563065462">
        <ele>109.2</ele>
        <time>2018-02-08T12:46:25Z</time>
      </trkpt>
      <trkpt lat="62.646987212507" lon="17.86058334966">
        <ele>109.4</ele>
        <time>2018-02-08T12:46:26Z</time>
      </trkpt>
      <trkpt lat="62.646953014355" lon="17.860612267215">
        <ele>109.4</ele>
        <time>2018-02-08T12:46:27Z</time>
      </trkpt>
      <trkpt lat="62.646930550863" lon="17.860637748191">
        <ele>109.6</ele>
        <time>2018-02-08T12:46:28Z</time>
      </trkpt>
      <trkpt lat="62.646895263064" lon="17.860671108153">
        <ele>109.6</ele>
        <time>2018-02-08T12:46:29Z</time>
      </trkpt>
      <trkpt lat="62.646869279174" lon="17.860707066504">
        <ele>109.8</ele>
        <time>2018-02-08T12:46:30Z</time>
      </trkpt>
      <trkpt lat="62.646841702723" lon="17.860735145869">
        <ele>109.8</ele>
        <time>2018-02-08T12:46:31Z</time>
      </trkpt>
      <trkpt lat="62.64681597029" lon="17.860770014573">
        <ele>109.8</ele>
        <time>2018-02-08T12:46:32Z</time>
      </trkpt>
      <trkpt lat="62.646798619757" lon="17.860802620164">
        <ele>109.6</ele>
        <time>2018-02-08T12:46:33Z</time>
      </trkpt>
      <trkpt lat="62.646757129352" lon="17.860838327058">
        <ele>109.6</ele>
        <time>2018-02-08T12:46:34Z</time>
      </trkpt>
      <trkpt lat="62.646726200141" lon="17.860874117771">
        <ele>109.2</ele>
        <time>2018-02-08T12:46:35Z</time>
      </trkpt>
      <trkpt lat="62.646698875147" lon="17.860908232104">
        <ele>109.2</ele>
        <time>2018-02-08T12:46:36Z</time>
      </trkpt>
      <trkpt lat="62.64667431618" lon="17.860944441912">
        <ele>109.2</ele>
        <time>2018-02-08T12:46:37Z</time>
      </trkpt>
      <trkpt lat="62.646649086661" lon="17.860975790218">
        <ele>109.2</ele>
        <time>2018-02-08T12:46:38Z</time>
      </trkpt>
      <trkpt lat="62.646627461359" lon="17.861001103556">
        <ele>109.4</ele>
        <time>2018-02-08T12:46:39Z</time>
      </trkpt>
      <trkpt lat="62.646611954844" lon="17.861024069962">
        <ele>109.4</ele>
        <time>2018-02-08T12:46:40Z</time>
      </trkpt>
      <trkpt lat="62.646599549632" lon="17.861041085219">
        <ele>109.4</ele>
        <time>2018-02-08T12:46:41Z</time>
      </trkpt>
      <trkpt lat="62.646569961525" lon="17.861058771028">
        <ele>109.4</ele>
        <time>2018-02-08T12:46:42Z</time>
      </trkpt>
      <trkpt lat="62.646549509689" lon="17.86107788176">
        <ele>109.4</ele>
        <time>2018-02-08T12:46:43Z</time>
      </trkpt>
      <trkpt lat="62.64652763293" lon="17.861099758519">
        <ele>109.4</ele>
        <time>2018-02-08T12:46:44Z</time>
      </trkpt>
      <trkpt lat="62.646504666524" lon="17.861124904219">
        <ele>109.6</ele>
        <time>2018-02-08T12:46:45Z</time>
      </trkpt>
      <trkpt lat="62.646477425349" lon="17.861151810118">
        <ele>109.6</ele>
        <time>2018-02-08T12:46:46Z</time>
      </trkpt>
      <trkpt lat="62.64645890135" lon="17.86117343542">
        <ele>109.6</ele>
        <time>2018-02-08T12:46:47Z</time>
      </trkpt>
      <trkpt lat="62.646425709026" lon="17.861202352975">
        <ele>109.8</ele>
        <time>2018-02-08T12:46:48Z</time>
      </trkpt>
      <trkpt lat="62.646401150059" lon="17.861233449824">
        <ele>109.8</ele>
        <time>2018-02-08T12:46:49Z</time>
      </trkpt>
      <trkpt lat="62.646384134802" lon="17.861257338239">
        <ele>109.8</ele>
        <time>2018-02-08T12:46:50Z</time>
      </trkpt>
      <trkpt lat="62.646360581663" lon="17.861281142835">
        <ele>109.8</ele>
        <time>2018-02-08T12:46:51Z</time>
      </trkpt>
      <trkpt lat="62.646343314949" lon="17.861306288535">
        <ele>109.8</ele>
        <time>2018-02-08T12:46:52Z</time>
      </trkpt>
      <trkpt lat="62.646322779294" lon="17.861327410923">
        <ele>109.8</ele>
        <time>2018-02-08T12:46:53Z</time>
      </trkpt>
      <trkpt lat="62.646305428761" lon="17.861346856931">
        <ele>109.8</ele>
        <time>2018-02-08T12:46:54Z</time>
      </trkpt>
      <trkpt lat="62.646289503151" lon="17.861365967663">
        <ele>110</ele>
        <time>2018-02-08T12:46:55Z</time>
      </trkpt>
      <trkpt lat="62.646268464582" lon="17.861386754775">
        <ele>110.4</ele>
        <time>2018-02-08T12:46:56Z</time>
      </trkpt>
      <trkpt lat="62.646248934755" lon="17.861422126393">
        <ele>110.6</ele>
        <time>2018-02-08T12:46:57Z</time>
      </trkpt>
      <trkpt lat="62.646232422412" lon="17.861455486355">
        <ele>111</ele>
        <time>2018-02-08T12:46:58Z</time>
      </trkpt>
      <trkpt lat="62.646216915897" lon="17.861488930136">
        <ele>111.2</ele>
        <time>2018-02-08T12:46:59Z</time>
      </trkpt>
      <trkpt lat="62.646198894812" lon="17.861530252903">
        <ele>111.4</ele>
        <time>2018-02-08T12:47:00Z</time>
      </trkpt>
      <trkpt lat="62.646181041365" lon="17.861575347525">
        <ele>111.4</ele>
        <time>2018-02-08T12:47:01Z</time>
      </trkpt>
      <trkpt lat="62.646155057475" lon="17.861641732173">
        <ele>111.6</ele>
        <time>2018-02-08T12:47:02Z</time>
      </trkpt>
      <trkpt lat="62.64613536001" lon="17.861702668586">
        <ele>111.8</ele>
        <time>2018-02-08T12:47:03Z</time>
      </trkpt>
      <trkpt lat="62.64611524345" lon="17.861763269723">
        <ele>111.8</ele>
        <time>2018-02-08T12:47:04Z</time>
      </trkpt>
      <trkpt lat="62.646092360863" lon="17.861831330751">
        <ele>111.8</ele>
        <time>2018-02-08T12:47:05Z</time>
      </trkpt>
      <trkpt lat="62.646071406113" lon="17.86189176425">
        <ele>111.6</ele>
        <time>2018-02-08T12:47:06Z</time>
      </trkpt>
      <trkpt lat="62.646049696992" lon="17.861952700663">
        <ele>111.4</ele>
        <time>2018-02-08T12:47:07Z</time>
      </trkpt>
      <trkpt lat="62.646032011183" lon="17.86200911085">
        <ele>111.4</ele>
        <time>2018-02-08T12:47:08Z</time>
      </trkpt>
      <trkpt lat="62.646005859655" lon="17.862070550177">
        <ele>111.2</ele>
        <time>2018-02-08T12:47:09Z</time>
      </trkpt>
      <trkpt lat="62.645983899077" lon="17.862136851006">
        <ele>111</ele>
        <time>2018-02-08T12:47:10Z</time>
      </trkpt>
      <trkpt lat="62.64596185468" lon="17.862181694171">
        <ele>111</ele>
        <time>2018-02-08T12:47:11Z</time>
      </trkpt>
      <trkpt lat="62.645932098935" lon="17.862244726059">
        <ele>110.6</ele>
        <time>2018-02-08T12:47:12Z</time>
      </trkpt>
      <trkpt lat="62.645914161669" lon="17.862299795142">
        <ele>110.6</ele>
        <time>2018-02-08T12:47:13Z</time>
      </trkpt>
      <trkpt lat="62.645896308222" lon="17.862346733782">
        <ele>110.4</ele>
        <time>2018-02-08T12:47:14Z</time>
      </trkpt>
      <trkpt lat="62.645880131155" lon="17.86240138377">
        <ele>110.2</ele>
        <time>2018-02-08T12:47:15Z</time>
      </trkpt>
      <trkpt lat="62.645865798106" lon="17.862458883604">
        <ele>110.2</ele>
        <time>2018-02-08T12:47:16Z</time>
      </trkpt>
      <trkpt lat="62.645859930776" lon="17.862519233284">
        <ele>110.2</ele>
        <time>2018-02-08T12:47:17Z</time>
      </trkpt>
      <trkpt lat="62.645852973799" lon="17.862578744774">
        <ele>110.2</ele>
        <time>2018-02-08T12:47:18Z</time>
      </trkpt>
      <trkpt lat="62.645845178632" lon="17.862649404191">
        <ele>110.2</ele>
        <time>2018-02-08T12:47:19Z</time>
      </trkpt>
      <trkpt lat="62.645837718741" lon="17.862713944821">
        <ele>110.2</ele>
        <time>2018-02-08T12:47:20Z</time>
      </trkpt>
      <trkpt lat="62.645835790904" lon="17.862765661144">
        <ele>110</ele>
        <time>2018-02-08T12:47:21Z</time>
      </trkpt>
      <trkpt lat="62.645831180859" lon="17.862831542878">
        <ele>109.8</ele>
        <time>2018-02-08T12:47:22Z</time>
      </trkpt>
      <trkpt lat="62.645831599954" lon="17.862877391871">
        <ele>109.6</ele>
        <time>2018-02-08T12:47:23Z</time>
      </trkpt>
      <trkpt lat="62.645829755936" lon="17.86294117813">
        <ele>109.6</ele>
        <time>2018-02-08T12:47:24Z</time>
      </trkpt>
      <trkpt lat="62.645829588298" lon="17.863000521982">
        <ele>109.6</ele>
        <time>2018-02-08T12:47:25Z</time>
      </trkpt>
      <trkpt lat="62.645833276334" lon="17.863036061238">
        <ele>109.8</ele>
        <time>2018-02-08T12:47:26Z</time>
      </trkpt>
      <trkpt lat="62.645828414832" lon="17.863120215514">
        <ele>109.8</ele>
        <time>2018-02-08T12:47:27Z</time>
      </trkpt>
      <trkpt lat="62.645837551103" lon="17.863182241574">
        <ele>109.8</ele>
        <time>2018-02-08T12:47:28Z</time>
      </trkpt>
      <trkpt lat="62.64584031713" lon="17.863231778603">
        <ele>109.8</ele>
        <time>2018-02-08T12:47:29Z</time>
      </trkpt>
      <trkpt lat="62.645846519736" lon="17.863286260953">
        <ele>109.8</ele>
        <time>2018-02-08T12:47:30Z</time>
      </trkpt>
      <trkpt lat="62.645853476713" lon="17.863337474362">
        <ele>109.6</ele>
        <time>2018-02-08T12:47:32Z</time>
      </trkpt>
      <trkpt lat="62.645865881925" lon="17.863360943682">
        <ele>109.6</ele>
        <time>2018-02-08T12:47:33Z</time>
      </trkpt>
      <trkpt lat="62.645872838902" lon="17.863425400493">
        <ele>109.6</ele>
        <time>2018-02-08T12:47:34Z</time>
      </trkpt>
      <trkpt lat="62.645888596874" lon="17.863485917811">
        <ele>109.6</ele>
        <time>2018-02-08T12:47:35Z</time>
      </trkpt>
      <trkpt lat="62.645891195263" lon="17.863557750694">
        <ele>109.6</ele>
        <time>2018-02-08T12:47:36Z</time>
      </trkpt>
      <trkpt lat="62.645889937978" lon="17.86361759746">
        <ele>109.8</ele>
        <time>2018-02-08T12:47:37Z</time>
      </trkpt>
      <trkpt lat="62.645894212747" lon="17.86367962352">
        <ele>109.8</ele>
        <time>2018-02-08T12:47:38Z</time>
      </trkpt>
      <trkpt lat="62.645898571335" lon="17.863741565761">
        <ele>109.8</ele>
        <time>2018-02-08T12:47:39Z</time>
      </trkpt>
      <trkpt lat="62.645903516656" lon="17.863783475261">
        <ele>110</ele>
        <time>2018-02-08T12:47:40Z</time>
      </trkpt>
      <trkpt lat="62.645908126701" lon="17.86384642333">
        <ele>110</ele>
        <time>2018-02-08T12:47:41Z</time>
      </trkpt>
      <trkpt lat="62.645914496945" lon="17.863889254839">
        <ele>110</ele>
        <time>2018-02-08T12:47:42Z</time>
      </trkpt>
      <trkpt lat="62.645923884673" lon="17.863944659198">
        <ele>110</ele>
        <time>2018-02-08T12:47:43Z</time>
      </trkpt>
      <trkpt lat="62.645934697324" lon="17.863993022761">
        <ele>110</ele>
        <time>2018-02-08T12:47:44Z</time>
      </trkpt>
      <trkpt lat="62.64594425269" lon="17.864026550361">
        <ele>110</ele>
        <time>2018-02-08T12:47:45Z</time>
      </trkpt>
      <trkpt lat="62.645951880219" lon="17.864056641382">
        <ele>110</ele>
        <time>2018-02-08T12:47:46Z</time>
      </trkpt>
      <trkpt lat="62.64596269287" lon="17.864083212005">
        <ele>110</ele>
        <time>2018-02-08T12:47:47Z</time>
      </trkpt>
      <trkpt lat="62.645975349539" lon="17.864122858392">
        <ele>110.2</ele>
        <time>2018-02-08T12:47:48Z</time>
      </trkpt>
      <trkpt lat="62.645996136651" lon="17.864151105395">
        <ele>110.2</ele>
        <time>2018-02-08T12:47:49Z</time>
      </trkpt>
      <trkpt lat="62.64601549884" lon="17.864177927475">
        <ele>110.4</ele>
        <time>2018-02-08T12:47:50Z</time>
      </trkpt>
      <trkpt lat="62.646032095002" lon="17.864178765665">
        <ele>110.4</ele>
        <time>2018-02-08T12:47:51Z</time>
      </trkpt>
      <trkpt lat="62.646051121915" lon="17.864190584144">
        <ele>110.4</ele>
        <time>2018-02-08T12:47:52Z</time>
      </trkpt>
      <trkpt lat="62.646083224592" lon="17.864217322405">
        <ele>110.6</ele>
        <time>2018-02-08T12:47:53Z</time>
      </trkpt>
      <trkpt lat="62.646104766075" lon="17.86422947616">
        <ele>110.6</ele>
        <time>2018-02-08T12:47:54Z</time>
      </trkpt>
      <trkpt lat="62.646126559015" lon="17.864240204992">
        <ele>110.6</ele>
        <time>2018-02-08T12:47:55Z</time>
      </trkpt>
      <trkpt lat="62.646151620896" lon="17.864253029299">
        <ele>110.8</ele>
        <time>2018-02-08T12:47:56Z</time>
      </trkpt>
      <trkpt lat="62.646171821275" lon="17.864264177226">
        <ele>110.8</ele>
        <time>2018-02-08T12:47:57Z</time>
      </trkpt>
      <trkpt lat="62.646188668894" lon="17.864266524158">
        <ele>111</ele>
        <time>2018-02-08T12:47:58Z</time>
      </trkpt>
      <trkpt lat="62.646214652784" lon="17.86427306204">
        <ele>111</ele>
        <time>2018-02-08T12:47:59Z</time>
      </trkpt>
      <trkpt lat="62.646237535371" lon="17.864275408972">
        <ele>111.2</ele>
        <time>2018-02-08T12:48:00Z</time>
      </trkpt>
      <trkpt lat="62.646260166501" lon="17.864283287958">
        <ele>111.2</ele>
        <time>2018-02-08T12:48:01Z</time>
      </trkpt>
      <trkpt lat="62.646272739351" lon="17.864277504447">
        <ele>111.4</ele>
        <time>2018-02-08T12:48:02Z</time>
      </trkpt>
      <trkpt lat="62.646303584743" lon="17.864289574383">
        <ele>111.6</ele>
        <time>2018-02-08T12:48:03Z</time>
      </trkpt>
      <trkpt lat="62.646325796778" lon="17.864289574383">
        <ele>111.6</ele>
        <time>2018-02-08T12:48:04Z</time>
      </trkpt>
      <trkpt lat="62.646339123999" lon="17.864286053985">
        <ele>111.8</ele>
        <time>2018-02-08T12:48:05Z</time>
      </trkpt>
      <trkpt lat="62.646362341862" lon="17.864289909659">
        <ele>111.8</ele>
        <time>2018-02-08T12:48:06Z</time>
      </trkpt>
      <trkpt lat="62.646390253589" lon="17.864284126148">
        <ele>112</ele>
        <time>2018-02-08T12:48:07Z</time>
      </trkpt>
      <trkpt lat="62.646413136176" lon="17.86427976756">
        <ele>111.8</ele>
        <time>2018-02-08T12:48:08Z</time>
      </trkpt>
      <trkpt lat="62.646439036247" lon="17.864282868863">
        <ele>112</ele>
        <time>2018-02-08T12:48:09Z</time>
      </trkpt>
      <trkpt lat="62.646470719829" lon="17.864282198311">
        <ele>112</ele>
        <time>2018-02-08T12:48:10Z</time>
      </trkpt>
      <trkpt lat="62.646488154181" lon="17.864271972393">
        <ele>112</ele>
        <time>2018-02-08T12:48:11Z</time>
      </trkpt>
      <trkpt lat="62.646507097275" lon="17.864271050384">
        <ele>112</ele>
        <time>2018-02-08T12:48:12Z</time>
      </trkpt>
      <trkpt lat="62.646536350106" lon="17.864268535814">
        <ele>112</ele>
        <time>2018-02-08T12:48:13Z</time>
      </trkpt>
      <trkpt lat="62.64656032234" lon="17.864264931597">
        <ele>112.2</ele>
        <time>2018-02-08T12:48:14Z</time>
      </trkpt>
      <trkpt lat="62.646597286519" lon="17.864276750076">
        <ele>112.2</ele>
        <time>2018-02-08T12:48:15Z</time>
      </trkpt>
      <trkpt lat="62.646629808291" lon="17.864288317098">
        <ele>112.2</ele>
        <time>2018-02-08T12:48:16Z</time>
      </trkpt>
      <trkpt lat="62.646662078606" lon="17.864307595468">
        <ele>112.4</ele>
        <time>2018-02-08T12:48:17Z</time>
      </trkpt>
      <trkpt lat="62.646707257047" lon="17.864338273222">
        <ele>112.4</ele>
        <time>2018-02-08T12:48:18Z</time>
      </trkpt>
      <trkpt lat="62.646747657805" lon="17.864368112786">
        <ele>112.2</ele>
        <time>2018-02-08T12:48:19Z</time>
      </trkpt>
      <trkpt lat="62.646785963088" lon="17.864392839391">
        <ele>112.2</ele>
        <time>2018-02-08T12:48:20Z</time>
      </trkpt>
      <trkpt lat="62.646818233403" lon="17.864409016458">
        <ele>111.8</ele>
        <time>2018-02-08T12:48:21Z</time>
      </trkpt>
      <trkpt lat="62.646847737691" lon="17.864434581253">
        <ele>111.6</ele>
        <time>2018-02-08T12:48:22Z</time>
      </trkpt>
      <trkpt lat="62.646879421273" lon="17.86445662565">
        <ele>111.2</ele>
        <time>2018-02-08T12:48:23Z</time>
      </trkpt>
      <trkpt lat="62.646911021036" lon="17.864479843513">
        <ele>110.6</ele>
        <time>2018-02-08T12:48:24Z</time>
      </trkpt>
      <trkpt lat="62.646938429849" lon="17.864499876254">
        <ele>110</ele>
        <time>2018-02-08T12:48:25Z</time>
      </trkpt>
      <trkpt lat="62.646963575549" lon="17.864519322262">
        <ele>109.6</ele>
        <time>2018-02-08T12:48:26Z</time>
      </trkpt>
      <trkpt lat="62.64699282838" lon="17.864534074406">
        <ele>109.2</ele>
        <time>2018-02-08T12:48:27Z</time>
      </trkpt>
      <trkpt lat="62.647025769247" lon="17.864554023328">
        <ele>108.8</ele>
        <time>2018-02-08T12:48:28Z</time>
      </trkpt>
      <trkpt lat="62.647059296847" lon="17.86457481044">
        <ele>108.6</ele>
        <time>2018-02-08T12:48:29Z</time>
      </trkpt>
      <trkpt lat="62.647096931578" lon="17.86459576519">
        <ele>108.2</ele>
        <time>2018-02-08T12:48:30Z</time>
      </trkpt>
      <trkpt lat="62.647133895757" lon="17.864612445171">
        <ele>108</ele>
        <time>2018-02-08T12:48:31Z</time>
      </trkpt>
      <trkpt lat="62.647167255719" lon="17.864638009966">
        <ele>107.4</ele>
        <time>2018-02-08T12:48:32Z</time>
      </trkpt>
      <trkpt lat="62.647194999808" lon="17.864658964716">
        <ele>107.2</ele>
        <time>2018-02-08T12:48:33Z</time>
      </trkpt>
      <trkpt lat="62.647235400566" lon="17.86468042238">
        <ele>106.6</ele>
        <time>2018-02-08T12:48:34Z</time>
      </trkpt>
      <trkpt lat="62.647272951478" lon="17.864706070994">
        <ele>106.4</ele>
        <time>2018-02-08T12:48:35Z</time>
      </trkpt>
      <trkpt lat="62.647318129919" lon="17.864722248061">
        <ele>106</ele>
        <time>2018-02-08T12:48:36Z</time>
      </trkpt>
      <trkpt lat="62.647376803219" lon="17.864747561399">
        <ele>105.6</ele>
        <time>2018-02-08T12:48:37Z</time>
      </trkpt>
      <trkpt lat="62.647424663868" lon="17.864767761778">
        <ele>105.4</ele>
        <time>2018-02-08T12:48:38Z</time>
      </trkpt>
      <trkpt lat="62.647465483721" lon="17.864785363768">
        <ele>105</ele>
        <time>2018-02-08T12:48:39Z</time>
      </trkpt>
      <trkpt lat="62.647506555031" lon="17.86480195993">
        <ele>104.6</ele>
        <time>2018-02-08T12:48:40Z</time>
      </trkpt>
      <trkpt lat="62.647547207246" lon="17.864818891368">
        <ele>104.2</ele>
        <time>2018-02-08T12:48:41Z</time>
      </trkpt>
      <trkpt lat="62.647581656855" lon="17.86483967848">
        <ele>103.6</ele>
        <time>2018-02-08T12:48:42Z</time>
      </trkpt>
      <trkpt lat="62.647633624635" lon="17.864879827781">
        <ele>102.8</ele>
        <time>2018-02-08T12:48:43Z</time>
      </trkpt>
      <trkpt lat="62.647676623782" lon="17.86493355576">
        <ele>102.2</ele>
        <time>2018-02-08T12:48:44Z</time>
      </trkpt>
      <trkpt lat="62.647716521626" lon="17.864996168553">
        <ele>101.6</ele>
        <time>2018-02-08T12:48:45Z</time>
      </trkpt>
      <trkpt lat="62.647758682583" lon="17.865076550974">
        <ele>101</ele>
        <time>2018-02-08T12:48:46Z</time>
      </trkpt>
      <trkpt lat="62.647791958726" lon="17.865114856257">
        <ele>100.4</ele>
        <time>2018-02-08T12:48:47Z</time>
      </trkpt>
      <trkpt lat="62.647833616769" lon="17.865183001104">
        <ele>100.2</ele>
        <time>2018-02-08T12:48:48Z</time>
      </trkpt>
      <trkpt lat="62.647866054722" lon="17.865252738512">
        <ele>99.8</ele>
        <time>2018-02-08T12:48:49Z</time>
      </trkpt>
      <trkpt lat="62.647899582322" lon="17.86527302271">
        <ele>99.8</ele>
        <time>2018-02-08T12:48:50Z</time>
      </trkpt>
      <trkpt lat="62.647931014447" lon="17.865331863648">
        <ele>99.8</ele>
        <time>2018-02-08T12:48:51Z</time>
      </trkpt>
      <trkpt lat="62.647965464056" lon="17.865379975754">
        <ele>100</ele>
        <time>2018-02-08T12:48:52Z</time>
      </trkpt>
      <trkpt lat="62.647995890353" lon="17.865421633797">
        <ele>100</ele>
        <time>2018-02-08T12:48:53Z</time>
      </trkpt>
      <trkpt lat="62.648016342189" lon="17.865478043984">
        <ele>99.8</ele>
        <time>2018-02-08T12:48:54Z</time>
      </trkpt>
      <trkpt lat="62.648040146785" lon="17.865528419203">
        <ele>100</ele>
        <time>2018-02-08T12:48:55Z</time>
      </trkpt>
      <trkpt lat="62.648066298313" lon="17.86556219826">
        <ele>99.8</ele>
        <time>2018-02-08T12:48:56Z</time>
      </trkpt>
      <trkpt lat="62.648091192556" lon="17.865612322022">
        <ele>99.8</ele>
        <time>2018-02-08T12:48:57Z</time>
      </trkpt>
      <trkpt lat="62.64811265022" lon="17.865652471323">
        <ele>99.8</ele>
        <time>2018-02-08T12:48:58Z</time>
      </trkpt>
      <trkpt lat="62.648137879739" lon="17.865695805746">
        <ele>99.8</ele>
        <time>2018-02-08T12:48:59Z</time>
      </trkpt>
      <trkpt lat="62.648162773982" lon="17.865730925907">
        <ele>99.8</ele>
        <time>2018-02-08T12:49:00Z</time>
      </trkpt>
      <trkpt lat="62.648196050125" lon="17.86575498196">
        <ele>100</ele>
        <time>2018-02-08T12:49:01Z</time>
      </trkpt>
      <trkpt lat="62.648232930485" lon="17.865812481794">
        <ele>99.8</ele>
        <time>2018-02-08T12:49:02Z</time>
      </trkpt>
      <trkpt lat="62.648265787533" lon="17.865843075729">
        <ele>99.8</ele>
        <time>2018-02-08T12:49:03Z</time>
      </trkpt>
      <trkpt lat="62.648301159151" lon="17.865900156468">
        <ele>99.4</ele>
        <time>2018-02-08T12:49:04Z</time>
      </trkpt>
      <trkpt lat="62.648335189665" lon="17.865944831995">
        <ele>99.2</ele>
        <time>2018-02-08T12:49:05Z</time>
      </trkpt>
      <trkpt lat="62.648368465808" lon="17.865997386508">
        <ele>98.8</ele>
        <time>2018-02-08T12:49:06Z</time>
      </trkpt>
      <trkpt lat="62.648407776919" lon="17.866082127517">
        <ele>98.4</ele>
        <time>2018-02-08T12:49:07Z</time>
      </trkpt>
      <trkpt lat="62.648438370854" lon="17.866162677576">
        <ele>97.6</ele>
        <time>2018-02-08T12:49:08Z</time>
      </trkpt>
      <trkpt lat="62.648463935649" lon="17.866254207924">
        <ele>97</ele>
        <time>2018-02-08T12:49:09Z</time>
      </trkpt>
      <trkpt lat="62.648484638942" lon="17.86635009686">
        <ele>96.6</ele>
        <time>2018-02-08T12:49:10Z</time>
      </trkpt>
      <trkpt lat="62.648503414398" lon="17.866442800674">
        <ele>96</ele>
        <time>2018-02-08T12:49:11Z</time>
      </trkpt>
      <trkpt lat="62.648518417999" lon="17.866541707094">
        <ele>95.8</ele>
        <time>2018-02-08T12:49:12Z</time>
      </trkpt>
      <trkpt lat="62.648539037473" lon="17.866673722019">
        <ele>95.4</ele>
        <time>2018-02-08T12:49:13Z</time>
      </trkpt>
      <trkpt lat="62.648559992223" lon="17.866788554049">
        <ele>95</ele>
        <time>2018-02-08T12:49:14Z</time>
      </trkpt>
      <trkpt lat="62.648580024964" lon="17.866904559545">
        <ele>94.4</ele>
        <time>2018-02-08T12:49:15Z</time>
      </trkpt>
      <trkpt lat="62.648598968058" lon="17.867007573096">
        <ele>94</ele>
        <time>2018-02-08T12:49:16Z</time>
      </trkpt>
      <trkpt lat="62.648616653867" lon="17.867106311878">
        <ele>93.8</ele>
        <time>2018-02-08T12:49:17Z</time>
      </trkpt>
      <trkpt lat="62.648632998572" lon="17.867221730641">
        <ele>93.2</ele>
        <time>2018-02-08T12:49:18Z</time>
      </trkpt>
      <trkpt lat="62.648647331621" lon="17.86730898622">
        <ele>93</ele>
        <time>2018-02-08T12:49:19Z</time>
      </trkpt>
      <trkpt lat="62.648658731005" lon="17.867401438577">
        <ele>92.8</ele>
        <time>2018-02-08T12:49:20Z</time>
      </trkpt>
      <trkpt lat="62.648673566968" lon="17.867498333341">
        <ele>92.4</ele>
        <time>2018-02-08T12:49:21Z</time>
      </trkpt>
      <trkpt lat="62.648690833682" lon="17.867571423509">
        <ele>92.4</ele>
        <time>2018-02-08T12:49:22Z</time>
      </trkpt>
      <trkpt lat="62.648707178387" lon="17.867631521732">
        <ele>92.4</ele>
        <time>2018-02-08T12:49:23Z</time>
      </trkpt>
      <trkpt lat="62.6487178234" lon="17.867724477003">
        <ele>92.6</ele>
        <time>2018-02-08T12:49:24Z</time>
      </trkpt>
      <trkpt lat="62.648733162277" lon="17.867791113108">
        <ele>92.8</ele>
        <time>2018-02-08T12:49:25Z</time>
      </trkpt>
      <trkpt lat="62.648743472014" lon="17.86785129515">
        <ele>92.8</ele>
        <time>2018-02-08T12:49:26Z</time>
      </trkpt>
      <trkpt lat="62.648753949389" lon="17.867921870748">
        <ele>93.2</ele>
        <time>2018-02-08T12:49:27Z</time>
      </trkpt>
      <trkpt lat="62.648769539723" lon="17.867989764138">
        <ele>93.4</ele>
        <time>2018-02-08T12:49:28Z</time>
      </trkpt>
      <trkpt lat="62.648785968247" lon="17.868055478234">
        <ele>93.4</ele>
        <time>2018-02-08T12:49:29Z</time>
      </trkpt>
      <trkpt lat="62.648806420083" lon="17.868112978068">
        <ele>93.4</ele>
        <time>2018-02-08T12:49:30Z</time>
      </trkpt>
      <trkpt lat="62.648825027901" lon="17.868190259186">
        <ele>93.2</ele>
        <time>2018-02-08T12:49:31Z</time>
      </trkpt>
      <trkpt lat="62.64884019914" lon="17.868263768449">
        <ele>93.2</ele>
        <time>2018-02-08T12:49:32Z</time>
      </trkpt>
      <trkpt lat="62.64886283027" lon="17.868319088989">
        <ele>93</ele>
        <time>2018-02-08T12:49:33Z</time>
      </trkpt>
      <trkpt lat="62.648884204115" lon="17.868402907989">
        <ele>92.8</ele>
        <time>2018-02-08T12:49:34Z</time>
      </trkpt>
      <trkpt lat="62.64890557796" lon="17.86847490851">
        <ele>92.6</ele>
        <time>2018-02-08T12:49:35Z</time>
      </trkpt>
      <trkpt lat="62.648923012312" lon="17.868538359493">
        <ele>92.6</ele>
        <time>2018-02-08T12:49:36Z</time>
      </trkpt>
      <trkpt lat="62.648948828564" lon="17.86861069529">
        <ele>92.6</ele>
        <time>2018-02-08T12:49:37Z</time>
      </trkpt>
      <trkpt lat="62.648971962608" lon="17.868655035541">
        <ele>92.6</ele>
        <time>2018-02-08T12:49:38Z</time>
      </trkpt>
      <trkpt lat="62.648992246806" lon="17.868739608912">
        <ele>92.4</ele>
        <time>2018-02-08T12:49:39Z</time>
      </trkpt>
      <trkpt lat="62.64901370447" lon="17.868798114574">
        <ele>92.4</ele>
        <time>2018-02-08T12:49:40Z</time>
      </trkpt>
      <trkpt lat="62.649029043347" lon="17.86884957944">
        <ele>92.2</ele>
        <time>2018-02-08T12:49:41Z</time>
      </trkpt>
      <trkpt lat="62.64904974664" lon="17.868913617156">
        <ele>92.2</ele>
        <time>2018-02-08T12:49:42Z</time>
      </trkpt>
      <trkpt lat="62.649075059978" lon="17.868957873588">
        <ele>92.2</ele>
        <time>2018-02-08T12:49:43Z</time>
      </trkpt>
      <trkpt lat="62.649105989189" lon="17.869048146651">
        <ele>92.2</ele>
        <time>2018-02-08T12:49:44Z</time>
      </trkpt>
      <trkpt lat="62.649127027758" lon="17.86910858015">
        <ele>92</ele>
        <time>2018-02-08T12:49:45Z</time>
      </trkpt>
      <trkpt lat="62.649150748535" lon="17.869168594554">
        <ele>92</ele>
        <time>2018-02-08T12:49:46Z</time>
      </trkpt>
      <trkpt lat="62.649184276135" lon="17.869225340017">
        <ele>92</ele>
        <time>2018-02-08T12:49:47Z</time>
      </trkpt>
      <trkpt lat="62.649206907265" lon="17.869299436013">
        <ele>91.6</ele>
        <time>2018-02-08T12:49:48Z</time>
      </trkpt>
      <trkpt lat="62.649233394069" lon="17.869359366598">
        <ele>91.2</ele>
        <time>2018-02-08T12:49:49Z</time>
      </trkpt>
      <trkpt lat="62.649257869217" lon="17.869420889744">
        <ele>91</ele>
        <time>2018-02-08T12:49:50Z</time>
      </trkpt>
      <trkpt lat="62.649283434012" lon="17.869486184745">
        <ele>91</ele>
        <time>2018-02-08T12:49:51Z</time>
      </trkpt>
      <trkpt lat="62.649305981323" lon="17.869554832506">
        <ele>90.8</ele>
        <time>2018-02-08T12:49:52Z</time>
      </trkpt>
      <trkpt lat="62.649334898878" lon="17.86960227406">
        <ele>90.8</ele>
        <time>2018-02-08T12:49:53Z</time>
      </trkpt>
      <trkpt lat="62.64936490608" lon="17.869670838002">
        <ele>90.6</ele>
        <time>2018-02-08T12:49:54Z</time>
      </trkpt>
      <trkpt lat="62.649393655997" lon="17.86973386989">
        <ele>90.6</ele>
        <time>2018-02-08T12:49:55Z</time>
      </trkpt>
      <trkpt lat="62.649420142801" lon="17.869792207914">
        <ele>90.4</ele>
        <time>2018-02-08T12:49:56Z</time>
      </trkpt>
      <trkpt lat="62.649449311813" lon="17.869830597016">
        <ele>90.4</ele>
        <time>2018-02-08T12:49:57Z</time>
      </trkpt>
      <trkpt lat="62.6494721944" lon="17.869890946696">
        <ele>90</ele>
        <time>2018-02-08T12:49:58Z</time>
      </trkpt>
      <trkpt lat="62.649505470543" lon="17.869960013552">
        <ele>89.8</ele>
        <time>2018-02-08T12:49:59Z</time>
      </trkpt>
      <trkpt lat="62.649536148297" lon="17.870027990761">
        <ele>89.4</ele>
        <time>2018-02-08T12:50:00Z</time>
      </trkpt>
      <trkpt lat="62.649570681725" lon="17.870083059844">
        <ele>89</ele>
        <time>2018-02-08T12:50:01Z</time>
      </trkpt>
      <trkpt lat="62.649601108022" lon="17.870151372329">
        <ele>88.6</ele>
        <time>2018-02-08T12:50:02Z</time>
      </trkpt>
      <trkpt lat="62.649635892907" lon="17.87023259294">
        <ele>88.2</ele>
        <time>2018-02-08T12:50:03Z</time>
      </trkpt>
      <trkpt lat="62.649667744127" lon="17.870309035868">
        <ele>87.8</ele>
        <time>2018-02-08T12:50:04Z</time>
      </trkpt>
      <trkpt lat="62.649702026098" lon="17.870360416915">
        <ele>87.4</ele>
        <time>2018-02-08T12:50:05Z</time>
      </trkpt>
      <trkpt lat="62.649730273101" lon="17.870449516512">
        <ele>87.2</ele>
        <time>2018-02-08T12:50:06Z</time>
      </trkpt>
      <trkpt lat="62.649763213968" lon="17.870528054915">
        <ele>87</ele>
        <time>2018-02-08T12:50:07Z</time>
      </trkpt>
      <trkpt lat="62.649788694944" lon="17.870610365173">
        <ele>86.8</ele>
        <time>2018-02-08T12:50:08Z</time>
      </trkpt>
      <trkpt lat="62.649810320246" lon="17.870690160861">
        <ele>86.8</ele>
        <time>2018-02-08T12:50:09Z</time>
      </trkpt>
      <trkpt lat="62.649827167865" lon="17.870767609617">
        <ele>86.8</ele>
        <time>2018-02-08T12:50:10Z</time>
      </trkpt>
      <trkpt lat="62.649844266941" lon="17.870838436672">
        <ele>86.8</ele>
        <time>2018-02-08T12:50:11Z</time>
      </trkpt>
      <trkpt lat="62.649865137872" lon="17.870905324234">
        <ele>86.6</ele>
        <time>2018-02-08T12:50:12Z</time>
      </trkpt>
      <trkpt lat="62.649880057654" lon="17.870999285333">
        <ele>86.6</ele>
        <time>2018-02-08T12:50:13Z</time>
      </trkpt>
      <trkpt lat="62.649897240549" lon="17.871063909782">
        <ele>86.4</ele>
        <time>2018-02-08T12:50:14Z</time>
      </trkpt>
      <trkpt lat="62.64991559691" lon="17.871134317742">
        <ele>86.4</ele>
        <time>2018-02-08T12:50:15Z</time>
      </trkpt>
      <trkpt lat="62.649935462013" lon="17.871208665195">
        <ele>86.4</ele>
        <time>2018-02-08T12:50:16Z</time>
      </trkpt>
      <trkpt lat="62.649951722899" lon="17.871273541101">
        <ele>86.2</ele>
        <time>2018-02-08T12:50:17Z</time>
      </trkpt>
      <trkpt lat="62.649959518066" lon="17.87135828211">
        <ele>86.2</ele>
        <time>2018-02-08T12:50:18Z</time>
      </trkpt>
      <trkpt lat="62.649976198047" lon="17.871431456097">
        <ele>86.2</ele>
        <time>2018-02-08T12:50:19Z</time>
      </trkpt>
      <trkpt lat="62.649999583548" lon="17.871492811605">
        <ele>86</ele>
        <time>2018-02-08T12:50:20Z</time>
      </trkpt>
      <trkpt lat="62.650006372887" lon="17.8715770497">
        <ele>85.8</ele>
        <time>2018-02-08T12:50:21Z</time>
      </trkpt>
      <trkpt lat="62.650012491674" lon="17.871646200375">
        <ele>85.8</ele>
        <time>2018-02-08T12:50:22Z</time>
      </trkpt>
      <trkpt lat="62.650026321809" lon="17.871688864246">
        <ele>85.8</ele>
        <time>2018-02-08T12:50:23Z</time>
      </trkpt>
      <trkpt lat="62.650038978478" lon="17.871755919446">
        <ele>85.8</ele>
        <time>2018-02-08T12:50:24Z</time>
      </trkpt>
      <trkpt lat="62.650052138061" lon="17.871803109543">
        <ele>85.8</ele>
        <time>2018-02-08T12:50:25Z</time>
      </trkpt>
      <trkpt lat="62.65006814749" lon="17.871845019043">
        <ele>85.8</ele>
        <time>2018-02-08T12:50:26Z</time>
      </trkpt>
      <trkpt lat="62.650079127779" lon="17.871905117266">
        <ele>85.6</ele>
        <time>2018-02-08T12:50:27Z</time>
      </trkpt>
      <trkpt lat="62.65008658767" lon="17.871960773082">
        <ele>85.8</ele>
        <time>2018-02-08T12:50:28Z</time>
      </trkpt>
      <trkpt lat="62.650099663434" lon="17.872009471921">
        <ele>85.8</ele>
        <time>2018-02-08T12:50:29Z</time>
      </trkpt>
      <trkpt lat="62.65010670423" lon="17.872056913475">
        <ele>85.8</ele>
        <time>2018-02-08T12:50:30Z</time>
      </trkpt>
      <trkpt lat="62.650119109442" lon="17.87209169836">
        <ele>85.8</ele>
        <time>2018-02-08T12:50:31Z</time>
      </trkpt>
      <trkpt lat="62.650123216573" lon="17.872159172655">
        <ele>86</ele>
        <time>2018-02-08T12:50:32Z</time>
      </trkpt>
      <trkpt lat="62.650127575161" lon="17.872212313901">
        <ele>86</ele>
        <time>2018-02-08T12:50:33Z</time>
      </trkpt>
      <trkpt lat="62.65012346803" lon="17.872267550622">
        <ele>86</ele>
        <time>2018-02-08T12:50:34Z</time>
      </trkpt>
      <trkpt lat="62.650117684519" lon="17.872320691868">
        <ele>86</ele>
        <time>2018-02-08T12:50:35Z</time>
      </trkpt>
      <trkpt lat="62.650107290963" lon="17.872356231124">
        <ele>86</ele>
        <time>2018-02-08T12:50:36Z</time>
      </trkpt>
      <trkpt lat="62.650082815815" lon="17.872384142851">
        <ele>86</ele>
        <time>2018-02-08T12:50:37Z</time>
      </trkpt>
      <trkpt lat="62.650069153318" lon="17.872403421221">
        <ele>86</ele>
        <time>2018-02-08T12:50:38Z</time>
      </trkpt>
      <trkpt lat="62.650054065898" lon="17.8724152397">
        <ele>86.4</ele>
        <time>2018-02-08T12:50:39Z</time>
      </trkpt>
      <trkpt lat="62.65004300179" lon="17.87242194522">
        <ele>86.4</ele>
        <time>2018-02-08T12:50:40Z</time>
      </trkpt>
      <trkpt lat="62.65003126713" lon="17.872391602742">
        <ele>86.6</ele>
        <time>2018-02-08T12:50:41Z</time>
      </trkpt>
      <trkpt lat="62.650026154171" lon="17.872365199757">
        <ele>86.6</ele>
        <time>2018-02-08T12:50:42Z</time>
      </trkpt>
      <trkpt lat="62.650016850262" lon="17.872317339108">
        <ele>86.6</ele>
        <time>2018-02-08T12:50:43Z</time>
      </trkpt>
      <trkpt lat="62.65001282695" lon="17.872265036052">
        <ele>86.8</ele>
        <time>2018-02-08T12:50:44Z</time>
      </trkpt>
      <trkpt lat="62.650009977104" lon="17.872209296417">
        <ele>86.6</ele>
        <time>2018-02-08T12:50:45Z</time>
      </trkpt>
      <trkpt lat="62.650009977104" lon="17.872153892058">
        <ele>86.6</ele>
        <time>2018-02-08T12:50:46Z</time>
      </trkpt>
      <trkpt lat="62.65000360686" lon="17.872093626197">
        <ele>86.4</ele>
        <time>2018-02-08T12:50:47Z</time>
      </trkpt>
      <trkpt lat="62.649992375114" lon="17.872049453584">
        <ele>86.4</ele>
        <time>2018-02-08T12:50:48Z</time>
      </trkpt>
      <trkpt lat="62.649982484472" lon="17.871999413641">
        <ele>86.2</ele>
        <time>2018-02-08T12:50:49Z</time>
      </trkpt>
      <trkpt lat="62.649970833631" lon="17.871949457517">
        <ele>86.2</ele>
        <time>2018-02-08T12:50:50Z</time>
      </trkpt>
      <trkpt lat="62.649958512238" lon="17.87190813475">
        <ele>86.2</ele>
        <time>2018-02-08T12:50:51Z</time>
      </trkpt>
      <trkpt lat="62.649944514465" lon="17.871852395115">
        <ele>86</ele>
        <time>2018-02-08T12:50:52Z</time>
      </trkpt>
      <trkpt lat="62.649933366538" lon="17.871808138683">
        <ele>86</ele>
        <time>2018-02-08T12:50:53Z</time>
      </trkpt>
      <trkpt lat="62.649921548059" lon="17.871760110396">
        <ele>85.8</ele>
        <time>2018-02-08T12:50:54Z</time>
      </trkpt>
      <trkpt lat="62.649908472295" lon="17.871705711865">
        <ele>85.8</ele>
        <time>2018-02-08T12:50:55Z</time>
      </trkpt>
      <trkpt lat="62.649897827282" lon="17.871662628899">
        <ele>85.8</ele>
        <time>2018-02-08T12:50:56Z</time>
      </trkpt>
      <trkpt lat="62.649886763174" lon="17.871613343327">
        <ele>85.6</ele>
        <time>2018-02-08T12:50:57Z</time>
      </trkpt>
      <trkpt lat="62.649873855048" lon="17.871555592036">
        <ele>85.6</ele>
        <time>2018-02-08T12:50:58Z</time>
      </trkpt>
      <trkpt lat="62.649862623302" lon="17.871509072491">
        <ele>85.6</ele>
        <time>2018-02-08T12:50:59Z</time>
      </trkpt>
      <trkpt lat="62.649850888642" lon="17.871453081399">
        <ele>85.6</ele>
        <time>2018-02-08T12:51:00Z</time>
      </trkpt>
      <trkpt lat="62.649839740715" lon="17.871398599049">
        <ele>85.4</ele>
        <time>2018-02-08T12:51:01Z</time>
      </trkpt>
      <trkpt lat="62.649830520625" lon="17.871347720916">
        <ele>85.4</ele>
        <time>2018-02-08T12:51:02Z</time>
      </trkpt>
      <trkpt lat="62.649818199232" lon="17.871297597154">
        <ele>85.4</ele>
        <time>2018-02-08T12:51:03Z</time>
      </trkpt>
      <trkpt lat="62.649803950002" lon="17.871242863347">
        <ele>85.6</ele>
        <time>2018-02-08T12:51:04Z</time>
      </trkpt>
      <trkpt lat="62.649793724084" lon="17.871205982987">
        <ele>85.4</ele>
        <time>2018-02-08T12:51:05Z</time>
      </trkpt>
      <trkpt lat="62.649781905605" lon="17.87116298384">
        <ele>85.6</ele>
        <time>2018-02-08T12:51:06Z</time>
      </trkpt>
      <trkpt lat="62.649768578384" lon="17.871104394359">
        <ele>85.6</ele>
        <time>2018-02-08T12:51:07Z</time>
      </trkpt>
      <trkpt lat="62.649756759905" lon="17.871061898126">
        <ele>85.6</ele>
        <time>2018-02-08T12:51:08Z</time>
      </trkpt>
      <trkpt lat="62.649745192883" lon="17.871020072445">
        <ele>85.8</ele>
        <time>2018-02-08T12:51:09Z</time>
      </trkpt>
      <trkpt lat="62.649731362748" lon="17.870974642547">
        <ele>85.8</ele>
        <time>2018-02-08T12:51:10Z</time>
      </trkpt>
      <trkpt lat="62.64971778407" lon="17.870927787726">
        <ele>85.8</ele>
        <time>2018-02-08T12:51:11Z</time>
      </trkpt>
      <trkpt lat="62.649709737446" lon="17.870895852687">
        <ele>86</ele>
        <time>2018-02-08T12:51:12Z</time>
      </trkpt>
      <trkpt lat="62.64969682932" lon="17.870844890735">
        <ele>86</ele>
        <time>2018-02-08T12:51:13Z</time>
      </trkpt>
      <trkpt lat="62.649686435764" lon="17.870803987063">
        <ele>86</ele>
        <time>2018-02-08T12:51:14Z</time>
      </trkpt>
      <trkpt lat="62.649676209846" lon="17.870762748115">
        <ele>86.2</ele>
        <time>2018-02-08T12:51:15Z</time>
      </trkpt>
      <trkpt lat="62.649663385539" lon="17.870717569674">
        <ele>86.2</ele>
        <time>2018-02-08T12:51:16Z</time>
      </trkpt>
      <trkpt lat="62.649650812689" lon="17.870680437857">
        <ele>86.2</ele>
        <time>2018-02-08T12:51:17Z</time>
      </trkpt>
      <trkpt lat="62.64963731783" lon="17.870646574981">
        <ele>86.4</ele>
        <time>2018-02-08T12:51:18Z</time>
      </trkpt>
      <trkpt lat="62.649621978953" lon="17.870607180051">
        <ele>86.4</ele>
        <time>2018-02-08T12:51:19Z</time>
      </trkpt>
      <trkpt lat="62.649609741379" lon="17.87057708903">
        <ele>86.4</ele>
        <time>2018-02-08T12:51:20Z</time>
      </trkpt>
      <trkpt lat="62.649597503805" lon="17.870541382136">
        <ele>86.6</ele>
        <time>2018-02-08T12:51:21Z</time>
      </trkpt>
      <trkpt lat="62.64958283548" lon="17.870495114048">
        <ele>86.6</ele>
        <time>2018-02-08T12:51:22Z</time>
      </trkpt>
      <trkpt lat="62.649569927354" lon="17.870461837905">
        <ele>86.8</ele>
        <time>2018-02-08T12:51:23Z</time>
      </trkpt>
      <trkpt lat="62.649554420839" lon="17.870425544278">
        <ele>86.8</ele>
        <time>2018-02-08T12:51:24Z</time>
      </trkpt>
      <trkpt lat="62.649537321763" lon="17.870392938687">
        <ele>87</ele>
        <time>2018-02-08T12:51:25Z</time>
      </trkpt>
      <trkpt lat="62.649526341474" lon="17.870370559014">
        <ele>87</ele>
        <time>2018-02-08T12:51:26Z</time>
      </trkpt>
      <trkpt lat="62.649512678977" lon="17.870342479649">
        <ele>87</ele>
        <time>2018-02-08T12:51:27Z</time>
      </trkpt>
      <trkpt lat="62.649497088643" lon="17.870308449135">
        <ele>87.2</ele>
        <time>2018-02-08T12:51:28Z</time>
      </trkpt>
      <trkpt lat="62.649481246852" lon="17.870270143852">
        <ele>87.2</ele>
        <time>2018-02-08T12:51:29Z</time>
      </trkpt>
      <trkpt lat="62.649468590183" lon="17.870251368396">
        <ele>87.2</ele>
        <time>2018-02-08T12:51:30Z</time>
      </trkpt>
      <trkpt lat="62.649455514419" lon="17.870228150533">
        <ele>87.4</ele>
        <time>2018-02-08T12:51:31Z</time>
      </trkpt>
      <trkpt lat="62.649438582981" lon="17.870196886046">
        <ele>87.4</ele>
        <time>2018-02-08T12:51:32Z</time>
      </trkpt>
      <trkpt lat="62.649423411742" lon="17.870165873016">
        <ele>87.6</ele>
        <time>2018-02-08T12:51:33Z</time>
      </trkpt>
      <trkpt lat="62.649408827236" lon="17.870136033452">
        <ele>87.8</ele>
        <time>2018-02-08T12:51:34Z</time>
      </trkpt>
      <trkpt lat="62.649395416196" lon="17.87010602625">
        <ele>87.8</ele>
        <time>2018-02-08T12:51:35Z</time>
      </trkpt>
      <trkpt lat="62.649382340432" lon="17.870089094812">
        <ele>88</ele>
        <time>2018-02-08T12:51:36Z</time>
      </trkpt>
      <trkpt lat="62.649366917736" lon="17.87006076399">
        <ele>88.2</ele>
        <time>2018-02-08T12:51:37Z</time>
      </trkpt>
      <trkpt lat="62.649351997954" lon="17.870034277186">
        <ele>88.4</ele>
        <time>2018-02-08T12:51:38Z</time>
      </trkpt>
      <trkpt lat="62.649338335457" lon="17.870012484246">
        <ele>88.6</ele>
        <time>2018-02-08T12:51:39Z</time>
      </trkpt>
      <trkpt lat="62.649322661304" lon="17.86998281232">
        <ele>88.8</ele>
        <time>2018-02-08T12:51:40Z</time>
      </trkpt>
      <trkpt lat="62.649305059314" lon="17.869944842313">
        <ele>88.8</ele>
        <time>2018-02-08T12:51:41Z</time>
      </trkpt>
      <trkpt lat="62.649288211695" lon="17.869925899219">
        <ele>88.8</ele>
        <time>2018-02-08T12:51:42Z</time>
      </trkpt>
      <trkpt lat="62.649270861162" lon="17.869896311112">
        <ele>89</ele>
        <time>2018-02-08T12:51:43Z</time>
      </trkpt>
      <trkpt lat="62.649251163697" lon="17.869866136272">
        <ele>89</ele>
        <time>2018-02-08T12:51:44Z</time>
      </trkpt>
      <trkpt lat="62.649236579191" lon="17.869844427151">
        <ele>89</ele>
        <time>2018-02-08T12:51:45Z</time>
      </trkpt>
      <trkpt lat="62.649221743228" lon="17.869817102157">
        <ele>89.2</ele>
        <time>2018-02-08T12:51:46Z</time>
      </trkpt>
      <trkpt lat="62.649205063247" lon="17.869782820186">
        <ele>89.2</ele>
        <time>2018-02-08T12:51:47Z</time>
      </trkpt>
      <trkpt lat="62.649191736026" lon="17.869756920115">
        <ele>89.4</ele>
        <time>2018-02-08T12:51:48Z</time>
      </trkpt>
      <trkpt lat="62.649181091013" lon="17.869726996732">
        <ele>89.4</ele>
        <time>2018-02-08T12:51:49Z</time>
      </trkpt>
      <trkpt lat="62.649171116552" lon="17.869689194363">
        <ele>89.4</ele>
        <time>2018-02-08T12:51:50Z</time>
      </trkpt>
      <trkpt lat="62.649160974453" lon="17.869658851885">
        <ele>89.6</ele>
        <time>2018-02-08T12:51:51Z</time>
      </trkpt>
      <trkpt lat="62.649148066327" lon="17.869623731724">
        <ele>89.6</ele>
        <time>2018-02-08T12:51:52Z</time>
      </trkpt>
      <trkpt lat="62.649135409658" lon="17.86958634845">
        <ele>89.8</ele>
        <time>2018-02-08T12:51:53Z</time>
      </trkpt>
      <trkpt lat="62.649123088265" lon="17.869551563565">
        <ele>89.8</ele>
        <time>2018-02-08T12:51:54Z</time>
      </trkpt>
      <trkpt lat="62.649111185967" lon="17.869520718173">
        <ele>90</ele>
        <time>2018-02-08T12:51:55Z</time>
      </trkpt>
      <trkpt lat="62.649097774927" lon="17.869486352383">
        <ele>90.2</ele>
        <time>2018-02-08T12:51:56Z</time>
      </trkpt>
      <trkpt lat="62.649085285896" lon="17.869452489507">
        <ele>90.2</ele>
        <time>2018-02-08T12:51:57Z</time>
      </trkpt>
      <trkpt lat="62.649072796865" lon="17.869419800097">
        <ele>90.4</ele>
        <time>2018-02-08T12:51:58Z</time>
      </trkpt>
      <trkpt lat="62.649057122712" lon="17.869387445963">
        <ele>90.4</ele>
        <time>2018-02-08T12:51:59Z</time>
      </trkpt>
      <trkpt lat="62.649042789663" lon="17.869358863684">
        <ele>90.6</ele>
        <time>2018-02-08T12:52:00Z</time>
      </trkpt>
      <trkpt lat="62.64902963008" lon="17.869328269749">
        <ele>90.6</ele>
        <time>2018-02-08T12:52:01Z</time>
      </trkpt>
      <trkpt lat="62.649012111909" lon="17.869290132104">
        <ele>90.6</ele>
        <time>2018-02-08T12:52:02Z</time>
      </trkpt>
      <trkpt lat="62.648995934842" lon="17.869264232033">
        <ele>90.6</ele>
        <time>2018-02-08T12:52:03Z</time>
      </trkpt>
      <trkpt lat="62.648981685612" lon="17.869236404125">
        <ele>90.8</ele>
        <time>2018-02-08T12:52:04Z</time>
      </trkpt>
      <trkpt lat="62.648968358391" lon="17.86920581019">
        <ele>90.8</ele>
        <time>2018-02-08T12:52:05Z</time>
      </trkpt>
      <trkpt lat="62.648954444437" lon="17.869172869323">
        <ele>90.8</ele>
        <time>2018-02-08T12:52:06Z</time>
      </trkpt>
      <trkpt lat="62.648939524655" lon="17.869136827153">
        <ele>90.8</ele>
        <time>2018-02-08T12:52:07Z</time>
      </trkpt>
      <trkpt lat="62.648924101959" lon="17.869098438051">
        <ele>91</ele>
        <time>2018-02-08T12:52:08Z</time>
      </trkpt>
      <trkpt lat="62.648911529109" lon="17.869065664822">
        <ele>91.2</ele>
        <time>2018-02-08T12:52:09Z</time>
      </trkpt>
      <trkpt lat="62.648899542992" lon="17.869028533005">
        <ele>91.2</ele>
        <time>2018-02-08T12:52:10Z</time>
      </trkpt>
      <trkpt lat="62.648887221599" lon="17.868987964609">
        <ele>91.2</ele>
        <time>2018-02-08T12:52:11Z</time>
      </trkpt>
      <trkpt lat="62.648871044532" lon="17.868960136701">
        <ele>91.6</ele>
        <time>2018-02-08T12:52:12Z</time>
      </trkpt>
      <trkpt lat="62.648857046759" lon="17.868926944377">
        <ele>91.6</ele>
        <time>2018-02-08T12:52:13Z</time>
      </trkpt>
      <trkpt lat="62.648842378434" lon="17.868886208343">
        <ele>91.6</ele>
        <time>2018-02-08T12:52:14Z</time>
      </trkpt>
      <trkpt lat="62.648830811412" lon="17.86885209401">
        <ele>91.6</ele>
        <time>2018-02-08T12:52:15Z</time>
      </trkpt>
      <trkpt lat="62.648821842779" lon="17.868816806211">
        <ele>91.6</ele>
        <time>2018-02-08T12:52:16Z</time>
      </trkpt>
      <trkpt lat="62.648809018472" lon="17.868773723245">
        <ele>91.8</ele>
        <time>2018-02-08T12:52:17Z</time>
      </trkpt>
      <trkpt lat="62.648795104518" lon="17.868732316659">
        <ele>91.8</ele>
        <time>2018-02-08T12:52:18Z</time>
      </trkpt>
      <trkpt lat="62.648782447849" lon="17.868689568969">
        <ele>92</ele>
        <time>2018-02-08T12:52:19Z</time>
      </trkpt>
      <trkpt lat="62.648771132284" lon="17.868650760772">
        <ele>92</ele>
        <time>2018-02-08T12:52:20Z</time>
      </trkpt>
      <trkpt lat="62.648760654909" lon="17.868608599815">
        <ele>92.2</ele>
        <time>2018-02-08T12:52:21Z</time>
      </trkpt>
      <trkpt lat="62.648746740955" lon="17.868553027818">
        <ele>92.4</ele>
        <time>2018-02-08T12:52:22Z</time>
      </trkpt>
      <trkpt lat="62.648736095942" lon="17.868512962336">
        <ele>92.4</ele>
        <time>2018-02-08T12:52:23Z</time>
      </trkpt>
      <trkpt lat="62.648725199472" lon="17.868460240185">
        <ele>92.4</ele>
        <time>2018-02-08T12:52:24Z</time>
      </trkpt>
      <trkpt lat="62.648713967726" lon="17.868402740351">
        <ele>92.6</ele>
        <time>2018-02-08T12:52:25Z</time>
      </trkpt>
      <trkpt lat="62.648704496179" lon="17.868360244118">
        <ele>92.6</ele>
        <time>2018-02-08T12:52:26Z</time>
      </trkpt>
      <trkpt lat="62.648693264433" lon="17.868308024881">
        <ele>92.6</ele>
        <time>2018-02-08T12:52:27Z</time>
      </trkpt>
      <trkpt lat="62.648683373791" lon="17.868259661318">
        <ele>92.6</ele>
        <time>2018-02-08T12:52:28Z</time>
      </trkpt>
      <trkpt lat="62.648678512289" lon="17.868218254732">
        <ele>92.6</ele>
        <time>2018-02-08T12:52:29Z</time>
      </trkpt>
      <trkpt lat="62.64867088476" lon="17.868167711875">
        <ele>92.6</ele>
        <time>2018-02-08T12:52:30Z</time>
      </trkpt>
      <trkpt lat="62.64866082648" lon="17.868118258665">
        <ele>92.8</ele>
        <time>2018-02-08T12:52:31Z</time>
      </trkpt>
      <trkpt lat="62.648652025485" lon="17.86807173912">
        <ele>92.8</ele>
        <time>2018-02-08T12:52:32Z</time>
      </trkpt>
      <trkpt lat="62.648643475947" lon="17.868021196263">
        <ele>93</ele>
        <time>2018-02-08T12:52:33Z</time>
      </trkpt>
      <trkpt lat="62.648634423495" lon="17.867969815216">
        <ele>93</ele>
        <time>2018-02-08T12:52:34Z</time>
      </trkpt>
      <trkpt lat="62.648626879785" lon="17.8679309232">
        <ele>93</ele>
        <time>2018-02-08T12:52:35Z</time>
      </trkpt>
      <trkpt lat="62.648616570048" lon="17.867877446678">
        <ele>93</ele>
        <time>2018-02-08T12:52:36Z</time>
      </trkpt>
      <trkpt lat="62.648606008854" lon="17.867826903821">
        <ele>93</ele>
        <time>2018-02-08T12:52:37Z</time>
      </trkpt>
      <trkpt lat="62.648595782936" lon="17.867774516946">
        <ele>93.2</ele>
        <time>2018-02-08T12:52:38Z</time>
      </trkpt>
      <trkpt lat="62.648584215914" lon="17.867719950777">
        <ele>93.2</ele>
        <time>2018-02-08T12:52:39Z</time>
      </trkpt>
      <trkpt lat="62.648577091299" lon="17.867680723485">
        <ele>93.2</ele>
        <time>2018-02-08T12:52:40Z</time>
      </trkpt>
      <trkpt lat="62.648572397435" lon="17.867647363523">
        <ele>93</ele>
        <time>2018-02-08T12:52:41Z</time>
      </trkpt>
      <trkpt lat="62.648561752422" lon="17.867584834549">
        <ele>93.2</ele>
        <time>2018-02-08T12:52:42Z</time>
      </trkpt>
      <trkpt lat="62.648553957255" lon="17.867539153194">
        <ele>93.2</ele>
        <time>2018-02-08T12:52:43Z</time>
      </trkpt>
      <trkpt lat="62.648548089925" lon="17.867485676672">
        <ele>93.2</ele>
        <time>2018-02-08T12:52:44Z</time>
      </trkpt>
      <trkpt lat="62.648542390233" lon="17.86744309662">
        <ele>93.2</ele>
        <time>2018-02-08T12:52:45Z</time>
      </trkpt>
      <trkpt lat="62.648534595066" lon="17.867394565419">
        <ele>93.4</ele>
        <time>2018-02-08T12:52:46Z</time>
      </trkpt>
      <trkpt lat="62.648525458795" lon="17.867336227395">
        <ele>93.4</ele>
        <time>2018-02-08T12:52:47Z</time>
      </trkpt>
      <trkpt lat="62.648519759103" lon="17.867287444737">
        <ele>93.4</ele>
        <time>2018-02-08T12:52:48Z</time>
      </trkpt>
      <trkpt lat="62.648513221221" lon="17.867238913536">
        <ele>93.4</ele>
        <time>2018-02-08T12:52:49Z</time>
      </trkpt>
      <trkpt lat="62.648503833493" lon="17.867192896905">
        <ele>93.6</ele>
        <time>2018-02-08T12:52:50Z</time>
      </trkpt>
      <trkpt lat="62.648497295611" lon="17.867155932726">
        <ele>93.6</ele>
        <time>2018-02-08T12:52:51Z</time>
      </trkpt>
      <trkpt lat="62.648492937023" lon="17.867114693778">
        <ele>93.6</ele>
        <time>2018-02-08T12:52:52Z</time>
      </trkpt>
      <trkpt lat="62.648487488788" lon="17.867072449002">
        <ele>93.6</ele>
        <time>2018-02-08T12:52:53Z</time>
      </trkpt>
      <trkpt lat="62.648481034725" lon="17.867025175086">
        <ele>93.8</ele>
        <time>2018-02-08T12:52:54Z</time>
      </trkpt>
      <trkpt lat="62.648473658653" lon="17.866987288898">
        <ele>93.8</ele>
        <time>2018-02-08T12:52:55Z</time>
      </trkpt>
      <trkpt lat="62.6484663664" lon="17.866954934764">
        <ele>93.8</ele>
        <time>2018-02-08T12:52:56Z</time>
      </trkpt>
      <trkpt lat="62.64845630812" lon="17.866904727183">
        <ele>93.8</ele>
        <time>2018-02-08T12:52:57Z</time>
      </trkpt>
      <trkpt lat="62.648449518781" lon="17.866857034172">
        <ele>94</ele>
        <time>2018-02-08T12:52:58Z</time>
      </trkpt>
      <trkpt lat="62.648444657279" lon="17.866816381957">
        <ele>94</ele>
        <time>2018-02-08T12:52:59Z</time>
      </trkpt>
      <trkpt lat="62.648437281207" lon="17.866772125525">
        <ele>94.4</ele>
        <time>2018-02-08T12:53:00Z</time>
      </trkpt>
      <trkpt lat="62.648429821316" lon="17.866739519934">
        <ele>94.6</ele>
        <time>2018-02-08T12:53:01Z</time>
      </trkpt>
      <trkpt lat="62.648423786348" lon="17.866704232135">
        <ele>94.6</ele>
        <time>2018-02-08T12:53:02Z</time>
      </trkpt>
      <trkpt lat="62.648418086656" lon="17.866662490273">
        <ele>94.8</ele>
        <time>2018-02-08T12:53:03Z</time>
      </trkpt>
      <trkpt lat="62.648412386964" lon="17.866617898565">
        <ele>95</ele>
        <time>2018-02-08T12:53:04Z</time>
      </trkpt>
      <trkpt lat="62.648407357824" lon="17.866582526947">
        <ele>95.2</ele>
        <time>2018-02-08T12:53:05Z</time>
      </trkpt>
      <trkpt lat="62.648402496322" lon="17.866544389302">
        <ele>95.2</ele>
        <time>2018-02-08T12:53:06Z</time>
      </trkpt>
      <trkpt lat="62.648393360051" lon="17.866503150354">
        <ele>95.4</ele>
        <time>2018-02-08T12:53:07Z</time>
      </trkpt>
      <trkpt lat="62.648383637047" lon="17.866464342157">
        <ele>95.6</ele>
        <time>2018-02-08T12:53:08Z</time>
      </trkpt>
      <trkpt lat="62.648374333138" lon="17.866426455969">
        <ele>95.6</ele>
        <time>2018-02-08T12:53:09Z</time>
      </trkpt>
      <trkpt lat="62.648365448324" lon="17.866388402143">
        <ele>95.8</ele>
        <time>2018-02-08T12:53:10Z</time>
      </trkpt>
      <trkpt lat="62.648355641501" lon="17.866347498471">
        <ele>96</ele>
        <time>2018-02-08T12:53:11Z</time>
      </trkpt>
      <trkpt lat="62.648347678696" lon="17.866314725242">
        <ele>96</ele>
        <time>2018-02-08T12:53:12Z</time>
      </trkpt>
      <trkpt lat="62.648339129158" lon="17.866283796031">
        <ele>96.4</ele>
        <time>2018-02-08T12:53:13Z</time>
      </trkpt>
      <trkpt lat="62.648330411982" lon="17.866253872648">
        <ele>96.6</ele>
        <time>2018-02-08T12:53:14Z</time>
      </trkpt>
      <trkpt lat="62.648320772797" lon="17.866223111075">
        <ele>96.6</ele>
        <time>2018-02-08T12:53:15Z</time>
      </trkpt>
      <trkpt lat="62.64831046306" lon="17.866193187692">
        <ele>97</ele>
        <time>2018-02-08T12:53:16Z</time>
      </trkpt>
      <trkpt lat="62.648298393124" lon="17.866165192146">
        <ele>97.2</ele>
        <time>2018-02-08T12:53:17Z</time>
      </trkpt>
      <trkpt lat="62.648283976256" lon="17.866141555188">
        <ele>97.2</ele>
        <time>2018-02-08T12:53:18Z</time>
      </trkpt>
      <trkpt lat="62.648269307931" lon="17.866124456112">
        <ele>97.4</ele>
        <time>2018-02-08T12:53:19Z</time>
      </trkpt>
      <trkpt lat="62.648254052873" lon="17.866105764475">
        <ele>97.8</ele>
        <time>2018-02-08T12:53:20Z</time>
      </trkpt>
      <trkpt lat="62.648237289073" lon="17.866087659571">
        <ele>97.8</ele>
        <time>2018-02-08T12:53:21Z</time>
      </trkpt>
      <trkpt lat="62.648216921056" lon="17.86607349416">
        <ele>98.2</ele>
        <time>2018-02-08T12:53:22Z</time>
      </trkpt>
      <trkpt lat="62.648199486704" lon="17.866067710649">
        <ele>98.2</ele>
        <time>2018-02-08T12:53:23Z</time>
      </trkpt>
      <trkpt lat="62.648180459791" lon="17.866068129744">
        <ele>98.6</ele>
        <time>2018-02-08T12:53:24Z</time>
      </trkpt>
      <trkpt lat="62.648164115086" lon="17.866072823608">
        <ele>98.6</ele>
        <time>2018-02-08T12:53:25Z</time>
      </trkpt>
      <trkpt lat="62.648150201132" lon="17.866078690938">
        <ele>98.8</ele>
        <time>2018-02-08T12:53:26Z</time>
      </trkpt>
      <trkpt lat="62.648135951902" lon="17.866086486105">
        <ele>98.8</ele>
        <time>2018-02-08T12:53:27Z</time>
      </trkpt>
      <trkpt lat="62.648123043776" lon="17.866095790014">
        <ele>99</ele>
        <time>2018-02-08T12:53:28Z</time>
      </trkpt>
      <trkpt lat="62.648110051831" lon="17.866104423371">
        <ele>99.2</ele>
        <time>2018-02-08T12:53:29Z</time>
      </trkpt>
      <trkpt lat="62.64809337185" lon="17.866113978737">
        <ele>99.4</ele>
        <time>2018-02-08T12:53:30Z</time>
      </trkpt>
      <trkpt lat="62.648078954982" lon="17.866123198827">
        <ele>99.6</ele>
        <time>2018-02-08T12:53:31Z</time>
      </trkpt>
      <trkpt lat="62.648062275001" lon="17.866135687858">
        <ele>99.8</ele>
        <time>2018-02-08T12:53:32Z</time>
      </trkpt>
      <trkpt lat="62.648048025771" lon="17.866148009251">
        <ele>100</ele>
        <time>2018-02-08T12:53:33Z</time>
      </trkpt>
      <trkpt lat="62.648034530912" lon="17.866165359784">
        <ele>100.2</ele>
        <time>2018-02-08T12:53:34Z</time>
      </trkpt>
      <trkpt lat="62.648023382985" lon="17.866184889611">
        <ele>100.4</ele>
        <time>2018-02-08T12:53:35Z</time>
      </trkpt>
      <trkpt lat="62.648009636669" lon="17.866202826877">
        <ele>100.4</ele>
        <time>2018-02-08T12:53:36Z</time>
      </trkpt>
      <trkpt lat="62.647994213973" lon="17.866221267057">
        <ele>100.8</ele>
        <time>2018-02-08T12:53:37Z</time>
      </trkpt>
      <trkpt lat="62.647981305847" lon="17.866240377789">
        <ele>100.8</ele>
        <time>2018-02-08T12:53:38Z</time>
      </trkpt>
      <trkpt lat="62.647968649178" lon="17.866260159073">
        <ele>101</ele>
        <time>2018-02-08T12:53:39Z</time>
      </trkpt>
      <trkpt lat="62.647956830699" lon="17.866279185986">
        <ele>101</ele>
        <time>2018-02-08T12:53:40Z</time>
      </trkpt>
      <trkpt lat="62.647944928401" lon="17.866294608682">
        <ele>101.2</ele>
        <time>2018-02-08T12:53:41Z</time>
      </trkpt>
      <trkpt lat="62.647934870121" lon="17.86632076021">
        <ele>101.4</ele>
        <time>2018-02-08T12:53:42Z</time>
      </trkpt>
      <trkpt lat="62.64792489566" lon="17.866343475159">
        <ele>101.8</ele>
        <time>2018-02-08T12:53:43Z</time>
      </trkpt>
      <trkpt lat="62.647914166828" lon="17.866368201764">
        <ele>102</ele>
        <time>2018-02-08T12:53:44Z</time>
      </trkpt>
      <trkpt lat="62.647901761616" lon="17.866396029672">
        <ele>102.2</ele>
        <time>2018-02-08T12:53:45Z</time>
      </trkpt>
      <trkpt lat="62.647890110775" lon="17.866419079897">
        <ele>102.6</ele>
        <time>2018-02-08T12:53:46Z</time>
      </trkpt>
      <trkpt lat="62.647878627572" lon="17.866441124294">
        <ele>102.8</ele>
        <time>2018-02-08T12:53:47Z</time>
      </trkpt>
      <trkpt lat="62.647867647283" lon="17.866464593614">
        <ele>103</ele>
        <time>2018-02-08T12:53:48Z</time>
      </trkpt>
      <trkpt lat="62.647856750813" lon="17.866485799821">
        <ele>103.4</ele>
        <time>2018-02-08T12:53:49Z</time>
      </trkpt>
      <trkpt lat="62.6478461058" lon="17.866508011856">
        <ele>103.6</ele>
        <time>2018-02-08T12:53:50Z</time>
      </trkpt>
      <trkpt lat="62.647835376968" lon="17.866530894443">
        <ele>103.8</ele>
        <time>2018-02-08T12:53:51Z</time>
      </trkpt>
      <trkpt lat="62.647825821602" lon="17.866555118134">
        <ele>104</ele>
        <time>2018-02-08T12:53:52Z</time>
      </trkpt>
      <trkpt lat="62.647817858797" lon="17.866577078712">
        <ele>104.2</ele>
        <time>2018-02-08T12:53:53Z</time>
      </trkpt>
      <trkpt lat="62.647807716698" lon="17.866602224412">
        <ele>104.4</ele>
        <time>2018-02-08T12:53:54Z</time>
      </trkpt>
      <trkpt lat="62.647797155504" lon="17.866626112827">
        <ele>104.8</ele>
        <time>2018-02-08T12:53:55Z</time>
      </trkpt>
      <trkpt lat="62.647787516319" lon="17.86664765431">
        <ele>105</ele>
        <time>2018-02-08T12:53:56Z</time>
      </trkpt>
      <trkpt lat="62.647776871306" lon="17.866672548553">
        <ele>105.2</ele>
        <time>2018-02-08T12:53:57Z</time>
      </trkpt>
      <trkpt lat="62.647767232121" lon="17.86669543114">
        <ele>105.4</ele>
        <time>2018-02-08T12:53:58Z</time>
      </trkpt>
      <trkpt lat="62.647759688411" lon="17.866719068098">
        <ele>105.6</ele>
        <time>2018-02-08T12:53:59Z</time>
      </trkpt>
      <trkpt lat="62.647751809425" lon="17.866745554902">
        <ele>105.6</ele>
        <time>2018-02-08T12:54:00Z</time>
      </trkpt>
      <trkpt lat="62.647740912955" lon="17.866781513253">
        <ele>105.8</ele>
        <time>2018-02-08T12:54:01Z</time>
      </trkpt>
      <trkpt lat="62.647730603218" lon="17.866820069993">
        <ele>106</ele>
        <time>2018-02-08T12:54:02Z</time>
      </trkpt>
      <trkpt lat="62.64772205368" lon="17.866856028344">
        <ele>106</ele>
        <time>2018-02-08T12:54:03Z</time>
      </trkpt>
      <trkpt lat="62.647711324848" lon="17.866892741066">
        <ele>106.2</ele>
        <time>2018-02-08T12:54:04Z</time>
      </trkpt>
      <trkpt lat="62.647702104758" lon="17.866944960303">
        <ele>106.4</ele>
        <time>2018-02-08T12:54:05Z</time>
      </trkpt>
      <trkpt lat="62.647691543564" lon="17.866994413513">
        <ele>106.4</ele>
        <time>2018-02-08T12:54:06Z</time>
      </trkpt>
      <trkpt lat="62.647679641266" lon="17.867043615266">
        <ele>106.6</ele>
        <time>2018-02-08T12:54:07Z</time>
      </trkpt>
      <trkpt lat="62.647668996253" lon="17.867084183662">
        <ele>106.6</ele>
        <time>2018-02-08T12:54:08Z</time>
      </trkpt>
      <trkpt lat="62.647660781991" lon="17.867119303823">
        <ele>106.8</ele>
        <time>2018-02-08T12:54:09Z</time>
      </trkpt>
      <trkpt lat="62.647655669032" lon="17.867151825595">
        <ele>106.8</ele>
        <time>2018-02-08T12:54:10Z</time>
      </trkpt>
      <trkpt lat="62.647653154462" lon="17.867175462553">
        <ele>107</ele>
        <time>2018-02-08T12:54:11Z</time>
      </trkpt>
      <trkpt lat="62.647648209141" lon="17.867208738696">
        <ele>107.4</ele>
        <time>2018-02-08T12:54:12Z</time>
      </trkpt>
      <trkpt lat="62.647642928544" lon="17.867240925192">
        <ele>107.6</ele>
        <time>2018-02-08T12:54:13Z</time>
      </trkpt>
      <trkpt lat="62.6476365583" lon="17.867273195507">
        <ele>107.8</ele>
        <time>2018-02-08T12:54:14Z</time>
      </trkpt>
      <trkpt lat="62.647625913287" lon="17.867311081695">
        <ele>108</ele>
        <time>2018-02-08T12:54:15Z</time>
      </trkpt>
      <trkpt lat="62.647618704853" lon="17.867345782761">
        <ele>108.2</ele>
        <time>2018-02-08T12:54:16Z</time>
      </trkpt>
      <trkpt lat="62.647610322953" lon="17.867379813275">
        <ele>108.4</ele>
        <time>2018-02-08T12:54:17Z</time>
      </trkpt>
      <trkpt lat="62.647603701252" lon="17.867408898468">
        <ele>108.8</ele>
        <time>2018-02-08T12:54:18Z</time>
      </trkpt>
      <trkpt lat="62.647597666284" lon="17.867434966177">
        <ele>108.8</ele>
        <time>2018-02-08T12:54:19Z</time>
      </trkpt>
      <trkpt lat="62.64759213423" lon="17.867459692782">
        <ele>109</ele>
        <time>2018-02-08T12:54:20Z</time>
      </trkpt>
      <trkpt lat="62.647587021271" lon="17.867486263405">
        <ele>109</ele>
        <time>2018-02-08T12:54:21Z</time>
      </trkpt>
      <trkpt lat="62.647579812837" lon="17.867517779349">
        <ele>109.2</ele>
        <time>2018-02-08T12:54:22Z</time>
      </trkpt>
      <trkpt lat="62.647573358774" lon="17.867547702732">
        <ele>109.4</ele>
        <time>2018-02-08T12:54:23Z</time>
      </trkpt>
      <trkpt lat="62.647563132856" lon="17.867582068522">
        <ele>109.6</ele>
        <time>2018-02-08T12:54:24Z</time>
      </trkpt>
      <trkpt lat="62.647552990757" lon="17.867613416828">
        <ele>110</ele>
        <time>2018-02-08T12:54:25Z</time>
      </trkpt>
      <trkpt lat="62.647542261925" lon="17.867641663831">
        <ele>110.2</ele>
        <time>2018-02-08T12:54:26Z</time>
      </trkpt>
      <trkpt lat="62.647531365455" lon="17.867673850327">
        <ele>110.2</ele>
        <time>2018-02-08T12:54:27Z</time>
      </trkpt>
      <trkpt lat="62.647524073202" lon="17.867701342959">
        <ele>110.4</ele>
        <time>2018-02-08T12:54:28Z</time>
      </trkpt>
      <trkpt lat="62.647516445673" lon="17.867727997401">
        <ele>110.6</ele>
        <time>2018-02-08T12:54:29Z</time>
      </trkpt>
      <trkpt lat="62.647497670217" lon="17.86775238873">
        <ele>110.8</ele>
        <time>2018-02-08T12:54:30Z</time>
      </trkpt>
      <trkpt lat="62.647485851738" lon="17.86777585805">
        <ele>110.8</ele>
        <time>2018-02-08T12:54:31Z</time>
      </trkpt>
      <trkpt lat="62.647463472065" lon="17.867810307659">
        <ele>111</ele>
        <time>2018-02-08T12:54:32Z</time>
      </trkpt>
      <trkpt lat="62.647443942238" lon="17.867836794463">
        <ele>111.2</ele>
        <time>2018-02-08T12:54:33Z</time>
      </trkpt>
      <trkpt lat="62.647429609189" lon="17.867850121684">
        <ele>111.2</ele>
        <time>2018-02-08T12:54:34Z</time>
      </trkpt>
      <trkpt lat="62.647415527597" lon="17.867852720073">
        <ele>111.4</ele>
        <time>2018-02-08T12:54:35Z</time>
      </trkpt>
      <trkpt lat="62.647393567019" lon="17.867860263783">
        <ele>111.4</ele>
        <time>2018-02-08T12:54:36Z</time>
      </trkpt>
      <trkpt lat="62.647366493482" lon="17.867867723674">
        <ele>111.4</ele>
        <time>2018-02-08T12:54:37Z</time>
      </trkpt>
      <trkpt lat="62.647350148777" lon="17.867877195221">
        <ele>111.4</ele>
        <time>2018-02-08T12:54:38Z</time>
      </trkpt>
      <trkpt lat="62.647329361665" lon="17.867873674823">
        <ele>111.6</ele>
        <time>2018-02-08T12:54:39Z</time>
      </trkpt>
      <trkpt lat="62.647303293956" lon="17.867866214932">
        <ele>111.8</ele>
        <time>2018-02-08T12:54:40Z</time>
      </trkpt>
      <trkpt lat="62.647283009758" lon="17.867856575747">
        <ele>111.8</ele>
        <time>2018-02-08T12:54:41Z</time>
      </trkpt>
      <trkpt lat="62.647259288981" lon="17.867839979585">
        <ele>111.8</ele>
        <time>2018-02-08T12:54:42Z</time>
      </trkpt>
      <trkpt lat="62.647237663679" lon="17.867816174989">
        <ele>112</ele>
        <time>2018-02-08T12:54:43Z</time>
      </trkpt>
      <trkpt lat="62.647219810232" lon="17.867779713724">
        <ele>112.4</ele>
        <time>2018-02-08T12:54:44Z</time>
      </trkpt>
      <trkpt lat="62.6472006995" lon="17.867746018486">
        <ele>112.4</ele>
        <time>2018-02-08T12:54:45Z</time>
      </trkpt>
      <trkpt lat="62.647185276804" lon="17.86772640484">
        <ele>112.6</ele>
        <time>2018-02-08T12:54:46Z</time>
      </trkpt>
      <trkpt lat="62.647170189384" lon="17.86768952448">
        <ele>112.8</ele>
        <time>2018-02-08T12:54:47Z</time>
      </trkpt>
      <trkpt lat="62.647148144987" lon="17.867657589441">
        <ele>113</ele>
        <time>2018-02-08T12:54:48Z</time>
      </trkpt>
      <trkpt lat="62.647130542997" lon="17.867628168972">
        <ele>113</ele>
        <time>2018-02-08T12:54:49Z</time>
      </trkpt>
      <trkpt lat="62.647108750057" lon="17.867589193137">
        <ele>113</ele>
        <time>2018-02-08T12:54:50Z</time>
      </trkpt>
      <trkpt lat="62.64709089661" lon="17.867560275582">
        <ele>113.2</ele>
        <time>2018-02-08T12:54:51Z</time>
      </trkpt>
      <trkpt lat="62.647071115326" lon="17.867530436018">
        <ele>113</ele>
        <time>2018-02-08T12:54:52Z</time>
      </trkpt>
      <trkpt lat="62.647055022078" lon="17.867502272834">
        <ele>113.2</ele>
        <time>2018-02-08T12:54:53Z</time>
      </trkpt>
      <trkpt lat="62.647035743708" lon="17.867468158501">
        <ele>113</ele>
        <time>2018-02-08T12:54:54Z</time>
      </trkpt>
      <trkpt lat="62.647022081211" lon="17.867438821851">
        <ele>113</ele>
        <time>2018-02-08T12:54:55Z</time>
      </trkpt>
      <trkpt lat="62.647010849465" lon="17.867409401382">
        <ele>113.2</ele>
        <time>2018-02-08T12:54:56Z</time>
      </trkpt>
      <trkpt lat="62.646993750389" lon="17.867365480226">
        <ele>113</ele>
        <time>2018-02-08T12:54:57Z</time>
      </trkpt>
      <trkpt lat="62.646978662969" lon="17.867327510219">
        <ele>113.2</ele>
        <time>2018-02-08T12:54:58Z</time>
      </trkpt>
      <trkpt lat="62.646966257757" lon="17.867303873261">
        <ele>113.4</ele>
        <time>2018-02-08T12:54:59Z</time>
      </trkpt>
      <trkpt lat="62.646947817577" lon="17.867253917137">
        <ele>113.6</ele>
        <time>2018-02-08T12:55:00Z</time>
      </trkpt>
      <trkpt lat="62.646934071261" lon="17.867218377881">
        <ele>113.6</ele>
        <time>2018-02-08T12:55:01Z</time>
      </trkpt>
      <trkpt lat="62.646917726556" lon="17.867177055114">
        <ele>113.8</ele>
        <time>2018-02-08T12:55:02Z</time>
      </trkpt>
      <trkpt lat="62.646901046575" lon="17.867121818393">
        <ele>114</ele>
        <time>2018-02-08T12:55:03Z</time>
      </trkpt>
      <trkpt lat="62.646890904476" lon="17.867070521165">
        <ele>114</ele>
        <time>2018-02-08T12:55:04Z</time>
      </trkpt>
      <trkpt lat="62.6468821873" lon="17.867031461511">
        <ele>114</ele>
        <time>2018-02-08T12:55:05Z</time>
      </trkpt>
      <trkpt lat="62.646872212839" lon="17.866976057152">
        <ele>114</ele>
        <time>2018-02-08T12:55:06Z</time>
      </trkpt>
      <trkpt lat="62.646861316369" lon="17.866918724956">
        <ele>114</ele>
        <time>2018-02-08T12:55:07Z</time>
      </trkpt>
      <trkpt lat="62.646852515374" lon="17.866866673357">
        <ele>114</ele>
        <time>2018-02-08T12:55:08Z</time>
      </trkpt>
      <trkpt lat="62.646846731863" lon="17.866807245686">
        <ele>114.2</ele>
        <time>2018-02-08T12:55:09Z</time>
      </trkpt>
      <trkpt lat="62.646845223121" lon="17.866762653978">
        <ele>114.2</ele>
        <time>2018-02-08T12:55:10Z</time>
      </trkpt>
      <trkpt lat="62.646843546741" lon="17.866708255447">
        <ele>114.2</ele>
        <time>2018-02-08T12:55:11Z</time>
      </trkpt>
      <trkpt lat="62.646843546741" lon="17.866625777551">
        <ele>114.2</ele>
        <time>2018-02-08T12:55:12Z</time>
      </trkpt>
      <trkpt lat="62.646841367447" lon="17.866567607165">
        <ele>114.4</ele>
        <time>2018-02-08T12:55:13Z</time>
      </trkpt>
      <trkpt lat="62.646838936696" lon="17.866500049051">
        <ele>114.4</ele>
        <time>2018-02-08T12:55:14Z</time>
      </trkpt>
      <trkpt lat="62.646836254488" lon="17.866445399063">
        <ele>114.6</ele>
        <time>2018-02-08T12:55:15Z</time>
      </trkpt>
      <trkpt lat="62.646832650271" lon="17.866381193709">
        <ele>114.6</ele>
        <time>2018-02-08T12:55:16Z</time>
      </trkpt>
      <trkpt lat="62.646834159013" lon="17.866318916192">
        <ele>114.6</ele>
        <time>2018-02-08T12:55:17Z</time>
      </trkpt>
      <trkpt lat="62.646830806253" lon="17.866231660613">
        <ele>114.4</ele>
        <time>2018-02-08T12:55:18Z</time>
      </trkpt>
      <trkpt lat="62.646818401041" lon="17.866167455259">
        <ele>114.4</ele>
        <time>2018-02-08T12:55:19Z</time>
      </trkpt>
      <trkpt lat="62.646808845675" lon="17.866110458339">
        <ele>114.4</ele>
        <time>2018-02-08T12:55:20Z</time>
      </trkpt>
      <trkpt lat="62.646801050508" lon="17.866044073691">
        <ele>114.2</ele>
        <time>2018-02-08T12:55:21Z</time>
      </trkpt>
      <trkpt lat="62.64678411907" lon="17.865978191957">
        <ele>114</ele>
        <time>2018-02-08T12:55:22Z</time>
      </trkpt>
      <trkpt lat="62.646773054962" lon="17.865920356847">
        <ele>113.8</ele>
        <time>2018-02-08T12:55:23Z</time>
      </trkpt>
      <trkpt lat="62.646755704429" lon="17.865855061846">
        <ele>113.8</ele>
        <time>2018-02-08T12:55:24Z</time>
      </trkpt>
      <trkpt lat="62.646742377208" lon="17.865798484021">
        <ele>113.8</ele>
        <time>2018-02-08T12:55:25Z</time>
      </trkpt>
      <trkpt lat="62.646726367779" lon="17.865738972531">
        <ele>113.8</ele>
        <time>2018-02-08T12:55:26Z</time>
      </trkpt>
      <trkpt lat="62.646707927599" lon="17.865674180444">
        <ele>113.6</ele>
        <time>2018-02-08T12:55:27Z</time>
      </trkpt>
      <trkpt lat="62.64669191817" lon="17.865610058909">
        <ele>113.4</ele>
        <time>2018-02-08T12:55:28Z</time>
      </trkpt>
      <trkpt lat="62.646677836578" lon="17.865557588215">
        <ele>113.4</ele>
        <time>2018-02-08T12:55:29Z</time>
      </trkpt>
      <trkpt lat="62.646668281212" lon="17.865517355095">
        <ele>113.2</ele>
        <time>2018-02-08T12:55:30Z</time>
      </trkpt>
      <trkpt lat="62.646655792181" lon="17.86547251193">
        <ele>113.2</ele>
        <time>2018-02-08T12:55:31Z</time>
      </trkpt>
      <trkpt lat="62.646636346173" lon="17.865431859715">
        <ele>113.2</ele>
        <time>2018-02-08T12:55:32Z</time>
      </trkpt>
      <trkpt lat="62.646620504382" lon="17.865389279663">
        <ele>113</ele>
        <time>2018-02-08T12:55:33Z</time>
      </trkpt>
      <trkpt lat="62.64659636451" lon="17.865338904444">
        <ele>113</ele>
        <time>2018-02-08T12:55:34Z</time>
      </trkpt>
      <trkpt lat="62.646578427244" lon="17.865308897242">
        <ele>113</ele>
        <time>2018-02-08T12:55:35Z</time>
      </trkpt>
      <trkpt lat="62.646554035915" lon="17.865250726856">
        <ele>113</ele>
        <time>2018-02-08T12:55:36Z</time>
      </trkpt>
      <trkpt lat="62.646529896043" lon="17.865207140976">
        <ele>112.8</ele>
        <time>2018-02-08T12:55:37Z</time>
      </trkpt>
      <trkpt lat="62.6465133837" lon="17.865170595892">
        <ele>112.8</ele>
        <time>2018-02-08T12:55:38Z</time>
      </trkpt>
      <trkpt lat="62.646494859701" lon="17.86512885403">
        <ele>112.6</ele>
        <time>2018-02-08T12:55:39Z</time>
      </trkpt>
      <trkpt lat="62.646473066761" lon="17.865085435788">
        <ele>112.6</ele>
        <time>2018-02-08T12:55:40Z</time>
      </trkpt>
      <trkpt lat="62.64645303402" lon="17.865054590396">
        <ele>112.6</ele>
        <time>2018-02-08T12:55:41Z</time>
      </trkpt>
      <trkpt lat="62.646434090926" lon="17.865022571538">
        <ele>112.6</ele>
        <time>2018-02-08T12:55:42Z</time>
      </trkpt>
      <trkpt lat="62.646413387633" lon="17.864984014798">
        <ele>112.6</ele>
        <time>2018-02-08T12:55:43Z</time>
      </trkpt>
      <trkpt lat="62.646388577209" lon="17.864948056447">
        <ele>112.8</ele>
        <time>2018-02-08T12:55:44Z</time>
      </trkpt>
      <trkpt lat="62.646363263871" lon="17.864908996793">
        <ele>112.8</ele>
        <time>2018-02-08T12:55:45Z</time>
      </trkpt>
      <trkpt lat="62.646334765411" lon="17.864877229392">
        <ele>112.8</ele>
        <time>2018-02-08T12:55:46Z</time>
      </trkpt>
      <trkpt lat="62.646308781521" lon="17.864848814751">
        <ele>113</ele>
        <time>2018-02-08T12:55:47Z</time>
      </trkpt>
      <trkpt lat="62.64627701412" lon="17.864815287151">
        <ele>113</ele>
        <time>2018-02-08T12:55:48Z</time>
      </trkpt>
      <trkpt lat="62.646251365506" lon="17.864789722356">
        <ele>113</ele>
        <time>2018-02-08T12:55:49Z</time>
      </trkpt>
      <trkpt lat="62.646223202322" lon="17.864765414846">
        <ele>113.2</ele>
        <time>2018-02-08T12:55:50Z</time>
      </trkpt>
      <trkpt lat="62.646191351102" lon="17.864743454268">
        <ele>113</ele>
        <time>2018-02-08T12:55:51Z</time>
      </trkpt>
      <trkpt lat="62.646160840986" lon="17.864726187554">
        <ele>113</ele>
        <time>2018-02-08T12:55:52Z</time>
      </trkpt>
      <trkpt lat="62.646130833784" lon="17.864724092079">
        <ele>113</ele>
        <time>2018-02-08T12:55:53Z</time>
      </trkpt>
      <trkpt lat="62.646095881261" lon="17.864736329653">
        <ele>113</ele>
        <time>2018-02-08T12:55:54Z</time>
      </trkpt>
      <trkpt lat="62.646066712249" lon="17.864759798973">
        <ele>112.8</ele>
        <time>2018-02-08T12:55:55Z</time>
      </trkpt>
      <trkpt lat="62.646047517698" lon="17.864786704872">
        <ele>112.8</ele>
        <time>2018-02-08T12:55:56Z</time>
      </trkpt>
      <trkpt lat="62.646024802749" lon="17.864829871657">
        <ele>112.6</ele>
        <time>2018-02-08T12:55:57Z</time>
      </trkpt>
      <trkpt lat="62.646014241555" lon="17.864870523872">
        <ele>112.2</ele>
        <time>2018-02-08T12:55:58Z</time>
      </trkpt>
      <trkpt lat="62.6460020878" lon="17.864927604611">
        <ele>112.2</ele>
        <time>2018-02-08T12:55:59Z</time>
      </trkpt>
      <trkpt lat="62.645987754751" lon="17.864989965947">
        <ele>112</ele>
        <time>2018-02-08T12:56:00Z</time>
      </trkpt>
      <trkpt lat="62.645967554372" lon="17.865040089709">
        <ele>112</ele>
        <time>2018-02-08T12:56:01Z</time>
      </trkpt>
      <trkpt lat="62.645938804455" lon="17.865105719986">
        <ele>112</ele>
        <time>2018-02-08T12:56:02Z</time>
      </trkpt>
      <trkpt lat="62.645905360674" lon="17.865172104634">
        <ele>111.8</ele>
        <time>2018-02-08T12:56:03Z</time>
      </trkpt>
      <trkpt lat="62.645868899409" lon="17.86523781873">
        <ele>111.6</ele>
        <time>2018-02-08T12:56:04Z</time>
      </trkpt>
      <trkpt lat="62.64583528799" lon="17.865297833134">
        <ele>111.2</ele>
        <time>2018-02-08T12:56:05Z</time>
      </trkpt>
      <trkpt lat="62.645793546128" lon="17.865368660189">
        <ele>111</ele>
        <time>2018-02-08T12:56:06Z</time>
      </trkpt>
      <trkpt lat="62.645750798438" lon="17.865443762013">
        <ele>110.4</ele>
        <time>2018-02-08T12:56:07Z</time>
      </trkpt>
      <trkpt lat="62.645709978585" lon="17.86551777419">
        <ele>109.8</ele>
        <time>2018-02-08T12:56:08Z</time>
      </trkpt>
      <trkpt lat="62.645669410189" lon="17.865593630385">
        <ele>109.2</ele>
        <time>2018-02-08T12:56:09Z</time>
      </trkpt>
      <trkpt lat="62.645630937268" lon="17.865672671702">
        <ele>108.6</ele>
        <time>2018-02-08T12:56:10Z</time>
      </trkpt>
      <trkpt lat="62.645599924238" lon="17.865735452133">
        <ele>108</ele>
        <time>2018-02-08T12:56:11Z</time>
      </trkpt>
      <trkpt lat="62.64555868529" lon="17.865821282789">
        <ele>107.4</ele>
        <time>2018-02-08T12:56:12Z</time>
      </trkpt>
      <trkpt lat="62.645519709455" lon="17.865903509228">
        <ele>106.8</ele>
        <time>2018-02-08T12:56:13Z</time>
      </trkpt>
      <trkpt lat="62.645482493819" lon="17.86598129326">
        <ele>106.2</ele>
        <time>2018-02-08T12:56:14Z</time>
      </trkpt>
      <trkpt lat="62.645451229332" lon="17.866035607972">
        <ele>105.6</ele>
        <time>2018-02-08T12:56:15Z</time>
      </trkpt>
      <trkpt lat="62.64541703118" lon="17.866099813326">
        <ele>105.2</ele>
        <time>2018-02-08T12:56:16Z</time>
      </trkpt>
      <trkpt lat="62.645378222983" lon="17.866175250426">
        <ele>105</ele>
        <time>2018-02-08T12:56:17Z</time>
      </trkpt>
      <trkpt lat="62.645334637103" lon="17.866254375562">
        <ele>104.4</ele>
        <time>2018-02-08T12:56:18Z</time>
      </trkpt>
      <trkpt lat="62.645292057051" lon="17.866327130454">
        <ele>103.8</ele>
        <time>2018-02-08T12:56:19Z</time>
      </trkpt>
      <trkpt lat="62.645249057904" lon="17.866405249762">
        <ele>103.2</ele>
        <time>2018-02-08T12:56:20Z</time>
      </trkpt>
      <trkpt lat="62.645208740965" lon="17.866482195604">
        <ele>102.8</ele>
        <time>2018-02-08T12:56:21Z</time>
      </trkpt>
      <trkpt lat="62.645161886144" lon="17.86658059911">
        <ele>102</ele>
        <time>2018-02-08T12:56:22Z</time>
      </trkpt>
      <trkpt lat="62.645133220046" lon="17.866656706762">
        <ele>101.6</ele>
        <time>2018-02-08T12:56:23Z</time>
      </trkpt>
      <trkpt lat="62.645100279179" lon="17.866763492168">
        <ele>101</ele>
        <time>2018-02-08T12:56:24Z</time>
      </trkpt>
      <trkpt lat="62.645073289461" lon="17.866871367221">
        <ele>100.2</ele>
        <time>2018-02-08T12:56:25Z</time>
      </trkpt>
      <trkpt lat="62.645052753806" lon="17.866976895342">
        <ele>99.4</ele>
        <time>2018-02-08T12:56:26Z</time>
      </trkpt>
      <trkpt lat="62.645031044685" lon="17.867109329362">
        <ele>98.6</ele>
        <time>2018-02-08T12:56:27Z</time>
      </trkpt>
      <trkpt lat="62.645001708035" lon="17.867245954332">
        <ele>97.4</ele>
        <time>2018-02-08T12:56:28Z</time>
      </trkpt>
      <trkpt lat="62.644970695005" lon="17.867384507139">
        <ele>96</ele>
        <time>2018-02-08T12:56:29Z</time>
      </trkpt>
      <trkpt lat="62.644928534048" lon="17.867533956416">
        <ele>94.4</ele>
        <time>2018-02-08T12:56:30Z</time>
      </trkpt>
      <trkpt lat="62.644900622321" lon="17.867644429858">
        <ele>93.2</ele>
        <time>2018-02-08T12:56:31Z</time>
      </trkpt>
      <trkpt lat="62.64486969311" lon="17.867766554141">
        <ele>92.2</ele>
        <time>2018-02-08T12:56:32Z</time>
      </trkpt>
      <trkpt lat="62.644838177166" lon="17.86788985189">
        <ele>91.6</ele>
        <time>2018-02-08T12:56:33Z</time>
      </trkpt>
      <trkpt lat="62.644814288751" lon="17.867997810762">
        <ele>91</ele>
        <time>2018-02-08T12:56:34Z</time>
      </trkpt>
      <trkpt lat="62.644793166363" lon="17.868098812657">
        <ele>91</ele>
        <time>2018-02-08T12:56:35Z</time>
      </trkpt>
      <trkpt lat="62.644770032319" lon="17.868214734334">
        <ele>91</ele>
        <time>2018-02-08T12:56:36Z</time>
      </trkpt>
      <trkpt lat="62.644754777261" lon="17.86832738707">
        <ele>91.4</ele>
        <time>2018-02-08T12:56:37Z</time>
      </trkpt>
      <trkpt lat="62.644747568827" lon="17.86841539702">
        <ele>92</ele>
        <time>2018-02-08T12:56:38Z</time>
      </trkpt>
      <trkpt lat="62.644742539687" lon="17.868504999531">
        <ele>92.4</ele>
        <time>2018-02-08T12:56:39Z</time>
      </trkpt>
      <trkpt lat="62.64474983194" lon="17.868590411092">
        <ele>92.8</ele>
        <time>2018-02-08T12:56:40Z</time>
      </trkpt>
      <trkpt lat="62.644745473352" lon="17.868652269514">
        <ele>93</ele>
        <time>2018-02-08T12:56:41Z</time>
      </trkpt>
      <trkpt lat="62.644735079796" lon="17.868746398251">
        <ele>92.8</ele>
        <time>2018-02-08T12:56:42Z</time>
      </trkpt>
      <trkpt lat="62.644727787543" lon="17.868819488419">
        <ele>93</ele>
        <time>2018-02-08T12:56:43Z</time>
      </trkpt>
      <trkpt lat="62.644718315996" lon="17.868902553048">
        <ele>92.6</ele>
        <time>2018-02-08T12:56:44Z</time>
      </trkpt>
      <trkpt lat="62.644712783942" lon="17.868983186926">
        <ele>92.8</ele>
        <time>2018-02-08T12:56:45Z</time>
      </trkpt>
      <trkpt lat="62.644708928268" lon="17.869044793891">
        <ele>92.6</ele>
        <time>2018-02-08T12:56:46Z</time>
      </trkpt>
      <trkpt lat="62.644701552196" lon="17.869125511588">
        <ele>92.6</ele>
        <time>2018-02-08T12:56:47Z</time>
      </trkpt>
      <trkpt lat="62.644694762857" lon="17.869195919548">
        <ele>92.6</ele>
        <time>2018-02-08T12:56:48Z</time>
      </trkpt>
      <trkpt lat="62.64468696769" lon="17.869264567309">
        <ele>92.4</ele>
        <time>2018-02-08T12:56:49Z</time>
      </trkpt>
      <trkpt lat="62.644678501971" lon="17.869343524807">
        <ele>92.6</ele>
        <time>2018-02-08T12:56:50Z</time>
      </trkpt>
      <trkpt lat="62.644674311021" lon="17.869408065437">
        <ele>92.6</ele>
        <time>2018-02-08T12:56:51Z</time>
      </trkpt>
      <trkpt lat="62.644667437863" lon="17.86950085307">
        <ele>92.4</ele>
        <time>2018-02-08T12:56:52Z</time>
      </trkpt>
      <trkpt lat="62.64466182199" lon="17.869579391473">
        <ele>92.4</ele>
        <time>2018-02-08T12:56:53Z</time>
      </trkpt>
      <trkpt lat="62.644652182805" lon="17.86967268202">
        <ele>92</ele>
        <time>2018-02-08T12:56:54Z</time>
      </trkpt>
      <trkpt lat="62.64464422" lon="17.869764380006">
        <ele>92</ele>
        <time>2018-02-08T12:56:55Z</time>
      </trkpt>
      <trkpt lat="62.644632904435" lon="17.869837889269">
        <ele>91.8</ele>
        <time>2018-02-08T12:56:56Z</time>
      </trkpt>
      <trkpt lat="62.644617733196" lon="17.869933610567">
        <ele>91.4</ele>
        <time>2018-02-08T12:56:57Z</time>
      </trkpt>
      <trkpt lat="62.644605160346" lon="17.870034025729">
        <ele>91</ele>
        <time>2018-02-08T12:56:58Z</time>
      </trkpt>
      <trkpt lat="62.644595856437" lon="17.870125807534">
        <ele>90.8</ele>
        <time>2018-02-08T12:56:59Z</time>
      </trkpt>
      <trkpt lat="62.644588983279" lon="17.870210129448">
        <ele>90.6</ele>
        <time>2018-02-08T12:57:00Z</time>
      </trkpt>
      <trkpt lat="62.644581691026" lon="17.870290344231">
        <ele>90.2</ele>
        <time>2018-02-08T12:57:01Z</time>
      </trkpt>
      <trkpt lat="62.644569453452" lon="17.8703868199">
        <ele>90.2</ele>
        <time>2018-02-08T12:57:02Z</time>
      </trkpt>
      <trkpt lat="62.644558976077" lon="17.870487151243">
        <ele>89.8</ele>
        <time>2018-02-08T12:57:03Z</time>
      </trkpt>
      <trkpt lat="62.644547492874" lon="17.870594439563">
        <ele>89.4</ele>
        <time>2018-02-08T12:57:04Z</time>
      </trkpt>
      <trkpt lat="62.644543972476" lon="17.870686221368">
        <ele>89.2</ele>
        <time>2018-02-08T12:57:05Z</time>
      </trkpt>
      <trkpt lat="62.64453776987" lon="17.870796191896">
        <ele>88.6</ele>
        <time>2018-02-08T12:57:06Z</time>
      </trkpt>
      <trkpt lat="62.644517066577" lon="17.870921166025">
        <ele>88</ele>
        <time>2018-02-08T12:57:07Z</time>
      </trkpt>
      <trkpt lat="62.644493261981" lon="17.871041530109">
        <ele>87.6</ele>
        <time>2018-02-08T12:57:08Z</time>
      </trkpt>
      <trkpt lat="62.644487059375" lon="17.871149069886">
        <ele>87.2</ele>
        <time>2018-02-08T12:57:09Z</time>
      </trkpt>
      <trkpt lat="62.644475157077" lon="17.871254430369">
        <ele>87</ele>
        <time>2018-02-08T12:57:10Z</time>
      </trkpt>
      <trkpt lat="62.644466356082" lon="17.87133565098">
        <ele>87.2</ele>
        <time>2018-02-08T12:57:11Z</time>
      </trkpt>
      <trkpt lat="62.644453280318" lon="17.871444112766">
        <ele>87.2</ele>
        <time>2018-02-08T12:57:12Z</time>
      </trkpt>
      <trkpt lat="62.644442719124" lon="17.871540504616">
        <ele>87.2</ele>
        <time>2018-02-08T12:57:13Z</time>
      </trkpt>
      <trkpt lat="62.644435845966" lon="17.871628011652">
        <ele>87.6</ele>
        <time>2018-02-08T12:57:14Z</time>
      </trkpt>
      <trkpt lat="62.644421177641" lon="17.871716775973">
        <ele>87.4</ele>
        <time>2018-02-08T12:57:15Z</time>
      </trkpt>
      <trkpt lat="62.644408101877" lon="17.871791961616">
        <ele>87.2</ele>
        <time>2018-02-08T12:57:16Z</time>
      </trkpt>
      <trkpt lat="62.644398546511" lon="17.871860525558">
        <ele>87</ele>
        <time>2018-02-08T12:57:17Z</time>
      </trkpt>
      <trkpt lat="62.644380357788" lon="17.871941578531">
        <ele>87.2</ele>
        <time>2018-02-08T12:57:18Z</time>
      </trkpt>
      <trkpt lat="62.644365605644" lon="17.872016680355">
        <ele>87</ele>
        <time>2018-02-08T12:57:19Z</time>
      </trkpt>
      <trkpt lat="62.644356301735" lon="17.87208415465">
        <ele>86.8</ele>
        <time>2018-02-08T12:57:20Z</time>
      </trkpt>
      <trkpt lat="62.644338783564" lon="17.872163363605">
        <ele>86.8</ele>
        <time>2018-02-08T12:57:21Z</time>
      </trkpt>
      <trkpt lat="62.644323277049" lon="17.872257324704">
        <ele>86.6</ele>
        <time>2018-02-08T12:57:22Z</time>
      </trkpt>
      <trkpt lat="62.644303244308" lon="17.872328403216">
        <ele>86.6</ele>
        <time>2018-02-08T12:57:23Z</time>
      </trkpt>
      <trkpt lat="62.644283630662" lon="17.87241104875">
        <ele>86.8</ele>
        <time>2018-02-08T12:57:24Z</time>
      </trkpt>
      <trkpt lat="62.644267788871" lon="17.872480953796">
        <ele>86.8</ele>
        <time>2018-02-08T12:57:25Z</time>
      </trkpt>
      <trkpt lat="62.644246498845" lon="17.872559659837">
        <ele>86.6</ele>
        <time>2018-02-08T12:57:26Z</time>
      </trkpt>
      <trkpt lat="62.644221939878" lon="17.872649346167">
        <ele>86.4</ele>
        <time>2018-02-08T12:57:27Z</time>
      </trkpt>
      <trkpt lat="62.64420081749" lon="17.872736098832">
        <ele>86.4</ele>
        <time>2018-02-08T12:57:28Z</time>
      </trkpt>
      <trkpt lat="62.644182293491" lon="17.872822767678">
        <ele>85.8</ele>
        <time>2018-02-08T12:57:29Z</time>
      </trkpt>
      <trkpt lat="62.644168882451" lon="17.87291563913">
        <ele>85.4</ele>
        <time>2018-02-08T12:57:30Z</time>
      </trkpt>
      <trkpt lat="62.644157483067" lon="17.873003900537">
        <ele>85</ele>
        <time>2018-02-08T12:57:31Z</time>
      </trkpt>
      <trkpt lat="62.644147760063" lon="17.873113871065">
        <ele>84.6</ele>
        <time>2018-02-08T12:57:32Z</time>
      </trkpt>
      <trkpt lat="62.64413208591" lon="17.873221494661">
        <ele>84.2</ele>
        <time>2018-02-08T12:57:33Z</time>
      </trkpt>
      <trkpt lat="62.644114232463" lon="17.873331549008">
        <ele>84.2</ele>
        <time>2018-02-08T12:57:34Z</time>
      </trkpt>
      <trkpt lat="62.644102162527" lon="17.873425677745">
        <ele>83.8</ele>
        <time>2018-02-08T12:57:35Z</time>
      </trkpt>
      <trkpt lat="62.644084057623" lon="17.873536654101">
        <ele>83.4</ele>
        <time>2018-02-08T12:57:36Z</time>
      </trkpt>
      <trkpt lat="62.644063102873" lon="17.873658862203">
        <ele>83.2</ele>
        <time>2018-02-08T12:57:37Z</time>
      </trkpt>
      <trkpt lat="62.644047847815" lon="17.8737563437">
        <ele>82.8</ele>
        <time>2018-02-08T12:57:38Z</time>
      </trkpt>
      <trkpt lat="62.644030245825" lon="17.873860530717">
        <ele>82.6</ele>
        <time>2018-02-08T12:57:39Z</time>
      </trkpt>
      <trkpt lat="62.644017337699" lon="17.873956754929">
        <ele>82.8</ele>
        <time>2018-02-08T12:57:40Z</time>
      </trkpt>
      <trkpt lat="62.644003172288" lon="17.874036802074">
        <ele>82.8</ele>
        <time>2018-02-08T12:57:41Z</time>
      </trkpt>
      <trkpt lat="62.643979451511" lon="17.874163787859">
        <ele>82.6</ele>
        <time>2018-02-08T12:57:42Z</time>
      </trkpt>
      <trkpt lat="62.643955982191" lon="17.874268645428">
        <ele>82.6</ele>
        <time>2018-02-08T12:57:43Z</time>
      </trkpt>
      <trkpt lat="62.643933351061" lon="17.874372161893">
        <ele>82</ele>
        <time>2018-02-08T12:57:44Z</time>
      </trkpt>
      <trkpt lat="62.64391164194" lon="17.874479617851">
        <ele>81.4</ele>
        <time>2018-02-08T12:57:45Z</time>
      </trkpt>
      <trkpt lat="62.643895800149" lon="17.8745777699">
        <ele>81</ele>
        <time>2018-02-08T12:57:46Z</time>
      </trkpt>
      <trkpt lat="62.643881886195" lon="17.874672988284">
        <ele>80.6</ele>
        <time>2018-02-08T12:57:47Z</time>
      </trkpt>
      <trkpt lat="62.643866295861" lon="17.874777342939">
        <ele>80.2</ele>
        <time>2018-02-08T12:57:48Z</time>
      </trkpt>
      <trkpt lat="62.643852884821" lon="17.874866861631">
        <ele>80.2</ele>
        <time>2018-02-08T12:57:49Z</time>
      </trkpt>
      <trkpt lat="62.64383788122" lon="17.874960655092">
        <ele>80.2</ele>
        <time>2018-02-08T12:57:50Z</time>
      </trkpt>
      <trkpt lat="62.643825140732" lon="17.875054616191">
        <ele>80.4</ele>
        <time>2018-02-08T12:57:51Z</time>
      </trkpt>
      <trkpt lat="62.643815585366" lon="17.875141368856">
        <ele>80.4</ele>
        <time>2018-02-08T12:57:52Z</time>
      </trkpt>
      <trkpt lat="62.64380435362" lon="17.875223930571">
        <ele>80.4</ele>
        <time>2018-02-08T12:57:53Z</time>
      </trkpt>
      <trkpt lat="62.643794630616" lon="17.8753153771">
        <ele>80.2</ele>
        <time>2018-02-08T12:57:54Z</time>
      </trkpt>
      <trkpt lat="62.643780968119" lon="17.875398609367">
        <ele>79.8</ele>
        <time>2018-02-08T12:57:55Z</time>
      </trkpt>
      <trkpt lat="62.643769401097" lon="17.875480416711">
        <ele>79.6</ele>
        <time>2018-02-08T12:57:56Z</time>
      </trkpt>
      <trkpt lat="62.64375825317" lon="17.875563565159">
        <ele>79.4</ele>
        <time>2018-02-08T12:57:57Z</time>
      </trkpt>
      <trkpt lat="62.643739729171" lon="17.875653670584">
        <ele>79.4</ele>
        <time>2018-02-08T12:57:58Z</time>
      </trkpt>
      <trkpt lat="62.643726318131" lon="17.87573866305">
        <ele>79.4</ele>
        <time>2018-02-08T12:57:59Z</time>
      </trkpt>
      <trkpt lat="62.643715086385" lon="17.875826002448">
        <ele>79.2</ele>
        <time>2018-02-08T12:58:00Z</time>
      </trkpt>
      <trkpt lat="62.643697232938" lon="17.875910743457">
        <ele>79.4</ele>
        <time>2018-02-08T12:58:01Z</time>
      </trkpt>
      <trkpt lat="62.643678708939" lon="17.876004620737">
        <ele>79.2</ele>
        <time>2018-02-08T12:58:02Z</time>
      </trkpt>
      <trkpt lat="62.643661106949" lon="17.876080728389">
        <ele>79.2</ele>
        <time>2018-02-08T12:58:03Z</time>
      </trkpt>
      <trkpt lat="62.643646606262" lon="17.876160440258">
        <ele>79.2</ele>
        <time>2018-02-08T12:58:04Z</time>
      </trkpt>
      <trkpt lat="62.643633111403" lon="17.876221879585">
        <ele>79.2</ele>
        <time>2018-02-08T12:58:05Z</time>
      </trkpt>
      <trkpt lat="62.643619700363" lon="17.876304189843">
        <ele>79.2</ele>
        <time>2018-02-08T12:58:06Z</time>
      </trkpt>
      <trkpt lat="62.643609306807" lon="17.876383650255">
        <ele>79</ele>
        <time>2018-02-08T12:58:07Z</time>
      </trkpt>
      <trkpt lat="62.643590112256" lon="17.876462104839">
        <ele>79</ele>
        <time>2018-02-08T12:58:08Z</time>
      </trkpt>
      <trkpt lat="62.643563122538" lon="17.876528321849">
        <ele>78.8</ele>
        <time>2018-02-08T12:58:09Z</time>
      </trkpt>
      <trkpt lat="62.643529175843" lon="17.876586324597">
        <ele>78.6</ele>
        <time>2018-02-08T12:58:10Z</time>
      </trkpt>
      <trkpt lat="62.643507718179" lon="17.87662882083">
        <ele>78.2</ele>
        <time>2018-02-08T12:58:11Z</time>
      </trkpt>
      <trkpt lat="62.643466898326" lon="17.876675256556">
        <ele>78.2</ele>
        <time>2018-02-08T12:58:12Z</time>
      </trkpt>
      <trkpt lat="62.643432783993" lon="17.876699983161">
        <ele>78</ele>
        <time>2018-02-08T12:58:13Z</time>
      </trkpt>
      <trkpt lat="62.643398418203" lon="17.876710209079">
        <ele>77.8</ele>
        <time>2018-02-08T12:58:14Z</time>
      </trkpt>
      <trkpt lat="62.643363046585" lon="17.876711298726">
        <ele>77.8</ele>
        <time>2018-02-08T12:58:15Z</time>
      </trkpt>
      <trkpt lat="62.643331782098" lon="17.876708951794">
        <ele>77.8</ele>
        <time>2018-02-08T12:58:16Z</time>
      </trkpt>
      <trkpt lat="62.643294398824" lon="17.87670174336">
        <ele>78</ele>
        <time>2018-02-08T12:58:17Z</time>
      </trkpt>
      <trkpt lat="62.643255758265" lon="17.876695540754">
        <ele>78</ele>
        <time>2018-02-08T12:58:18Z</time>
      </trkpt>
      <trkpt lat="62.643228433271" lon="17.876694702564">
        <ele>78</ele>
        <time>2018-02-08T12:58:19Z</time>
      </trkpt>
      <trkpt lat="62.643195073309" lon="17.876690427795">
        <ele>78</ele>
        <time>2018-02-08T12:58:20Z</time>
      </trkpt>
      <trkpt lat="62.64316565284" lon="17.876685063379">
        <ele>77.8</ele>
        <time>2018-02-08T12:58:21Z</time>
      </trkpt>
      <trkpt lat="62.643132628154" lon="17.87667995042">
        <ele>77.8</ele>
        <time>2018-02-08T12:58:22Z</time>
      </trkpt>
      <trkpt lat="62.643103040047" lon="17.876676346203">
        <ele>77.8</ele>
        <time>2018-02-08T12:58:23Z</time>
      </trkpt>
      <trkpt lat="62.643070602094" lon="17.876670143597">
        <ele>78</ele>
        <time>2018-02-08T12:58:24Z</time>
      </trkpt>
      <trkpt lat="62.643044031471" lon="17.876665617371">
        <ele>78</ele>
        <time>2018-02-08T12:58:25Z</time>
      </trkpt>
      <trkpt lat="62.643016035925" lon="17.876658408937">
        <ele>78</ele>
        <time>2018-02-08T12:58:26Z</time>
      </trkpt>
      <trkpt lat="62.642986112542" lon="17.876654050349">
        <ele>78</ele>
        <time>2018-02-08T12:58:27Z</time>
      </trkpt>
      <trkpt lat="62.642961302118" lon="17.876645752268">
        <ele>77.8</ele>
        <time>2018-02-08T12:58:28Z</time>
      </trkpt>
      <trkpt lat="62.642938419531" lon="17.876639549662">
        <ele>78</ele>
        <time>2018-02-08T12:58:29Z</time>
      </trkpt>
      <trkpt lat="62.642911848908" lon="17.876634269065">
        <ele>78</ele>
        <time>2018-02-08T12:58:30Z</time>
      </trkpt>
      <trkpt lat="62.642892738176" lon="17.876628988468">
        <ele>78.2</ele>
        <time>2018-02-08T12:58:31Z</time>
      </trkpt>
      <trkpt lat="62.642869352675" lon="17.876627563545">
        <ele>78.2</ele>
        <time>2018-02-08T12:58:32Z</time>
      </trkpt>
      <trkpt lat="62.642849487572" lon="17.87662882083">
        <ele>78.4</ele>
        <time>2018-02-08T12:58:33Z</time>
      </trkpt>
      <trkpt lat="62.642829706288" lon="17.876631419219">
        <ele>78.6</ele>
        <time>2018-02-08T12:58:34Z</time>
      </trkpt>
      <trkpt lat="62.642811685203" lon="17.876633179418">
        <ele>79</ele>
        <time>2018-02-08T12:58:35Z</time>
      </trkpt>
      <trkpt lat="62.642789556987" lon="17.876635861626">
        <ele>79.2</ele>
        <time>2018-02-08T12:58:36Z</time>
      </trkpt>
      <trkpt lat="62.642766506762" lon="17.876639214386">
        <ele>79.6</ele>
        <time>2018-02-08T12:58:37Z</time>
      </trkpt>
      <trkpt lat="62.642747563668" lon="17.876645752268">
        <ele>80</ele>
        <time>2018-02-08T12:58:38Z</time>
      </trkpt>
      <trkpt lat="62.642726692737" lon="17.876650781408">
        <ele>80.6</ele>
        <time>2018-02-08T12:58:39Z</time>
      </trkpt>
      <trkpt lat="62.642707498186" lon="17.876655223815">
        <ele>81</ele>
        <time>2018-02-08T12:58:40Z</time>
      </trkpt>
      <trkpt lat="62.642692159309" lon="17.876661929335">
        <ele>81.2</ele>
        <time>2018-02-08T12:58:41Z</time>
      </trkpt>
      <trkpt lat="62.642668103256" lon="17.876672322891">
        <ele>81.4</ele>
        <time>2018-02-08T12:58:42Z</time>
      </trkpt>
      <trkpt lat="62.642643711927" lon="17.876693110003">
        <ele>81.8</ele>
        <time>2018-02-08T12:58:43Z</time>
      </trkpt>
      <trkpt lat="62.642621416073" lon="17.876703503559">
        <ele>82</ele>
        <time>2018-02-08T12:58:44Z</time>
      </trkpt>
      <trkpt lat="62.642600545142" lon="17.876713645658">
        <ele>82.2</ele>
        <time>2018-02-08T12:58:45Z</time>
      </trkpt>
      <trkpt lat="62.642582943152" lon="17.876725045042">
        <ele>82.4</ele>
        <time>2018-02-08T12:58:46Z</time>
      </trkpt>
      <trkpt lat="62.642565844076" lon="17.876740719195">
        <ele>82.4</ele>
        <time>2018-02-08T12:58:47Z</time>
      </trkpt>
      <trkpt lat="62.642546900982" lon="17.876757315357">
        <ele>82.4</ele>
        <time>2018-02-08T12:58:48Z</time>
      </trkpt>
      <trkpt lat="62.642529969544" lon="17.876773408605">
        <ele>82.6</ele>
        <time>2018-02-08T12:58:49Z</time>
      </trkpt>
      <trkpt lat="62.642511529364" lon="17.876792016423">
        <ele>82.8</ele>
        <time>2018-02-08T12:58:50Z</time>
      </trkpt>
      <trkpt lat="62.642493675917" lon="17.876810121327">
        <ele>83</ele>
        <time>2018-02-08T12:58:51Z</time>
      </trkpt>
      <trkpt lat="62.64247414609" lon="17.876829818792">
        <ele>83.2</ele>
        <time>2018-02-08T12:58:52Z</time>
      </trkpt>
      <trkpt lat="62.642462243792" lon="17.8768492648">
        <ele>83.2</ele>
        <time>2018-02-08T12:58:53Z</time>
      </trkpt>
      <trkpt lat="62.64244229487" lon="17.876878182355">
        <ele>83.4</ele>
        <time>2018-02-08T12:58:54Z</time>
      </trkpt>
      <trkpt lat="62.642420921025" lon="17.876911542317">
        <ele>83.4</ele>
        <time>2018-02-08T12:58:55Z</time>
      </trkpt>
      <trkpt lat="62.642405917424" lon="17.876939956958">
        <ele>83.4</ele>
        <time>2018-02-08T12:58:56Z</time>
      </trkpt>
      <trkpt lat="62.642388566891" lon="17.876971472902">
        <ele>83.6</ele>
        <time>2018-02-08T12:58:57Z</time>
      </trkpt>
      <trkpt lat="62.642369539978" lon="17.877004413769">
        <ele>83.6</ele>
        <time>2018-02-08T12:58:58Z</time>
      </trkpt>
      <trkpt lat="62.642349926332" lon="17.877037522274">
        <ele>83.8</ele>
        <time>2018-02-08T12:58:59Z</time>
      </trkpt>
      <trkpt lat="62.64234255026" lon="17.877061075413">
        <ele>83.8</ele>
        <time>2018-02-08T12:59:00Z</time>
      </trkpt>
      <trkpt lat="62.642322852795" lon="17.877097788135">
        <ele>84</ele>
        <time>2018-02-08T12:59:01Z</time>
      </trkpt>
      <trkpt lat="62.642303574425" lon="17.877144978232">
        <ele>84</ele>
        <time>2018-02-08T12:59:02Z</time>
      </trkpt>
      <trkpt lat="62.64228303877" lon="17.8771845408">
        <ele>84</ele>
        <time>2018-02-08T12:59:03Z</time>
      </trkpt>
      <trkpt lat="62.642264850047" lon="17.877230808888">
        <ele>84</ele>
        <time>2018-02-08T12:59:04Z</time>
      </trkpt>
      <trkpt lat="62.642248002428" lon="17.877277998985">
        <ele>84</ele>
        <time>2018-02-08T12:59:05Z</time>
      </trkpt>
      <trkpt lat="62.642217073217" lon="17.877320159942">
        <ele>84</ele>
        <time>2018-02-08T12:59:06Z</time>
      </trkpt>
      <trkpt lat="62.642190670232" lon="17.877373217369">
        <ele>83.8</ele>
        <time>2018-02-08T12:59:07Z</time>
      </trkpt>
      <trkpt lat="62.642165524532" lon="17.877419401638">
        <ele>83.6</ele>
        <time>2018-02-08T12:59:08Z</time>
      </trkpt>
      <trkpt lat="62.642139959737" lon="17.877468351934">
        <ele>83.2</ele>
        <time>2018-02-08T12:59:09Z</time>
      </trkpt>
      <trkpt lat="62.642113556752" lon="17.877522079913">
        <ele>82.8</ele>
        <time>2018-02-08T12:59:10Z</time>
      </trkpt>
      <trkpt lat="62.642091596174" lon="17.877572371313">
        <ele>82.6</ele>
        <time>2018-02-08T12:59:11Z</time>
      </trkpt>
      <trkpt lat="62.642055134909" lon="17.877647976051">
        <ele>82.4</ele>
        <time>2018-02-08T12:59:12Z</time>
      </trkpt>
      <trkpt lat="62.642022864594" lon="17.877718216373">
        <ele>82.6</ele>
        <time>2018-02-08T12:59:13Z</time>
      </trkpt>
      <trkpt lat="62.641994617591" lon="17.87779055217">
        <ele>82</ele>
        <time>2018-02-08T12:59:14Z</time>
      </trkpt>
      <trkpt lat="62.641966454407" lon="17.877874454989">
        <ele>81.6</ele>
        <time>2018-02-08T12:59:15Z</time>
      </trkpt>
      <trkpt lat="62.641938794137" lon="17.877964308957">
        <ele>81.4</ele>
        <time>2018-02-08T12:59:16Z</time>
      </trkpt>
      <trkpt lat="62.641911888238" lon="17.878071429639">
        <ele>80.6</ele>
        <time>2018-02-08T12:59:17Z</time>
      </trkpt>
      <trkpt lat="62.641884311787" lon="17.878195230302">
        <ele>80</ele>
        <time>2018-02-08T12:59:18Z</time>
      </trkpt>
      <trkpt lat="62.641860842467" lon="17.878320874983">
        <ele>79.4</ele>
        <time>2018-02-08T12:59:19Z</time>
      </trkpt>
      <trkpt lat="62.641838714251" lon="17.878457667591">
        <ele>78.8</ele>
        <time>2018-02-08T12:59:20Z</time>
      </trkpt>
      <trkpt lat="62.641819687338" lon="17.878589179602">
        <ele>78.2</ele>
        <time>2018-02-08T12:59:21Z</time>
      </trkpt>
      <trkpt lat="62.641799654597" lon="17.878738293603">
        <ele>77.2</ele>
        <time>2018-02-08T12:59:22Z</time>
      </trkpt>
      <trkpt lat="62.641786662652" lon="17.878866704311">
        <ele>76.4</ele>
        <time>2018-02-08T12:59:23Z</time>
      </trkpt>
      <trkpt lat="62.641778196933" lon="17.879014812484">
        <ele>75.6</ele>
        <time>2018-02-08T12:59:24Z</time>
      </trkpt>
      <trkpt lat="62.641778783666" lon="17.879159400259">
        <ele>75</ele>
        <time>2018-02-08T12:59:25Z</time>
      </trkpt>
      <trkpt lat="62.641783561349" lon="17.879305580595">
        <ele>74.6</ele>
        <time>2018-02-08T12:59:26Z</time>
      </trkpt>
      <trkpt lat="62.641793116715" lon="17.879469362921">
        <ele>74.2</ele>
        <time>2018-02-08T12:59:27Z</time>
      </trkpt>
      <trkpt lat="62.641804599918" lon="17.879618393103">
        <ele>73.6</ele>
        <time>2018-02-08T12:59:28Z</time>
      </trkpt>
      <trkpt lat="62.641814322922" lon="17.879754598978">
        <ele>73</ele>
        <time>2018-02-08T12:59:29Z</time>
      </trkpt>
      <trkpt lat="62.641823207736" lon="17.879898683839">
        <ele>72.6</ele>
        <time>2018-02-08T12:59:30Z</time>
      </trkpt>
      <trkpt lat="62.641827733962" lon="17.880017874457">
        <ele>72.2</ele>
        <time>2018-02-08T12:59:31Z</time>
      </trkpt>
      <trkpt lat="62.641827231048" lon="17.880156594902">
        <ele>71.8</ele>
        <time>2018-02-08T12:59:32Z</time>
      </trkpt>
      <trkpt lat="62.641821028442" lon="17.880289112741">
        <ele>71.6</ele>
        <time>2018-02-08T12:59:33Z</time>
      </trkpt>
      <trkpt lat="62.641811053981" lon="17.880421043847">
        <ele>71.4</ele>
        <time>2018-02-08T12:59:34Z</time>
      </trkpt>
      <trkpt lat="62.641797559122" lon="17.880542413759">
        <ele>71</ele>
        <time>2018-02-08T12:59:35Z</time>
      </trkpt>
      <trkpt lat="62.641779454218" lon="17.880670824467">
        <ele>70.8</ele>
        <time>2018-02-08T12:59:36Z</time>
      </trkpt>
      <trkpt lat="62.641761600771" lon="17.880788422524">
        <ele>70.2</ele>
        <time>2018-02-08T12:59:37Z</time>
      </trkpt>
      <trkpt lat="62.641750285206" lon="17.880869726954">
        <ele>70</ele>
        <time>2018-02-08T12:59:38Z</time>
      </trkpt>
      <trkpt lat="62.641734611053" lon="17.880950612289">
        <ele>70</ele>
        <time>2018-02-08T12:59:39Z</time>
      </trkpt>
      <trkpt lat="62.64172312785" lon="17.881017416032">
        <ele>70.2</ele>
        <time>2018-02-08T12:59:40Z</time>
      </trkpt>
      <trkpt lat="62.641716589968" lon="17.881057984428">
        <ele>70.4</ele>
        <time>2018-02-08T12:59:41Z</time>
      </trkpt>
      <trkpt lat="62.641700748177" lon="17.881132248062">
        <ele>70.6</ele>
        <time>2018-02-08T12:59:42Z</time>
      </trkpt>
      <trkpt lat="62.641685744576" lon="17.881211037922">
        <ele>71.2</ele>
        <time>2018-02-08T12:59:43Z</time>
      </trkpt>
      <trkpt lat="62.641673087907" lon="17.881304496107">
        <ele>71.2</ele>
        <time>2018-02-08T12:59:44Z</time>
      </trkpt>
      <trkpt lat="62.641663029627" lon="17.881401809966">
        <ele>71.4</ele>
        <time>2018-02-08T12:59:45Z</time>
      </trkpt>
      <trkpt lat="62.641656994659" lon="17.881492585943">
        <ele>71.2</ele>
        <time>2018-02-08T12:59:46Z</time>
      </trkpt>
      <trkpt lat="62.641643164524" lon="17.881590402716">
        <ele>71</ele>
        <time>2018-02-08T12:59:47Z</time>
      </trkpt>
      <trkpt lat="62.641630759312" lon="17.881676568648">
        <ele>70.6</ele>
        <time>2018-02-08T12:59:48Z</time>
      </trkpt>
      <trkpt lat="62.641607709087" lon="17.8817442944">
        <ele>70.2</ele>
        <time>2018-02-08T12:59:49Z</time>
      </trkpt>
      <trkpt lat="62.641580048817" lon="17.881792574144">
        <ele>70</ele>
        <time>2018-02-08T12:59:50Z</time>
      </trkpt>
      <trkpt lat="62.641547694683" lon="17.881828029581">
        <ele>69.8</ele>
        <time>2018-02-08T12:59:51Z</time>
      </trkpt>
      <trkpt lat="62.641517016929" lon="17.881849403426">
        <ele>69.8</ele>
        <time>2018-02-08T12:59:52Z</time>
      </trkpt>
      <trkpt lat="62.641491619772" lon="17.881862143914">
        <ele>70</ele>
        <time>2018-02-08T12:59:53Z</time>
      </trkpt>
      <trkpt lat="62.641467898995" lon="17.881874465307">
        <ele>70</ele>
        <time>2018-02-08T12:59:54Z</time>
      </trkpt>
      <trkpt lat="62.641443591485" lon="17.88188343394">
        <ele>70.2</ele>
        <time>2018-02-08T12:59:55Z</time>
      </trkpt>
      <trkpt lat="62.641421295631" lon="17.88188930127">
        <ele>70.4</ele>
        <time>2018-02-08T12:59:56Z</time>
      </trkpt>
      <trkpt lat="62.641389779687" lon="17.881895839152">
        <ele>70.6</ele>
        <time>2018-02-08T12:59:57Z</time>
      </trkpt>
      <trkpt lat="62.641360694494" lon="17.881905394518">
        <ele>70.8</ele>
        <time>2018-02-08T12:59:58Z</time>
      </trkpt>
      <trkpt lat="62.641338231002" lon="17.88191696154">
        <ele>70.8</ele>
        <time>2018-02-08T12:59:59Z</time>
      </trkpt>
      <trkpt lat="62.641311660379" lon="17.881935988453">
        <ele>71</ele>
        <time>2018-02-08T13:00:00Z</time>
      </trkpt>
      <trkpt lat="62.641284251566" lon="17.881953925719">
        <ele>71</ele>
        <time>2018-02-08T13:00:01Z</time>
      </trkpt>
      <trkpt lat="62.641259860237" lon="17.881970438062">
        <ele>71</ele>
        <time>2018-02-08T13:00:02Z</time>
      </trkpt>
      <trkpt lat="62.64123446308" lon="17.881986363672">
        <ele>70.8</ele>
        <time>2018-02-08T13:00:03Z</time>
      </trkpt>
      <trkpt lat="62.641204707335" lon="17.882013856304">
        <ele>71</ele>
        <time>2018-02-08T13:00:04Z</time>
      </trkpt>
      <trkpt lat="62.641172353201" lon="17.882051993949">
        <ele>71</ele>
        <time>2018-02-08T13:00:05Z</time>
      </trkpt>
      <trkpt lat="62.641135640479" lon="17.882112595086">
        <ele>71.2</ele>
        <time>2018-02-08T13:00:06Z</time>
      </trkpt>
      <trkpt lat="62.641097754291" lon="17.882195911172">
        <ele>71</ele>
        <time>2018-02-08T13:00:07Z</time>
      </trkpt>
      <trkpt lat="62.641063556139" lon="17.882292554479">
        <ele>71</ele>
        <time>2018-02-08T13:00:08Z</time>
      </trkpt>
      <trkpt lat="62.641030615272" lon="17.882403447016">
        <ele>70.6</ele>
        <time>2018-02-08T13:00:09Z</time>
      </trkpt>
      <trkpt lat="62.641003625554" lon="17.882521380349">
        <ele>70</ele>
        <time>2018-02-08T13:00:10Z</time>
      </trkpt>
      <trkpt lat="62.640989963057" lon="17.882621544054">
        <ele>69.4</ele>
        <time>2018-02-08T13:00:11Z</time>
      </trkpt>
      <trkpt lat="62.640978228397" lon="17.882760264499">
        <ele>69</ele>
        <time>2018-02-08T13:00:12Z</time>
      </trkpt>
      <trkpt lat="62.640968673031" lon="17.882873168692">
        <ele>68.4</ele>
        <time>2018-02-08T13:00:13Z</time>
      </trkpt>
      <trkpt lat="62.640960291131" lon="17.882973500035">
        <ele>67.8</ele>
        <time>2018-02-08T13:00:14Z</time>
      </trkpt>
      <trkpt lat="62.640952244507" lon="17.883059163053">
        <ele>67.4</ele>
        <time>2018-02-08T13:00:15Z</time>
      </trkpt>
      <trkpt lat="62.640943443512" lon="17.883125380063">
        <ele>67</ele>
        <time>2018-02-08T13:00:16Z</time>
      </trkpt>
      <trkpt lat="62.64093690563" lon="17.883191429435">
        <ele>66.8</ele>
        <time>2018-02-08T13:00:17Z</time>
      </trkpt>
      <trkpt lat="62.640932798499" lon="17.88328488762">
        <ele>66.8</ele>
        <time>2018-02-08T13:00:18Z</time>
      </trkpt>
      <trkpt lat="62.640929194282" lon="17.883377675253">
        <ele>66.6</ele>
        <time>2018-02-08T13:00:19Z</time>
      </trkpt>
      <trkpt lat="62.640935480707" lon="17.883481946089">
        <ele>66.4</ele>
        <time>2018-02-08T13:00:20Z</time>
      </trkpt>
      <trkpt lat="62.640947550643" lon="17.883586300744">
        <ele>66.2</ele>
        <time>2018-02-08T13:00:21Z</time>
      </trkpt>
      <trkpt lat="62.640967583384" lon="17.883698450566">
        <ele>66.2</ele>
        <time>2018-02-08T13:00:22Z</time>
      </trkpt>
      <trkpt lat="62.640987951401" lon="17.883785454688">
        <ele>65.8</ele>
        <time>2018-02-08T13:00:23Z</time>
      </trkpt>
      <trkpt lat="62.64101234273" lon="17.88387916433">
        <ele>65.4</ele>
        <time>2018-02-08T13:00:24Z</time>
      </trkpt>
      <trkpt lat="62.641039248629" lon="17.883977651655">
        <ele>65.2</ele>
        <time>2018-02-08T13:00:25Z</time>
      </trkpt>
      <trkpt lat="62.641066908899" lon="17.884079827016">
        <ele>64.8</ele>
        <time>2018-02-08T13:00:26Z</time>
      </trkpt>
      <trkpt lat="62.64109783811" lon="17.88419432377">
        <ele>64.4</ele>
        <time>2018-02-08T13:00:27Z</time>
      </trkpt>
      <trkpt lat="62.641125666018" lon="17.884290967077">
        <ele>63.8</ele>
        <time>2018-02-08T13:00:28Z</time>
      </trkpt>
      <trkpt lat="62.64115232046" lon="17.884381407778">
        <ele>63.4</ele>
        <time>2018-02-08T13:00:29Z</time>
      </trkpt>
      <trkpt lat="62.641184255499" lon="17.884478973094">
        <ele>63</ele>
        <time>2018-02-08T13:00:30Z</time>
      </trkpt>
      <trkpt lat="62.641216106719" lon="17.884557762954">
        <ele>62.4</ele>
        <time>2018-02-08T13:00:31Z</time>
      </trkpt>
      <trkpt lat="62.641256004563" lon="17.884639989393">
        <ele>62.4</ele>
        <time>2018-02-08T13:00:32Z</time>
      </trkpt>
      <trkpt lat="62.641296321502" lon="17.884715175036">
        <ele>62</ele>
        <time>2018-02-08T13:00:33Z</time>
      </trkpt>
      <trkpt lat="62.641338063364" lon="17.884794383991">
        <ele>61.8</ele>
        <time>2018-02-08T13:00:34Z</time>
      </trkpt>
      <trkpt lat="62.641376787742" lon="17.884867055064">
        <ele>61.4</ele>
        <time>2018-02-08T13:00:35Z</time>
      </trkpt>
      <trkpt lat="62.641419786889" lon="17.884946264019">
        <ele>61</ele>
        <time>2018-02-08T13:00:36Z</time>
      </trkpt>
      <trkpt lat="62.64146412714" lon="17.885025892069">
        <ele>60.4</ele>
        <time>2018-02-08T13:00:37Z</time>
      </trkpt>
      <trkpt lat="62.641505114631" lon="17.885101999721">
        <ele>59.8</ele>
        <time>2018-02-08T13:00:38Z</time>
      </trkpt>
      <trkpt lat="62.641547191769" lon="17.885177353002">
        <ele>59.4</ele>
        <time>2018-02-08T13:00:39Z</time>
      </trkpt>
      <trkpt lat="62.641591029106" lon="17.885255304672">
        <ele>58.8</ele>
        <time>2018-02-08T13:00:40Z</time>
      </trkpt>
      <trkpt lat="62.641632100416" lon="17.885326886098">
        <ele>58.2</ele>
        <time>2018-02-08T13:00:41Z</time>
      </trkpt>
      <trkpt lat="62.641684822567" lon="17.885419673731">
        <ele>58</ele>
        <time>2018-02-08T13:00:42Z</time>
      </trkpt>
      <trkpt lat="62.641732850854" lon="17.885507348405">
        <ele>57.6</ele>
        <time>2018-02-08T13:00:43Z</time>
      </trkpt>
      <trkpt lat="62.641781884969" lon="17.885599549305">
        <ele>57</ele>
        <time>2018-02-08T13:00:44Z</time>
      </trkpt>
      <trkpt lat="62.641830667627" lon="17.885690995834">
        <ele>56.6</ele>
        <time>2018-02-08T13:00:45Z</time>
      </trkpt>
      <trkpt lat="62.641873582955" lon="17.885769953332">
        <ele>56.4</ele>
        <time>2018-02-08T13:00:46Z</time>
      </trkpt>
      <trkpt lat="62.641913899894" lon="17.885845390432">
        <ele>55.8</ele>
        <time>2018-02-08T13:00:47Z</time>
      </trkpt>
      <trkpt lat="62.641952708091" lon="17.885918396781">
        <ele>55.2</ele>
        <time>2018-02-08T13:00:48Z</time>
      </trkpt>
      <trkpt lat="62.641986235691" lon="17.885980590479">
        <ele>54.8</ele>
        <time>2018-02-08T13:00:49Z</time>
      </trkpt>
      <trkpt lat="62.642016075255" lon="17.886036413933">
        <ele>54.4</ele>
        <time>2018-02-08T13:00:50Z</time>
      </trkpt>
      <trkpt lat="62.642045998638" lon="17.886091483016">
        <ele>54.2</ele>
        <time>2018-02-08T13:00:51Z</time>
      </trkpt>
      <trkpt lat="62.642078352772" lon="17.886146216823">
        <ele>54</ele>
        <time>2018-02-08T13:00:52Z</time>
      </trkpt>
      <trkpt lat="62.642103414653" lon="17.886195837671">
        <ele>53.8</ele>
        <time>2018-02-08T13:00:53Z</time>
      </trkpt>
      <trkpt lat="62.642133505674" lon="17.88624956565">
        <ele>53.8</ele>
        <time>2018-02-08T13:00:54Z</time>
      </trkpt>
      <trkpt lat="62.642163093781" lon="17.88630069524">
        <ele>53.6</ele>
        <time>2018-02-08T13:00:55Z</time>
      </trkpt>
      <trkpt lat="62.642191256965" lon="17.886347466242">
        <ele>53.4</ele>
        <time>2018-02-08T13:00:56Z</time>
      </trkpt>
      <trkpt lat="62.642229646067" lon="17.886409240845">
        <ele>53</ele>
        <time>2018-02-08T13:00:57Z</time>
      </trkpt>
      <trkpt lat="62.642268538083" lon="17.886484007393">
        <ele>52.6</ele>
        <time>2018-02-08T13:00:58Z</time>
      </trkpt>
      <trkpt lat="62.642306927185" lon="17.886560953235">
        <ele>52.4</ele>
        <time>2018-02-08T13:00:59Z</time>
      </trkpt>
      <trkpt lat="62.642326457012" lon="17.886639324">
        <ele>52</ele>
        <time>2018-02-08T13:01:00Z</time>
      </trkpt>
      <trkpt lat="62.642355626024" lon="17.886732698366">
        <ele>51.4</ele>
        <time>2018-02-08T13:01:01Z</time>
      </trkpt>
      <trkpt lat="62.64237775424" lon="17.886818109927">
        <ele>50.6</ele>
        <time>2018-02-08T13:01:02Z</time>
      </trkpt>
      <trkpt lat="62.642391835832" lon="17.886901928927">
        <ele>50</ele>
        <time>2018-02-08T13:01:03Z</time>
      </trkpt>
      <trkpt lat="62.642399379542" lon="17.88699052561">
        <ele>49.2</ele>
        <time>2018-02-08T13:01:04Z</time>
      </trkpt>
      <trkpt lat="62.642398206076" lon="17.887073087325">
        <ele>48.8</ele>
        <time>2018-02-08T13:01:05Z</time>
      </trkpt>
      <trkpt lat="62.642387896339" lon="17.887161767827">
        <ele>48.6</ele>
        <time>2018-02-08T13:01:06Z</time>
      </trkpt>
      <trkpt lat="62.642367612141" lon="17.887241814972">
        <ele>48.4</ele>
        <time>2018-02-08T13:01:07Z</time>
      </trkpt>
      <trkpt lat="62.642340957699" lon="17.887309456905">
        <ele>48.2</ele>
        <time>2018-02-08T13:01:08Z</time>
      </trkpt>
      <trkpt lat="62.642311285773" lon="17.88737274025">
        <ele>47.8</ele>
        <time>2018-02-08T13:01:09Z</time>
      </trkpt>
      <trkpt lat="62.642281865304" lon="17.887442058563">
        <ele>47.4</ele>
        <time>2018-02-08T13:01:10Z</time>
      </trkpt>
      <trkpt lat="62.64224867298" lon="17.887498887845">
        <ele>47.2</ele>
        <time>2018-02-08T13:01:11Z</time>
      </trkpt>
      <trkpt lat="62.642192681888" lon="17.887589496184">
        <ele>46.8</ele>
        <time>2018-02-08T13:01:12Z</time>
      </trkpt>
      <trkpt lat="62.642152197311" lon="17.88766778313">
        <ele>46.4</ele>
        <time>2018-02-08T13:01:13Z</time>
      </trkpt>
      <trkpt lat="62.642115065494" lon="17.887739364556">
        <ele>46</ele>
        <time>2018-02-08T13:01:14Z</time>
      </trkpt>
      <trkpt lat="62.642074078003" lon="17.88780189353">
        <ele>45.8</ele>
        <time>2018-02-08T13:01:15Z</time>
      </trkpt>
      <trkpt lat="62.64204834557" lon="17.887848413075">
        <ele>45.6</ele>
        <time>2018-02-08T13:01:16Z</time>
      </trkpt>
      <trkpt lat="62.642016661988" lon="17.887907002556">
        <ele>45.2</ele>
        <time>2018-02-08T13:01:17Z</time>
      </trkpt>
      <trkpt lat="62.641989504632" lon="17.887968190426">
        <ele>45.4</ele>
        <time>2018-02-08T13:01:18Z</time>
      </trkpt>
      <trkpt lat="62.641975758316" lon="17.888021583129">
        <ele>45.2</ele>
        <time>2018-02-08T13:01:19Z</time>
      </trkpt>
      <trkpt lat="62.641955725575" lon="17.888089560338">
        <ele>45.2</ele>
        <time>2018-02-08T13:01:20Z</time>
      </trkpt>
      <trkpt lat="62.641933010626" lon="17.888156866995">
        <ele>45.2</ele>
        <time>2018-02-08T13:01:21Z</time>
      </trkpt>
      <trkpt lat="62.641912307333" lon="17.888217551951">
        <ele>45</ele>
        <time>2018-02-08T13:01:22Z</time>
      </trkpt>
      <trkpt lat="62.641898644836" lon="17.888274884147">
        <ele>45</ele>
        <time>2018-02-08T13:01:23Z</time>
      </trkpt>
      <trkpt lat="62.641892609868" lon="17.8882821764">
        <ele>44.8</ele>
        <time>2018-02-08T13:01:24Z</time>
      </trkpt>
      <trkpt lat="62.641858998449" lon="17.888393739489">
        <ele>44.8</ele>
        <time>2018-02-08T13:01:25Z</time>
      </trkpt>
      <trkpt lat="62.641835193853" lon="17.888470433874">
        <ele>44.6</ele>
        <time>2018-02-08T13:01:26Z</time>
      </trkpt>
      <trkpt lat="62.641811724533" lon="17.888543607861">
        <ele>44.6</ele>
        <time>2018-02-08T13:01:27Z</time>
      </trkpt>
      <trkpt lat="62.641796469475" lon="17.888618709685">
        <ele>44.2</ele>
        <time>2018-02-08T13:01:28Z</time>
      </trkpt>
      <trkpt lat="62.641784483358" lon="17.88868366941">
        <ele>44.2</ele>
        <time>2018-02-08T13:01:29Z</time>
      </trkpt>
      <trkpt lat="62.641768893024" lon="17.888743767633">
        <ele>44.2</ele>
        <time>2018-02-08T13:01:30Z</time>
      </trkpt>
      <trkpt lat="62.641756739269" lon="17.888790454816">
        <ele>44.2</ele>
        <time>2018-02-08T13:01:31Z</time>
      </trkpt>
      <trkpt lat="62.641744250238" lon="17.888834292153">
        <ele>44</ele>
        <time>2018-02-08T13:01:32Z</time>
      </trkpt>
      <trkpt lat="62.641735197786" lon="17.888872765074">
        <ele>44.2</ele>
        <time>2018-02-08T13:01:33Z</time>
      </trkpt>
      <trkpt lat="62.641728324628" lon="17.888910567443">
        <ele>44.2</ele>
        <time>2018-02-08T13:01:34Z</time>
      </trkpt>
      <trkpt lat="62.641725474782" lon="17.888938898265">
        <ele>44.6</ele>
        <time>2018-02-08T13:01:35Z</time>
      </trkpt>
      <trkpt lat="62.64172061328" lon="17.888969576019">
        <ele>45</ele>
        <time>2018-02-08T13:01:36Z</time>
      </trkpt>
      <trkpt lat="62.641712399018" lon="17.888997236289">
        <ele>45.4</ele>
        <time>2018-02-08T13:01:37Z</time>
      </trkpt>
      <trkpt lat="62.641706028774" lon="17.889018274858">
        <ele>45.8</ele>
        <time>2018-02-08T13:01:38Z</time>
      </trkpt>
      <trkpt lat="62.641699407073" lon="17.889043169101">
        <ele>46</ele>
        <time>2018-02-08T13:01:39Z</time>
      </trkpt>
      <trkpt lat="62.641692450096" lon="17.889067057516">
        <ele>46.4</ele>
        <time>2018-02-08T13:01:40Z</time>
      </trkpt>
      <trkpt lat="62.64168708568" lon="17.889081893479">
        <ele>46.6</ele>
        <time>2018-02-08T13:01:41Z</time>
      </trkpt>
      <trkpt lat="62.641682727092" lon="17.889101590944">
        <ele>47</ele>
        <time>2018-02-08T13:01:42Z</time>
      </trkpt>
      <trkpt lat="62.641677278857" lon="17.889120785495">
        <ele>47.2</ele>
        <time>2018-02-08T13:01:43Z</time>
      </trkpt>
      <trkpt lat="62.641671662984" lon="17.889143751901">
        <ele>47.6</ele>
        <time>2018-02-08T13:01:44Z</time>
      </trkpt>
      <trkpt lat="62.641668980776" lon="17.88916898142">
        <ele>48</ele>
        <time>2018-02-08T13:01:45Z</time>
      </trkpt>
      <trkpt lat="62.641663867817" lon="17.889191193455">
        <ele>48.2</ele>
        <time>2018-02-08T13:01:46Z</time>
      </trkpt>
      <trkpt lat="62.641659760686" lon="17.889213656947">
        <ele>48.4</ele>
        <time>2018-02-08T13:01:47Z</time>
      </trkpt>
      <trkpt lat="62.641656575564" lon="17.889232851498">
        <ele>48.8</ele>
        <time>2018-02-08T13:01:48Z</time>
      </trkpt>
      <trkpt lat="62.641654228632" lon="17.889247603642">
        <ele>48.8</ele>
        <time>2018-02-08T13:01:49Z</time>
      </trkpt>
      <trkpt lat="62.641651462605" lon="17.889258416293">
        <ele>49</ele>
        <time>2018-02-08T13:01:50Z</time>
      </trkpt>
      <trkpt lat="62.64164852894" lon="17.889279454862">
        <ele>49.2</ele>
        <time>2018-02-08T13:01:51Z</time>
      </trkpt>
      <trkpt lat="62.641644589447" lon="17.889302169811">
        <ele>49.6</ele>
        <time>2018-02-08T13:01:52Z</time>
      </trkpt>
      <trkpt lat="62.641641571963" lon="17.889325220036">
        <ele>49.6</ele>
        <time>2018-02-08T13:01:53Z</time>
      </trkpt>
      <trkpt lat="62.641641236687" lon="17.889343241121">
        <ele>50</ele>
        <time>2018-02-08T13:01:54Z</time>
      </trkpt>
      <trkpt lat="62.641639392669" lon="17.889367045717">
        <ele>50.4</ele>
        <time>2018-02-08T13:01:55Z</time>
      </trkpt>
      <trkpt lat="62.641637967746" lon="17.889386156449">
        <ele>50.6</ele>
        <time>2018-02-08T13:01:56Z</time>
      </trkpt>
      <trkpt lat="62.641636710461" lon="17.889405602457">
        <ele>51</ele>
        <time>2018-02-08T13:01:57Z</time>
      </trkpt>
      <trkpt lat="62.641634698805" lon="17.889420689877">
        <ele>51.4</ele>
        <time>2018-02-08T13:01:58Z</time>
      </trkpt>
      <trkpt lat="62.641631429864" lon="17.889437705134">
        <ele>51.6</ele>
        <time>2018-02-08T13:01:59Z</time>
      </trkpt>
      <trkpt lat="62.641630591674" lon="17.889460587721">
        <ele>52</ele>
        <time>2018-02-08T13:02:00Z</time>
      </trkpt>
      <trkpt lat="62.641629082932" lon="17.889484308498">
        <ele>52.4</ele>
        <time>2018-02-08T13:02:01Z</time>
      </trkpt>
      <trkpt lat="62.641627825647" lon="17.889510879121">
        <ele>52.6</ele>
        <time>2018-02-08T13:02:02Z</time>
      </trkpt>
      <trkpt lat="62.641626400724" lon="17.889533007337">
        <ele>52.8</ele>
        <time>2018-02-08T13:02:03Z</time>
      </trkpt>
      <trkpt lat="62.641624975801" lon="17.889554716458">
        <ele>53.2</ele>
        <time>2018-02-08T13:02:04Z</time>
      </trkpt>
      <trkpt lat="62.641624975801" lon="17.889570725887">
        <ele>53.4</ele>
        <time>2018-02-08T13:02:05Z</time>
      </trkpt>
      <trkpt lat="62.641624137611" lon="17.889590507171">
        <ele>53.6</ele>
        <time>2018-02-08T13:02:06Z</time>
      </trkpt>
      <trkpt lat="62.64162338324" lon="17.889614311767">
        <ele>53.8</ele>
        <time>2018-02-08T13:02:07Z</time>
      </trkpt>
      <trkpt lat="62.641622712688" lon="17.889638200182">
        <ele>54.2</ele>
        <time>2018-02-08T13:02:08Z</time>
      </trkpt>
      <trkpt lat="62.641623047964" lon="17.88966686628">
        <ele>54.6</ele>
        <time>2018-02-08T13:02:09Z</time>
      </trkpt>
      <trkpt lat="62.641623718516" lon="17.889691676704">
        <ele>54.6</ele>
        <time>2018-02-08T13:02:10Z</time>
      </trkpt>
      <trkpt lat="62.641623969973" lon="17.889711038893">
        <ele>54.6</ele>
        <time>2018-02-08T13:02:11Z</time>
      </trkpt>
      <trkpt lat="62.641624891982" lon="17.889741549009">
        <ele>54.8</ele>
        <time>2018-02-08T13:02:12Z</time>
      </trkpt>
      <trkpt lat="62.641624975801" lon="17.88976996365">
        <ele>55.2</ele>
        <time>2018-02-08T13:02:13Z</time>
      </trkpt>
      <trkpt lat="62.641625311077" lon="17.889799384119">
        <ele>55.2</ele>
        <time>2018-02-08T13:02:14Z</time>
      </trkpt>
      <trkpt lat="62.641626400724" lon="17.889830145692">
        <ele>55.6</ele>
        <time>2018-02-08T13:02:15Z</time>
      </trkpt>
      <trkpt lat="62.641627155095" lon="17.889859733799">
        <ele>56</ele>
        <time>2018-02-08T13:02:16Z</time>
      </trkpt>
      <trkpt lat="62.641627071276" lon="17.889895273055">
        <ele>56.2</ele>
        <time>2018-02-08T13:02:17Z</time>
      </trkpt>
      <trkpt lat="62.641630843131" lon="17.889931315225">
        <ele>56.6</ele>
        <time>2018-02-08T13:02:18Z</time>
      </trkpt>
      <trkpt lat="62.64163679428" lon="17.889960903332">
        <ele>56.8</ele>
        <time>2018-02-08T13:02:19Z</time>
      </trkpt>
      <trkpt lat="62.641644170352" lon="17.889991664905">
        <ele>57.2</ele>
        <time>2018-02-08T13:02:20Z</time>
      </trkpt>
      <trkpt lat="62.641651127329" lon="17.89003064074">
        <ele>57.4</ele>
        <time>2018-02-08T13:02:21Z</time>
      </trkpt>
      <trkpt lat="62.641659928324" lon="17.890077914656">
        <ele>57.6</ele>
        <time>2018-02-08T13:02:22Z</time>
      </trkpt>
      <trkpt lat="62.64166948369" lon="17.890114124464">
        <ele>57.8</ele>
        <time>2018-02-08T13:02:23Z</time>
      </trkpt>
      <trkpt lat="62.641681134531" lon="17.890155866326">
        <ele>57.8</ele>
        <time>2018-02-08T13:02:24Z</time>
      </trkpt>
      <trkpt lat="62.641696976322" lon="17.890196937636">
        <ele>57.8</ele>
        <time>2018-02-08T13:02:25Z</time>
      </trkpt>
      <trkpt lat="62.641715500321" lon="17.890237003118">
        <ele>57.8</ele>
        <time>2018-02-08T13:02:26Z</time>
      </trkpt>
      <trkpt lat="62.641738885822" lon="17.890282181559">
        <ele>57.8</ele>
        <time>2018-02-08T13:02:27Z</time>
      </trkpt>
      <trkpt lat="62.641766881368" lon="17.890330126027">
        <ele>57.8</ele>
        <time>2018-02-08T13:02:28Z</time>
      </trkpt>
      <trkpt lat="62.641794709276" lon="17.890379160142">
        <ele>57.8</ele>
        <time>2018-02-08T13:02:29Z</time>
      </trkpt>
      <trkpt lat="62.641822453365" lon="17.890428110438">
        <ele>57.8</ele>
        <time>2018-02-08T13:02:30Z</time>
      </trkpt>
      <trkpt lat="62.641830835265" lon="17.890406485136">
        <ele>57.8</ele>
        <time>2018-02-08T13:02:31Z</time>
      </trkpt>
      <trkpt lat="62.641886155805" lon="17.89045392669">
        <ele>57.6</ele>
        <time>2018-02-08T13:02:32Z</time>
      </trkpt>
      <trkpt lat="62.641997970351" lon="17.89052768741">
        <ele>57</ele>
        <time>2018-02-08T13:02:33Z</time>
      </trkpt>
      <trkpt lat="62.642075502926" lon="17.89057965519">
        <ele>56.2</ele>
        <time>2018-02-08T13:02:34Z</time>
      </trkpt>
      <trkpt lat="62.642152197311" lon="17.890632628798">
        <ele>56</ele>
        <time>2018-02-08T13:02:35Z</time>
      </trkpt>
      <trkpt lat="62.642219839244" lon="17.890678980705">
        <ele>54.6</ele>
        <time>2018-02-08T13:02:36Z</time>
      </trkpt>
      <trkpt lat="62.642321092596" lon="17.8907548369">
        <ele>53.6</ele>
        <time>2018-02-08T13:02:37Z</time>
      </trkpt>
      <trkpt lat="62.642391668194" lon="17.890810827992">
        <ele>51.8</ele>
        <time>2018-02-08T13:02:38Z</time>
      </trkpt>
      <trkpt lat="62.642447407829" lon="17.89086128703">
        <ele>50</ele>
        <time>2018-02-08T13:02:39Z</time>
      </trkpt>
      <trkpt lat="62.642489904062" lon="17.890916020837">
        <ele>48.6</ele>
        <time>2018-02-08T13:02:40Z</time>
      </trkpt>
      <trkpt lat="62.642516223228" lon="17.890960025812">
        <ele>48</ele>
        <time>2018-02-08T13:02:41Z</time>
      </trkpt>
      <trkpt lat="62.642538099987" lon="17.891014089067">
        <ele>48.4</ele>
        <time>2018-02-08T13:02:42Z</time>
      </trkpt>
      <trkpt lat="62.642551175751" lon="17.891052478169">
        <ele>49.2</ele>
        <time>2018-02-08T13:02:43Z</time>
      </trkpt>
      <trkpt lat="62.642560144384" lon="17.891090531995">
        <ele>50.2</ele>
        <time>2018-02-08T13:02:44Z</time>
      </trkpt>
      <trkpt lat="62.642564167696" lon="17.891140991033">
        <ele>51.2</ele>
        <time>2018-02-08T13:02:45Z</time>
      </trkpt>
      <trkpt lat="62.642565844076" lon="17.89118399018">
        <ele>51.8</ele>
        <time>2018-02-08T13:02:46Z</time>
      </trkpt>
      <trkpt lat="62.642565760257" lon="17.891221373454">
        <ele>52</ele>
        <time>2018-02-08T13:02:47Z</time>
      </trkpt>
      <trkpt lat="62.642559390013" lon="17.891278370374">
        <ele>52</ele>
        <time>2018-02-08T13:02:48Z</time>
      </trkpt>
      <trkpt lat="62.642551511027" lon="17.891324722281">
        <ele>52.2</ele>
        <time>2018-02-08T13:02:49Z</time>
      </trkpt>
      <trkpt lat="62.642541620385" lon="17.891371912378">
        <ele>52.2</ele>
        <time>2018-02-08T13:02:50Z</time>
      </trkpt>
      <trkpt lat="62.642525024223" lon="17.891430082764">
        <ele>52.2</ele>
        <time>2018-02-08T13:02:51Z</time>
      </trkpt>
      <trkpt lat="62.642509936803" lon="17.891485151847">
        <ele>52.2</ele>
        <time>2018-02-08T13:02:52Z</time>
      </trkpt>
      <trkpt lat="62.642487473311" lon="17.8915427355">
        <ele>52.2</ele>
        <time>2018-02-08T13:02:53Z</time>
      </trkpt>
      <trkpt lat="62.642462662887" lon="17.891607527587">
        <ele>52.2</ele>
        <time>2018-02-08T13:02:54Z</time>
      </trkpt>
      <trkpt lat="62.642439361205" lon="17.891659327729">
        <ele>52</ele>
        <time>2018-02-08T13:02:55Z</time>
      </trkpt>
      <trkpt lat="62.642413209677" lon="17.891712133699">
        <ele>52</ele>
        <time>2018-02-08T13:02:56Z</time>
      </trkpt>
      <trkpt lat="62.642386806692" lon="17.891767873334">
        <ele>51.8</ele>
        <time>2018-02-08T13:02:57Z</time>
      </trkpt>
      <trkpt lat="62.642360655164" lon="17.891806262436">
        <ele>51.6</ele>
        <time>2018-02-08T13:02:58Z</time>
      </trkpt>
      <trkpt lat="62.642338694586" lon="17.891835850543">
        <ele>51.4</ele>
        <time>2018-02-08T13:02:59Z</time>
      </trkpt>
      <trkpt lat="62.642318913302" lon="17.891854625999">
        <ele>51</ele>
        <time>2018-02-08T13:03:00Z</time>
      </trkpt>
      <trkpt lat="62.642303909701" lon="17.891865606288">
        <ele>50.8</ele>
        <time>2018-02-08T13:03:01Z</time>
      </trkpt>
      <trkpt lat="62.642286475349" lon="17.891877257129">
        <ele>50.8</ele>
        <time>2018-02-08T13:03:02Z</time>
      </trkpt>
      <trkpt lat="62.642269040997" lon="17.891888237418">
        <ele>51</ele>
        <time>2018-02-08T13:03:03Z</time>
      </trkpt>
      <trkpt lat="62.642252193378" lon="17.891897960422">
        <ele>51.4</ele>
        <time>2018-02-08T13:03:04Z</time>
      </trkpt>
      <trkpt lat="62.642238782338" lon="17.89190399539">
        <ele>51.8</ele>
        <time>2018-02-08T13:03:05Z</time>
      </trkpt>
      <trkpt lat="62.642222856728" lon="17.891911790557">
        <ele>52</ele>
        <time>2018-02-08T13:03:06Z</time>
      </trkpt>
      <trkpt lat="62.642206344385" lon="17.891919753362">
        <ele>52.2</ele>
        <time>2018-02-08T13:03:07Z</time>
      </trkpt>
      <trkpt lat="62.642189915861" lon="17.891926794158">
        <ele>52.6</ele>
        <time>2018-02-08T13:03:08Z</time>
      </trkpt>
      <trkpt lat="62.642173822613" lon="17.891934086411">
        <ele>52.6</ele>
        <time>2018-02-08T13:03:09Z</time>
      </trkpt>
      <trkpt lat="62.642157394089" lon="17.8919366848">
        <ele>53</ele>
        <time>2018-02-08T13:03:10Z</time>
      </trkpt>
      <trkpt lat="62.642142725764" lon="17.891936936257">
        <ele>53</ele>
        <time>2018-02-08T13:03:11Z</time>
      </trkpt>
      <trkpt lat="62.642124201765" lon="17.891939953741">
        <ele>53.4</ele>
        <time>2018-02-08T13:03:12Z</time>
      </trkpt>
      <trkpt lat="62.642108192336" lon="17.891942049216">
        <ele>53.6</ele>
        <time>2018-02-08T13:03:13Z</time>
      </trkpt>
      <trkpt lat="62.64209025507" lon="17.891946491623">
        <ele>53.8</ele>
        <time>2018-02-08T13:03:14Z</time>
      </trkpt>
      <trkpt lat="62.642076341116" lon="17.891951017849">
        <ele>54.2</ele>
        <time>2018-02-08T13:03:15Z</time>
      </trkpt>
      <trkpt lat="62.642063097714" lon="17.891953867695">
        <ele>54.4</ele>
        <time>2018-02-08T13:03:16Z</time>
      </trkpt>
      <trkpt lat="62.642047675018" lon="17.891958896835">
        <ele>54.8</ele>
        <time>2018-02-08T13:03:17Z</time>
      </trkpt>
      <trkpt lat="62.642030995037" lon="17.891958226283">
        <ele>54.8</ele>
        <time>2018-02-08T13:03:18Z</time>
      </trkpt>
      <trkpt lat="62.642012973952" lon="17.891961411405">
        <ele>55</ele>
        <time>2018-02-08T13:03:19Z</time>
      </trkpt>
      <trkpt lat="62.641996964523" lon="17.891965686174">
        <ele>55.2</ele>
        <time>2018-02-08T13:03:20Z</time>
      </trkpt>
      <trkpt lat="62.641979278714" lon="17.891970882952">
        <ele>55.4</ele>
        <time>2018-02-08T13:03:21Z</time>
      </trkpt>
      <trkpt lat="62.641962012" lon="17.891975744454">
        <ele>55.8</ele>
        <time>2018-02-08T13:03:22Z</time>
      </trkpt>
      <trkpt lat="62.641945080562" lon="17.891985383639">
        <ele>56</ele>
        <time>2018-02-08T13:03:23Z</time>
      </trkpt>
      <trkpt lat="62.641929825504" lon="17.892000722516">
        <ele>56.2</ele>
        <time>2018-02-08T13:03:24Z</time>
      </trkpt>
      <trkpt lat="62.641915408636" lon="17.89201547466">
        <ele>56.4</ele>
        <time>2018-02-08T13:03:25Z</time>
      </trkpt>
      <trkpt lat="62.641903422519" lon="17.892030729718">
        <ele>56.6</ele>
        <time>2018-02-08T13:03:26Z</time>
      </trkpt>
      <trkpt lat="62.641891268764" lon="17.892050008088">
        <ele>56.8</ele>
        <time>2018-02-08T13:03:27Z</time>
      </trkpt>
      <trkpt lat="62.641880623751" lon="17.892070459924">
        <ele>57</ele>
        <time>2018-02-08T13:03:28Z</time>
      </trkpt>
      <trkpt lat="62.641871068385" lon="17.8920959409">
        <ele>57.2</ele>
        <time>2018-02-08T13:03:29Z</time>
      </trkpt>
      <trkpt lat="62.641864362865" lon="17.892124187903">
        <ele>57.4</ele>
        <time>2018-02-08T13:03:30Z</time>
      </trkpt>
      <trkpt lat="62.641860926286" lon="17.892149920336">
        <ele>57.6</ele>
        <time>2018-02-08T13:03:31Z</time>
      </trkpt>
      <trkpt lat="62.641858746992" lon="17.89218227447">
        <ele>58</ele>
        <time>2018-02-08T13:03:32Z</time>
      </trkpt>
      <trkpt lat="62.641860758648" lon="17.892216975536">
        <ele>58.2</ele>
        <time>2018-02-08T13:03:33Z</time>
      </trkpt>
      <trkpt lat="62.641867128892" lon="17.892255197">
        <ele>58.4</ele>
        <time>2018-02-08T13:03:34Z</time>
      </trkpt>
      <trkpt lat="62.641872074213" lon="17.892285288021">
        <ele>58.6</ele>
        <time>2018-02-08T13:03:35Z</time>
      </trkpt>
      <trkpt lat="62.641877187172" lon="17.892335076507">
        <ele>58.8</ele>
        <time>2018-02-08T13:03:36Z</time>
      </trkpt>
      <trkpt lat="62.641882300131" lon="17.892381512233">
        <ele>59</ele>
        <time>2018-02-08T13:03:37Z</time>
      </trkpt>
      <trkpt lat="62.641887077814" lon="17.89243373147">
        <ele>59.2</ele>
        <time>2018-02-08T13:03:38Z</time>
      </trkpt>
      <trkpt lat="62.641891687859" lon="17.892484944879">
        <ele>59.4</ele>
        <time>2018-02-08T13:03:39Z</time>
      </trkpt>
      <trkpt lat="62.641893028963" lon="17.892528782216">
        <ele>59.4</ele>
        <time>2018-02-08T13:03:40Z</time>
      </trkpt>
      <trkpt lat="62.641892358411" lon="17.892560130522">
        <ele>59.4</ele>
        <time>2018-02-08T13:03:41Z</time>
      </trkpt>
      <trkpt lat="62.641891101126" lon="17.892602794393">
        <ele>59.6</ele>
        <time>2018-02-08T13:03:42Z</time>
      </trkpt>
      <trkpt lat="62.641891352583" lon="17.892639674753">
        <ele>59.6</ele>
        <time>2018-02-08T13:03:43Z</time>
      </trkpt>
      <trkpt lat="62.641881210484" lon="17.892672531801">
        <ele>59.8</ele>
        <time>2018-02-08T13:03:44Z</time>
      </trkpt>
      <trkpt lat="62.641877857724" lon="17.892704634478">
        <ele>59.8</ele>
        <time>2018-02-08T13:03:45Z</time>
      </trkpt>
      <trkpt lat="62.641878612095" lon="17.892731791834">
        <ele>60</ele>
        <time>2018-02-08T13:03:46Z</time>
      </trkpt>
      <trkpt lat="62.641880539932" lon="17.892761966674">
        <ele>60.4</ele>
        <time>2018-02-08T13:03:47Z</time>
      </trkpt>
      <trkpt lat="62.641881461941" lon="17.892784681623">
        <ele>60.6</ele>
        <time>2018-02-08T13:03:48Z</time>
      </trkpt>
      <trkpt lat="62.641878947371" lon="17.89281259335">
        <ele>60.8</ele>
        <time>2018-02-08T13:03:49Z</time>
      </trkpt>
      <trkpt lat="62.641874588783" lon="17.892828267503">
        <ele>61.2</ele>
        <time>2018-02-08T13:03:50Z</time>
      </trkpt>
      <trkpt lat="62.641873331498" lon="17.892847545873">
        <ele>61.6</ele>
        <time>2018-02-08T13:03:51Z</time>
      </trkpt>
      <trkpt lat="62.641876013706" lon="17.892874116496">
        <ele>61.6</ele>
        <time>2018-02-08T13:03:52Z</time>
      </trkpt>
      <trkpt lat="62.64187735481" lon="17.89289641235">
        <ele>62</ele>
        <time>2018-02-08T13:03:53Z</time>
      </trkpt>
      <trkpt lat="62.641877773905" lon="17.892911164494">
        <ele>62.2</ele>
        <time>2018-02-08T13:03:54Z</time>
      </trkpt>
      <trkpt lat="62.641873247679" lon="17.892923737344">
        <ele>62.4</ele>
        <time>2018-02-08T13:03:55Z</time>
      </trkpt>
      <trkpt lat="62.641871571299" lon="17.892945362646">
        <ele>62.6</ele>
        <time>2018-02-08T13:03:56Z</time>
      </trkpt>
      <trkpt lat="62.641870900747" lon="17.892965479206">
        <ele>63</ele>
        <time>2018-02-08T13:03:57Z</time>
      </trkpt>
      <trkpt lat="62.641870565471" lon="17.892964892473">
        <ele>63.2</ele>
        <time>2018-02-08T13:03:58Z</time>
      </trkpt>
      <trkpt lat="62.641869894919" lon="17.892988277974">
        <ele>63.4</ele>
        <time>2018-02-08T13:03:59Z</time>
      </trkpt>
      <trkpt lat="62.641867045073" lon="17.893007975439">
        <ele>63.6</ele>
        <time>2018-02-08T13:04:00Z</time>
      </trkpt>
      <trkpt lat="62.641865871607" lon="17.893025074515">
        <ele>63.8</ele>
        <time>2018-02-08T13:04:01Z</time>
      </trkpt>
      <trkpt lat="62.641865284874" lon="17.893039239926">
        <ele>64</ele>
        <time>2018-02-08T13:04:02Z</time>
      </trkpt>
      <trkpt lat="62.641863776132" lon="17.893052399509">
        <ele>64</ele>
        <time>2018-02-08T13:04:03Z</time>
      </trkpt>
      <trkpt lat="62.641862602666" lon="17.89307494682">
        <ele>64.2</ele>
        <time>2018-02-08T13:04:04Z</time>
      </trkpt>
      <trkpt lat="62.641859836639" lon="17.893094895742">
        <ele>64.4</ele>
        <time>2018-02-08T13:04:05Z</time>
      </trkpt>
      <trkpt lat="62.641857908802" lon="17.893116772501">
        <ele>64.6</ele>
        <time>2018-02-08T13:04:06Z</time>
      </trkpt>
      <trkpt lat="62.641855645689" lon="17.893137894889">
        <ele>64.6</ele>
        <time>2018-02-08T13:04:07Z</time>
      </trkpt>
      <trkpt lat="62.641854975137" lon="17.893158346725">
        <ele>65</ele>
        <time>2018-02-08T13:04:08Z</time>
      </trkpt>
      <trkpt lat="62.641850868006" lon="17.893184665891">
        <ele>65.2</ele>
        <time>2018-02-08T13:04:09Z</time>
      </trkpt>
      <trkpt lat="62.641845252133" lon="17.8932107336">
        <ele>65.6</ele>
        <time>2018-02-08T13:04:10Z</time>
      </trkpt>
      <trkpt lat="62.641838378975" lon="17.893234705834">
        <ele>66</ele>
        <time>2018-02-08T13:04:11Z</time>
      </trkpt>
      <trkpt lat="62.641832511645" lon="17.893262030828">
        <ele>66.4</ele>
        <time>2018-02-08T13:04:12Z</time>
      </trkpt>
      <trkpt lat="62.64182538703" lon="17.893290277831">
        <ele>66.8</ele>
        <time>2018-02-08T13:04:13Z</time>
      </trkpt>
      <trkpt lat="62.641819938795" lon="17.893313998608">
        <ele>67.2</ele>
        <time>2018-02-08T13:04:14Z</time>
      </trkpt>
      <trkpt lat="62.64181700513" lon="17.89334149124">
        <ele>67.4</ele>
        <time>2018-02-08T13:04:15Z</time>
      </trkpt>
      <trkpt lat="62.641809629058" lon="17.893386250586">
        <ele>67.6</ele>
        <time>2018-02-08T13:04:16Z</time>
      </trkpt>
      <trkpt lat="62.641803426452" lon="17.893420700195">
        <ele>67.8</ele>
        <time>2018-02-08T13:04:17Z</time>
      </trkpt>
      <trkpt lat="62.641796218018" lon="17.893456826184">
        <ele>67.8</ele>
        <time>2018-02-08T13:04:18Z</time>
      </trkpt>
      <trkpt lat="62.641787752299" lon="17.893492197802">
        <ele>67.8</ele>
        <time>2018-02-08T13:04:19Z</time>
      </trkpt>
      <trkpt lat="62.641779035123" lon="17.893523294651">
        <ele>67.8</ele>
        <time>2018-02-08T13:04:20Z</time>
      </trkpt>
      <trkpt lat="62.641774844173" lon="17.893548105075">
        <ele>68</ele>
        <time>2018-02-08T13:04:21Z</time>
      </trkpt>
      <trkpt lat="62.64177090468" lon="17.893581884132">
        <ele>68</ele>
        <time>2018-02-08T13:04:22Z</time>
      </trkpt>
      <trkpt lat="62.641767468101" lon="17.893601162502">
        <ele>68.2</ele>
        <time>2018-02-08T13:04:23Z</time>
      </trkpt>
      <trkpt lat="62.641761768409" lon="17.893627062573">
        <ele>68.4</ele>
        <time>2018-02-08T13:04:24Z</time>
      </trkpt>
      <trkpt lat="62.641756320174" lon="17.893655225757">
        <ele>68.6</ele>
        <time>2018-02-08T13:04:25Z</time>
      </trkpt>
      <trkpt lat="62.641751123396" lon="17.893692022298">
        <ele>68.8</ele>
        <time>2018-02-08T13:04:26Z</time>
      </trkpt>
      <trkpt lat="62.641747602998" lon="17.893733345065">
        <ele>69</ele>
        <time>2018-02-08T13:04:27Z</time>
      </trkpt>
      <trkpt lat="62.641750117568" lon="17.893772153262">
        <ele>69.2</ele>
        <time>2018-02-08T13:04:28Z</time>
      </trkpt>
      <trkpt lat="62.641750536663" lon="17.893805429405">
        <ele>69.4</ele>
        <time>2018-02-08T13:04:29Z</time>
      </trkpt>
      <trkpt lat="62.641762187504" lon="17.893841471575">
        <ele>69.8</ele>
        <time>2018-02-08T13:04:30Z</time>
      </trkpt>
      <trkpt lat="62.641773335431" lon="17.893873909528">
        <ele>70</ele>
        <time>2018-02-08T13:04:31Z</time>
      </trkpt>
      <trkpt lat="62.641790769783" lon="17.893915399933">
        <ele>70.2</ele>
        <time>2018-02-08T13:04:32Z</time>
      </trkpt>
      <trkpt lat="62.64181616694" lon="17.893948592257">
        <ele>70.2</ele>
        <time>2018-02-08T13:04:33Z</time>
      </trkpt>
      <trkpt lat="62.641849610721" lon="17.893973235043">
        <ele>70</ele>
        <time>2018-02-08T13:04:34Z</time>
      </trkpt>
      <trkpt lat="62.641884982339" lon="17.893980275839">
        <ele>69.6</ele>
        <time>2018-02-08T13:04:35Z</time>
      </trkpt>
      <trkpt lat="62.641928987314" lon="17.893978012726">
        <ele>69.2</ele>
        <time>2018-02-08T13:04:36Z</time>
      </trkpt>
      <trkpt lat="62.641973998117" lon="17.893972480672">
        <ele>68.8</ele>
        <time>2018-02-08T13:04:37Z</time>
      </trkpt>
      <trkpt lat="62.642016913445" lon="17.893960997469">
        <ele>68.2</ele>
        <time>2018-02-08T13:04:38Z</time>
      </trkpt>
      <trkpt lat="62.642061086058" lon="17.893952028836">
        <ele>67.6</ele>
        <time>2018-02-08T13:04:39Z</time>
      </trkpt>
      <trkpt lat="62.642104420481" lon="17.893957979985">
        <ele>67</ele>
        <time>2018-02-08T13:04:40Z</time>
      </trkpt>
      <trkpt lat="62.642142474307" lon="17.893979772925">
        <ele>66.4</ele>
        <time>2018-02-08T13:04:41Z</time>
      </trkpt>
      <trkpt lat="62.64218329416" lon="17.894025370461">
        <ele>65.8</ele>
        <time>2018-02-08T13:04:42Z</time>
      </trkpt>
      <trkpt lat="62.642204751824" lon="17.894088989082">
        <ele>65.2</ele>
        <time>2018-02-08T13:04:43Z</time>
      </trkpt>
      <trkpt lat="62.642217157036" lon="17.89415202097">
        <ele>64.8</ele>
        <time>2018-02-08T13:04:44Z</time>
      </trkpt>
      <trkpt lat="62.642224449289" lon="17.894209520804">
        <ele>64.6</ele>
        <time>2018-02-08T13:04:45Z</time>
      </trkpt>
      <trkpt lat="62.64222771823" lon="17.89425344196">
        <ele>64.4</ele>
        <time>2018-02-08T13:04:46Z</time>
      </trkpt>
      <trkpt lat="62.642229981343" lon="17.894300129143">
        <ele>64.2</ele>
        <time>2018-02-08T13:04:47Z</time>
      </trkpt>
      <trkpt lat="62.642232998827" lon="17.894370285646">
        <ele>64</ele>
        <time>2018-02-08T13:04:48Z</time>
      </trkpt>
      <trkpt lat="62.642237189777" lon="17.894458630872">
        <ele>64</ele>
        <time>2018-02-08T13:04:49Z</time>
      </trkpt>
      <trkpt lat="62.642235178121" lon="17.8945602195">
        <ele>63.8</ele>
        <time>2018-02-08T13:04:50Z</time>
      </trkpt>
      <trkpt lat="62.642220509796" lon="17.894673458969">
        <ele>63.4</ele>
        <time>2018-02-08T13:04:51Z</time>
      </trkpt>
      <trkpt lat="62.642205757652" lon="17.894797343451">
        <ele>62.8</ele>
        <time>2018-02-08T13:04:52Z</time>
      </trkpt>
      <trkpt lat="62.642185641092" lon="17.89491645025">
        <ele>62</ele>
        <time>2018-02-08T13:04:53Z</time>
      </trkpt>
      <trkpt lat="62.642171140405" lon="17.895042681664">
        <ele>60.8</ele>
        <time>2018-02-08T13:04:54Z</time>
      </trkpt>
      <trkpt lat="62.642162758505" lon="17.895169080716">
        <ele>59.6</ele>
        <time>2018-02-08T13:04:55Z</time>
      </trkpt>
      <trkpt lat="62.642166111265" lon="17.89530704679">
        <ele>58.6</ele>
        <time>2018-02-08T13:04:56Z</time>
      </trkpt>
      <trkpt lat="62.642171475681" lon="17.895489688391">
        <ele>57.8</ele>
        <time>2018-02-08T13:04:57Z</time>
      </trkpt>
      <trkpt lat="62.642163596695" lon="17.89566914487">
        <ele>56.6</ele>
        <time>2018-02-08T13:04:58Z</time>
      </trkpt>
      <trkpt lat="62.642146832895" lon="17.895829322979">
        <ele>55.6</ele>
        <time>2018-02-08T13:04:59Z</time>
      </trkpt>
      <trkpt lat="62.64212462086" lon="17.895999224092">
        <ele>54.4</ele>
        <time>2018-02-08T13:05:00Z</time>
      </trkpt>
      <trkpt lat="62.642098301694" lon="17.89614188403">
        <ele>53.6</ele>
        <time>2018-02-08T13:05:01Z</time>
      </trkpt>
      <trkpt lat="62.642064690275" lon="17.896295440438">
        <ele>52.6</ele>
        <time>2018-02-08T13:05:02Z</time>
      </trkpt>
      <trkpt lat="62.642030995037" lon="17.89643022139">
        <ele>51.8</ele>
        <time>2018-02-08T13:05:03Z</time>
      </trkpt>
      <trkpt lat="62.642001658387" lon="17.896556871899">
        <ele>51.4</ele>
        <time>2018-02-08T13:05:04Z</time>
      </trkpt>
      <trkpt lat="62.641974417212" lon="17.896682097485">
        <ele>51</ele>
        <time>2018-02-08T13:05:05Z</time>
      </trkpt>
      <trkpt lat="62.641951366987" lon="17.896813525677">
        <ele>50.8</ele>
        <time>2018-02-08T13:05:06Z</time>
      </trkpt>
      <trkpt lat="62.641935525196" lon="17.896950821199">
        <ele>50.6</ele>
        <time>2018-02-08T13:05:07Z</time>
      </trkpt>
      <trkpt lat="62.641922700889" lon="17.89709406787">
        <ele>50.6</ele>
        <time>2018-02-08T13:05:08Z</time>
      </trkpt>
      <trkpt lat="62.641910630953" lon="17.897242762776">
        <ele>50.4</ele>
        <time>2018-02-08T13:05:09Z</time>
      </trkpt>
      <trkpt lat="62.641900907949" lon="17.897391876777">
        <ele>50.2</ele>
        <time>2018-02-08T13:05:10Z</time>
      </trkpt>
      <trkpt lat="62.641892358411" lon="17.89752489753">
        <ele>49.8</ele>
        <time>2018-02-08T13:05:11Z</time>
      </trkpt>
      <trkpt lat="62.641882300131" lon="17.897691529702">
        <ele>49.2</ele>
        <time>2018-02-08T13:05:12Z</time>
      </trkpt>
      <trkpt lat="62.641871906575" lon="17.897821113876">
        <ele>48.6</ele>
        <time>2018-02-08T13:05:13Z</time>
      </trkpt>
      <trkpt lat="62.64186310558" lon="17.897948267299">
        <ele>48</ele>
        <time>2018-02-08T13:05:14Z</time>
      </trkpt>
      <trkpt lat="62.641854891318" lon="17.898046084072">
        <ele>47.8</ele>
        <time>2018-02-08T13:05:15Z</time>
      </trkpt>
      <trkpt lat="62.641851287101" lon="17.89813509985">
        <ele>47.8</ele>
        <time>2018-02-08T13:05:16Z</time>
      </trkpt>
      <trkpt lat="62.641847096151" lon="17.898223612714">
        <ele>48</ele>
        <time>2018-02-08T13:05:17Z</time>
      </trkpt>
      <trkpt lat="62.641845755047" lon="17.898310784474">
        <ele>48.4</ele>
        <time>2018-02-08T13:05:18Z</time>
      </trkpt>
      <trkpt lat="62.64184550359" lon="17.898374403095">
        <ele>48.8</ele>
        <time>2018-02-08T13:05:19Z</time>
      </trkpt>
      <trkpt lat="62.641845838866" lon="17.898432322024">
        <ele>48.8</ele>
        <time>2018-02-08T13:05:20Z</time>
      </trkpt>
      <trkpt lat="62.641841145002" lon="17.898495186274">
        <ele>49.2</ele>
        <time>2018-02-08T13:05:21Z</time>
      </trkpt>
      <trkpt lat="62.641836032043" lon="17.898565761872">
        <ele>49.4</ele>
        <time>2018-02-08T13:05:22Z</time>
      </trkpt>
      <trkpt lat="62.641835696767" lon="17.898617813471">
        <ele>49.6</ele>
        <time>2018-02-08T13:05:23Z</time>
      </trkpt>
      <trkpt lat="62.641836199681" lon="17.898663746283">
        <ele>49.8</ele>
        <time>2018-02-08T13:05:24Z</time>
      </trkpt>
      <trkpt lat="62.641827314867" lon="17.898717725719">
        <ele>49.8</ele>
        <time>2018-02-08T13:05:25Z</time>
      </trkpt>
      <trkpt lat="62.641817675682" lon="17.89877799158">
        <ele>50</ele>
        <time>2018-02-08T13:05:26Z</time>
      </trkpt>
      <trkpt lat="62.641805102832" lon="17.898840436735">
        <ele>50</ele>
        <time>2018-02-08T13:05:27Z</time>
      </trkpt>
      <trkpt lat="62.641797140027" lon="17.898884609348">
        <ele>50.2</ele>
        <time>2018-02-08T13:05:28Z</time>
      </trkpt>
      <trkpt lat="62.641785740643" lon="17.898929033418">
        <ele>50.2</ele>
        <time>2018-02-08T13:05:29Z</time>
      </trkpt>
      <trkpt lat="62.641767803377" lon="17.898986281795">
        <ele>50.4</ele>
        <time>2018-02-08T13:05:30Z</time>
      </trkpt>
      <trkpt lat="62.641752967414" lon="17.899028191295">
        <ele>50.6</ele>
        <time>2018-02-08T13:05:31Z</time>
      </trkpt>
      <trkpt lat="62.641740646021" lon="17.899063982008">
        <ele>50.6</ele>
        <time>2018-02-08T13:05:32Z</time>
      </trkpt>
    </trkseg>
  </trk>
</gpx>